<?xml version="1.0" encoding="UTF-8" standalone="no" ?>
<gpx xmlns="http://www.topografix.com/GPX/1/1" xmlns:xsi="http://www.w3.org/2001/XMLSchema-instance" xsi:schemaLocation="http://www.topografix.com/GPX/1/1 http://www.topografix.com/GPX/1/1/gpx.xsd" version="1.1" creator="VisuGPX - https://www.visugpx.com">
  <metadata>
    <name>Edirne-Mostar</name>
  </metadata>
  <trk>
    <name><![CDATA[Tour d'Europe: étape 713]]></name>
    <extensions>
      <line xmlns="http://www.topografix.com/GPX/gpx_style/0/2">
        <color>00FF00</color>
        <width>4</width>
      </line>
    </extensions>
    <trkseg>
      <trkpt lat="42.84719" lon="17.97979">
        <ele>313.263002</ele>
        <time>2022-06-11T08:03:25.832Z</time>
      </trkpt>
      <trkpt lat="42.8474" lon="17.97981">
        <ele>313.263002</ele>
        <time>2022-06-11T08:14:46.127Z</time>
      </trkpt>
      <trkpt lat="42.8475" lon="17.97989">
        <ele>313.263002</ele>
        <time>2022-06-11T08:14:50.089Z</time>
      </trkpt>
      <trkpt lat="42.84761" lon="17.9799">
        <ele>313.263002</ele>
        <time>2022-06-11T08:14:53.052Z</time>
      </trkpt>
      <trkpt lat="42.84771" lon="17.97987">
        <ele>313.263002</ele>
        <time>2022-06-11T08:14:56.024Z</time>
      </trkpt>
      <trkpt lat="42.84782" lon="17.97985">
        <ele>313.263002</ele>
        <time>2022-06-11T08:14:59.006Z</time>
      </trkpt>
      <trkpt lat="42.84792" lon="17.97983">
        <ele>313.263002</ele>
        <time>2022-06-11T08:15:02.028Z</time>
      </trkpt>
      <trkpt lat="42.84803" lon="17.97982">
        <ele>313.263002</ele>
        <time>2022-06-11T08:15:05.022Z</time>
      </trkpt>
      <trkpt lat="42.84813" lon="17.97982">
        <ele>313.242462</ele>
        <time>2022-06-11T08:15:08.128Z</time>
      </trkpt>
      <trkpt lat="42.84823" lon="17.97983">
        <ele>313.209649</ele>
        <time>2022-06-11T08:15:11.019Z</time>
      </trkpt>
      <trkpt lat="42.84833" lon="17.97985">
        <ele>313.1769</ele>
        <time>2022-06-11T08:15:14.010Z</time>
      </trkpt>
      <trkpt lat="42.84843" lon="17.97986">
        <ele>313.143129</ele>
        <time>2022-06-11T08:15:17.015Z</time>
      </trkpt>
      <trkpt lat="42.84854" lon="17.97988">
        <ele>313.108862</ele>
        <time>2022-06-11T08:15:20.005Z</time>
      </trkpt>
      <trkpt lat="42.84864" lon="17.9799">
        <ele>313.076076</ele>
        <time>2022-06-11T08:15:23.017Z</time>
      </trkpt>
      <trkpt lat="42.84875" lon="17.97994">
        <ele>313.039527</ele>
        <time>2022-06-11T08:15:27.012Z</time>
      </trkpt>
      <trkpt lat="42.84884" lon="17.97999">
        <ele>313.007291</ele>
        <time>2022-06-11T08:15:31.013Z</time>
      </trkpt>
      <trkpt lat="42.84893" lon="17.98003">
        <ele>312.975623</ele>
        <time>2022-06-11T08:15:35.020Z</time>
      </trkpt>
      <trkpt lat="42.84903" lon="17.98007">
        <ele>312.940865</ele>
        <time>2022-06-11T08:15:39.022Z</time>
      </trkpt>
      <trkpt lat="42.84912" lon="17.98015">
        <ele>312.906272</ele>
        <time>2022-06-11T08:15:43.016Z</time>
      </trkpt>
      <trkpt lat="42.84921" lon="17.98025">
        <ele>312.869289</ele>
        <time>2022-06-11T08:15:47.012Z</time>
      </trkpt>
      <trkpt lat="42.84929" lon="17.98034">
        <ele>312.83493</ele>
        <time>2022-06-11T08:15:51.023Z</time>
      </trkpt>
      <trkpt lat="42.84936" lon="17.98046">
        <ele>312.797805</ele>
        <time>2022-06-11T08:15:55.019Z</time>
      </trkpt>
      <trkpt lat="42.84943" lon="17.98057">
        <ele>312.762823</ele>
        <time>2022-06-11T08:15:59.048Z</time>
      </trkpt>
      <trkpt lat="42.84951" lon="17.98068">
        <ele>312.725966</ele>
        <time>2022-06-11T08:16:03.028Z</time>
      </trkpt>
      <trkpt lat="42.84959" lon="17.98079">
        <ele>312.68832</ele>
        <time>2022-06-11T08:16:07.022Z</time>
      </trkpt>
      <trkpt lat="42.84967" lon="17.98088">
        <ele>312.634382</ele>
        <time>2022-06-11T08:16:11.021Z</time>
      </trkpt>
      <trkpt lat="42.84976" lon="17.98095">
        <ele>312.566219</ele>
        <time>2022-06-11T08:16:15.033Z</time>
      </trkpt>
      <trkpt lat="42.84986" lon="17.98101">
        <ele>312.495904</ele>
        <time>2022-06-11T08:16:19.013Z</time>
      </trkpt>
      <trkpt lat="42.84995" lon="17.98107">
        <ele>312.4286</ele>
        <time>2022-06-11T08:16:23.017Z</time>
      </trkpt>
      <trkpt lat="42.85005" lon="17.98112">
        <ele>312.357792</ele>
        <time>2022-06-11T08:16:27.051Z</time>
      </trkpt>
      <trkpt lat="42.85015" lon="17.98118">
        <ele>312.285652</ele>
        <time>2022-06-11T08:16:31.044Z</time>
      </trkpt>
      <trkpt lat="42.85024" lon="17.98124">
        <ele>312.217154</ele>
        <time>2022-06-11T08:16:35.021Z</time>
      </trkpt>
      <trkpt lat="42.85034" lon="17.98129">
        <ele>312.149772</ele>
        <time>2022-06-11T08:16:39.054Z</time>
      </trkpt>
      <trkpt lat="42.85044" lon="17.98136">
        <ele>312.074453</ele>
        <time>2022-06-11T08:16:43.018Z</time>
      </trkpt>
      <trkpt lat="42.85053" lon="17.98145">
        <ele>311.998114</ele>
        <time>2022-06-11T08:16:47.016Z</time>
      </trkpt>
      <trkpt lat="42.85064" lon="17.98152">
        <ele>311.924013</ele>
        <time>2022-06-11T08:16:51.032Z</time>
      </trkpt>
      <trkpt lat="42.85074" lon="17.98157">
        <ele>311.8529</ele>
        <time>2022-06-11T08:16:55.059Z</time>
      </trkpt>
      <trkpt lat="42.85083" lon="17.98162">
        <ele>311.783225</ele>
        <time>2022-06-11T08:16:59.065Z</time>
      </trkpt>
      <trkpt lat="42.85093" lon="17.98167">
        <ele>311.717863</ele>
        <time>2022-06-11T08:17:03.031Z</time>
      </trkpt>
      <trkpt lat="42.85102" lon="17.98173">
        <ele>311.652136</ele>
        <time>2022-06-11T08:17:07.073Z</time>
      </trkpt>
      <trkpt lat="42.8511" lon="17.98178">
        <ele>311.588601</ele>
        <time>2022-06-11T08:17:11.018Z</time>
      </trkpt>
      <trkpt lat="42.85119" lon="17.98183">
        <ele>311.528492</ele>
        <time>2022-06-11T08:17:15.017Z</time>
      </trkpt>
      <trkpt lat="42.8513" lon="17.98187">
        <ele>311.628653</ele>
        <time>2022-06-11T08:17:20.056Z</time>
      </trkpt>
      <trkpt lat="42.85139" lon="17.98192">
        <ele>311.919748</ele>
        <time>2022-06-11T08:17:25.014Z</time>
      </trkpt>
      <trkpt lat="42.85149" lon="17.98195">
        <ele>312.190387</ele>
        <time>2022-06-11T08:17:29.066Z</time>
      </trkpt>
      <trkpt lat="42.85158" lon="17.98198">
        <ele>312.458827</ele>
        <time>2022-06-11T08:17:33.023Z</time>
      </trkpt>
      <trkpt lat="42.85167" lon="17.98201">
        <ele>312.737786</ele>
        <time>2022-06-11T08:17:37.043Z</time>
      </trkpt>
      <trkpt lat="42.85177" lon="17.98204">
        <ele>313.014952</ele>
        <time>2022-06-11T08:17:41.024Z</time>
      </trkpt>
      <trkpt lat="42.85187" lon="17.98207">
        <ele>313.29165</ele>
        <time>2022-06-11T08:17:45.008Z</time>
      </trkpt>
      <trkpt lat="42.85196" lon="17.9821">
        <ele>313.562861</ele>
        <time>2022-06-11T08:17:49.044Z</time>
      </trkpt>
      <trkpt lat="42.85205" lon="17.98213">
        <ele>313.833667</ele>
        <time>2022-06-11T08:17:53.014Z</time>
      </trkpt>
      <trkpt lat="42.85216" lon="17.98216">
        <ele>314.15179</ele>
        <time>2022-06-11T08:17:58.022Z</time>
      </trkpt>
      <trkpt lat="42.85226" lon="17.98219">
        <ele>314.425249</ele>
        <time>2022-06-11T08:18:02.029Z</time>
      </trkpt>
      <trkpt lat="42.85236" lon="17.98223">
        <ele>314.722159</ele>
        <time>2022-06-11T08:18:07.022Z</time>
      </trkpt>
      <trkpt lat="42.85246" lon="17.98226">
        <ele>315.011683</ele>
        <time>2022-06-11T08:18:12.031Z</time>
      </trkpt>
      <trkpt lat="42.85255" lon="17.98229">
        <ele>315.292478</ele>
        <time>2022-06-11T08:18:17.028Z</time>
      </trkpt>
      <trkpt lat="42.85265" lon="17.98231">
        <ele>315.579588</ele>
        <time>2022-06-11T08:18:22.019Z</time>
      </trkpt>
      <trkpt lat="42.85276" lon="17.98233">
        <ele>315.889812</ele>
        <time>2022-06-11T08:18:27.027Z</time>
      </trkpt>
      <trkpt lat="42.85287" lon="17.98234">
        <ele>316.182945</ele>
        <time>2022-06-11T08:18:32.034Z</time>
      </trkpt>
      <trkpt lat="42.85296" lon="17.98236">
        <ele>316.441271</ele>
        <time>2022-06-11T08:18:36.024Z</time>
      </trkpt>
      <trkpt lat="42.85305" lon="17.98237">
        <ele>316.636826</ele>
        <time>2022-06-11T08:18:40.022Z</time>
      </trkpt>
      <trkpt lat="42.85316" lon="17.98237">
        <ele>316.79217</ele>
        <time>2022-06-11T08:18:45.021Z</time>
      </trkpt>
      <trkpt lat="42.85327" lon="17.98238">
        <ele>316.940553</ele>
        <time>2022-06-11T08:18:50.035Z</time>
      </trkpt>
      <trkpt lat="42.85337" lon="17.98238">
        <ele>317.086091</ele>
        <time>2022-06-11T08:18:55.070Z</time>
      </trkpt>
      <trkpt lat="42.85348" lon="17.98238">
        <ele>317.228846</ele>
        <time>2022-06-11T08:19:00.028Z</time>
      </trkpt>
      <trkpt lat="42.85358" lon="17.98236">
        <ele>317.374968</ele>
        <time>2022-06-11T08:19:05.030Z</time>
      </trkpt>
      <trkpt lat="42.85368" lon="17.98236">
        <ele>317.517752</ele>
        <time>2022-06-11T08:19:10.029Z</time>
      </trkpt>
      <trkpt lat="42.85379" lon="17.98236">
        <ele>317.667488</ele>
        <time>2022-06-11T08:19:15.062Z</time>
      </trkpt>
      <trkpt lat="42.8539" lon="17.98235">
        <ele>317.816065</ele>
        <time>2022-06-11T08:19:20.040Z</time>
      </trkpt>
      <trkpt lat="42.85401" lon="17.98234">
        <ele>317.97156</ele>
        <time>2022-06-11T08:19:25.031Z</time>
      </trkpt>
      <trkpt lat="42.85411" lon="17.98233">
        <ele>318.101937</ele>
        <time>2022-06-11T08:19:29.020Z</time>
      </trkpt>
      <trkpt lat="42.8542" lon="17.98232">
        <ele>318.232989</ele>
        <time>2022-06-11T08:19:33.029Z</time>
      </trkpt>
      <trkpt lat="42.85429" lon="17.9823">
        <ele>318.359057</ele>
        <time>2022-06-11T08:19:37.035Z</time>
      </trkpt>
      <trkpt lat="42.85438" lon="17.98228">
        <ele>318.485277</ele>
        <time>2022-06-11T08:19:41.048Z</time>
      </trkpt>
      <trkpt lat="42.85448" lon="17.98226">
        <ele>318.629768</ele>
        <time>2022-06-11T08:19:46.022Z</time>
      </trkpt>
      <trkpt lat="42.85459" lon="17.98225">
        <ele>318.77589</ele>
        <time>2022-06-11T08:19:51.042Z</time>
      </trkpt>
      <trkpt lat="42.85469" lon="17.98221">
        <ele>318.918426</ele>
        <time>2022-06-11T08:19:56.069Z</time>
      </trkpt>
      <trkpt lat="42.85479" lon="17.98216">
        <ele>319.066037</ele>
        <time>2022-06-11T08:20:01.035Z</time>
      </trkpt>
      <trkpt lat="42.85487" lon="17.98212">
        <ele>319.154618</ele>
        <time>2022-06-11T08:20:05.027Z</time>
      </trkpt>
      <trkpt lat="42.85497" lon="17.98205">
        <ele>319.261619</ele>
        <time>2022-06-11T08:20:10.018Z</time>
      </trkpt>
      <trkpt lat="42.85506" lon="17.982">
        <ele>319.350742</ele>
        <time>2022-06-11T08:20:14.043Z</time>
      </trkpt>
      <trkpt lat="42.85515" lon="17.98193">
        <ele>319.456489</ele>
        <time>2022-06-11T08:20:19.033Z</time>
      </trkpt>
      <trkpt lat="42.85525" lon="17.98186">
        <ele>319.559283</ele>
        <time>2022-06-11T08:20:24.067Z</time>
      </trkpt>
      <trkpt lat="42.85533" lon="17.98176">
        <ele>319.666983</ele>
        <time>2022-06-11T08:20:29.028Z</time>
      </trkpt>
      <trkpt lat="42.8554" lon="17.98167">
        <ele>319.75581</ele>
        <time>2022-06-11T08:20:33.008Z</time>
      </trkpt>
      <trkpt lat="42.85547" lon="17.9816">
        <ele>319.845314</ele>
        <time>2022-06-11T08:20:37.032Z</time>
      </trkpt>
      <trkpt lat="42.85556" lon="17.98151">
        <ele>319.947529</ele>
        <time>2022-06-11T08:20:42.026Z</time>
      </trkpt>
      <trkpt lat="42.85564" lon="17.98142">
        <ele>320.046442</ele>
        <time>2022-06-11T08:20:47.012Z</time>
      </trkpt>
      <trkpt lat="42.85572" lon="17.98134">
        <ele>320.147527</ele>
        <time>2022-06-11T08:20:52.024Z</time>
      </trkpt>
      <trkpt lat="42.8558" lon="17.98124">
        <ele>320.248422</ele>
        <time>2022-06-11T08:20:57.054Z</time>
      </trkpt>
      <trkpt lat="42.85587" lon="17.98116">
        <ele>320.33796</ele>
        <time>2022-06-11T08:21:01.025Z</time>
      </trkpt>
      <trkpt lat="42.85595" lon="17.98108">
        <ele>320.430335</ele>
        <time>2022-06-11T08:21:05.080Z</time>
      </trkpt>
      <trkpt lat="42.85602" lon="17.981">
        <ele>320.517492</ele>
        <time>2022-06-11T08:21:09.025Z</time>
      </trkpt>
      <trkpt lat="42.8561" lon="17.98091">
        <ele>320.618154</ele>
        <time>2022-06-11T08:21:14.075Z</time>
      </trkpt>
      <trkpt lat="42.85618" lon="17.98082">
        <ele>320.723347</ele>
        <time>2022-06-11T08:21:19.027Z</time>
      </trkpt>
      <trkpt lat="42.85626" lon="17.98074">
        <ele>320.855358</ele>
        <time>2022-06-11T08:21:23.022Z</time>
      </trkpt>
      <trkpt lat="42.85633" lon="17.98066">
        <ele>321.121235</ele>
        <time>2022-06-11T08:21:27.040Z</time>
      </trkpt>
      <trkpt lat="42.85641" lon="17.98058">
        <ele>321.39104</ele>
        <time>2022-06-11T08:21:31.052Z</time>
      </trkpt>
      <trkpt lat="42.85649" lon="17.98051">
        <ele>321.650125</ele>
        <time>2022-06-11T08:21:35.062Z</time>
      </trkpt>
      <trkpt lat="42.85657" lon="17.98045">
        <ele>321.921664</ele>
        <time>2022-06-11T08:21:39.019Z</time>
      </trkpt>
      <trkpt lat="42.85665" lon="17.98036">
        <ele>322.230733</ele>
        <time>2022-06-11T08:21:44.032Z</time>
      </trkpt>
      <trkpt lat="42.85673" lon="17.98027">
        <ele>322.531675</ele>
        <time>2022-06-11T08:21:49.029Z</time>
      </trkpt>
      <trkpt lat="42.85683" lon="17.98025">
        <ele>322.819288</ele>
        <time>2022-06-11T08:21:54.022Z</time>
      </trkpt>
      <trkpt lat="42.85693" lon="17.98025">
        <ele>323.105796</ele>
        <time>2022-06-11T08:22:00.028Z</time>
      </trkpt>
      <trkpt lat="42.85704" lon="17.98022">
        <ele>323.420552</ele>
        <time>2022-06-11T08:22:05.024Z</time>
      </trkpt>
      <trkpt lat="42.85714" lon="17.98021">
        <ele>323.713348</ele>
        <time>2022-06-11T08:22:10.043Z</time>
      </trkpt>
      <trkpt lat="42.85725" lon="17.98022">
        <ele>324.00576</ele>
        <time>2022-06-11T08:22:15.016Z</time>
      </trkpt>
      <trkpt lat="42.85736" lon="17.98021">
        <ele>324.326544</ele>
        <time>2022-06-11T08:22:20.015Z</time>
      </trkpt>
      <trkpt lat="42.85745" lon="17.98021">
        <ele>324.587226</ele>
        <time>2022-06-11T08:22:24.017Z</time>
      </trkpt>
      <trkpt lat="42.85755" lon="17.98022">
        <ele>324.877022</ele>
        <time>2022-06-11T08:22:29.027Z</time>
      </trkpt>
      <trkpt lat="42.85766" lon="17.98024">
        <ele>325.197593</ele>
        <time>2022-06-11T08:22:34.029Z</time>
      </trkpt>
      <trkpt lat="42.85776" lon="17.98025">
        <ele>325.470757</ele>
        <time>2022-06-11T08:22:38.022Z</time>
      </trkpt>
      <trkpt lat="42.85786" lon="17.98026">
        <ele>325.75459</ele>
        <time>2022-06-11T08:22:42.022Z</time>
      </trkpt>
      <trkpt lat="42.85795" lon="17.98026">
        <ele>325.904665</ele>
        <time>2022-06-11T08:22:46.036Z</time>
      </trkpt>
      <trkpt lat="42.85805" lon="17.98027">
        <ele>325.747526</ele>
        <time>2022-06-11T08:22:50.040Z</time>
      </trkpt>
      <trkpt lat="42.85815" lon="17.98026">
        <ele>325.593397</ele>
        <time>2022-06-11T08:22:54.031Z</time>
      </trkpt>
      <trkpt lat="42.85824" lon="17.98025">
        <ele>325.451449</ele>
        <time>2022-06-11T08:22:58.050Z</time>
      </trkpt>
      <trkpt lat="42.85835" lon="17.98024">
        <ele>325.277795</ele>
        <time>2022-06-11T08:23:03.070Z</time>
      </trkpt>
      <trkpt lat="42.85844" lon="17.98021">
        <ele>325.138605</ele>
        <time>2022-06-11T08:23:07.027Z</time>
      </trkpt>
      <trkpt lat="42.85855" lon="17.98017">
        <ele>324.965998</ele>
        <time>2022-06-11T08:23:12.023Z</time>
      </trkpt>
      <trkpt lat="42.85865" lon="17.98012">
        <ele>324.798251</ele>
        <time>2022-06-11T08:23:17.031Z</time>
      </trkpt>
      <trkpt lat="42.85874" lon="17.98006">
        <ele>324.63821</ele>
        <time>2022-06-11T08:23:22.044Z</time>
      </trkpt>
      <trkpt lat="42.85883" lon="17.97999">
        <ele>324.481421</ele>
        <time>2022-06-11T08:23:27.038Z</time>
      </trkpt>
      <trkpt lat="42.85892" lon="17.97991">
        <ele>324.31292</ele>
        <time>2022-06-11T08:23:32.012Z</time>
      </trkpt>
      <trkpt lat="42.85899" lon="17.9798">
        <ele>324.149362</ele>
        <time>2022-06-11T08:23:37.058Z</time>
      </trkpt>
      <trkpt lat="42.85905" lon="17.97969">
        <ele>323.983693</ele>
        <time>2022-06-11T08:23:42.035Z</time>
      </trkpt>
      <trkpt lat="42.85911" lon="17.97956">
        <ele>323.816215</ele>
        <time>2022-06-11T08:23:47.048Z</time>
      </trkpt>
      <trkpt lat="42.85916" lon="17.97945">
        <ele>323.667272</ele>
        <time>2022-06-11T08:23:51.030Z</time>
      </trkpt>
      <trkpt lat="42.8592" lon="17.97932">
        <ele>323.505659</ele>
        <time>2022-06-11T08:23:56.032Z</time>
      </trkpt>
      <trkpt lat="42.85923" lon="17.97919">
        <ele>323.345225</ele>
        <time>2022-06-11T08:24:01.029Z</time>
      </trkpt>
      <trkpt lat="42.85926" lon="17.97905">
        <ele>323.183476</ele>
        <time>2022-06-11T08:24:06.040Z</time>
      </trkpt>
      <trkpt lat="42.85927" lon="17.97893">
        <ele>323.228316</ele>
        <time>2022-06-11T08:24:10.028Z</time>
      </trkpt>
      <trkpt lat="42.85928" lon="17.9788">
        <ele>323.340276</ele>
        <time>2022-06-11T08:24:14.018Z</time>
      </trkpt>
      <trkpt lat="42.85928" lon="17.97866">
        <ele>323.458735</ele>
        <time>2022-06-11T08:24:19.043Z</time>
      </trkpt>
      <trkpt lat="42.85927" lon="17.97852">
        <ele>323.57743</ele>
        <time>2022-06-11T08:24:24.022Z</time>
      </trkpt>
      <trkpt lat="42.85925" lon="17.97839">
        <ele>323.688099</ele>
        <time>2022-06-11T08:24:29.033Z</time>
      </trkpt>
      <trkpt lat="42.85921" lon="17.97826">
        <ele>323.811283</ele>
        <time>2022-06-11T08:24:34.038Z</time>
      </trkpt>
      <trkpt lat="42.85918" lon="17.97811">
        <ele>323.937863</ele>
        <time>2022-06-11T08:24:39.048Z</time>
      </trkpt>
      <trkpt lat="42.85915" lon="17.97797">
        <ele>324.059158</ele>
        <time>2022-06-11T08:24:44.028Z</time>
      </trkpt>
      <trkpt lat="42.85911" lon="17.97784">
        <ele>324.177796</ele>
        <time>2022-06-11T08:24:49.028Z</time>
      </trkpt>
      <trkpt lat="42.85908" lon="17.97773">
        <ele>324.281857</ele>
        <time>2022-06-11T08:24:53.026Z</time>
      </trkpt>
      <trkpt lat="42.85904" lon="17.9776">
        <ele>324.403474</ele>
        <time>2022-06-11T08:24:58.041Z</time>
      </trkpt>
      <trkpt lat="42.859" lon="17.97748">
        <ele>324.510395</ele>
        <time>2022-06-11T08:25:03.032Z</time>
      </trkpt>
      <trkpt lat="42.85896" lon="17.97737">
        <ele>324.614871</ele>
        <time>2022-06-11T08:25:08.066Z</time>
      </trkpt>
      <trkpt lat="42.85893" lon="17.97725">
        <ele>324.719347</ele>
        <time>2022-06-11T08:25:13.013Z</time>
      </trkpt>
      <trkpt lat="42.85891" lon="17.97711">
        <ele>324.843988</ele>
        <time>2022-06-11T08:25:18.054Z</time>
      </trkpt>
      <trkpt lat="42.85889" lon="17.97697">
        <ele>324.962774</ele>
        <time>2022-06-11T08:25:23.025Z</time>
      </trkpt>
      <trkpt lat="42.85887" lon="17.97682">
        <ele>325.093627</ele>
        <time>2022-06-11T08:25:28.031Z</time>
      </trkpt>
      <trkpt lat="42.85886" lon="17.97669">
        <ele>325.199884</ele>
        <time>2022-06-11T08:25:32.061Z</time>
      </trkpt>
      <trkpt lat="42.85886" lon="17.97657">
        <ele>325.32866</ele>
        <time>2022-06-11T08:25:36.027Z</time>
      </trkpt>
      <trkpt lat="42.85888" lon="17.97642">
        <ele>325.48568</ele>
        <time>2022-06-11T08:25:41.023Z</time>
      </trkpt>
      <trkpt lat="42.85892" lon="17.97629">
        <ele>325.637149</ele>
        <time>2022-06-11T08:25:46.030Z</time>
      </trkpt>
      <trkpt lat="42.85894" lon="17.97615">
        <ele>325.784277</ele>
        <time>2022-06-11T08:25:51.029Z</time>
      </trkpt>
      <trkpt lat="42.85897" lon="17.97603">
        <ele>325.923336</ele>
        <time>2022-06-11T08:25:56.062Z</time>
      </trkpt>
      <trkpt lat="42.85904" lon="17.97592">
        <ele>326.06374</ele>
        <time>2022-06-11T08:26:01.025Z</time>
      </trkpt>
      <trkpt lat="42.85909" lon="17.97581">
        <ele>326.201974</ele>
        <time>2022-06-11T08:26:06.077Z</time>
      </trkpt>
      <trkpt lat="42.85914" lon="17.9757">
        <ele>326.336512</ele>
        <time>2022-06-11T08:26:11.051Z</time>
      </trkpt>
      <trkpt lat="42.85919" lon="17.97559">
        <ele>326.476872</ele>
        <time>2022-06-11T08:26:16.019Z</time>
      </trkpt>
      <trkpt lat="42.85924" lon="17.97549">
        <ele>326.609108</ele>
        <time>2022-06-11T08:26:20.034Z</time>
      </trkpt>
      <trkpt lat="42.85931" lon="17.97537">
        <ele>326.763221</ele>
        <time>2022-06-11T08:26:25.034Z</time>
      </trkpt>
      <trkpt lat="42.85937" lon="17.97526">
        <ele>326.915423</ele>
        <time>2022-06-11T08:26:30.045Z</time>
      </trkpt>
      <trkpt lat="42.85943" lon="17.97513">
        <ele>327.07284</ele>
        <time>2022-06-11T08:26:35.006Z</time>
      </trkpt>
      <trkpt lat="42.8595" lon="17.97501">
        <ele>327.231826</ele>
        <time>2022-06-11T08:26:40.007Z</time>
      </trkpt>
      <trkpt lat="42.85956" lon="17.97491">
        <ele>327.3756</ele>
        <time>2022-06-11T08:26:44.011Z</time>
      </trkpt>
      <trkpt lat="42.85962" lon="17.97479">
        <ele>327.520193</ele>
        <time>2022-06-11T08:26:48.008Z</time>
      </trkpt>
      <trkpt lat="42.85967" lon="17.97469">
        <ele>327.65713</ele>
        <time>2022-06-11T08:26:52.002Z</time>
      </trkpt>
      <trkpt lat="42.85972" lon="17.97458">
        <ele>327.788798</ele>
        <time>2022-06-11T08:26:56.034Z</time>
      </trkpt>
      <trkpt lat="42.85976" lon="17.97447">
        <ele>327.964189</ele>
        <time>2022-06-11T08:26:59.999Z</time>
      </trkpt>
      <trkpt lat="42.85981" lon="17.97436">
        <ele>328.156457</ele>
        <time>2022-06-11T08:27:03.994Z</time>
      </trkpt>
      <trkpt lat="42.85985" lon="17.97423">
        <ele>328.376255</ele>
        <time>2022-06-11T08:27:09.000Z</time>
      </trkpt>
      <trkpt lat="42.85989" lon="17.97412">
        <ele>328.567371</ele>
        <time>2022-06-11T08:27:13.019Z</time>
      </trkpt>
      <trkpt lat="42.85994" lon="17.97398">
        <ele>328.794661</ele>
        <time>2022-06-11T08:27:17.993Z</time>
      </trkpt>
      <trkpt lat="42.85997" lon="17.97385">
        <ele>329.000634</ele>
        <time>2022-06-11T08:27:23.002Z</time>
      </trkpt>
      <trkpt lat="42.86" lon="17.97371">
        <ele>329.217684</ele>
        <time>2022-06-11T08:27:28.011Z</time>
      </trkpt>
      <trkpt lat="42.86003" lon="17.97359">
        <ele>329.405902</ele>
        <time>2022-06-11T08:27:31.998Z</time>
      </trkpt>
      <trkpt lat="42.86005" lon="17.97347">
        <ele>329.597919</ele>
        <time>2022-06-11T08:27:35.998Z</time>
      </trkpt>
      <trkpt lat="42.86006" lon="17.97332">
        <ele>329.822885</ele>
        <time>2022-06-11T08:27:40.998Z</time>
      </trkpt>
      <trkpt lat="42.86008" lon="17.97318">
        <ele>330.045846</ele>
        <time>2022-06-11T08:27:45.999Z</time>
      </trkpt>
      <trkpt lat="42.8601" lon="17.97305">
        <ele>330.249104</ele>
        <time>2022-06-11T08:27:50.996Z</time>
      </trkpt>
      <trkpt lat="42.86012" lon="17.97292">
        <ele>330.448545</ele>
        <time>2022-06-11T08:27:56.011Z</time>
      </trkpt>
      <trkpt lat="42.86014" lon="17.97279">
        <ele>330.64387</ele>
        <time>2022-06-11T08:28:00.992Z</time>
      </trkpt>
      <trkpt lat="42.86016" lon="17.97265">
        <ele>330.862664</ele>
        <time>2022-06-11T08:28:06.005Z</time>
      </trkpt>
      <trkpt lat="42.86018" lon="17.97251">
        <ele>331.080135</ele>
        <time>2022-06-11T08:28:11.000Z</time>
      </trkpt>
      <trkpt lat="42.8602" lon="17.97239">
        <ele>331.267281</ele>
        <time>2022-06-11T08:28:14.996Z</time>
      </trkpt>
      <trkpt lat="42.86022" lon="17.97224">
        <ele>331.501733</ele>
        <time>2022-06-11T08:28:20.007Z</time>
      </trkpt>
      <trkpt lat="42.86024" lon="17.97211">
        <ele>331.665134</ele>
        <time>2022-06-11T08:28:23.999Z</time>
      </trkpt>
      <trkpt lat="42.86027" lon="17.97196">
        <ele>331.841583</ele>
        <time>2022-06-11T08:28:29.002Z</time>
      </trkpt>
      <trkpt lat="42.86029" lon="17.97185">
        <ele>331.985851</ele>
        <time>2022-06-11T08:28:32.995Z</time>
      </trkpt>
      <trkpt lat="42.86031" lon="17.97173">
        <ele>332.131622</ele>
        <time>2022-06-11T08:28:37.031Z</time>
      </trkpt>
      <trkpt lat="42.86034" lon="17.97159">
        <ele>332.303087</ele>
        <time>2022-06-11T08:28:42.012Z</time>
      </trkpt>
      <trkpt lat="42.86035" lon="17.97144">
        <ele>332.474602</ele>
        <time>2022-06-11T08:28:46.996Z</time>
      </trkpt>
      <trkpt lat="42.86037" lon="17.97131">
        <ele>332.629709</ele>
        <time>2022-06-11T08:28:52.006Z</time>
      </trkpt>
      <trkpt lat="42.86041" lon="17.9712">
        <ele>332.776255</ele>
        <time>2022-06-11T08:28:56.003Z</time>
      </trkpt>
      <trkpt lat="42.86047" lon="17.9711">
        <ele>332.92805</ele>
        <time>2022-06-11T08:29:00.007Z</time>
      </trkpt>
      <trkpt lat="42.86052" lon="17.97098">
        <ele>333.092076</ele>
        <time>2022-06-11T08:29:05.055Z</time>
      </trkpt>
      <trkpt lat="42.86059" lon="17.97087">
        <ele>333.263001</ele>
        <time>2022-06-11T08:29:10.024Z</time>
      </trkpt>
      <trkpt lat="42.86065" lon="17.97078">
        <ele>333.409795</ele>
        <time>2022-06-11T08:29:14.014Z</time>
      </trkpt>
      <trkpt lat="42.86074" lon="17.97068">
        <ele>333.585962</ele>
        <time>2022-06-11T08:29:19.026Z</time>
      </trkpt>
      <trkpt lat="42.86082" lon="17.9706">
        <ele>333.756413</ele>
        <time>2022-06-11T08:29:24.021Z</time>
      </trkpt>
      <trkpt lat="42.86091" lon="17.97052">
        <ele>333.931557</ele>
        <time>2022-06-11T08:29:29.021Z</time>
      </trkpt>
      <trkpt lat="42.86101" lon="17.97044">
        <ele>334.108481</ele>
        <time>2022-06-11T08:29:34.029Z</time>
      </trkpt>
      <trkpt lat="42.86111" lon="17.97037">
        <ele>334.28822</ele>
        <time>2022-06-11T08:29:39.052Z</time>
      </trkpt>
      <trkpt lat="42.86119" lon="17.97032">
        <ele>334.43671</ele>
        <time>2022-06-11T08:29:43.018Z</time>
      </trkpt>
      <trkpt lat="42.86128" lon="17.97026">
        <ele>334.591247</ele>
        <time>2022-06-11T08:29:48.031Z</time>
      </trkpt>
      <trkpt lat="42.86137" lon="17.97024">
        <ele>334.733211</ele>
        <time>2022-06-11T08:29:53.025Z</time>
      </trkpt>
      <trkpt lat="42.86148" lon="17.9702">
        <ele>334.903317</ele>
        <time>2022-06-11T08:29:58.028Z</time>
      </trkpt>
      <trkpt lat="42.86158" lon="17.97016">
        <ele>335.074705</ele>
        <time>2022-06-11T08:30:03.007Z</time>
      </trkpt>
      <trkpt lat="42.86167" lon="17.97014">
        <ele>335.219011</ele>
        <time>2022-06-11T08:30:07.006Z</time>
      </trkpt>
      <trkpt lat="42.86177" lon="17.97013">
        <ele>335.364053</ele>
        <time>2022-06-11T08:30:11.024Z</time>
      </trkpt>
      <trkpt lat="42.86187" lon="17.97013">
        <ele>335.525545</ele>
        <time>2022-06-11T08:30:16.024Z</time>
      </trkpt>
      <trkpt lat="42.86197" lon="17.97013">
        <ele>335.673052</ele>
        <time>2022-06-11T08:30:21.033Z</time>
      </trkpt>
      <trkpt lat="42.86207" lon="17.97013">
        <ele>335.840743</ele>
        <time>2022-06-11T08:30:26.018Z</time>
      </trkpt>
      <trkpt lat="42.86217" lon="17.97013">
        <ele>335.985181</ele>
        <time>2022-06-11T08:30:30.020Z</time>
      </trkpt>
      <trkpt lat="42.86226" lon="17.97015">
        <ele>336.135637</ele>
        <time>2022-06-11T08:30:34.069Z</time>
      </trkpt>
      <trkpt lat="42.86235" lon="17.97018">
        <ele>336.280232</ele>
        <time>2022-06-11T08:30:38.031Z</time>
      </trkpt>
      <trkpt lat="42.86245" lon="17.97019">
        <ele>336.430537</ele>
        <time>2022-06-11T08:30:42.027Z</time>
      </trkpt>
      <trkpt lat="42.86256" lon="17.97022">
        <ele>336.601017</ele>
        <time>2022-06-11T08:30:47.030Z</time>
      </trkpt>
      <trkpt lat="42.86267" lon="17.97025">
        <ele>336.770623</ele>
        <time>2022-06-11T08:30:52.027Z</time>
      </trkpt>
      <trkpt lat="42.86277" lon="17.97027">
        <ele>336.941875</ele>
        <time>2022-06-11T08:30:57.062Z</time>
      </trkpt>
      <trkpt lat="42.86287" lon="17.9703">
        <ele>337.090794</ele>
        <time>2022-06-11T08:31:01.025Z</time>
      </trkpt>
      <trkpt lat="42.86297" lon="17.97033">
        <ele>337.231739</ele>
        <time>2022-06-11T08:31:05.029Z</time>
      </trkpt>
      <trkpt lat="42.86308" lon="17.97035">
        <ele>337.301373</ele>
        <time>2022-06-11T08:31:09.039Z</time>
      </trkpt>
      <trkpt lat="42.86318" lon="17.97036">
        <ele>337.361349</ele>
        <time>2022-06-11T08:31:12.014Z</time>
      </trkpt>
      <trkpt lat="42.8633" lon="17.97039">
        <ele>337.432638</ele>
        <time>2022-06-11T08:31:16.024Z</time>
      </trkpt>
      <trkpt lat="42.8634" lon="17.97042">
        <ele>337.490139</ele>
        <time>2022-06-11T08:31:19.068Z</time>
      </trkpt>
      <trkpt lat="42.86351" lon="17.97045">
        <ele>337.557772</ele>
        <time>2022-06-11T08:31:23.028Z</time>
      </trkpt>
      <trkpt lat="42.86362" lon="17.97046">
        <ele>337.622832</ele>
        <time>2022-06-11T08:31:27.019Z</time>
      </trkpt>
      <trkpt lat="42.86373" lon="17.97048">
        <ele>337.689608</ele>
        <time>2022-06-11T08:31:31.050Z</time>
      </trkpt>
      <trkpt lat="42.86384" lon="17.97048">
        <ele>337.757774</ele>
        <time>2022-06-11T08:31:35.038Z</time>
      </trkpt>
      <trkpt lat="42.86396" lon="17.97048">
        <ele>337.826006</ele>
        <time>2022-06-11T08:31:39.033Z</time>
      </trkpt>
      <trkpt lat="42.86407" lon="17.97046">
        <ele>337.891512</ele>
        <time>2022-06-11T08:31:43.015Z</time>
      </trkpt>
      <trkpt lat="42.86418" lon="17.97045">
        <ele>337.957607</ele>
        <time>2022-06-11T08:31:47.014Z</time>
      </trkpt>
      <trkpt lat="42.86429" lon="17.97042">
        <ele>338.023412</ele>
        <time>2022-06-11T08:31:51.029Z</time>
      </trkpt>
      <trkpt lat="42.8644" lon="17.97037">
        <ele>338.093615</ele>
        <time>2022-06-11T08:31:55.027Z</time>
      </trkpt>
      <trkpt lat="42.86449" lon="17.97034">
        <ele>338.147938</ele>
        <time>2022-06-11T08:31:58.032Z</time>
      </trkpt>
      <trkpt lat="42.86458" lon="17.97032">
        <ele>338.201482</ele>
        <time>2022-06-11T08:32:01.016Z</time>
      </trkpt>
      <trkpt lat="42.86467" lon="17.97028">
        <ele>338.255107</ele>
        <time>2022-06-11T08:32:04.063Z</time>
      </trkpt>
      <trkpt lat="42.86475" lon="17.97025">
        <ele>338.336599</ele>
        <time>2022-06-11T08:32:07.053Z</time>
      </trkpt>
      <trkpt lat="42.86485" lon="17.97022">
        <ele>338.469576</ele>
        <time>2022-06-11T08:32:10.071Z</time>
      </trkpt>
      <trkpt lat="42.86495" lon="17.97017">
        <ele>338.630267</ele>
        <time>2022-06-11T08:32:14.025Z</time>
      </trkpt>
      <trkpt lat="42.86506" lon="17.97012">
        <ele>338.794944</ele>
        <time>2022-06-11T08:32:18.021Z</time>
      </trkpt>
      <trkpt lat="42.86517" lon="17.97008">
        <ele>338.956077</ele>
        <time>2022-06-11T08:32:22.028Z</time>
      </trkpt>
      <trkpt lat="42.86528" lon="17.97006">
        <ele>339.112957</ele>
        <time>2022-06-11T08:32:26.038Z</time>
      </trkpt>
      <trkpt lat="42.8654" lon="17.97004">
        <ele>339.277741</ele>
        <time>2022-06-11T08:32:30.028Z</time>
      </trkpt>
      <trkpt lat="42.86551" lon="17.97002">
        <ele>339.438704</ele>
        <time>2022-06-11T08:32:34.032Z</time>
      </trkpt>
      <trkpt lat="42.86562" lon="17.97002">
        <ele>339.590408</ele>
        <time>2022-06-11T08:32:38.018Z</time>
      </trkpt>
      <trkpt lat="42.86572" lon="17.97003">
        <ele>339.740747</ele>
        <time>2022-06-11T08:32:42.022Z</time>
      </trkpt>
      <trkpt lat="42.86582" lon="17.97005">
        <ele>339.882095</ele>
        <time>2022-06-11T08:32:46.026Z</time>
      </trkpt>
      <trkpt lat="42.86593" lon="17.97008">
        <ele>340.03656</ele>
        <time>2022-06-11T08:32:50.025Z</time>
      </trkpt>
      <trkpt lat="42.86604" lon="17.97011">
        <ele>340.193247</ele>
        <time>2022-06-11T08:32:54.017Z</time>
      </trkpt>
      <trkpt lat="42.86614" lon="17.97016">
        <ele>340.348902</ele>
        <time>2022-06-11T08:32:58.014Z</time>
      </trkpt>
      <trkpt lat="42.86624" lon="17.9702">
        <ele>340.489554</ele>
        <time>2022-06-11T08:33:02.035Z</time>
      </trkpt>
      <trkpt lat="42.86633" lon="17.97023">
        <ele>340.626896</ele>
        <time>2022-06-11T08:33:06.028Z</time>
      </trkpt>
      <trkpt lat="42.86642" lon="17.97028">
        <ele>340.76546</ele>
        <time>2022-06-11T08:33:10.038Z</time>
      </trkpt>
      <trkpt lat="42.86651" lon="17.97032">
        <ele>340.865514</ele>
        <time>2022-06-11T08:33:14.038Z</time>
      </trkpt>
      <trkpt lat="42.86661" lon="17.97037">
        <ele>340.941394</ele>
        <time>2022-06-11T08:33:19.032Z</time>
      </trkpt>
      <trkpt lat="42.86671" lon="17.97043">
        <ele>341.015105</ele>
        <time>2022-06-11T08:33:24.022Z</time>
      </trkpt>
      <trkpt lat="42.86681" lon="17.97048">
        <ele>341.085324</ele>
        <time>2022-06-11T08:33:29.038Z</time>
      </trkpt>
      <trkpt lat="42.8669" lon="17.97055">
        <ele>341.154949</ele>
        <time>2022-06-11T08:33:34.049Z</time>
      </trkpt>
      <trkpt lat="42.86699" lon="17.97061">
        <ele>341.226018</ele>
        <time>2022-06-11T08:33:39.034Z</time>
      </trkpt>
      <trkpt lat="42.86708" lon="17.9707">
        <ele>341.301307</ele>
        <time>2022-06-11T08:33:44.026Z</time>
      </trkpt>
      <trkpt lat="42.86716" lon="17.97078">
        <ele>341.368887</ele>
        <time>2022-06-11T08:33:48.041Z</time>
      </trkpt>
      <trkpt lat="42.86724" lon="17.97085">
        <ele>341.434003</ele>
        <time>2022-06-11T08:33:52.020Z</time>
      </trkpt>
      <trkpt lat="42.86733" lon="17.97094">
        <ele>341.510128</ele>
        <time>2022-06-11T08:33:57.048Z</time>
      </trkpt>
      <trkpt lat="42.8674" lon="17.97101">
        <ele>341.572547</ele>
        <time>2022-06-11T08:34:01.032Z</time>
      </trkpt>
      <trkpt lat="42.86747" lon="17.97109">
        <ele>341.633454</ele>
        <time>2022-06-11T08:34:05.034Z</time>
      </trkpt>
      <trkpt lat="42.86756" lon="17.97116">
        <ele>341.705055</ele>
        <time>2022-06-11T08:34:10.028Z</time>
      </trkpt>
      <trkpt lat="42.86764" lon="17.97127">
        <ele>341.781443</ele>
        <time>2022-06-11T08:34:15.020Z</time>
      </trkpt>
      <trkpt lat="42.86772" lon="17.97135">
        <ele>341.847967</ele>
        <time>2022-06-11T08:34:19.124Z</time>
      </trkpt>
      <trkpt lat="42.86778" lon="17.97144">
        <ele>341.911398</ele>
        <time>2022-06-11T08:34:23.014Z</time>
      </trkpt>
      <trkpt lat="42.86786" lon="17.97154">
        <ele>341.984933</ele>
        <time>2022-06-11T08:34:28.032Z</time>
      </trkpt>
      <trkpt lat="42.86795" lon="17.97164">
        <ele>342.059825</ele>
        <time>2022-06-11T08:34:33.035Z</time>
      </trkpt>
      <trkpt lat="42.86804" lon="17.97172">
        <ele>342.961432</ele>
        <time>2022-06-11T08:34:38.018Z</time>
      </trkpt>
      <trkpt lat="42.86811" lon="17.97179">
        <ele>343.817472</ele>
        <time>2022-06-11T08:34:43.024Z</time>
      </trkpt>
      <trkpt lat="42.87185" lon="17.97303">
        <ele>368.139343</ele>
        <time>2022-06-11T08:40:11.035Z</time>
      </trkpt>
      <trkpt lat="42.87163" lon="17.97305">
        <ele>365.37272</ele>
        <time>2022-06-11T08:40:39.023Z</time>
      </trkpt>
      <trkpt lat="42.8717" lon="17.97312">
        <ele>364.195793</ele>
        <time>2022-06-11T08:41:00.027Z</time>
      </trkpt>
      <trkpt lat="42.8719" lon="17.9732">
        <ele>361.689842</ele>
        <time>2022-06-11T08:43:01.021Z</time>
      </trkpt>
      <trkpt lat="42.87199" lon="17.97326">
        <ele>360.47407</ele>
        <time>2022-06-11T08:43:07.025Z</time>
      </trkpt>
      <trkpt lat="42.87209" lon="17.9733">
        <ele>359.15379</ele>
        <time>2022-06-11T08:43:13.028Z</time>
      </trkpt>
      <trkpt lat="42.8722" lon="17.9733">
        <ele>357.820679</ele>
        <time>2022-06-11T08:43:19.032Z</time>
      </trkpt>
      <trkpt lat="42.8723" lon="17.97333">
        <ele>356.496245</ele>
        <time>2022-06-11T08:43:24.025Z</time>
      </trkpt>
      <trkpt lat="42.8724" lon="17.97336">
        <ele>355.231285</ele>
        <time>2022-06-11T08:43:29.024Z</time>
      </trkpt>
      <trkpt lat="42.8725" lon="17.9734">
        <ele>353.968725</ele>
        <time>2022-06-11T08:43:34.024Z</time>
      </trkpt>
      <trkpt lat="42.8726" lon="17.97341">
        <ele>352.64552</ele>
        <time>2022-06-11T08:43:39.055Z</time>
      </trkpt>
      <trkpt lat="42.87271" lon="17.97339">
        <ele>351.255121</ele>
        <time>2022-06-11T08:43:44.023Z</time>
      </trkpt>
      <trkpt lat="42.87282" lon="17.97337">
        <ele>351.307586</ele>
        <time>2022-06-11T08:43:49.026Z</time>
      </trkpt>
      <trkpt lat="42.87292" lon="17.97332">
        <ele>351.398219</ele>
        <time>2022-06-11T08:43:54.014Z</time>
      </trkpt>
      <trkpt lat="42.87301" lon="17.97327">
        <ele>351.483944</ele>
        <time>2022-06-11T08:43:59.040Z</time>
      </trkpt>
      <trkpt lat="42.8731" lon="17.97322">
        <ele>351.565831</ele>
        <time>2022-06-11T08:44:04.038Z</time>
      </trkpt>
      <trkpt lat="42.87319" lon="17.97318">
        <ele>351.645888</ele>
        <time>2022-06-11T08:44:09.027Z</time>
      </trkpt>
      <trkpt lat="42.87329" lon="17.97313">
        <ele>351.738908</ele>
        <time>2022-06-11T08:44:15.032Z</time>
      </trkpt>
      <trkpt lat="42.87338" lon="17.97309">
        <ele>351.817141</ele>
        <time>2022-06-11T08:44:20.012Z</time>
      </trkpt>
      <trkpt lat="42.87347" lon="17.97305">
        <ele>351.902461</ele>
        <time>2022-06-11T08:44:25.051Z</time>
      </trkpt>
      <trkpt lat="42.87357" lon="17.973">
        <ele>351.994062</ele>
        <time>2022-06-11T08:44:31.088Z</time>
      </trkpt>
      <trkpt lat="42.87366" lon="17.97296">
        <ele>352.075388</ele>
        <time>2022-06-11T08:44:36.032Z</time>
      </trkpt>
      <trkpt lat="42.87375" lon="17.97293">
        <ele>352.156259</ele>
        <time>2022-06-11T08:44:41.022Z</time>
      </trkpt>
      <trkpt lat="42.87385" lon="17.97291">
        <ele>352.236603</ele>
        <time>2022-06-11T08:44:46.032Z</time>
      </trkpt>
      <trkpt lat="42.87395" lon="17.97288">
        <ele>352.322722</ele>
        <time>2022-06-11T08:44:51.041Z</time>
      </trkpt>
      <trkpt lat="42.87405" lon="17.97285">
        <ele>352.410553</ele>
        <time>2022-06-11T08:44:56.052Z</time>
      </trkpt>
      <trkpt lat="42.87415" lon="17.97283">
        <ele>352.497209</ele>
        <time>2022-06-11T08:45:01.022Z</time>
      </trkpt>
      <trkpt lat="42.87424" lon="17.97281">
        <ele>352.578597</ele>
        <time>2022-06-11T08:45:06.013Z</time>
      </trkpt>
      <trkpt lat="42.87434" lon="17.97279">
        <ele>352.664223</ele>
        <time>2022-06-11T08:45:11.021Z</time>
      </trkpt>
      <trkpt lat="42.87444" lon="17.97277">
        <ele>352.750879</ele>
        <time>2022-06-11T08:45:16.026Z</time>
      </trkpt>
      <trkpt lat="42.87454" lon="17.97276">
        <ele>352.699521</ele>
        <time>2022-06-11T08:45:21.025Z</time>
      </trkpt>
      <trkpt lat="42.87463" lon="17.97274">
        <ele>352.634618</ele>
        <time>2022-06-11T08:45:26.061Z</time>
      </trkpt>
      <trkpt lat="42.87472" lon="17.97272">
        <ele>352.571588</ele>
        <time>2022-06-11T08:45:31.073Z</time>
      </trkpt>
      <trkpt lat="42.87482" lon="17.97271">
        <ele>352.506406</ele>
        <time>2022-06-11T08:45:36.024Z</time>
      </trkpt>
      <trkpt lat="42.87492" lon="17.97271">
        <ele>352.439298</ele>
        <time>2022-06-11T08:45:41.031Z</time>
      </trkpt>
      <trkpt lat="42.87502" lon="17.97271">
        <ele>352.372914</ele>
        <time>2022-06-11T08:45:46.032Z</time>
      </trkpt>
      <trkpt lat="42.87512" lon="17.9727">
        <ele>352.305058</ele>
        <time>2022-06-11T08:45:51.026Z</time>
      </trkpt>
      <trkpt lat="42.87522" lon="17.9727">
        <ele>352.235223</ele>
        <time>2022-06-11T08:45:56.029Z</time>
      </trkpt>
      <trkpt lat="42.87531" lon="17.97271">
        <ele>352.171541</ele>
        <time>2022-06-11T08:46:01.022Z</time>
      </trkpt>
      <trkpt lat="42.87541" lon="17.9727">
        <ele>352.109848</ele>
        <time>2022-06-11T08:46:06.029Z</time>
      </trkpt>
      <trkpt lat="42.87551" lon="17.97269">
        <ele>352.04061</ele>
        <time>2022-06-11T08:46:11.042Z</time>
      </trkpt>
      <trkpt lat="42.87561" lon="17.9727">
        <ele>351.972842</ele>
        <time>2022-06-11T08:46:16.023Z</time>
      </trkpt>
      <trkpt lat="42.8757" lon="17.97272">
        <ele>351.906389</ele>
        <time>2022-06-11T08:46:21.066Z</time>
      </trkpt>
      <trkpt lat="42.8758" lon="17.97275">
        <ele>351.838131</ele>
        <time>2022-06-11T08:46:26.028Z</time>
      </trkpt>
      <trkpt lat="42.8759" lon="17.97278">
        <ele>351.77107</ele>
        <time>2022-06-11T08:46:31.026Z</time>
      </trkpt>
      <trkpt lat="42.87601" lon="17.97282">
        <ele>351.695393</ele>
        <time>2022-06-11T08:46:36.035Z</time>
      </trkpt>
      <trkpt lat="42.87611" lon="17.97286">
        <ele>351.620371</ele>
        <time>2022-06-11T08:46:41.019Z</time>
      </trkpt>
      <trkpt lat="42.87621" lon="17.9729">
        <ele>351.554334</ele>
        <time>2022-06-11T08:46:46.021Z</time>
      </trkpt>
      <trkpt lat="42.87631" lon="17.97294">
        <ele>351.831977</ele>
        <time>2022-06-11T08:46:51.021Z</time>
      </trkpt>
      <trkpt lat="42.87641" lon="17.97297">
        <ele>352.183324</ele>
        <time>2022-06-11T08:46:56.030Z</time>
      </trkpt>
      <trkpt lat="42.87651" lon="17.973">
        <ele>352.514221</ele>
        <time>2022-06-11T08:47:01.037Z</time>
      </trkpt>
      <trkpt lat="42.87661" lon="17.97302">
        <ele>352.837703</ele>
        <time>2022-06-11T08:47:06.080Z</time>
      </trkpt>
      <trkpt lat="42.8767" lon="17.97304">
        <ele>353.150856</ele>
        <time>2022-06-11T08:47:11.012Z</time>
      </trkpt>
      <trkpt lat="42.8768" lon="17.97303">
        <ele>353.479713</ele>
        <time>2022-06-11T08:47:16.010Z</time>
      </trkpt>
      <trkpt lat="42.8769" lon="17.97302">
        <ele>353.804855</ele>
        <time>2022-06-11T08:47:21.037Z</time>
      </trkpt>
      <trkpt lat="42.87699" lon="17.973">
        <ele>354.123832</ele>
        <time>2022-06-11T08:47:26.039Z</time>
      </trkpt>
      <trkpt lat="42.87708" lon="17.97295">
        <ele>354.443229</ele>
        <time>2022-06-11T08:47:31.029Z</time>
      </trkpt>
      <trkpt lat="42.87717" lon="17.9729">
        <ele>354.770075</ele>
        <time>2022-06-11T08:47:36.025Z</time>
      </trkpt>
      <trkpt lat="42.87726" lon="17.97283">
        <ele>355.111244</ele>
        <time>2022-06-11T08:47:41.028Z</time>
      </trkpt>
      <trkpt lat="42.87735" lon="17.97276">
        <ele>355.446932</ele>
        <time>2022-06-11T08:47:46.018Z</time>
      </trkpt>
      <trkpt lat="42.87742" lon="17.97268">
        <ele>355.764076</ele>
        <time>2022-06-11T08:47:51.032Z</time>
      </trkpt>
      <trkpt lat="42.8775" lon="17.97259">
        <ele>356.09101</ele>
        <time>2022-06-11T08:47:56.071Z</time>
      </trkpt>
      <trkpt lat="42.87757" lon="17.97249">
        <ele>356.440011</ele>
        <time>2022-06-11T08:48:01.034Z</time>
      </trkpt>
      <trkpt lat="42.87765" lon="17.97238">
        <ele>356.80369</ele>
        <time>2022-06-11T08:48:06.030Z</time>
      </trkpt>
      <trkpt lat="42.87772" lon="17.97228">
        <ele>357.143387</ele>
        <time>2022-06-11T08:48:11.052Z</time>
      </trkpt>
      <trkpt lat="42.87778" lon="17.97217">
        <ele>357.483385</ele>
        <time>2022-06-11T08:48:16.047Z</time>
      </trkpt>
      <trkpt lat="42.87786" lon="17.97207">
        <ele>357.560741</ele>
        <time>2022-06-11T08:48:21.014Z</time>
      </trkpt>
      <trkpt lat="42.87792" lon="17.97196">
        <ele>357.620448</ele>
        <time>2022-06-11T08:48:26.022Z</time>
      </trkpt>
      <trkpt lat="42.878" lon="17.97186">
        <ele>357.683044</ele>
        <time>2022-06-11T08:48:31.019Z</time>
      </trkpt>
      <trkpt lat="42.87806" lon="17.97175">
        <ele>357.741204</ele>
        <time>2022-06-11T08:48:36.013Z</time>
      </trkpt>
      <trkpt lat="42.87813" lon="17.97164">
        <ele>357.802511</ele>
        <time>2022-06-11T08:48:41.034Z</time>
      </trkpt>
      <trkpt lat="42.87819" lon="17.97153">
        <ele>357.863169</ele>
        <time>2022-06-11T08:48:46.047Z</time>
      </trkpt>
      <trkpt lat="42.87826" lon="17.97144">
        <ele>357.917938</ele>
        <time>2022-06-11T08:48:51.019Z</time>
      </trkpt>
      <trkpt lat="42.87834" lon="17.97135">
        <ele>357.97951</ele>
        <time>2022-06-11T08:48:56.030Z</time>
      </trkpt>
      <trkpt lat="42.87843" lon="17.97127">
        <ele>358.040388</ele>
        <time>2022-06-11T08:49:01.033Z</time>
      </trkpt>
      <trkpt lat="42.87852" lon="17.97119">
        <ele>358.104478</ele>
        <time>2022-06-11T08:49:06.049Z</time>
      </trkpt>
      <trkpt lat="42.87861" lon="17.97113">
        <ele>358.163405</ele>
        <time>2022-06-11T08:49:11.036Z</time>
      </trkpt>
      <trkpt lat="42.8787" lon="17.97106">
        <ele>358.222182</ele>
        <time>2022-06-11T08:49:16.022Z</time>
      </trkpt>
      <trkpt lat="42.87879" lon="17.97099">
        <ele>358.281603</ele>
        <time>2022-06-11T08:49:21.050Z</time>
      </trkpt>
      <trkpt lat="42.87888" lon="17.97092">
        <ele>358.343069</ele>
        <time>2022-06-11T08:49:26.034Z</time>
      </trkpt>
      <trkpt lat="42.87898" lon="17.97086">
        <ele>358.404267</ele>
        <time>2022-06-11T08:49:31.084Z</time>
      </trkpt>
      <trkpt lat="42.87907" lon="17.97079">
        <ele>358.464504</ele>
        <time>2022-06-11T08:49:36.035Z</time>
      </trkpt>
      <trkpt lat="42.87916" lon="17.97072">
        <ele>358.525768</ele>
        <time>2022-06-11T08:49:41.024Z</time>
      </trkpt>
      <trkpt lat="42.87924" lon="17.97065">
        <ele>358.557341</ele>
        <time>2022-06-11T08:49:46.024Z</time>
      </trkpt>
      <trkpt lat="42.87932" lon="17.97059">
        <ele>358.568989</ele>
        <time>2022-06-11T08:49:51.034Z</time>
      </trkpt>
      <trkpt lat="42.8794" lon="17.97054">
        <ele>358.580492</ele>
        <time>2022-06-11T08:49:56.030Z</time>
      </trkpt>
      <trkpt lat="42.8795" lon="17.97047">
        <ele>358.594126</ele>
        <time>2022-06-11T08:50:01.040Z</time>
      </trkpt>
      <trkpt lat="42.87959" lon="17.97041">
        <ele>358.607492</ele>
        <time>2022-06-11T08:50:06.014Z</time>
      </trkpt>
      <trkpt lat="42.87968" lon="17.97034">
        <ele>358.620054</ele>
        <time>2022-06-11T08:50:11.063Z</time>
      </trkpt>
      <trkpt lat="42.87977" lon="17.97028">
        <ele>358.633195</ele>
        <time>2022-06-11T08:50:16.031Z</time>
      </trkpt>
      <trkpt lat="42.87986" lon="17.9702">
        <ele>358.647274</ele>
        <time>2022-06-11T08:50:21.029Z</time>
      </trkpt>
      <trkpt lat="42.87996" lon="17.97013">
        <ele>358.660996</ele>
        <time>2022-06-11T08:50:26.012Z</time>
      </trkpt>
      <trkpt lat="42.88005" lon="17.97007">
        <ele>358.673669</ele>
        <time>2022-06-11T08:50:31.023Z</time>
      </trkpt>
      <trkpt lat="42.88013" lon="17.97">
        <ele>358.686387</ele>
        <time>2022-06-11T08:50:36.023Z</time>
      </trkpt>
      <trkpt lat="42.88022" lon="17.96994">
        <ele>358.69924</ele>
        <time>2022-06-11T08:50:41.036Z</time>
      </trkpt>
      <trkpt lat="42.88031" lon="17.96988">
        <ele>358.711856</ele>
        <time>2022-06-11T08:50:46.023Z</time>
      </trkpt>
      <trkpt lat="42.8804" lon="17.96982">
        <ele>358.724587</ele>
        <time>2022-06-11T08:50:51.054Z</time>
      </trkpt>
      <trkpt lat="42.88049" lon="17.96976">
        <ele>358.736773</ele>
        <time>2022-06-11T08:50:56.050Z</time>
      </trkpt>
      <trkpt lat="42.88058" lon="17.96971">
        <ele>358.748961</ele>
        <time>2022-06-11T08:51:01.023Z</time>
      </trkpt>
      <trkpt lat="42.88067" lon="17.96966">
        <ele>358.761471</ele>
        <time>2022-06-11T08:51:06.031Z</time>
      </trkpt>
      <trkpt lat="42.88077" lon="17.96962">
        <ele>358.77462</ele>
        <time>2022-06-11T08:51:11.007Z</time>
      </trkpt>
      <trkpt lat="42.88086" lon="17.96958">
        <ele>358.757772</ele>
        <time>2022-06-11T08:51:16.022Z</time>
      </trkpt>
      <trkpt lat="42.88096" lon="17.96955">
        <ele>358.71973</ele>
        <time>2022-06-11T08:51:21.025Z</time>
      </trkpt>
      <trkpt lat="42.88106" lon="17.96953">
        <ele>358.680691</ele>
        <time>2022-06-11T08:51:26.028Z</time>
      </trkpt>
      <trkpt lat="42.88115" lon="17.96954">
        <ele>358.644531</ele>
        <time>2022-06-11T08:51:31.035Z</time>
      </trkpt>
      <trkpt lat="42.88125" lon="17.96955">
        <ele>358.607134</ele>
        <time>2022-06-11T08:51:36.027Z</time>
      </trkpt>
      <trkpt lat="42.88135" lon="17.96958">
        <ele>358.57009</ele>
        <time>2022-06-11T08:51:41.062Z</time>
      </trkpt>
      <trkpt lat="42.88144" lon="17.96961">
        <ele>358.533085</ele>
        <time>2022-06-11T08:51:46.025Z</time>
      </trkpt>
      <trkpt lat="42.88153" lon="17.96967">
        <ele>358.493816</ele>
        <time>2022-06-11T08:51:51.038Z</time>
      </trkpt>
      <trkpt lat="42.88163" lon="17.96973">
        <ele>358.451888</ele>
        <time>2022-06-11T08:51:56.043Z</time>
      </trkpt>
      <trkpt lat="42.88173" lon="17.9698">
        <ele>358.410643</ele>
        <time>2022-06-11T08:52:01.032Z</time>
      </trkpt>
      <trkpt lat="42.88181" lon="17.96987">
        <ele>358.375261</ele>
        <time>2022-06-11T08:52:06.030Z</time>
      </trkpt>
      <trkpt lat="42.88188" lon="17.96995">
        <ele>358.339575</ele>
        <time>2022-06-11T08:52:11.033Z</time>
      </trkpt>
      <trkpt lat="42.88195" lon="17.97005">
        <ele>358.302126</ele>
        <time>2022-06-11T08:52:16.019Z</time>
      </trkpt>
      <trkpt lat="42.88201" lon="17.97017">
        <ele>358.261618</ele>
        <time>2022-06-11T08:52:21.017Z</time>
      </trkpt>
      <trkpt lat="42.88207" lon="17.97028">
        <ele>358.22246</ele>
        <time>2022-06-11T08:52:26.022Z</time>
      </trkpt>
      <trkpt lat="42.88212" lon="17.97042">
        <ele>358.180426</ele>
        <time>2022-06-11T08:52:31.033Z</time>
      </trkpt>
      <trkpt lat="42.88216" lon="17.97055">
        <ele>358.13958</ele>
        <time>2022-06-11T08:52:36.023Z</time>
      </trkpt>
      <trkpt lat="42.88219" lon="17.97068">
        <ele>358.100294</ele>
        <time>2022-06-11T08:52:41.030Z</time>
      </trkpt>
      <trkpt lat="42.88224" lon="17.97081">
        <ele>358.269247</ele>
        <time>2022-06-11T08:52:46.001Z</time>
      </trkpt>
      <trkpt lat="42.88229" lon="17.97094">
        <ele>358.478245</ele>
        <time>2022-06-11T08:52:51.029Z</time>
      </trkpt>
      <trkpt lat="42.88233" lon="17.97107">
        <ele>358.678579</ele>
        <time>2022-06-11T08:52:56.018Z</time>
      </trkpt>
      <trkpt lat="42.88236" lon="17.97119">
        <ele>358.862272</ele>
        <time>2022-06-11T08:53:01.036Z</time>
      </trkpt>
      <trkpt lat="42.88241" lon="17.9713">
        <ele>359.039251</ele>
        <time>2022-06-11T08:53:06.088Z</time>
      </trkpt>
      <trkpt lat="42.88243" lon="17.97141">
        <ele>359.217666</ele>
        <time>2022-06-11T08:53:11.027Z</time>
      </trkpt>
      <trkpt lat="42.88247" lon="17.97153">
        <ele>359.397335</ele>
        <time>2022-06-11T08:53:16.020Z</time>
      </trkpt>
      <trkpt lat="42.88251" lon="17.97165">
        <ele>359.577216</ele>
        <time>2022-06-11T08:53:21.023Z</time>
      </trkpt>
      <trkpt lat="42.88255" lon="17.97177">
        <ele>359.766536</ele>
        <time>2022-06-11T08:53:26.028Z</time>
      </trkpt>
      <trkpt lat="42.8826" lon="17.97187">
        <ele>359.953727</ele>
        <time>2022-06-11T08:53:31.021Z</time>
      </trkpt>
      <trkpt lat="42.88266" lon="17.97197">
        <ele>360.136384</ele>
        <time>2022-06-11T08:53:36.015Z</time>
      </trkpt>
      <trkpt lat="42.88272" lon="17.97207">
        <ele>360.322901</ele>
        <time>2022-06-11T08:53:41.032Z</time>
      </trkpt>
      <trkpt lat="42.8828" lon="17.97217">
        <ele>360.536888</ele>
        <time>2022-06-11T08:53:46.025Z</time>
      </trkpt>
      <trkpt lat="42.88289" lon="17.97224">
        <ele>360.730749</ele>
        <time>2022-06-11T08:53:51.057Z</time>
      </trkpt>
      <trkpt lat="42.88298" lon="17.9723">
        <ele>360.930045</ele>
        <time>2022-06-11T08:53:56.019Z</time>
      </trkpt>
      <trkpt lat="42.88307" lon="17.97235">
        <ele>361.127031</ele>
        <time>2022-06-11T08:54:01.024Z</time>
      </trkpt>
      <trkpt lat="42.88316" lon="17.97243">
        <ele>361.332996</ele>
        <time>2022-06-11T08:54:06.036Z</time>
      </trkpt>
      <trkpt lat="42.88325" lon="17.97248">
        <ele>361.525508</ele>
        <time>2022-06-11T08:54:11.034Z</time>
      </trkpt>
      <trkpt lat="42.88335" lon="17.97251">
        <ele>361.6869</ele>
        <time>2022-06-11T08:54:16.027Z</time>
      </trkpt>
      <trkpt lat="42.88345" lon="17.97255">
        <ele>361.831472</ele>
        <time>2022-06-11T08:54:21.016Z</time>
      </trkpt>
      <trkpt lat="42.88355" lon="17.97261">
        <ele>361.979654</ele>
        <time>2022-06-11T08:54:26.030Z</time>
      </trkpt>
      <trkpt lat="42.88365" lon="17.97264">
        <ele>362.11785</ele>
        <time>2022-06-11T08:54:32.014Z</time>
      </trkpt>
      <trkpt lat="42.88374" lon="17.9726">
        <ele>362.243853</ele>
        <time>2022-06-11T08:54:39.038Z</time>
      </trkpt>
      <trkpt lat="42.88382" lon="17.97257">
        <ele>362.36842</ele>
        <time>2022-06-11T08:54:47.019Z</time>
      </trkpt>
      <trkpt lat="42.88391" lon="17.97262">
        <ele>362.498734</ele>
        <time>2022-06-11T08:54:52.012Z</time>
      </trkpt>
      <trkpt lat="42.88401" lon="17.97265">
        <ele>362.640349</ele>
        <time>2022-06-11T08:54:57.060Z</time>
      </trkpt>
      <trkpt lat="42.8841" lon="17.97267">
        <ele>362.765818</ele>
        <time>2022-06-11T08:55:01.023Z</time>
      </trkpt>
      <trkpt lat="42.8842" lon="17.97269">
        <ele>362.906107</ele>
        <time>2022-06-11T08:55:05.012Z</time>
      </trkpt>
      <trkpt lat="42.8843" lon="17.97272">
        <ele>363.051411</ele>
        <time>2022-06-11T08:55:09.018Z</time>
      </trkpt>
      <trkpt lat="42.88441" lon="17.97272">
        <ele>363.200294</ele>
        <time>2022-06-11T08:55:13.021Z</time>
      </trkpt>
      <trkpt lat="42.88452" lon="17.97272">
        <ele>363.350279</ele>
        <time>2022-06-11T08:55:17.023Z</time>
      </trkpt>
      <trkpt lat="42.88463" lon="17.9727">
        <ele>363.50421</ele>
        <time>2022-06-11T08:55:21.029Z</time>
      </trkpt>
      <trkpt lat="42.88475" lon="17.97268">
        <ele>363.664946</ele>
        <time>2022-06-11T08:55:25.007Z</time>
      </trkpt>
      <trkpt lat="42.88486" lon="17.97264">
        <ele>363.824844</ele>
        <time>2022-06-11T08:55:29.023Z</time>
      </trkpt>
      <trkpt lat="42.88497" lon="17.97259">
        <ele>363.977534</ele>
        <time>2022-06-11T08:55:33.055Z</time>
      </trkpt>
      <trkpt lat="42.88505" lon="17.97254">
        <ele>364.1077</ele>
        <time>2022-06-11T08:55:36.044Z</time>
      </trkpt>
      <trkpt lat="42.88515" lon="17.97248">
        <ele>364.236051</ele>
        <time>2022-06-11T08:55:39.027Z</time>
      </trkpt>
      <trkpt lat="42.88523" lon="17.97243">
        <ele>364.350983</ele>
        <time>2022-06-11T08:55:42.027Z</time>
      </trkpt>
      <trkpt lat="42.88532" lon="17.97237">
        <ele>364.463859</ele>
        <time>2022-06-11T08:55:45.019Z</time>
      </trkpt>
      <trkpt lat="42.88539" lon="17.9723">
        <ele>364.574697</ele>
        <time>2022-06-11T08:55:48.016Z</time>
      </trkpt>
      <trkpt lat="42.88548" lon="17.97224">
        <ele>364.693612</ele>
        <time>2022-06-11T08:55:51.013Z</time>
      </trkpt>
      <trkpt lat="42.88556" lon="17.97218">
        <ele>364.807162</ele>
        <time>2022-06-11T08:55:54.026Z</time>
      </trkpt>
      <trkpt lat="42.88565" lon="17.97211">
        <ele>364.931933</ele>
        <time>2022-06-11T08:55:57.048Z</time>
      </trkpt>
      <trkpt lat="42.88575" lon="17.97201">
        <ele>365.083285</ele>
        <time>2022-06-11T08:56:01.023Z</time>
      </trkpt>
      <trkpt lat="42.88583" lon="17.97193">
        <ele>365.209209</ele>
        <time>2022-06-11T08:56:04.022Z</time>
      </trkpt>
      <trkpt lat="42.88592" lon="17.97186">
        <ele>365.331854</ele>
        <time>2022-06-11T08:56:07.028Z</time>
      </trkpt>
      <trkpt lat="42.88601" lon="17.97181">
        <ele>365.454209</ele>
        <time>2022-06-11T08:56:10.027Z</time>
      </trkpt>
      <trkpt lat="42.88609" lon="17.97175">
        <ele>365.573781</ele>
        <time>2022-06-11T08:56:13.087Z</time>
      </trkpt>
      <trkpt lat="42.88618" lon="17.97169">
        <ele>365.692425</ele>
        <time>2022-06-11T08:56:16.023Z</time>
      </trkpt>
      <trkpt lat="42.88627" lon="17.97163">
        <ele>365.811461</ele>
        <time>2022-06-11T08:56:19.021Z</time>
      </trkpt>
      <trkpt lat="42.88635" lon="17.97158">
        <ele>365.924189</ele>
        <time>2022-06-11T08:56:22.033Z</time>
      </trkpt>
      <trkpt lat="42.88647" lon="17.97154">
        <ele>366.072645</ele>
        <time>2022-06-11T08:56:26.041Z</time>
      </trkpt>
      <trkpt lat="42.88657" lon="17.97152">
        <ele>366.196649</ele>
        <time>2022-06-11T08:56:29.003Z</time>
      </trkpt>
      <trkpt lat="42.88666" lon="17.97148">
        <ele>366.29239</ele>
        <time>2022-06-11T08:56:32.068Z</time>
      </trkpt>
      <trkpt lat="42.88675" lon="17.97142">
        <ele>366.266213</ele>
        <time>2022-06-11T08:56:35.004Z</time>
      </trkpt>
      <trkpt lat="42.88684" lon="17.97136">
        <ele>366.239883</ele>
        <time>2022-06-11T08:56:38.048Z</time>
      </trkpt>
      <trkpt lat="42.88693" lon="17.97129">
        <ele>366.212492</ele>
        <time>2022-06-11T08:56:41.014Z</time>
      </trkpt>
      <trkpt lat="42.88701" lon="17.97124">
        <ele>366.187939</ele>
        <time>2022-06-11T08:56:44.019Z</time>
      </trkpt>
      <trkpt lat="42.8871" lon="17.97121">
        <ele>366.162625</ele>
        <time>2022-06-11T08:56:47.023Z</time>
      </trkpt>
      <trkpt lat="42.88722" lon="17.97116">
        <ele>366.131151</ele>
        <time>2022-06-11T08:56:51.020Z</time>
      </trkpt>
      <trkpt lat="42.88733" lon="17.97112">
        <ele>366.09946</ele>
        <time>2022-06-11T08:56:55.075Z</time>
      </trkpt>
      <trkpt lat="42.88743" lon="17.97111">
        <ele>366.074119</ele>
        <time>2022-06-11T08:56:58.021Z</time>
      </trkpt>
      <trkpt lat="42.88752" lon="17.97109">
        <ele>366.04873</ele>
        <time>2022-06-11T08:57:01.028Z</time>
      </trkpt>
      <trkpt lat="42.88762" lon="17.97109">
        <ele>366.022891</ele>
        <time>2022-06-11T08:57:04.010Z</time>
      </trkpt>
      <trkpt lat="42.88772" lon="17.97109">
        <ele>365.995741</ele>
        <time>2022-06-11T08:57:07.012Z</time>
      </trkpt>
      <trkpt lat="42.88782" lon="17.97109">
        <ele>365.96935</ele>
        <time>2022-06-11T08:57:10.032Z</time>
      </trkpt>
      <trkpt lat="42.88792" lon="17.9711">
        <ele>365.942693</ele>
        <time>2022-06-11T08:57:13.032Z</time>
      </trkpt>
      <trkpt lat="42.88801" lon="17.97111">
        <ele>365.917868</ele>
        <time>2022-06-11T08:57:16.015Z</time>
      </trkpt>
      <trkpt lat="42.8881" lon="17.97113">
        <ele>365.89297</ele>
        <time>2022-06-11T08:57:19.020Z</time>
      </trkpt>
      <trkpt lat="42.8882" lon="17.97114">
        <ele>365.868356</ele>
        <time>2022-06-11T08:57:22.034Z</time>
      </trkpt>
      <trkpt lat="42.88829" lon="17.97115">
        <ele>365.843171</ele>
        <time>2022-06-11T08:57:25.019Z</time>
      </trkpt>
      <trkpt lat="42.88841" lon="17.97118">
        <ele>365.820167</ele>
        <time>2022-06-11T08:57:29.022Z</time>
      </trkpt>
      <trkpt lat="42.8885" lon="17.9712">
        <ele>365.828433</ele>
        <time>2022-06-11T08:57:32.021Z</time>
      </trkpt>
      <trkpt lat="42.8886" lon="17.97122">
        <ele>365.837769</ele>
        <time>2022-06-11T08:57:35.038Z</time>
      </trkpt>
      <trkpt lat="42.8887" lon="17.97126">
        <ele>365.846449</ele>
        <time>2022-06-11T08:57:38.016Z</time>
      </trkpt>
      <trkpt lat="42.88878" lon="17.9713">
        <ele>365.854543</ele>
        <time>2022-06-11T08:57:41.060Z</time>
      </trkpt>
      <trkpt lat="42.88889" lon="17.97135">
        <ele>365.86444</ele>
        <time>2022-06-11T08:57:45.021Z</time>
      </trkpt>
      <trkpt lat="42.889" lon="17.97136">
        <ele>365.873929</ele>
        <time>2022-06-11T08:57:49.021Z</time>
      </trkpt>
      <trkpt lat="42.88909" lon="17.97136">
        <ele>365.882263</ele>
        <time>2022-06-11T08:57:52.056Z</time>
      </trkpt>
      <trkpt lat="42.88919" lon="17.97139">
        <ele>365.891004</ele>
        <time>2022-06-11T08:57:56.060Z</time>
      </trkpt>
      <trkpt lat="42.88929" lon="17.97144">
        <ele>365.900964</ele>
        <time>2022-06-11T08:58:06.005Z</time>
      </trkpt>
      <trkpt lat="42.8894" lon="17.97145">
        <ele>365.910542</ele>
        <time>2022-06-11T08:58:10.038Z</time>
      </trkpt>
      <trkpt lat="42.8895" lon="17.97145">
        <ele>365.919669</ele>
        <time>2022-06-11T08:58:14.044Z</time>
      </trkpt>
      <trkpt lat="42.8896" lon="17.97148">
        <ele>365.928929</ele>
        <time>2022-06-11T08:58:18.009Z</time>
      </trkpt>
      <trkpt lat="42.88972" lon="17.97151">
        <ele>365.939056</ele>
        <time>2022-06-11T08:58:22.020Z</time>
      </trkpt>
      <trkpt lat="42.88981" lon="17.97155">
        <ele>365.947998</ele>
        <time>2022-06-11T08:58:25.032Z</time>
      </trkpt>
      <trkpt lat="42.88991" lon="17.97157">
        <ele>365.956439</ele>
        <time>2022-06-11T08:58:28.018Z</time>
      </trkpt>
      <trkpt lat="42.89" lon="17.97157">
        <ele>365.964775</ele>
        <time>2022-06-11T08:58:31.018Z</time>
      </trkpt>
      <trkpt lat="42.8901" lon="17.97155">
        <ele>365.973147</ele>
        <time>2022-06-11T08:58:34.014Z</time>
      </trkpt>
      <trkpt lat="42.89019" lon="17.97156">
        <ele>365.913607</ele>
        <time>2022-06-11T08:58:37.048Z</time>
      </trkpt>
      <trkpt lat="42.89028" lon="17.97157">
        <ele>365.781885</ele>
        <time>2022-06-11T08:58:40.024Z</time>
      </trkpt>
      <trkpt lat="42.89038" lon="17.97158">
        <ele>365.644774</ele>
        <time>2022-06-11T08:58:43.013Z</time>
      </trkpt>
      <trkpt lat="42.89049" lon="17.97158">
        <ele>365.498189</ele>
        <time>2022-06-11T08:58:46.031Z</time>
      </trkpt>
      <trkpt lat="42.89059" lon="17.97157">
        <ele>365.35535</ele>
        <time>2022-06-11T08:58:49.017Z</time>
      </trkpt>
      <trkpt lat="42.89069" lon="17.97155">
        <ele>365.21848</ele>
        <time>2022-06-11T08:58:52.020Z</time>
      </trkpt>
      <trkpt lat="42.89079" lon="17.97153">
        <ele>365.069571</ele>
        <time>2022-06-11T08:58:55.023Z</time>
      </trkpt>
      <trkpt lat="42.89088" lon="17.97149">
        <ele>364.934418</ele>
        <time>2022-06-11T08:58:58.016Z</time>
      </trkpt>
      <trkpt lat="42.89098" lon="17.97146">
        <ele>364.800604</ele>
        <time>2022-06-11T08:59:01.027Z</time>
      </trkpt>
      <trkpt lat="42.89108" lon="17.97143">
        <ele>364.659334</ele>
        <time>2022-06-11T08:59:04.023Z</time>
      </trkpt>
      <trkpt lat="42.89118" lon="17.97141">
        <ele>364.513191</ele>
        <time>2022-06-11T08:59:07.022Z</time>
      </trkpt>
      <trkpt lat="42.89129" lon="17.97138">
        <ele>364.361186</ele>
        <time>2022-06-11T08:59:10.034Z</time>
      </trkpt>
      <trkpt lat="42.89139" lon="17.97134">
        <ele>364.211739</ele>
        <time>2022-06-11T08:59:13.021Z</time>
      </trkpt>
      <trkpt lat="42.89149" lon="17.97131">
        <ele>364.071833</ele>
        <time>2022-06-11T08:59:16.067Z</time>
      </trkpt>
      <trkpt lat="42.89159" lon="17.97127">
        <ele>363.930457</ele>
        <time>2022-06-11T08:59:19.019Z</time>
      </trkpt>
      <trkpt lat="42.89168" lon="17.97125">
        <ele>363.793906</ele>
        <time>2022-06-11T08:59:22.030Z</time>
      </trkpt>
      <trkpt lat="42.89179" lon="17.97123">
        <ele>363.646913</ele>
        <time>2022-06-11T08:59:25.023Z</time>
      </trkpt>
      <trkpt lat="42.89189" lon="17.97122">
        <ele>363.496061</ele>
        <time>2022-06-11T08:59:28.021Z</time>
      </trkpt>
      <trkpt lat="42.892" lon="17.97122">
        <ele>363.326515</ele>
        <time>2022-06-11T08:59:31.010Z</time>
      </trkpt>
      <trkpt lat="42.89211" lon="17.97122">
        <ele>363.140852</ele>
        <time>2022-06-11T08:59:34.016Z</time>
      </trkpt>
      <trkpt lat="42.89222" lon="17.97122">
        <ele>362.950323</ele>
        <time>2022-06-11T08:59:37.016Z</time>
      </trkpt>
      <trkpt lat="42.89234" lon="17.97123">
        <ele>362.747509</ele>
        <time>2022-06-11T08:59:40.016Z</time>
      </trkpt>
      <trkpt lat="42.89246" lon="17.97126">
        <ele>362.551313</ele>
        <time>2022-06-11T08:59:43.023Z</time>
      </trkpt>
      <trkpt lat="42.89256" lon="17.97129">
        <ele>362.362933</ele>
        <time>2022-06-11T08:59:46.018Z</time>
      </trkpt>
      <trkpt lat="42.89267" lon="17.97132">
        <ele>362.178641</ele>
        <time>2022-06-11T08:59:49.030Z</time>
      </trkpt>
      <trkpt lat="42.89278" lon="17.97135">
        <ele>361.9998</ele>
        <time>2022-06-11T08:59:52.034Z</time>
      </trkpt>
      <trkpt lat="42.89288" lon="17.97139">
        <ele>361.819906</ele>
        <time>2022-06-11T08:59:55.008Z</time>
      </trkpt>
      <trkpt lat="42.89298" lon="17.97142">
        <ele>361.645663</ele>
        <time>2022-06-11T08:59:58.018Z</time>
      </trkpt>
      <trkpt lat="42.89308" lon="17.97146">
        <ele>361.465573</ele>
        <time>2022-06-11T09:00:01.024Z</time>
      </trkpt>
      <trkpt lat="42.89319" lon="17.97151">
        <ele>361.281758</ele>
        <time>2022-06-11T09:00:04.027Z</time>
      </trkpt>
      <trkpt lat="42.89329" lon="17.97156">
        <ele>361.099003</ele>
        <time>2022-06-11T09:00:07.020Z</time>
      </trkpt>
      <trkpt lat="42.89338" lon="17.97161">
        <ele>360.931172</ele>
        <time>2022-06-11T09:00:10.018Z</time>
      </trkpt>
      <trkpt lat="42.89348" lon="17.97164">
        <ele>360.760042</ele>
        <time>2022-06-11T09:00:13.047Z</time>
      </trkpt>
      <trkpt lat="42.89358" lon="17.97167">
        <ele>360.592306</ele>
        <time>2022-06-11T09:00:16.021Z</time>
      </trkpt>
      <trkpt lat="42.89368" lon="17.97172">
        <ele>360.440497</ele>
        <time>2022-06-11T09:00:19.012Z</time>
      </trkpt>
      <trkpt lat="42.89378" lon="17.97177">
        <ele>360.466044</ele>
        <time>2022-06-11T09:00:22.018Z</time>
      </trkpt>
      <trkpt lat="42.89388" lon="17.97182">
        <ele>360.492348</ele>
        <time>2022-06-11T09:00:25.026Z</time>
      </trkpt>
      <trkpt lat="42.89398" lon="17.9719">
        <ele>360.518263</ele>
        <time>2022-06-11T09:00:28.026Z</time>
      </trkpt>
      <trkpt lat="42.89408" lon="17.97197">
        <ele>360.544507</ele>
        <time>2022-06-11T09:00:31.008Z</time>
      </trkpt>
      <trkpt lat="42.89418" lon="17.97205">
        <ele>360.570827</ele>
        <time>2022-06-11T09:00:34.025Z</time>
      </trkpt>
      <trkpt lat="42.89428" lon="17.97212">
        <ele>360.597723</ele>
        <time>2022-06-11T09:00:37.025Z</time>
      </trkpt>
      <trkpt lat="42.89438" lon="17.97221">
        <ele>360.624565</ele>
        <time>2022-06-11T09:00:40.016Z</time>
      </trkpt>
      <trkpt lat="42.89447" lon="17.97229">
        <ele>360.651763</ele>
        <time>2022-06-11T09:00:43.030Z</time>
      </trkpt>
      <trkpt lat="42.89457" lon="17.97238">
        <ele>360.679156</ele>
        <time>2022-06-11T09:00:46.026Z</time>
      </trkpt>
      <trkpt lat="42.89467" lon="17.97247">
        <ele>360.705877</ele>
        <time>2022-06-11T09:00:49.009Z</time>
      </trkpt>
      <trkpt lat="42.89476" lon="17.97255">
        <ele>360.732303</ele>
        <time>2022-06-11T09:00:52.031Z</time>
      </trkpt>
      <trkpt lat="42.89486" lon="17.97264">
        <ele>360.759113</ele>
        <time>2022-06-11T09:00:55.010Z</time>
      </trkpt>
      <trkpt lat="42.89495" lon="17.97273">
        <ele>360.786696</ele>
        <time>2022-06-11T09:00:58.067Z</time>
      </trkpt>
      <trkpt lat="42.89505" lon="17.97282">
        <ele>360.813602</ele>
        <time>2022-06-11T09:01:01.025Z</time>
      </trkpt>
      <trkpt lat="42.89514" lon="17.9729">
        <ele>360.838776</ele>
        <time>2022-06-11T09:01:04.031Z</time>
      </trkpt>
      <trkpt lat="42.89522" lon="17.97299">
        <ele>360.890747</ele>
        <time>2022-06-11T09:01:07.031Z</time>
      </trkpt>
      <trkpt lat="42.89531" lon="17.9731">
        <ele>361.039463</ele>
        <time>2022-06-11T09:01:10.023Z</time>
      </trkpt>
      <trkpt lat="42.89538" lon="17.97322">
        <ele>361.186655</ele>
        <time>2022-06-11T09:01:13.023Z</time>
      </trkpt>
      <trkpt lat="42.89545" lon="17.97335">
        <ele>361.326921</ele>
        <time>2022-06-11T09:01:16.028Z</time>
      </trkpt>
      <trkpt lat="42.8955" lon="17.97347">
        <ele>361.45489</ele>
        <time>2022-06-11T09:01:19.045Z</time>
      </trkpt>
      <trkpt lat="42.89556" lon="17.9736">
        <ele>361.600266</ele>
        <time>2022-06-11T09:01:22.020Z</time>
      </trkpt>
      <trkpt lat="42.89561" lon="17.97374">
        <ele>361.743818</ele>
        <time>2022-06-11T09:01:25.026Z</time>
      </trkpt>
      <trkpt lat="42.89567" lon="17.97388">
        <ele>361.89443</ele>
        <time>2022-06-11T09:01:28.025Z</time>
      </trkpt>
      <trkpt lat="42.89573" lon="17.97402">
        <ele>362.036323</ele>
        <time>2022-06-11T09:01:31.041Z</time>
      </trkpt>
      <trkpt lat="42.89579" lon="17.97415">
        <ele>362.177107</ele>
        <time>2022-06-11T09:01:34.021Z</time>
      </trkpt>
      <trkpt lat="42.89584" lon="17.97428">
        <ele>362.314366</ele>
        <time>2022-06-11T09:01:37.031Z</time>
      </trkpt>
      <trkpt lat="42.89588" lon="17.97442">
        <ele>362.450114</ele>
        <time>2022-06-11T09:01:40.019Z</time>
      </trkpt>
      <trkpt lat="42.89592" lon="17.97456">
        <ele>362.593912</ele>
        <time>2022-06-11T09:01:43.055Z</time>
      </trkpt>
      <trkpt lat="42.89595" lon="17.97471">
        <ele>362.737829</ele>
        <time>2022-06-11T09:01:46.014Z</time>
      </trkpt>
      <trkpt lat="42.89599" lon="17.97485">
        <ele>362.868677</ele>
        <time>2022-06-11T09:01:49.054Z</time>
      </trkpt>
      <trkpt lat="42.89603" lon="17.97499">
        <ele>363.006971</ele>
        <time>2022-06-11T09:01:52.022Z</time>
      </trkpt>
      <trkpt lat="42.89607" lon="17.97515">
        <ele>363.179792</ele>
        <time>2022-06-11T09:01:55.036Z</time>
      </trkpt>
      <trkpt lat="42.89609" lon="17.9753">
        <ele>363.386321</ele>
        <time>2022-06-11T09:01:58.004Z</time>
      </trkpt>
      <trkpt lat="42.89613" lon="17.97545">
        <ele>363.592074</ele>
        <time>2022-06-11T09:02:01.033Z</time>
      </trkpt>
      <trkpt lat="42.89617" lon="17.9756">
        <ele>363.800742</ele>
        <time>2022-06-11T09:02:04.021Z</time>
      </trkpt>
      <trkpt lat="42.8962" lon="17.97573">
        <ele>363.988572</ele>
        <time>2022-06-11T09:02:07.001Z</time>
      </trkpt>
      <trkpt lat="42.89624" lon="17.97586">
        <ele>364.170738</ele>
        <time>2022-06-11T09:02:10.023Z</time>
      </trkpt>
      <trkpt lat="42.89627" lon="17.97599">
        <ele>364.348183</ele>
        <time>2022-06-11T09:02:13.030Z</time>
      </trkpt>
      <trkpt lat="42.89632" lon="17.97611">
        <ele>364.522293</ele>
        <time>2022-06-11T09:02:16.032Z</time>
      </trkpt>
      <trkpt lat="42.89636" lon="17.97623">
        <ele>364.700454</ele>
        <time>2022-06-11T09:02:19.008Z</time>
      </trkpt>
      <trkpt lat="42.89639" lon="17.97635">
        <ele>364.877898</ele>
        <time>2022-06-11T09:02:22.013Z</time>
      </trkpt>
      <trkpt lat="42.89644" lon="17.97647">
        <ele>365.052376</ele>
        <time>2022-06-11T09:02:25.038Z</time>
      </trkpt>
      <trkpt lat="42.8965" lon="17.97661">
        <ele>365.265901</ele>
        <time>2022-06-11T09:02:29.025Z</time>
      </trkpt>
      <trkpt lat="42.89655" lon="17.97672">
        <ele>365.437243</ele>
        <time>2022-06-11T09:02:32.024Z</time>
      </trkpt>
      <trkpt lat="42.89661" lon="17.97683">
        <ele>365.607085</ele>
        <time>2022-06-11T09:02:35.014Z</time>
      </trkpt>
      <trkpt lat="42.89667" lon="17.97693">
        <ele>365.788209</ele>
        <time>2022-06-11T09:02:38.028Z</time>
      </trkpt>
      <trkpt lat="42.89674" lon="17.97703">
        <ele>365.971326</ele>
        <time>2022-06-11T09:02:41.047Z</time>
      </trkpt>
      <trkpt lat="42.89681" lon="17.97714">
        <ele>366.156596</ele>
        <time>2022-06-11T09:02:44.024Z</time>
      </trkpt>
      <trkpt lat="42.89689" lon="17.97724">
        <ele>366.343886</ele>
        <time>2022-06-11T09:02:47.029Z</time>
      </trkpt>
      <trkpt lat="42.89696" lon="17.97733">
        <ele>366.30968</ele>
        <time>2022-06-11T09:02:50.016Z</time>
      </trkpt>
      <trkpt lat="42.89705" lon="17.97743">
        <ele>366.273793</ele>
        <time>2022-06-11T09:02:53.025Z</time>
      </trkpt>
      <trkpt lat="42.89713" lon="17.97754">
        <ele>366.236684</ele>
        <time>2022-06-11T09:02:56.019Z</time>
      </trkpt>
      <trkpt lat="42.89722" lon="17.97764">
        <ele>366.200477</ele>
        <time>2022-06-11T09:02:59.023Z</time>
      </trkpt>
      <trkpt lat="42.8973" lon="17.97774">
        <ele>366.164663</ele>
        <time>2022-06-11T09:03:02.011Z</time>
      </trkpt>
      <trkpt lat="42.89739" lon="17.97782">
        <ele>366.130038</ele>
        <time>2022-06-11T09:03:05.021Z</time>
      </trkpt>
      <trkpt lat="42.89747" lon="17.9779">
        <ele>366.096477</ele>
        <time>2022-06-11T09:03:08.007Z</time>
      </trkpt>
      <trkpt lat="42.89755" lon="17.97799">
        <ele>366.063347</ele>
        <time>2022-06-11T09:03:11.017Z</time>
      </trkpt>
      <trkpt lat="42.89763" lon="17.97806">
        <ele>366.031264</ele>
        <time>2022-06-11T09:03:14.023Z</time>
      </trkpt>
      <trkpt lat="42.89771" lon="17.97813">
        <ele>366.000735</ele>
        <time>2022-06-11T09:03:17.040Z</time>
      </trkpt>
      <trkpt lat="42.89779" lon="17.97818">
        <ele>365.971357</ele>
        <time>2022-06-11T09:03:20.031Z</time>
      </trkpt>
      <trkpt lat="42.89788" lon="17.97822">
        <ele>365.941144</ele>
        <time>2022-06-11T09:03:23.015Z</time>
      </trkpt>
      <trkpt lat="42.89797" lon="17.97828">
        <ele>365.908217</ele>
        <time>2022-06-11T09:03:26.059Z</time>
      </trkpt>
      <trkpt lat="42.89806" lon="17.97833">
        <ele>365.877154</ele>
        <time>2022-06-11T09:03:29.009Z</time>
      </trkpt>
      <trkpt lat="42.89815" lon="17.97838">
        <ele>365.847174</ele>
        <time>2022-06-11T09:03:32.002Z</time>
      </trkpt>
      <trkpt lat="42.89824" lon="17.97843">
        <ele>365.816556</ele>
        <time>2022-06-11T09:03:35.021Z</time>
      </trkpt>
      <trkpt lat="42.89834" lon="17.97846">
        <ele>365.782384</ele>
        <time>2022-06-11T09:03:38.017Z</time>
      </trkpt>
      <trkpt lat="42.89843" lon="17.97848">
        <ele>365.746942</ele>
        <time>2022-06-11T09:03:41.013Z</time>
      </trkpt>
      <trkpt lat="42.89853" lon="17.97849">
        <ele>365.694197</ele>
        <time>2022-06-11T09:03:44.018Z</time>
      </trkpt>
      <trkpt lat="42.89863" lon="17.97849">
        <ele>365.644839</ele>
        <time>2022-06-11T09:03:47.022Z</time>
      </trkpt>
      <trkpt lat="42.89875" lon="17.97848">
        <ele>365.582772</ele>
        <time>2022-06-11T09:03:51.026Z</time>
      </trkpt>
      <trkpt lat="42.89884" lon="17.97846">
        <ele>365.534479</ele>
        <time>2022-06-11T09:03:54.011Z</time>
      </trkpt>
      <trkpt lat="42.89893" lon="17.97844">
        <ele>365.487536</ele>
        <time>2022-06-11T09:03:57.013Z</time>
      </trkpt>
      <trkpt lat="42.89903" lon="17.97841">
        <ele>365.437229</ele>
        <time>2022-06-11T09:04:00.021Z</time>
      </trkpt>
      <trkpt lat="42.89913" lon="17.97837">
        <ele>365.383835</ele>
        <time>2022-06-11T09:04:03.024Z</time>
      </trkpt>
      <trkpt lat="42.89923" lon="17.97834">
        <ele>365.3327</ele>
        <time>2022-06-11T09:04:06.036Z</time>
      </trkpt>
      <trkpt lat="42.89932" lon="17.97832">
        <ele>365.282016</ele>
        <time>2022-06-11T09:04:09.028Z</time>
      </trkpt>
      <trkpt lat="42.89942" lon="17.97829">
        <ele>365.228953</ele>
        <time>2022-06-11T09:04:12.029Z</time>
      </trkpt>
      <trkpt lat="42.89952" lon="17.97826">
        <ele>365.17719</ele>
        <time>2022-06-11T09:04:15.008Z</time>
      </trkpt>
      <trkpt lat="42.89962" lon="17.97824">
        <ele>365.128306</ele>
        <time>2022-06-11T09:04:18.016Z</time>
      </trkpt>
      <trkpt lat="42.89971" lon="17.97822">
        <ele>365.08016</ele>
        <time>2022-06-11T09:04:21.023Z</time>
      </trkpt>
      <trkpt lat="42.8998" lon="17.97822">
        <ele>365.032805</ele>
        <time>2022-06-11T09:04:24.019Z</time>
      </trkpt>
      <trkpt lat="42.89991" lon="17.97818">
        <ele>364.974819</ele>
        <time>2022-06-11T09:04:28.026Z</time>
      </trkpt>
      <trkpt lat="42.9" lon="17.97818">
        <ele>364.926491</ele>
        <time>2022-06-11T09:04:31.021Z</time>
      </trkpt>
      <trkpt lat="42.90011" lon="17.97818">
        <ele>364.874028</ele>
        <time>2022-06-11T09:04:34.015Z</time>
      </trkpt>
      <trkpt lat="42.9002" lon="17.97815">
        <ele>364.845125</ele>
        <time>2022-06-11T09:04:37.033Z</time>
      </trkpt>
      <trkpt lat="42.90029" lon="17.97812">
        <ele>364.886826</ele>
        <time>2022-06-11T09:04:40.024Z</time>
      </trkpt>
      <trkpt lat="42.90041" lon="17.97808">
        <ele>364.941535</ele>
        <time>2022-06-11T09:04:44.024Z</time>
      </trkpt>
      <trkpt lat="42.90049" lon="17.97804">
        <ele>364.983481</ele>
        <time>2022-06-11T09:04:47.021Z</time>
      </trkpt>
      <trkpt lat="42.90061" lon="17.97799">
        <ele>365.036882</ele>
        <time>2022-06-11T09:04:51.054Z</time>
      </trkpt>
      <trkpt lat="42.90071" lon="17.97793">
        <ele>365.089653</ele>
        <time>2022-06-11T09:04:55.010Z</time>
      </trkpt>
      <trkpt lat="42.90082" lon="17.97786">
        <ele>365.144133</ele>
        <time>2022-06-11T09:04:59.024Z</time>
      </trkpt>
      <trkpt lat="42.90091" lon="17.97782">
        <ele>365.18759</ele>
        <time>2022-06-11T09:05:02.033Z</time>
      </trkpt>
      <trkpt lat="42.901" lon="17.97779">
        <ele>365.229534</ele>
        <time>2022-06-11T09:05:05.029Z</time>
      </trkpt>
      <trkpt lat="42.9011" lon="17.97774">
        <ele>365.275392</ele>
        <time>2022-06-11T09:05:08.016Z</time>
      </trkpt>
      <trkpt lat="42.90119" lon="17.97769">
        <ele>365.322219</ele>
        <time>2022-06-11T09:05:11.023Z</time>
      </trkpt>
      <trkpt lat="42.90129" lon="17.97764">
        <ele>365.368991</ele>
        <time>2022-06-11T09:05:14.016Z</time>
      </trkpt>
      <trkpt lat="42.90138" lon="17.97759">
        <ele>365.413111</ele>
        <time>2022-06-11T09:05:17.087Z</time>
      </trkpt>
      <trkpt lat="42.90149" lon="17.97754">
        <ele>365.466278</ele>
        <time>2022-06-11T09:05:21.022Z</time>
      </trkpt>
      <trkpt lat="42.90158" lon="17.97751">
        <ele>365.507624</ele>
        <time>2022-06-11T09:05:24.003Z</time>
      </trkpt>
      <trkpt lat="42.90167" lon="17.97748">
        <ele>365.552468</ele>
        <time>2022-06-11T09:05:27.027Z</time>
      </trkpt>
      <trkpt lat="42.90177" lon="17.97746">
        <ele>365.596545</ele>
        <time>2022-06-11T09:05:30.016Z</time>
      </trkpt>
      <trkpt lat="42.90186" lon="17.97745">
        <ele>365.639969</ele>
        <time>2022-06-11T09:05:33.020Z</time>
      </trkpt>
      <trkpt lat="42.90196" lon="17.97745">
        <ele>365.474168</ele>
        <time>2022-06-11T09:05:36.020Z</time>
      </trkpt>
      <trkpt lat="42.90206" lon="17.97745">
        <ele>365.170572</ele>
        <time>2022-06-11T09:05:39.032Z</time>
      </trkpt>
      <trkpt lat="42.90216" lon="17.97746">
        <ele>364.872592</ele>
        <time>2022-06-11T09:05:42.025Z</time>
      </trkpt>
      <trkpt lat="42.90227" lon="17.97747">
        <ele>364.569231</ele>
        <time>2022-06-11T09:05:45.022Z</time>
      </trkpt>
      <trkpt lat="42.90238" lon="17.97748">
        <ele>364.250615</ele>
        <time>2022-06-11T09:05:48.005Z</time>
      </trkpt>
      <trkpt lat="42.90249" lon="17.9775">
        <ele>363.937349</ele>
        <time>2022-06-11T09:05:51.005Z</time>
      </trkpt>
      <trkpt lat="42.9026" lon="17.97751">
        <ele>363.613707</ele>
        <time>2022-06-11T09:05:54.021Z</time>
      </trkpt>
      <trkpt lat="42.90271" lon="17.97753">
        <ele>363.281465</ele>
        <time>2022-06-11T09:05:57.020Z</time>
      </trkpt>
      <trkpt lat="42.90282" lon="17.97755">
        <ele>362.960008</ele>
        <time>2022-06-11T09:06:00.029Z</time>
      </trkpt>
      <trkpt lat="42.90293" lon="17.97757">
        <ele>362.654073</ele>
        <time>2022-06-11T09:06:03.015Z</time>
      </trkpt>
      <trkpt lat="42.90303" lon="17.97759">
        <ele>362.359862</ele>
        <time>2022-06-11T09:06:06.026Z</time>
      </trkpt>
      <trkpt lat="42.90313" lon="17.97761">
        <ele>362.074224</ele>
        <time>2022-06-11T09:06:09.021Z</time>
      </trkpt>
      <trkpt lat="42.90323" lon="17.97763">
        <ele>361.770528</ele>
        <time>2022-06-11T09:06:12.018Z</time>
      </trkpt>
      <trkpt lat="42.90334" lon="17.97764">
        <ele>361.467462</ele>
        <time>2022-06-11T09:06:15.016Z</time>
      </trkpt>
      <trkpt lat="42.90344" lon="17.97763">
        <ele>361.164277</ele>
        <time>2022-06-11T09:06:18.014Z</time>
      </trkpt>
      <trkpt lat="42.90355" lon="17.97762">
        <ele>360.863093</ele>
        <time>2022-06-11T09:06:21.020Z</time>
      </trkpt>
      <trkpt lat="42.90365" lon="17.97759">
        <ele>360.546253</ele>
        <time>2022-06-11T09:06:24.010Z</time>
      </trkpt>
      <trkpt lat="42.90376" lon="17.97756">
        <ele>360.499582</ele>
        <time>2022-06-11T09:06:27.046Z</time>
      </trkpt>
      <trkpt lat="42.90386" lon="17.97751">
        <ele>360.547741</ele>
        <time>2022-06-11T09:06:30.014Z</time>
      </trkpt>
      <trkpt lat="42.90397" lon="17.97747">
        <ele>360.595708</ele>
        <time>2022-06-11T09:06:33.062Z</time>
      </trkpt>
      <trkpt lat="42.90408" lon="17.97743">
        <ele>360.647535</ele>
        <time>2022-06-11T09:06:36.002Z</time>
      </trkpt>
      <trkpt lat="42.90421" lon="17.9774">
        <ele>360.702218</ele>
        <time>2022-06-11T09:06:39.025Z</time>
      </trkpt>
      <trkpt lat="42.90433" lon="17.97737">
        <ele>360.754273</ele>
        <time>2022-06-11T09:06:42.021Z</time>
      </trkpt>
      <trkpt lat="42.90443" lon="17.97737">
        <ele>360.801041</ele>
        <time>2022-06-11T09:06:45.016Z</time>
      </trkpt>
      <trkpt lat="42.90454" lon="17.97738">
        <ele>360.846278</ele>
        <time>2022-06-11T09:06:48.021Z</time>
      </trkpt>
      <trkpt lat="42.90464" lon="17.97741">
        <ele>360.892772</ele>
        <time>2022-06-11T09:06:51.022Z</time>
      </trkpt>
      <trkpt lat="42.90475" lon="17.97746">
        <ele>360.941773</ele>
        <time>2022-06-11T09:06:54.022Z</time>
      </trkpt>
      <trkpt lat="42.90484" lon="17.97751">
        <ele>360.986532</ele>
        <time>2022-06-11T09:06:57.016Z</time>
      </trkpt>
      <trkpt lat="42.90493" lon="17.97757">
        <ele>361.02986</ele>
        <time>2022-06-11T09:07:00.024Z</time>
      </trkpt>
      <trkpt lat="42.90503" lon="17.97762">
        <ele>361.074559</ele>
        <time>2022-06-11T09:07:03.015Z</time>
      </trkpt>
      <trkpt lat="42.90512" lon="17.97768">
        <ele>361.120406</ele>
        <time>2022-06-11T09:07:06.025Z</time>
      </trkpt>
      <trkpt lat="42.90522" lon="17.97773">
        <ele>361.166616</ele>
        <time>2022-06-11T09:07:09.015Z</time>
      </trkpt>
      <trkpt lat="42.90532" lon="17.97777">
        <ele>361.213471</ele>
        <time>2022-06-11T09:07:12.016Z</time>
      </trkpt>
      <trkpt lat="42.90543" lon="17.9778">
        <ele>361.182577</ele>
        <time>2022-06-11T09:07:15.011Z</time>
      </trkpt>
      <trkpt lat="42.90553" lon="17.97782">
        <ele>360.8876</ele>
        <time>2022-06-11T09:07:18.021Z</time>
      </trkpt>
      <trkpt lat="42.90564" lon="17.97783">
        <ele>360.593814</ele>
        <time>2022-06-11T09:07:21.021Z</time>
      </trkpt>
      <trkpt lat="42.90575" lon="17.97783">
        <ele>360.278565</ele>
        <time>2022-06-11T09:07:24.044Z</time>
      </trkpt>
      <trkpt lat="42.90585" lon="17.9778">
        <ele>359.991834</ele>
        <time>2022-06-11T09:07:27.021Z</time>
      </trkpt>
      <trkpt lat="42.90596" lon="17.97778">
        <ele>359.699983</ele>
        <time>2022-06-11T09:07:30.017Z</time>
      </trkpt>
      <trkpt lat="42.90605" lon="17.97774">
        <ele>359.421588</ele>
        <time>2022-06-11T09:07:33.004Z</time>
      </trkpt>
      <trkpt lat="42.90616" lon="17.97773">
        <ele>359.134396</ele>
        <time>2022-06-11T09:07:36.016Z</time>
      </trkpt>
      <trkpt lat="42.90627" lon="17.97769">
        <ele>358.810117</ele>
        <time>2022-06-11T09:07:39.011Z</time>
      </trkpt>
      <trkpt lat="42.90638" lon="17.97766">
        <ele>358.499972</ele>
        <time>2022-06-11T09:07:42.018Z</time>
      </trkpt>
      <trkpt lat="42.90649" lon="17.97762">
        <ele>358.184875</ele>
        <time>2022-06-11T09:07:45.004Z</time>
      </trkpt>
      <trkpt lat="42.9066" lon="17.97758">
        <ele>357.859743</ele>
        <time>2022-06-11T09:07:48.015Z</time>
      </trkpt>
      <trkpt lat="42.90671" lon="17.97754">
        <ele>357.542646</ele>
        <time>2022-06-11T09:07:51.017Z</time>
      </trkpt>
      <trkpt lat="42.90682" lon="17.9775">
        <ele>357.231176</ele>
        <time>2022-06-11T09:07:54.023Z</time>
      </trkpt>
      <trkpt lat="42.90693" lon="17.97747">
        <ele>356.904549</ele>
        <time>2022-06-11T09:07:57.062Z</time>
      </trkpt>
      <trkpt lat="42.90704" lon="17.97745">
        <ele>356.592201</ele>
        <time>2022-06-11T09:08:00.015Z</time>
      </trkpt>
      <trkpt lat="42.90715" lon="17.97743">
        <ele>356.298284</ele>
        <time>2022-06-11T09:08:03.046Z</time>
      </trkpt>
      <trkpt lat="42.90724" lon="17.9774">
        <ele>356.093394</ele>
        <time>2022-06-11T09:08:06.004Z</time>
      </trkpt>
      <trkpt lat="42.90734" lon="17.97737">
        <ele>355.908962</ele>
        <time>2022-06-11T09:08:09.043Z</time>
      </trkpt>
      <trkpt lat="42.90744" lon="17.97734">
        <ele>355.725419</ele>
        <time>2022-06-11T09:08:12.031Z</time>
      </trkpt>
      <trkpt lat="42.90754" lon="17.9773">
        <ele>355.536985</ele>
        <time>2022-06-11T09:08:15.049Z</time>
      </trkpt>
      <trkpt lat="42.90764" lon="17.97727">
        <ele>355.341196</ele>
        <time>2022-06-11T09:08:18.006Z</time>
      </trkpt>
      <trkpt lat="42.90775" lon="17.97724">
        <ele>355.146607</ele>
        <time>2022-06-11T09:08:21.028Z</time>
      </trkpt>
      <trkpt lat="42.90784" lon="17.9772">
        <ele>354.967313</ele>
        <time>2022-06-11T09:08:24.021Z</time>
      </trkpt>
      <trkpt lat="42.90793" lon="17.97715">
        <ele>354.788461</ele>
        <time>2022-06-11T09:08:27.021Z</time>
      </trkpt>
      <trkpt lat="42.90804" lon="17.97709">
        <ele>354.570594</ele>
        <time>2022-06-11T09:08:31.023Z</time>
      </trkpt>
      <trkpt lat="42.90813" lon="17.97704">
        <ele>354.395348</ele>
        <time>2022-06-11T09:08:34.017Z</time>
      </trkpt>
      <trkpt lat="42.90821" lon="17.97697">
        <ele>354.208701</ele>
        <time>2022-06-11T09:08:37.044Z</time>
      </trkpt>
      <trkpt lat="42.90831" lon="17.97689">
        <ele>354.012307</ele>
        <time>2022-06-11T09:08:40.026Z</time>
      </trkpt>
      <trkpt lat="42.90839" lon="17.97682">
        <ele>353.820065</ele>
        <time>2022-06-11T09:08:43.062Z</time>
      </trkpt>
      <trkpt lat="42.90848" lon="17.97674">
        <ele>353.640016</ele>
        <time>2022-06-11T09:08:46.017Z</time>
      </trkpt>
      <trkpt lat="42.90855" lon="17.97665">
        <ele>353.450433</ele>
        <time>2022-06-11T09:08:49.029Z</time>
      </trkpt>
      <trkpt lat="42.90863" lon="17.97656">
        <ele>353.254031</ele>
        <time>2022-06-11T09:08:52.015Z</time>
      </trkpt>
      <trkpt lat="42.90871" lon="17.97647">
        <ele>353.069228</ele>
        <time>2022-06-11T09:08:55.014Z</time>
      </trkpt>
      <trkpt lat="42.9088" lon="17.97638">
        <ele>353.009501</ele>
        <time>2022-06-11T09:08:58.028Z</time>
      </trkpt>
      <trkpt lat="42.90888" lon="17.97629">
        <ele>353.296388</ele>
        <time>2022-06-11T09:09:01.015Z</time>
      </trkpt>
      <trkpt lat="42.90895" lon="17.9762">
        <ele>353.577737</ele>
        <time>2022-06-11T09:09:04.061Z</time>
      </trkpt>
      <trkpt lat="42.90904" lon="17.97611">
        <ele>353.862078</ele>
        <time>2022-06-11T09:09:07.022Z</time>
      </trkpt>
      <trkpt lat="42.90912" lon="17.97603">
        <ele>354.149869</ele>
        <time>2022-06-11T09:09:10.019Z</time>
      </trkpt>
      <trkpt lat="42.9092" lon="17.97595">
        <ele>354.434923</ele>
        <time>2022-06-11T09:09:13.027Z</time>
      </trkpt>
      <trkpt lat="42.90929" lon="17.97587">
        <ele>354.721112</ele>
        <time>2022-06-11T09:09:16.016Z</time>
      </trkpt>
      <trkpt lat="42.90937" lon="17.97579">
        <ele>355.014241</ele>
        <time>2022-06-11T09:09:19.033Z</time>
      </trkpt>
      <trkpt lat="42.90947" lon="17.97571">
        <ele>355.314382</ele>
        <time>2022-06-11T09:09:22.030Z</time>
      </trkpt>
      <trkpt lat="42.90955" lon="17.97563">
        <ele>355.599507</ele>
        <time>2022-06-11T09:09:25.047Z</time>
      </trkpt>
      <trkpt lat="42.90964" lon="17.97556">
        <ele>355.878996</ele>
        <time>2022-06-11T09:09:28.031Z</time>
      </trkpt>
      <trkpt lat="42.90972" lon="17.9755">
        <ele>356.15405</ele>
        <time>2022-06-11T09:09:31.020Z</time>
      </trkpt>
      <trkpt lat="42.90982" lon="17.97543">
        <ele>356.454128</ele>
        <time>2022-06-11T09:09:34.019Z</time>
      </trkpt>
      <trkpt lat="42.90992" lon="17.97537">
        <ele>356.752371</ele>
        <time>2022-06-11T09:09:37.018Z</time>
      </trkpt>
      <trkpt lat="42.91001" lon="17.97529">
        <ele>357.047982</ele>
        <time>2022-06-11T09:09:40.022Z</time>
      </trkpt>
      <trkpt lat="42.91009" lon="17.97522">
        <ele>357.319511</ele>
        <time>2022-06-11T09:09:43.023Z</time>
      </trkpt>
      <trkpt lat="42.91017" lon="17.97514">
        <ele>357.589609</ele>
        <time>2022-06-11T09:09:46.030Z</time>
      </trkpt>
      <trkpt lat="42.91025" lon="17.97506">
        <ele>357.870114</ele>
        <time>2022-06-11T09:09:49.018Z</time>
      </trkpt>
      <trkpt lat="42.91032" lon="17.97498">
        <ele>358.104714</ele>
        <time>2022-06-11T09:09:52.016Z</time>
      </trkpt>
      <trkpt lat="42.91039" lon="17.97489">
        <ele>358.327436</ele>
        <time>2022-06-11T09:09:55.017Z</time>
      </trkpt>
      <trkpt lat="42.91047" lon="17.97481">
        <ele>358.554286</ele>
        <time>2022-06-11T09:09:58.014Z</time>
      </trkpt>
      <trkpt lat="42.91054" lon="17.97473">
        <ele>358.772949</ele>
        <time>2022-06-11T09:10:01.050Z</time>
      </trkpt>
      <trkpt lat="42.91063" lon="17.97462">
        <ele>359.054396</ele>
        <time>2022-06-11T09:10:05.017Z</time>
      </trkpt>
      <trkpt lat="42.91071" lon="17.97454">
        <ele>359.283382</ele>
        <time>2022-06-11T09:10:08.016Z</time>
      </trkpt>
      <trkpt lat="42.91078" lon="17.97445">
        <ele>359.506103</ele>
        <time>2022-06-11T09:10:11.019Z</time>
      </trkpt>
      <trkpt lat="42.91085" lon="17.97436">
        <ele>359.731159</ele>
        <time>2022-06-11T09:10:14.012Z</time>
      </trkpt>
      <trkpt lat="42.91091" lon="17.97427">
        <ele>359.947753</ele>
        <time>2022-06-11T09:10:17.044Z</time>
      </trkpt>
      <trkpt lat="42.91099" lon="17.97415">
        <ele>360.23537</ele>
        <time>2022-06-11T09:10:21.011Z</time>
      </trkpt>
      <trkpt lat="42.91106" lon="17.97405">
        <ele>360.466828</ele>
        <time>2022-06-11T09:10:24.044Z</time>
      </trkpt>
      <trkpt lat="42.91112" lon="17.97396">
        <ele>360.687525</ele>
        <time>2022-06-11T09:10:27.023Z</time>
      </trkpt>
      <trkpt lat="42.91119" lon="17.97386">
        <ele>360.912327</ele>
        <time>2022-06-11T09:10:30.023Z</time>
      </trkpt>
      <trkpt lat="42.91126" lon="17.97378">
        <ele>361.13855</ele>
        <time>2022-06-11T09:10:33.011Z</time>
      </trkpt>
      <trkpt lat="42.91134" lon="17.97369">
        <ele>361.375207</ele>
        <time>2022-06-11T09:10:36.018Z</time>
      </trkpt>
      <trkpt lat="42.91143" lon="17.9736">
        <ele>361.625158</ele>
        <time>2022-06-11T09:10:39.008Z</time>
      </trkpt>
      <trkpt lat="42.91152" lon="17.97352">
        <ele>361.881697</ele>
        <time>2022-06-11T09:10:42.022Z</time>
      </trkpt>
      <trkpt lat="42.91161" lon="17.97344">
        <ele>362.144542</ele>
        <time>2022-06-11T09:10:45.020Z</time>
      </trkpt>
      <trkpt lat="42.91171" lon="17.97337">
        <ele>361.81048</ele>
        <time>2022-06-11T09:10:48.023Z</time>
      </trkpt>
      <trkpt lat="42.91181" lon="17.9733">
        <ele>361.43817</ele>
        <time>2022-06-11T09:10:51.023Z</time>
      </trkpt>
      <trkpt lat="42.91191" lon="17.97324">
        <ele>361.07511</ele>
        <time>2022-06-11T09:10:54.028Z</time>
      </trkpt>
      <trkpt lat="42.91202" lon="17.97317">
        <ele>360.699051</ele>
        <time>2022-06-11T09:10:57.015Z</time>
      </trkpt>
      <trkpt lat="42.91212" lon="17.97311">
        <ele>360.329926</ele>
        <time>2022-06-11T09:11:00.017Z</time>
      </trkpt>
      <trkpt lat="42.91222" lon="17.97305">
        <ele>359.956957</ele>
        <time>2022-06-11T09:11:03.054Z</time>
      </trkpt>
      <trkpt lat="42.91233" lon="17.973">
        <ele>359.569095</ele>
        <time>2022-06-11T09:11:06.005Z</time>
      </trkpt>
      <trkpt lat="42.91244" lon="17.97294">
        <ele>359.183743</ele>
        <time>2022-06-11T09:11:09.029Z</time>
      </trkpt>
      <trkpt lat="42.91254" lon="17.97289">
        <ele>358.837497</ele>
        <time>2022-06-11T09:11:12.055Z</time>
      </trkpt>
      <trkpt lat="42.91264" lon="17.97284">
        <ele>358.477928</ele>
        <time>2022-06-11T09:11:15.060Z</time>
      </trkpt>
      <trkpt lat="42.91275" lon="17.97281">
        <ele>358.108604</ele>
        <time>2022-06-11T09:11:18.046Z</time>
      </trkpt>
      <trkpt lat="42.91287" lon="17.9728">
        <ele>357.711953</ele>
        <time>2022-06-11T09:11:21.026Z</time>
      </trkpt>
      <trkpt lat="42.91299" lon="17.9728">
        <ele>357.326184</ele>
        <time>2022-06-11T09:11:24.032Z</time>
      </trkpt>
      <trkpt lat="42.9131" lon="17.97282">
        <ele>356.958228</ele>
        <time>2022-06-11T09:11:27.039Z</time>
      </trkpt>
      <trkpt lat="42.91322" lon="17.97284">
        <ele>356.568549</ele>
        <time>2022-06-11T09:11:30.030Z</time>
      </trkpt>
      <trkpt lat="42.91333" lon="17.97287">
        <ele>356.240376</ele>
        <time>2022-06-11T09:11:33.015Z</time>
      </trkpt>
      <trkpt lat="42.91345" lon="17.97289">
        <ele>356.304234</ele>
        <time>2022-06-11T09:11:36.013Z</time>
      </trkpt>
      <trkpt lat="42.91356" lon="17.97291">
        <ele>356.36672</ele>
        <time>2022-06-11T09:11:39.015Z</time>
      </trkpt>
      <trkpt lat="42.91368" lon="17.97293">
        <ele>356.430198</ele>
        <time>2022-06-11T09:11:42.030Z</time>
      </trkpt>
      <trkpt lat="42.9138" lon="17.97293">
        <ele>356.495475</ele>
        <time>2022-06-11T09:11:45.020Z</time>
      </trkpt>
      <trkpt lat="42.91391" lon="17.97293">
        <ele>356.560753</ele>
        <time>2022-06-11T09:11:48.032Z</time>
      </trkpt>
      <trkpt lat="42.91403" lon="17.97292">
        <ele>356.625507</ele>
        <time>2022-06-11T09:11:51.030Z</time>
      </trkpt>
      <trkpt lat="42.91414" lon="17.97292">
        <ele>356.685286</ele>
        <time>2022-06-11T09:11:54.057Z</time>
      </trkpt>
      <trkpt lat="42.91425" lon="17.97292">
        <ele>356.746753</ele>
        <time>2022-06-11T09:11:57.021Z</time>
      </trkpt>
      <trkpt lat="42.91437" lon="17.97291">
        <ele>356.808878</ele>
        <time>2022-06-11T09:12:00.053Z</time>
      </trkpt>
      <trkpt lat="42.91448" lon="17.9729">
        <ele>356.869856</ele>
        <time>2022-06-11T09:12:03.025Z</time>
      </trkpt>
      <trkpt lat="42.91459" lon="17.97289">
        <ele>356.931406</ele>
        <time>2022-06-11T09:12:06.079Z</time>
      </trkpt>
      <trkpt lat="42.9147" lon="17.97288">
        <ele>356.991762</ele>
        <time>2022-06-11T09:12:09.023Z</time>
      </trkpt>
      <trkpt lat="42.91481" lon="17.97287">
        <ele>357.054908</ele>
        <time>2022-06-11T09:12:12.021Z</time>
      </trkpt>
      <trkpt lat="42.91492" lon="17.97285">
        <ele>357.114789</ele>
        <time>2022-06-11T09:12:15.026Z</time>
      </trkpt>
      <trkpt lat="42.91502" lon="17.97281">
        <ele>357.171711</ele>
        <time>2022-06-11T09:12:18.012Z</time>
      </trkpt>
      <trkpt lat="42.91512" lon="17.97276">
        <ele>357.236777</ele>
        <time>2022-06-11T09:12:21.024Z</time>
      </trkpt>
      <trkpt lat="42.91521" lon="17.97269">
        <ele>357.353287</ele>
        <time>2022-06-11T09:12:24.016Z</time>
      </trkpt>
      <trkpt lat="42.9153" lon="17.97262">
        <ele>357.469296</ele>
        <time>2022-06-11T09:12:27.029Z</time>
      </trkpt>
      <trkpt lat="42.91538" lon="17.97254">
        <ele>357.580744</ele>
        <time>2022-06-11T09:12:30.012Z</time>
      </trkpt>
      <trkpt lat="42.91546" lon="17.97245">
        <ele>357.697201</ele>
        <time>2022-06-11T09:12:33.028Z</time>
      </trkpt>
      <trkpt lat="42.91554" lon="17.97236">
        <ele>357.812178</ele>
        <time>2022-06-11T09:12:36.008Z</time>
      </trkpt>
      <trkpt lat="42.91561" lon="17.97225">
        <ele>357.92707</ele>
        <time>2022-06-11T09:12:39.074Z</time>
      </trkpt>
      <trkpt lat="42.91568" lon="17.97215">
        <ele>358.03959</ele>
        <time>2022-06-11T09:12:42.015Z</time>
      </trkpt>
      <trkpt lat="42.91575" lon="17.97204">
        <ele>358.156801</ele>
        <time>2022-06-11T09:12:45.039Z</time>
      </trkpt>
      <trkpt lat="42.91582" lon="17.97194">
        <ele>358.273435</ele>
        <time>2022-06-11T09:12:48.021Z</time>
      </trkpt>
      <trkpt lat="42.9159" lon="17.97184">
        <ele>358.389492</ele>
        <time>2022-06-11T09:12:51.021Z</time>
      </trkpt>
      <trkpt lat="42.91598" lon="17.97175">
        <ele>358.506553</ele>
        <time>2022-06-11T09:12:54.021Z</time>
      </trkpt>
      <trkpt lat="42.91608" lon="17.97167">
        <ele>358.630282</ele>
        <time>2022-06-11T09:12:57.021Z</time>
      </trkpt>
      <trkpt lat="42.91617" lon="17.9716">
        <ele>358.755084</ele>
        <time>2022-06-11T09:13:00.021Z</time>
      </trkpt>
      <trkpt lat="42.91627" lon="17.97154">
        <ele>358.875283</ele>
        <time>2022-06-11T09:13:03.012Z</time>
      </trkpt>
      <trkpt lat="42.91637" lon="17.9715">
        <ele>358.986856</ele>
        <time>2022-06-11T09:13:06.010Z</time>
      </trkpt>
      <trkpt lat="42.91647" lon="17.97147">
        <ele>359.098625</ele>
        <time>2022-06-11T09:13:09.032Z</time>
      </trkpt>
      <trkpt lat="42.91657" lon="17.97142">
        <ele>359.209534</ele>
        <time>2022-06-11T09:13:12.025Z</time>
      </trkpt>
      <trkpt lat="42.91668" lon="17.97138">
        <ele>359.137754</ele>
        <time>2022-06-11T09:13:15.021Z</time>
      </trkpt>
      <trkpt lat="42.91678" lon="17.97135">
        <ele>359.071841</ele>
        <time>2022-06-11T09:13:18.026Z</time>
      </trkpt>
      <trkpt lat="42.91688" lon="17.97131">
        <ele>359.004675</ele>
        <time>2022-06-11T09:13:21.025Z</time>
      </trkpt>
      <trkpt lat="42.91698" lon="17.97128">
        <ele>358.937394</ele>
        <time>2022-06-11T09:13:24.057Z</time>
      </trkpt>
      <trkpt lat="42.91708" lon="17.97125">
        <ele>358.872334</ele>
        <time>2022-06-11T09:13:27.011Z</time>
      </trkpt>
      <trkpt lat="42.91718" lon="17.97121">
        <ele>358.803914</ele>
        <time>2022-06-11T09:13:30.012Z</time>
      </trkpt>
      <trkpt lat="42.91729" lon="17.97117">
        <ele>358.7334</ele>
        <time>2022-06-11T09:13:33.014Z</time>
      </trkpt>
      <trkpt lat="42.91739" lon="17.97113">
        <ele>358.662517</ele>
        <time>2022-06-11T09:13:36.014Z</time>
      </trkpt>
      <trkpt lat="42.9175" lon="17.97109">
        <ele>358.593004</ele>
        <time>2022-06-11T09:13:39.013Z</time>
      </trkpt>
      <trkpt lat="42.9176" lon="17.97107">
        <ele>358.526967</ele>
        <time>2022-06-11T09:13:42.023Z</time>
      </trkpt>
      <trkpt lat="42.9177" lon="17.97104">
        <ele>358.458546</ele>
        <time>2022-06-11T09:13:45.049Z</time>
      </trkpt>
      <trkpt lat="42.91781" lon="17.97102">
        <ele>358.391372</ele>
        <time>2022-06-11T09:13:48.023Z</time>
      </trkpt>
      <trkpt lat="42.91791" lon="17.971">
        <ele>358.321063</ele>
        <time>2022-06-11T09:13:51.014Z</time>
      </trkpt>
      <trkpt lat="42.91802" lon="17.97099">
        <ele>358.255121</ele>
        <time>2022-06-11T09:13:54.022Z</time>
      </trkpt>
      <trkpt lat="42.91812" lon="17.97097">
        <ele>358.189644</ele>
        <time>2022-06-11T09:13:57.024Z</time>
      </trkpt>
      <trkpt lat="42.91822" lon="17.97095">
        <ele>358.121541</ele>
        <time>2022-06-11T09:14:00.021Z</time>
      </trkpt>
      <trkpt lat="42.91832" lon="17.97091">
        <ele>358.054375</ele>
        <time>2022-06-11T09:14:03.048Z</time>
      </trkpt>
      <trkpt lat="42.91842" lon="17.97086">
        <ele>358.087506</ele>
        <time>2022-06-11T09:14:06.003Z</time>
      </trkpt>
      <trkpt lat="42.91852" lon="17.9708">
        <ele>358.124395</ele>
        <time>2022-06-11T09:14:09.060Z</time>
      </trkpt>
      <trkpt lat="42.91862" lon="17.97074">
        <ele>358.160376</ele>
        <time>2022-06-11T09:14:12.063Z</time>
      </trkpt>
      <trkpt lat="42.91872" lon="17.97066">
        <ele>358.197458</ele>
        <time>2022-06-11T09:14:15.006Z</time>
      </trkpt>
      <trkpt lat="42.91882" lon="17.97059">
        <ele>358.233444</ele>
        <time>2022-06-11T09:14:18.012Z</time>
      </trkpt>
      <trkpt lat="42.91891" lon="17.97051">
        <ele>358.269523</ele>
        <time>2022-06-11T09:14:21.022Z</time>
      </trkpt>
      <trkpt lat="42.919" lon="17.97042">
        <ele>358.305987</ele>
        <time>2022-06-11T09:14:24.015Z</time>
      </trkpt>
      <trkpt lat="42.91909" lon="17.97033">
        <ele>358.344085</ele>
        <time>2022-06-11T09:14:27.015Z</time>
      </trkpt>
      <trkpt lat="42.91919" lon="17.97023">
        <ele>358.3822</ele>
        <time>2022-06-11T09:14:30.014Z</time>
      </trkpt>
      <trkpt lat="42.91927" lon="17.97014">
        <ele>358.41813</ele>
        <time>2022-06-11T09:14:33.031Z</time>
      </trkpt>
      <trkpt lat="42.91936" lon="17.97005">
        <ele>358.456458</ele>
        <time>2022-06-11T09:14:36.010Z</time>
      </trkpt>
      <trkpt lat="42.91945" lon="17.96994">
        <ele>358.494388</ele>
        <time>2022-06-11T09:14:39.022Z</time>
      </trkpt>
      <trkpt lat="42.91954" lon="17.96984">
        <ele>358.532819</ele>
        <time>2022-06-11T09:14:42.021Z</time>
      </trkpt>
      <trkpt lat="42.91963" lon="17.96974">
        <ele>358.57075</ele>
        <time>2022-06-11T09:14:45.060Z</time>
      </trkpt>
      <trkpt lat="42.91971" lon="17.96964">
        <ele>358.607648</ele>
        <time>2022-06-11T09:14:48.054Z</time>
      </trkpt>
      <trkpt lat="42.91979" lon="17.96953">
        <ele>358.644437</ele>
        <time>2022-06-11T09:14:51.024Z</time>
      </trkpt>
      <trkpt lat="42.91986" lon="17.9694">
        <ele>358.47647</ele>
        <time>2022-06-11T09:14:54.018Z</time>
      </trkpt>
      <trkpt lat="42.91992" lon="17.96928">
        <ele>358.309801</ele>
        <time>2022-06-11T09:14:57.019Z</time>
      </trkpt>
      <trkpt lat="42.91997" lon="17.96914">
        <ele>358.141501</ele>
        <time>2022-06-11T09:15:00.019Z</time>
      </trkpt>
      <trkpt lat="42.92003" lon="17.969">
        <ele>357.964881</ele>
        <time>2022-06-11T09:15:03.011Z</time>
      </trkpt>
      <trkpt lat="42.92007" lon="17.96886">
        <ele>357.78753</ele>
        <time>2022-06-11T09:15:06.000Z</time>
      </trkpt>
      <trkpt lat="42.92012" lon="17.96871">
        <ele>357.607915</ele>
        <time>2022-06-11T09:15:09.020Z</time>
      </trkpt>
      <trkpt lat="42.92018" lon="17.96856">
        <ele>357.426005</ele>
        <time>2022-06-11T09:15:12.019Z</time>
      </trkpt>
      <trkpt lat="42.92022" lon="17.96842">
        <ele>357.2547</ele>
        <time>2022-06-11T09:15:15.027Z</time>
      </trkpt>
      <trkpt lat="42.92028" lon="17.96829">
        <ele>357.086644</ele>
        <time>2022-06-11T09:15:18.026Z</time>
      </trkpt>
      <trkpt lat="42.92033" lon="17.96815">
        <ele>356.919567</ele>
        <time>2022-06-11T09:15:21.028Z</time>
      </trkpt>
      <trkpt lat="42.92039" lon="17.96803">
        <ele>356.74866</ele>
        <time>2022-06-11T09:15:24.020Z</time>
      </trkpt>
      <trkpt lat="42.92045" lon="17.9679">
        <ele>356.580437</ele>
        <time>2022-06-11T09:15:27.010Z</time>
      </trkpt>
      <trkpt lat="42.92052" lon="17.96777">
        <ele>356.409641</ele>
        <time>2022-06-11T09:15:30.030Z</time>
      </trkpt>
      <trkpt lat="42.92058" lon="17.96765">
        <ele>356.243335</ele>
        <time>2022-06-11T09:15:33.013Z</time>
      </trkpt>
      <trkpt lat="42.92066" lon="17.96753">
        <ele>356.057538</ele>
        <time>2022-06-11T09:15:36.022Z</time>
      </trkpt>
      <trkpt lat="42.92074" lon="17.96741">
        <ele>355.874709</ele>
        <time>2022-06-11T09:15:39.015Z</time>
      </trkpt>
      <trkpt lat="42.92082" lon="17.96729">
        <ele>355.697485</ele>
        <time>2022-06-11T09:15:42.013Z</time>
      </trkpt>
      <trkpt lat="42.9209" lon="17.96718">
        <ele>355.519807</ele>
        <time>2022-06-11T09:15:45.028Z</time>
      </trkpt>
      <trkpt lat="42.92097" lon="17.96708">
        <ele>355.357423</ele>
        <time>2022-06-11T09:15:48.025Z</time>
      </trkpt>
      <trkpt lat="42.92104" lon="17.96697">
        <ele>355.187398</ele>
        <time>2022-06-11T09:15:51.040Z</time>
      </trkpt>
      <trkpt lat="42.92112" lon="17.96687">
        <ele>355.017515</ele>
        <time>2022-06-11T09:15:54.022Z</time>
      </trkpt>
      <trkpt lat="42.92121" lon="17.96676">
        <ele>354.838357</ele>
        <time>2022-06-11T09:15:57.026Z</time>
      </trkpt>
      <trkpt lat="42.92129" lon="17.96667">
        <ele>354.660101</ele>
        <time>2022-06-11T09:16:00.029Z</time>
      </trkpt>
      <trkpt lat="42.92138" lon="17.96657">
        <ele>354.485001</ele>
        <time>2022-06-11T09:16:03.011Z</time>
      </trkpt>
      <trkpt lat="42.92147" lon="17.96647">
        <ele>354.30819</ele>
        <time>2022-06-11T09:16:06.020Z</time>
      </trkpt>
      <trkpt lat="42.92156" lon="17.96638">
        <ele>354.125293</ele>
        <time>2022-06-11T09:16:09.014Z</time>
      </trkpt>
      <trkpt lat="42.92166" lon="17.96629">
        <ele>353.942468</ele>
        <time>2022-06-11T09:16:12.027Z</time>
      </trkpt>
      <trkpt lat="42.92175" lon="17.9662">
        <ele>353.768096</ele>
        <time>2022-06-11T09:16:15.046Z</time>
      </trkpt>
      <trkpt lat="42.92184" lon="17.96611">
        <ele>353.587581</ele>
        <time>2022-06-11T09:16:18.032Z</time>
      </trkpt>
      <trkpt lat="42.92193" lon="17.966">
        <ele>353.404538</ele>
        <time>2022-06-11T09:16:21.032Z</time>
      </trkpt>
      <trkpt lat="42.922" lon="17.96588">
        <ele>353.22837</ele>
        <time>2022-06-11T09:16:24.027Z</time>
      </trkpt>
      <trkpt lat="42.92207" lon="17.96576">
        <ele>353.063197</ele>
        <time>2022-06-11T09:16:27.029Z</time>
      </trkpt>
      <trkpt lat="42.92214" lon="17.96564">
        <ele>352.932345</ele>
        <time>2022-06-11T09:16:30.027Z</time>
      </trkpt>
      <trkpt lat="42.9222" lon="17.96551">
        <ele>352.806256</ele>
        <time>2022-06-11T09:16:33.051Z</time>
      </trkpt>
      <trkpt lat="42.92225" lon="17.96537">
        <ele>352.681071</ele>
        <time>2022-06-11T09:16:36.063Z</time>
      </trkpt>
      <trkpt lat="42.92229" lon="17.96524">
        <ele>352.562524</ele>
        <time>2022-06-11T09:16:39.029Z</time>
      </trkpt>
      <trkpt lat="42.92231" lon="17.9651">
        <ele>352.44483</ele>
        <time>2022-06-11T09:16:42.023Z</time>
      </trkpt>
      <trkpt lat="42.92233" lon="17.96495">
        <ele>352.316781</ele>
        <time>2022-06-11T09:16:45.028Z</time>
      </trkpt>
      <trkpt lat="42.92234" lon="17.96479">
        <ele>352.183695</ele>
        <time>2022-06-11T09:16:48.023Z</time>
      </trkpt>
      <trkpt lat="42.92235" lon="17.96463">
        <ele>352.053295</ele>
        <time>2022-06-11T09:16:51.012Z</time>
      </trkpt>
      <trkpt lat="42.92237" lon="17.96447">
        <ele>351.919386</ele>
        <time>2022-06-11T09:16:54.023Z</time>
      </trkpt>
      <trkpt lat="42.92237" lon="17.96431">
        <ele>351.788605</ele>
        <time>2022-06-11T09:16:57.016Z</time>
      </trkpt>
      <trkpt lat="42.92238" lon="17.96415">
        <ele>351.657555</ele>
        <time>2022-06-11T09:17:00.021Z</time>
      </trkpt>
      <trkpt lat="42.92239" lon="17.964">
        <ele>351.528803</ele>
        <time>2022-06-11T09:17:03.017Z</time>
      </trkpt>
      <trkpt lat="42.9224" lon="17.96384">
        <ele>351.399935</ele>
        <time>2022-06-11T09:17:06.004Z</time>
      </trkpt>
      <trkpt lat="42.92243" lon="17.96369">
        <ele>351.273126</ele>
        <time>2022-06-11T09:17:09.026Z</time>
      </trkpt>
      <trkpt lat="42.92246" lon="17.96353">
        <ele>351.136206</ele>
        <time>2022-06-11T09:17:12.028Z</time>
      </trkpt>
      <trkpt lat="42.92251" lon="17.96337">
        <ele>351.041055</ele>
        <time>2022-06-11T09:17:15.020Z</time>
      </trkpt>
      <trkpt lat="42.92256" lon="17.96322">
        <ele>350.993018</ele>
        <time>2022-06-11T09:17:18.031Z</time>
      </trkpt>
      <trkpt lat="42.92262" lon="17.96308">
        <ele>350.944666</ele>
        <time>2022-06-11T09:17:21.013Z</time>
      </trkpt>
      <trkpt lat="42.92269" lon="17.96295">
        <ele>350.898303</ele>
        <time>2022-06-11T09:17:24.011Z</time>
      </trkpt>
      <trkpt lat="42.92275" lon="17.96281">
        <ele>350.848575</ele>
        <time>2022-06-11T09:17:27.010Z</time>
      </trkpt>
      <trkpt lat="42.92282" lon="17.96265">
        <ele>350.7978</ele>
        <time>2022-06-11T09:17:30.009Z</time>
      </trkpt>
      <trkpt lat="42.92287" lon="17.96249">
        <ele>350.746715</ele>
        <time>2022-06-11T09:17:33.056Z</time>
      </trkpt>
      <trkpt lat="42.9229" lon="17.96232">
        <ele>350.695631</ele>
        <time>2022-06-11T09:17:36.011Z</time>
      </trkpt>
      <trkpt lat="42.92294" lon="17.96216">
        <ele>350.64511</ele>
        <time>2022-06-11T09:17:39.029Z</time>
      </trkpt>
      <trkpt lat="42.92296" lon="17.96204">
        <ele>350.609355</ele>
        <time>2022-06-11T09:17:41.025Z</time>
      </trkpt>
      <trkpt lat="42.92299" lon="17.96192">
        <ele>350.572817</ele>
        <time>2022-06-11T09:17:43.048Z</time>
      </trkpt>
      <trkpt lat="42.92303" lon="17.96175">
        <ele>350.519939</ele>
        <time>2022-06-11T09:17:46.035Z</time>
      </trkpt>
      <trkpt lat="42.92306" lon="17.96157">
        <ele>350.466783</ele>
        <time>2022-06-11T09:17:49.024Z</time>
      </trkpt>
      <trkpt lat="42.92309" lon="17.96141">
        <ele>350.419107</ele>
        <time>2022-06-11T09:17:52.052Z</time>
      </trkpt>
      <trkpt lat="42.92314" lon="17.96125">
        <ele>350.369131</ele>
        <time>2022-06-11T09:17:55.012Z</time>
      </trkpt>
      <trkpt lat="42.92319" lon="17.96109">
        <ele>350.530453</ele>
        <time>2022-06-11T09:17:58.017Z</time>
      </trkpt>
      <trkpt lat="42.92322" lon="17.96098">
        <ele>350.717875</ele>
        <time>2022-06-11T09:18:00.014Z</time>
      </trkpt>
      <trkpt lat="42.92327" lon="17.96086">
        <ele>350.908874</ele>
        <time>2022-06-11T09:18:02.020Z</time>
      </trkpt>
      <trkpt lat="42.92331" lon="17.96075">
        <ele>351.103977</ele>
        <time>2022-06-11T09:18:04.019Z</time>
      </trkpt>
      <trkpt lat="42.92336" lon="17.96058">
        <ele>351.383643</ele>
        <time>2022-06-11T09:18:07.047Z</time>
      </trkpt>
      <trkpt lat="42.92342" lon="17.96042">
        <ele>351.661449</ele>
        <time>2022-06-11T09:18:10.026Z</time>
      </trkpt>
      <trkpt lat="42.92346" lon="17.96031">
        <ele>351.852898</ele>
        <time>2022-06-11T09:18:12.021Z</time>
      </trkpt>
      <trkpt lat="42.9235" lon="17.96019">
        <ele>352.046196</ele>
        <time>2022-06-11T09:18:14.030Z</time>
      </trkpt>
      <trkpt lat="42.92355" lon="17.96009">
        <ele>352.237405</ele>
        <time>2022-06-11T09:18:16.007Z</time>
      </trkpt>
      <trkpt lat="42.92361" lon="17.95998">
        <ele>352.433088</ele>
        <time>2022-06-11T09:18:18.049Z</time>
      </trkpt>
      <trkpt lat="42.92367" lon="17.95988">
        <ele>352.631282</ele>
        <time>2022-06-11T09:18:20.034Z</time>
      </trkpt>
      <trkpt lat="42.92372" lon="17.95978">
        <ele>352.829554</ele>
        <time>2022-06-11T09:18:22.009Z</time>
      </trkpt>
      <trkpt lat="42.9238" lon="17.95963">
        <ele>353.105265</ele>
        <time>2022-06-11T09:18:25.028Z</time>
      </trkpt>
      <trkpt lat="42.92388" lon="17.95949">
        <ele>353.379707</ele>
        <time>2022-06-11T09:18:28.014Z</time>
      </trkpt>
      <trkpt lat="42.92396" lon="17.95934">
        <ele>353.651742</ele>
        <time>2022-06-11T09:18:31.016Z</time>
      </trkpt>
      <trkpt lat="42.92404" lon="17.9592">
        <ele>353.92989</ele>
        <time>2022-06-11T09:18:34.016Z</time>
      </trkpt>
      <trkpt lat="42.9241" lon="17.9591">
        <ele>354.092833</ele>
        <time>2022-06-11T09:18:36.006Z</time>
      </trkpt>
      <trkpt lat="42.92418" lon="17.95896">
        <ele>354.032892</ele>
        <time>2022-06-11T09:18:39.016Z</time>
      </trkpt>
      <trkpt lat="42.92427" lon="17.95883">
        <ele>353.973387</ele>
        <time>2022-06-11T09:18:42.039Z</time>
      </trkpt>
      <trkpt lat="42.92436" lon="17.9587">
        <ele>353.917217</ele>
        <time>2022-06-11T09:18:45.019Z</time>
      </trkpt>
      <trkpt lat="42.92444" lon="17.95857">
        <ele>353.858439</ele>
        <time>2022-06-11T09:18:48.030Z</time>
      </trkpt>
      <trkpt lat="42.92454" lon="17.95844">
        <ele>353.7988</ele>
        <time>2022-06-11T09:18:51.023Z</time>
      </trkpt>
      <trkpt lat="42.92462" lon="17.95831">
        <ele>353.741157</ele>
        <time>2022-06-11T09:18:54.033Z</time>
      </trkpt>
      <trkpt lat="42.92468" lon="17.95821">
        <ele>353.699042</ele>
        <time>2022-06-11T09:18:56.015Z</time>
      </trkpt>
      <trkpt lat="42.92473" lon="17.95811">
        <ele>353.656937</ele>
        <time>2022-06-11T09:18:58.027Z</time>
      </trkpt>
      <trkpt lat="42.92478" lon="17.958">
        <ele>353.614929</ele>
        <time>2022-06-11T09:19:00.023Z</time>
      </trkpt>
      <trkpt lat="42.92482" lon="17.95789">
        <ele>353.574111</ele>
        <time>2022-06-11T09:19:02.020Z</time>
      </trkpt>
      <trkpt lat="42.92487" lon="17.95778">
        <ele>353.532164</ele>
        <time>2022-06-11T09:19:04.054Z</time>
      </trkpt>
      <trkpt lat="42.9249" lon="17.95766">
        <ele>353.489707</ele>
        <time>2022-06-11T09:19:06.023Z</time>
      </trkpt>
      <trkpt lat="42.92494" lon="17.95755">
        <ele>353.449528</ele>
        <time>2022-06-11T09:19:08.012Z</time>
      </trkpt>
      <trkpt lat="42.92498" lon="17.95738">
        <ele>353.390273</ele>
        <time>2022-06-11T09:19:11.027Z</time>
      </trkpt>
      <trkpt lat="42.92502" lon="17.95721">
        <ele>353.331643</ele>
        <time>2022-06-11T09:19:14.057Z</time>
      </trkpt>
      <trkpt lat="42.92506" lon="17.95705">
        <ele>353.203213</ele>
        <time>2022-06-11T09:19:17.031Z</time>
      </trkpt>
      <trkpt lat="42.9251" lon="17.95688">
        <ele>352.816531</ele>
        <time>2022-06-11T09:19:20.019Z</time>
      </trkpt>
      <trkpt lat="42.92515" lon="17.95673">
        <ele>352.43845</ele>
        <time>2022-06-11T09:19:23.023Z</time>
      </trkpt>
      <trkpt lat="42.92519" lon="17.95659">
        <ele>352.084761</ele>
        <time>2022-06-11T09:19:26.028Z</time>
      </trkpt>
      <trkpt lat="42.92523" lon="17.95646">
        <ele>351.759911</ele>
        <time>2022-06-11T09:19:29.017Z</time>
      </trkpt>
      <trkpt lat="42.92528" lon="17.95632">
        <ele>351.417712</ele>
        <time>2022-06-11T09:19:32.020Z</time>
      </trkpt>
      <trkpt lat="42.92534" lon="17.95619">
        <ele>351.068284</ele>
        <time>2022-06-11T09:19:35.023Z</time>
      </trkpt>
      <trkpt lat="42.9254" lon="17.95606">
        <ele>350.717597</ele>
        <time>2022-06-11T09:19:38.028Z</time>
      </trkpt>
      <trkpt lat="42.92545" lon="17.95593">
        <ele>350.390207</ele>
        <time>2022-06-11T09:19:41.028Z</time>
      </trkpt>
      <trkpt lat="42.9255" lon="17.9558">
        <ele>350.051415</ele>
        <time>2022-06-11T09:19:44.011Z</time>
      </trkpt>
      <trkpt lat="42.92555" lon="17.95567">
        <ele>349.70356</ele>
        <time>2022-06-11T09:19:47.017Z</time>
      </trkpt>
      <trkpt lat="42.92561" lon="17.95553">
        <ele>349.345302</ele>
        <time>2022-06-11T09:19:50.025Z</time>
      </trkpt>
      <trkpt lat="42.92566" lon="17.95538">
        <ele>348.974125</ele>
        <time>2022-06-11T09:19:53.027Z</time>
      </trkpt>
      <trkpt lat="42.92571" lon="17.95522">
        <ele>348.577458</ele>
        <time>2022-06-11T09:19:56.018Z</time>
      </trkpt>
      <trkpt lat="42.92575" lon="17.95506">
        <ele>348.182003</ele>
        <time>2022-06-11T09:19:59.075Z</time>
      </trkpt>
      <trkpt lat="42.92581" lon="17.95491">
        <ele>347.790609</ele>
        <time>2022-06-11T09:20:02.010Z</time>
      </trkpt>
      <trkpt lat="42.92586" lon="17.95476">
        <ele>347.743753</ele>
        <time>2022-06-11T09:20:05.008Z</time>
      </trkpt>
      <trkpt lat="42.92591" lon="17.9546">
        <ele>347.823457</ele>
        <time>2022-06-11T09:20:08.029Z</time>
      </trkpt>
      <trkpt lat="42.92596" lon="17.95443">
        <ele>347.911053</ele>
        <time>2022-06-11T09:20:11.026Z</time>
      </trkpt>
      <trkpt lat="42.92602" lon="17.95427">
        <ele>347.997173</ele>
        <time>2022-06-11T09:20:14.030Z</time>
      </trkpt>
      <trkpt lat="42.92607" lon="17.95412">
        <ele>348.07557</ele>
        <time>2022-06-11T09:20:17.016Z</time>
      </trkpt>
      <trkpt lat="42.92613" lon="17.95398">
        <ele>348.152263</ele>
        <time>2022-06-11T09:20:20.049Z</time>
      </trkpt>
      <trkpt lat="42.92619" lon="17.95386">
        <ele>348.226753</ele>
        <time>2022-06-11T09:20:23.024Z</time>
      </trkpt>
      <trkpt lat="42.92627" lon="17.95373">
        <ele>348.303733</ele>
        <time>2022-06-11T09:20:26.020Z</time>
      </trkpt>
      <trkpt lat="42.92634" lon="17.9536">
        <ele>348.384407</ele>
        <time>2022-06-11T09:20:29.028Z</time>
      </trkpt>
      <trkpt lat="42.92642" lon="17.95347">
        <ele>348.463136</ele>
        <time>2022-06-11T09:20:32.030Z</time>
      </trkpt>
      <trkpt lat="42.9265" lon="17.95333">
        <ele>348.549234</ele>
        <time>2022-06-11T09:20:35.015Z</time>
      </trkpt>
      <trkpt lat="42.92655" lon="17.95323">
        <ele>348.609071</ele>
        <time>2022-06-11T09:20:37.022Z</time>
      </trkpt>
      <trkpt lat="42.92661" lon="17.95313">
        <ele>348.669686</ele>
        <time>2022-06-11T09:20:39.028Z</time>
      </trkpt>
      <trkpt lat="42.92667" lon="17.95303">
        <ele>348.729522</ele>
        <time>2022-06-11T09:20:41.014Z</time>
      </trkpt>
      <trkpt lat="42.92674" lon="17.95289">
        <ele>348.813656</ele>
        <time>2022-06-11T09:20:44.012Z</time>
      </trkpt>
      <trkpt lat="42.92679" lon="17.95278">
        <ele>348.823182</ele>
        <time>2022-06-11T09:20:46.013Z</time>
      </trkpt>
      <trkpt lat="42.92686" lon="17.95263">
        <ele>348.566012</ele>
        <time>2022-06-11T09:20:49.007Z</time>
      </trkpt>
      <trkpt lat="42.92691" lon="17.95248">
        <ele>348.325753</ele>
        <time>2022-06-11T09:20:52.008Z</time>
      </trkpt>
      <trkpt lat="42.92696" lon="17.95232">
        <ele>348.081902</ele>
        <time>2022-06-11T09:20:55.024Z</time>
      </trkpt>
      <trkpt lat="42.927" lon="17.95216">
        <ele>347.831915</ele>
        <time>2022-06-11T09:20:58.029Z</time>
      </trkpt>
      <trkpt lat="42.92704" lon="17.952">
        <ele>347.589869</ele>
        <time>2022-06-11T09:21:01.024Z</time>
      </trkpt>
      <trkpt lat="42.92708" lon="17.95183">
        <ele>347.331053</ele>
        <time>2022-06-11T09:21:04.022Z</time>
      </trkpt>
      <trkpt lat="42.92712" lon="17.95166">
        <ele>347.074968</ele>
        <time>2022-06-11T09:21:07.018Z</time>
      </trkpt>
      <trkpt lat="42.92715" lon="17.95154">
        <ele>346.891405</ele>
        <time>2022-06-11T09:21:09.029Z</time>
      </trkpt>
      <trkpt lat="42.9272" lon="17.95137">
        <ele>346.633351</ele>
        <time>2022-06-11T09:21:12.020Z</time>
      </trkpt>
      <trkpt lat="42.92724" lon="17.9512">
        <ele>346.371044</ele>
        <time>2022-06-11T09:21:15.024Z</time>
      </trkpt>
      <trkpt lat="42.92727" lon="17.95108">
        <ele>346.18883</ele>
        <time>2022-06-11T09:21:17.061Z</time>
      </trkpt>
      <trkpt lat="42.9273" lon="17.95096">
        <ele>346.009895</ele>
        <time>2022-06-11T09:21:19.021Z</time>
      </trkpt>
      <trkpt lat="42.92734" lon="17.95079">
        <ele>345.744364</ele>
        <time>2022-06-11T09:21:22.027Z</time>
      </trkpt>
      <trkpt lat="42.92736" lon="17.95067">
        <ele>345.562634</ele>
        <time>2022-06-11T09:21:24.015Z</time>
      </trkpt>
      <trkpt lat="42.92738" lon="17.95048">
        <ele>345.315096</ele>
        <time>2022-06-11T09:21:27.019Z</time>
      </trkpt>
      <trkpt lat="42.92739" lon="17.95036">
        <ele>345.292769</ele>
        <time>2022-06-11T09:21:29.023Z</time>
      </trkpt>
      <trkpt lat="42.9274" lon="17.95023">
        <ele>345.270788</ele>
        <time>2022-06-11T09:21:31.032Z</time>
      </trkpt>
      <trkpt lat="42.9274" lon="17.9501">
        <ele>345.248541</ele>
        <time>2022-06-11T09:21:33.023Z</time>
      </trkpt>
      <trkpt lat="42.92739" lon="17.94998">
        <ele>345.226811</ele>
        <time>2022-06-11T09:21:35.028Z</time>
      </trkpt>
      <trkpt lat="42.92739" lon="17.94985">
        <ele>345.204739</ele>
        <time>2022-06-11T09:21:37.030Z</time>
      </trkpt>
      <trkpt lat="42.92739" lon="17.94972">
        <ele>345.182473</ele>
        <time>2022-06-11T09:21:39.039Z</time>
      </trkpt>
      <trkpt lat="42.92739" lon="17.94959">
        <ele>345.160049</ele>
        <time>2022-06-11T09:21:41.024Z</time>
      </trkpt>
      <trkpt lat="42.92738" lon="17.94947">
        <ele>345.138046</ele>
        <time>2022-06-11T09:21:43.015Z</time>
      </trkpt>
      <trkpt lat="42.92737" lon="17.94934">
        <ele>345.115993</ele>
        <time>2022-06-11T09:21:45.023Z</time>
      </trkpt>
      <trkpt lat="42.92736" lon="17.94922">
        <ele>345.094032</ele>
        <time>2022-06-11T09:21:47.031Z</time>
      </trkpt>
      <trkpt lat="42.92735" lon="17.94909">
        <ele>345.072523</ele>
        <time>2022-06-11T09:21:49.032Z</time>
      </trkpt>
      <trkpt lat="42.92734" lon="17.94897">
        <ele>345.050815</ele>
        <time>2022-06-11T09:21:51.014Z</time>
      </trkpt>
      <trkpt lat="42.92732" lon="17.94879">
        <ele>345.018864</ele>
        <time>2022-06-11T09:21:54.018Z</time>
      </trkpt>
      <trkpt lat="42.92731" lon="17.94866">
        <ele>344.996638</ele>
        <time>2022-06-11T09:21:56.014Z</time>
      </trkpt>
      <trkpt lat="42.9273" lon="17.94853">
        <ele>344.974138</ele>
        <time>2022-06-11T09:21:58.023Z</time>
      </trkpt>
      <trkpt lat="42.9273" lon="17.9484">
        <ele>344.952208</ele>
        <time>2022-06-11T09:22:00.043Z</time>
      </trkpt>
      <trkpt lat="42.92729" lon="17.94822">
        <ele>344.920867</ele>
        <time>2022-06-11T09:22:03.016Z</time>
      </trkpt>
      <trkpt lat="42.92728" lon="17.94805">
        <ele>344.890707</ele>
        <time>2022-06-11T09:22:06.012Z</time>
      </trkpt>
      <trkpt lat="42.92728" lon="17.94788">
        <ele>345.254798</ele>
        <time>2022-06-11T09:22:09.026Z</time>
      </trkpt>
      <trkpt lat="42.9273" lon="17.94771">
        <ele>345.621684</ele>
        <time>2022-06-11T09:22:12.026Z</time>
      </trkpt>
      <trkpt lat="42.92734" lon="17.94754">
        <ele>345.998079</ele>
        <time>2022-06-11T09:22:15.016Z</time>
      </trkpt>
      <trkpt lat="42.92739" lon="17.94737">
        <ele>346.39292</ele>
        <time>2022-06-11T09:22:18.020Z</time>
      </trkpt>
      <trkpt lat="42.92743" lon="17.94726">
        <ele>346.657464</ele>
        <time>2022-06-11T09:22:20.022Z</time>
      </trkpt>
      <trkpt lat="42.92747" lon="17.94715">
        <ele>346.924698</ele>
        <time>2022-06-11T09:22:22.023Z</time>
      </trkpt>
      <trkpt lat="42.92753" lon="17.94699">
        <ele>347.314377</ele>
        <time>2022-06-11T09:22:25.018Z</time>
      </trkpt>
      <trkpt lat="42.92758" lon="17.94683">
        <ele>347.688035</ele>
        <time>2022-06-11T09:22:28.023Z</time>
      </trkpt>
      <trkpt lat="42.92762" lon="17.94667">
        <ele>348.057359</ele>
        <time>2022-06-11T09:22:31.026Z</time>
      </trkpt>
      <trkpt lat="42.92765" lon="17.9465">
        <ele>348.422431</ele>
        <time>2022-06-11T09:22:34.050Z</time>
      </trkpt>
      <trkpt lat="42.92768" lon="17.94633">
        <ele>348.800917</ele>
        <time>2022-06-11T09:22:37.021Z</time>
      </trkpt>
      <trkpt lat="42.92769" lon="17.94615">
        <ele>349.181373</ele>
        <time>2022-06-11T09:22:40.008Z</time>
      </trkpt>
      <trkpt lat="42.92769" lon="17.94598">
        <ele>349.550729</ele>
        <time>2022-06-11T09:22:43.030Z</time>
      </trkpt>
      <trkpt lat="42.92769" lon="17.94579">
        <ele>349.945331</ele>
        <time>2022-06-11T09:22:46.060Z</time>
      </trkpt>
      <trkpt lat="42.92769" lon="17.94567">
        <ele>350.059373</ele>
        <time>2022-06-11T09:22:48.014Z</time>
      </trkpt>
      <trkpt lat="42.92769" lon="17.94555">
        <ele>349.608878</ele>
        <time>2022-06-11T09:22:49.996Z</time>
      </trkpt>
      <trkpt lat="42.92769" lon="17.94536">
        <ele>348.944397</ele>
        <time>2022-06-11T09:22:53.012Z</time>
      </trkpt>
      <trkpt lat="42.92768" lon="17.94524">
        <ele>348.489192</ele>
        <time>2022-06-11T09:22:55.016Z</time>
      </trkpt>
      <trkpt lat="42.92767" lon="17.94511">
        <ele>348.030756</ele>
        <time>2022-06-11T09:22:57.056Z</time>
      </trkpt>
      <trkpt lat="42.92765" lon="17.94499">
        <ele>347.562764</ele>
        <time>2022-06-11T09:22:59.013Z</time>
      </trkpt>
      <trkpt lat="42.92762" lon="17.94486">
        <ele>347.088119</ele>
        <time>2022-06-11T09:23:01.002Z</time>
      </trkpt>
      <trkpt lat="42.92758" lon="17.94475">
        <ele>346.627936</ele>
        <time>2022-06-11T09:23:03.047Z</time>
      </trkpt>
      <trkpt lat="42.92753" lon="17.94464">
        <ele>346.143721</ele>
        <time>2022-06-11T09:23:05.023Z</time>
      </trkpt>
      <trkpt lat="42.92747" lon="17.94453">
        <ele>345.674381</ele>
        <time>2022-06-11T09:23:07.023Z</time>
      </trkpt>
      <trkpt lat="42.92742" lon="17.94442">
        <ele>345.213833</ele>
        <time>2022-06-11T09:23:09.012Z</time>
      </trkpt>
      <trkpt lat="42.92735" lon="17.94428">
        <ele>344.58384</ele>
        <time>2022-06-11T09:23:12.017Z</time>
      </trkpt>
      <trkpt lat="42.92728" lon="17.94413">
        <ele>343.933955</ele>
        <time>2022-06-11T09:23:15.036Z</time>
      </trkpt>
      <trkpt lat="42.92723" lon="17.94397">
        <ele>343.302286</ele>
        <time>2022-06-11T09:23:18.014Z</time>
      </trkpt>
      <trkpt lat="42.92719" lon="17.94381">
        <ele>342.68169</ele>
        <time>2022-06-11T09:23:21.032Z</time>
      </trkpt>
      <trkpt lat="42.92716" lon="17.94363">
        <ele>342.028063</ele>
        <time>2022-06-11T09:23:24.023Z</time>
      </trkpt>
      <trkpt lat="42.92715" lon="17.94346">
        <ele>341.380484</ele>
        <time>2022-06-11T09:23:27.026Z</time>
      </trkpt>
      <trkpt lat="42.92713" lon="17.94328">
        <ele>341.123261</ele>
        <time>2022-06-11T09:23:30.051Z</time>
      </trkpt>
      <trkpt lat="42.92711" lon="17.9431">
        <ele>340.975401</ele>
        <time>2022-06-11T09:23:33.016Z</time>
      </trkpt>
      <trkpt lat="42.92708" lon="17.94293">
        <ele>340.83547</ele>
        <time>2022-06-11T09:23:36.052Z</time>
      </trkpt>
      <trkpt lat="42.92707" lon="17.94276">
        <ele>340.696959</ele>
        <time>2022-06-11T09:23:39.011Z</time>
      </trkpt>
      <trkpt lat="42.92707" lon="17.94258">
        <ele>340.549943</ele>
        <time>2022-06-11T09:23:42.021Z</time>
      </trkpt>
      <trkpt lat="42.92708" lon="17.94246">
        <ele>340.449084</ele>
        <time>2022-06-11T09:23:44.001Z</time>
      </trkpt>
      <trkpt lat="42.92708" lon="17.94228">
        <ele>340.303439</ele>
        <time>2022-06-11T09:23:47.060Z</time>
      </trkpt>
      <trkpt lat="42.92709" lon="17.9421">
        <ele>340.161157</ele>
        <time>2022-06-11T09:23:50.028Z</time>
      </trkpt>
      <trkpt lat="42.9271" lon="17.94193">
        <ele>340.018408</ele>
        <time>2022-06-11T09:23:53.050Z</time>
      </trkpt>
      <trkpt lat="42.92711" lon="17.94175">
        <ele>339.874589</ele>
        <time>2022-06-11T09:23:56.028Z</time>
      </trkpt>
      <trkpt lat="42.92711" lon="17.94158">
        <ele>339.732113</ele>
        <time>2022-06-11T09:23:59.044Z</time>
      </trkpt>
      <trkpt lat="42.92712" lon="17.9414">
        <ele>339.587512</ele>
        <time>2022-06-11T09:24:02.029Z</time>
      </trkpt>
      <trkpt lat="42.92711" lon="17.94123">
        <ele>339.447752</ele>
        <time>2022-06-11T09:24:05.047Z</time>
      </trkpt>
      <trkpt lat="42.9271" lon="17.94105">
        <ele>339.306394</ele>
        <time>2022-06-11T09:24:08.020Z</time>
      </trkpt>
      <trkpt lat="42.92708" lon="17.94087">
        <ele>339.242187</ele>
        <time>2022-06-11T09:24:11.016Z</time>
      </trkpt>
      <trkpt lat="42.92707" lon="17.9407">
        <ele>339.245252</ele>
        <time>2022-06-11T09:24:14.019Z</time>
      </trkpt>
      <trkpt lat="42.92706" lon="17.94052">
        <ele>339.248306</ele>
        <time>2022-06-11T09:24:17.016Z</time>
      </trkpt>
      <trkpt lat="42.92704" lon="17.94034">
        <ele>339.251374</ele>
        <time>2022-06-11T09:24:20.033Z</time>
      </trkpt>
      <trkpt lat="42.92703" lon="17.94017">
        <ele>339.254347</ele>
        <time>2022-06-11T09:24:23.026Z</time>
      </trkpt>
      <trkpt lat="42.92701" lon="17.93999">
        <ele>339.257432</ele>
        <time>2022-06-11T09:24:26.031Z</time>
      </trkpt>
      <trkpt lat="42.92701" lon="17.93987">
        <ele>339.259553</ele>
        <time>2022-06-11T09:24:28.015Z</time>
      </trkpt>
      <trkpt lat="42.927" lon="17.9397">
        <ele>339.262554</ele>
        <time>2022-06-11T09:24:31.024Z</time>
      </trkpt>
      <trkpt lat="42.927" lon="17.93952">
        <ele>339.265651</ele>
        <time>2022-06-11T09:24:34.025Z</time>
      </trkpt>
      <trkpt lat="42.927" lon="17.93934">
        <ele>339.268662</ele>
        <time>2022-06-11T09:24:37.023Z</time>
      </trkpt>
      <trkpt lat="42.927" lon="17.93916">
        <ele>339.271741</ele>
        <time>2022-06-11T09:24:40.012Z</time>
      </trkpt>
      <trkpt lat="42.927" lon="17.93904">
        <ele>339.273875</ele>
        <time>2022-06-11T09:24:42.017Z</time>
      </trkpt>
      <trkpt lat="42.927" lon="17.93891">
        <ele>339.276043</ele>
        <time>2022-06-11T09:24:44.062Z</time>
      </trkpt>
      <trkpt lat="42.92699" lon="17.93879">
        <ele>339.278178</ele>
        <time>2022-06-11T09:24:46.027Z</time>
      </trkpt>
      <trkpt lat="42.92699" lon="17.93867">
        <ele>339.280295</ele>
        <time>2022-06-11T09:24:48.054Z</time>
      </trkpt>
      <trkpt lat="42.92698" lon="17.93854">
        <ele>339.282417</ele>
        <time>2022-06-11T09:24:50.030Z</time>
      </trkpt>
      <trkpt lat="42.92696" lon="17.93836">
        <ele>339.268143</ele>
        <time>2022-06-11T09:24:53.021Z</time>
      </trkpt>
      <trkpt lat="42.92695" lon="17.93824">
        <ele>339.256887</ele>
        <time>2022-06-11T09:24:55.067Z</time>
      </trkpt>
      <trkpt lat="42.92693" lon="17.93811">
        <ele>339.245682</ele>
        <time>2022-06-11T09:24:57.029Z</time>
      </trkpt>
      <trkpt lat="42.92692" lon="17.93799">
        <ele>339.234564</ele>
        <time>2022-06-11T09:24:59.028Z</time>
      </trkpt>
      <trkpt lat="42.9269" lon="17.93787">
        <ele>339.223623</ele>
        <time>2022-06-11T09:25:01.023Z</time>
      </trkpt>
      <trkpt lat="42.92687" lon="17.93769">
        <ele>339.207652</ele>
        <time>2022-06-11T09:25:04.024Z</time>
      </trkpt>
      <trkpt lat="42.92684" lon="17.93753">
        <ele>339.192175</ele>
        <time>2022-06-11T09:25:07.044Z</time>
      </trkpt>
      <trkpt lat="42.92682" lon="17.9374">
        <ele>339.181055</ele>
        <time>2022-06-11T09:25:09.020Z</time>
      </trkpt>
      <trkpt lat="42.92681" lon="17.93728">
        <ele>339.169808</ele>
        <time>2022-06-11T09:25:11.010Z</time>
      </trkpt>
      <trkpt lat="42.92679" lon="17.93716">
        <ele>339.15867</ele>
        <time>2022-06-11T09:25:13.027Z</time>
      </trkpt>
      <trkpt lat="42.92678" lon="17.93703">
        <ele>339.14756</ele>
        <time>2022-06-11T09:25:15.027Z</time>
      </trkpt>
      <trkpt lat="42.92677" lon="17.93691">
        <ele>339.136443</ele>
        <time>2022-06-11T09:25:17.043Z</time>
      </trkpt>
      <trkpt lat="42.92675" lon="17.93679">
        <ele>339.125235</ele>
        <time>2022-06-11T09:25:19.017Z</time>
      </trkpt>
      <trkpt lat="42.92673" lon="17.93666">
        <ele>339.113765</ele>
        <time>2022-06-11T09:25:21.023Z</time>
      </trkpt>
      <trkpt lat="42.92671" lon="17.93653">
        <ele>339.1021</ele>
        <time>2022-06-11T09:25:23.020Z</time>
      </trkpt>
      <trkpt lat="42.9267" lon="17.93641">
        <ele>339.090807</ele>
        <time>2022-06-11T09:25:25.030Z</time>
      </trkpt>
      <trkpt lat="42.92667" lon="17.93628">
        <ele>339.079168</ele>
        <time>2022-06-11T09:25:27.023Z</time>
      </trkpt>
      <trkpt lat="42.92664" lon="17.93616">
        <ele>339.067614</ele>
        <time>2022-06-11T09:25:29.025Z</time>
      </trkpt>
      <trkpt lat="42.92661" lon="17.93604">
        <ele>338.976125</ele>
        <time>2022-06-11T09:25:31.028Z</time>
      </trkpt>
      <trkpt lat="42.92658" lon="17.93592">
        <ele>338.84617</ele>
        <time>2022-06-11T09:25:33.010Z</time>
      </trkpt>
      <trkpt lat="42.92654" lon="17.9358">
        <ele>338.713618</ele>
        <time>2022-06-11T09:25:35.023Z</time>
      </trkpt>
      <trkpt lat="42.9265" lon="17.93569">
        <ele>338.582834</ele>
        <time>2022-06-11T09:25:37.031Z</time>
      </trkpt>
      <trkpt lat="42.92646" lon="17.93558">
        <ele>338.447036</ele>
        <time>2022-06-11T09:25:39.051Z</time>
      </trkpt>
      <trkpt lat="42.92642" lon="17.93546">
        <ele>338.310864</ele>
        <time>2022-06-11T09:25:41.032Z</time>
      </trkpt>
      <trkpt lat="42.92638" lon="17.93534">
        <ele>338.176921</ele>
        <time>2022-06-11T09:25:43.011Z</time>
      </trkpt>
      <trkpt lat="42.92635" lon="17.93522">
        <ele>338.04253</ele>
        <time>2022-06-11T09:25:45.013Z</time>
      </trkpt>
      <trkpt lat="42.92631" lon="17.9351">
        <ele>337.904057</ele>
        <time>2022-06-11T09:25:47.000Z</time>
      </trkpt>
      <trkpt lat="42.92627" lon="17.93498">
        <ele>337.767885</ele>
        <time>2022-06-11T09:25:49.016Z</time>
      </trkpt>
      <trkpt lat="42.92624" lon="17.93486">
        <ele>337.638414</ele>
        <time>2022-06-11T09:25:51.017Z</time>
      </trkpt>
      <trkpt lat="42.9262" lon="17.93475">
        <ele>337.50763</ele>
        <time>2022-06-11T09:25:53.026Z</time>
      </trkpt>
      <trkpt lat="42.92616" lon="17.93463">
        <ele>337.37371</ele>
        <time>2022-06-11T09:25:55.013Z</time>
      </trkpt>
      <trkpt lat="42.92612" lon="17.93452">
        <ele>337.240391</ele>
        <time>2022-06-11T09:25:57.025Z</time>
      </trkpt>
      <trkpt lat="42.92608" lon="17.9344">
        <ele>337.102082</ele>
        <time>2022-06-11T09:25:59.033Z</time>
      </trkpt>
      <trkpt lat="42.92604" lon="17.93428">
        <ele>336.963122</ele>
        <time>2022-06-11T09:26:01.026Z</time>
      </trkpt>
      <trkpt lat="42.92599" lon="17.93416">
        <ele>336.827646</ele>
        <time>2022-06-11T09:26:03.008Z</time>
      </trkpt>
      <trkpt lat="42.92596" lon="17.93405">
        <ele>336.697976</ele>
        <time>2022-06-11T09:26:05.033Z</time>
      </trkpt>
      <trkpt lat="42.92592" lon="17.93393">
        <ele>336.562944</ele>
        <time>2022-06-11T09:26:07.062Z</time>
      </trkpt>
      <trkpt lat="42.92588" lon="17.93381">
        <ele>336.418601</ele>
        <time>2022-06-11T09:26:09.024Z</time>
      </trkpt>
      <trkpt lat="42.92583" lon="17.9337">
        <ele>336.270956</ele>
        <time>2022-06-11T09:26:11.018Z</time>
      </trkpt>
      <trkpt lat="42.92579" lon="17.93359">
        <ele>336.126807</ele>
        <time>2022-06-11T09:26:13.056Z</time>
      </trkpt>
      <trkpt lat="42.92574" lon="17.93348">
        <ele>335.98364</ele>
        <time>2022-06-11T09:26:15.016Z</time>
      </trkpt>
      <trkpt lat="42.9257" lon="17.93336">
        <ele>335.83975</ele>
        <time>2022-06-11T09:26:17.019Z</time>
      </trkpt>
      <trkpt lat="42.92565" lon="17.93325">
        <ele>335.698541</ele>
        <time>2022-06-11T09:26:19.043Z</time>
      </trkpt>
      <trkpt lat="42.92561" lon="17.93314">
        <ele>335.558609</ele>
        <time>2022-06-11T09:26:21.016Z</time>
      </trkpt>
      <trkpt lat="42.92557" lon="17.93303">
        <ele>335.415442</ele>
        <time>2022-06-11T09:26:23.022Z</time>
      </trkpt>
      <trkpt lat="42.92552" lon="17.93293">
        <ele>335.274421</ele>
        <time>2022-06-11T09:26:25.027Z</time>
      </trkpt>
      <trkpt lat="42.92544" lon="17.93277">
        <ele>335.065527</ele>
        <time>2022-06-11T09:26:28.015Z</time>
      </trkpt>
      <trkpt lat="42.92538" lon="17.93268">
        <ele>334.9266</ele>
        <time>2022-06-11T09:26:30.073Z</time>
      </trkpt>
      <trkpt lat="42.92532" lon="17.93258">
        <ele>334.783091</ele>
        <time>2022-06-11T09:26:32.015Z</time>
      </trkpt>
      <trkpt lat="42.92526" lon="17.93249">
        <ele>334.63757</ele>
        <time>2022-06-11T09:26:34.020Z</time>
      </trkpt>
      <trkpt lat="42.9252" lon="17.93239">
        <ele>334.491545</ele>
        <time>2022-06-11T09:26:36.003Z</time>
      </trkpt>
      <trkpt lat="42.92514" lon="17.93229">
        <ele>334.345647</ele>
        <time>2022-06-11T09:26:38.014Z</time>
      </trkpt>
      <trkpt lat="42.92508" lon="17.9322">
        <ele>334.202663</ele>
        <time>2022-06-11T09:26:40.015Z</time>
      </trkpt>
      <trkpt lat="42.92502" lon="17.9321">
        <ele>334.059154</ele>
        <time>2022-06-11T09:26:42.029Z</time>
      </trkpt>
      <trkpt lat="42.92496" lon="17.93201">
        <ele>333.920226</ele>
        <time>2022-06-11T09:26:44.033Z</time>
      </trkpt>
      <trkpt lat="42.9249" lon="17.93191">
        <ele>333.778574</ele>
        <time>2022-06-11T09:26:46.020Z</time>
      </trkpt>
      <trkpt lat="42.92484" lon="17.93181">
        <ele>333.756476</ele>
        <time>2022-06-11T09:26:48.021Z</time>
      </trkpt>
      <trkpt lat="42.92474" lon="17.93169">
        <ele>333.834759</ele>
        <time>2022-06-11T09:26:51.019Z</time>
      </trkpt>
      <trkpt lat="42.92464" lon="17.93157">
        <ele>333.916126</ele>
        <time>2022-06-11T09:26:54.003Z</time>
      </trkpt>
      <trkpt lat="42.92456" lon="17.9315">
        <ele>333.97288</ele>
        <time>2022-06-11T09:26:56.051Z</time>
      </trkpt>
      <trkpt lat="42.92448" lon="17.93143">
        <ele>334.030873</ele>
        <time>2022-06-11T09:26:58.022Z</time>
      </trkpt>
      <trkpt lat="42.9244" lon="17.93135">
        <ele>334.08665</ele>
        <time>2022-06-11T09:27:00.025Z</time>
      </trkpt>
      <trkpt lat="42.92429" lon="17.93125">
        <ele>334.165386</ele>
        <time>2022-06-11T09:27:03.040Z</time>
      </trkpt>
      <trkpt lat="42.92419" lon="17.93114">
        <ele>334.244415</ele>
        <time>2022-06-11T09:27:06.001Z</time>
      </trkpt>
      <trkpt lat="42.92409" lon="17.93102">
        <ele>334.322996</ele>
        <time>2022-06-11T09:27:09.012Z</time>
      </trkpt>
      <trkpt lat="42.92402" lon="17.93095">
        <ele>334.377644</ele>
        <time>2022-06-11T09:27:11.033Z</time>
      </trkpt>
      <trkpt lat="42.92391" lon="17.93086">
        <ele>334.449277</ele>
        <time>2022-06-11T09:27:14.023Z</time>
      </trkpt>
      <trkpt lat="42.92381" lon="17.93077">
        <ele>334.524835</ele>
        <time>2022-06-11T09:27:17.022Z</time>
      </trkpt>
      <trkpt lat="42.92373" lon="17.9307">
        <ele>334.580176</ele>
        <time>2022-06-11T09:27:19.033Z</time>
      </trkpt>
      <trkpt lat="42.92362" lon="17.93061">
        <ele>334.657831</ele>
        <time>2022-06-11T09:27:22.013Z</time>
      </trkpt>
      <trkpt lat="42.92353" lon="17.93055">
        <ele>334.713319</ele>
        <time>2022-06-11T09:27:24.056Z</time>
      </trkpt>
      <trkpt lat="42.92345" lon="17.9305">
        <ele>334.768987</ele>
        <time>2022-06-11T09:27:26.029Z</time>
      </trkpt>
      <trkpt lat="42.92333" lon="17.93043">
        <ele>334.913583</ele>
        <time>2022-06-11T09:27:29.022Z</time>
      </trkpt>
      <trkpt lat="42.92323" lon="17.93038">
        <ele>335.06652</ele>
        <time>2022-06-11T09:27:32.016Z</time>
      </trkpt>
      <trkpt lat="42.92314" lon="17.93032">
        <ele>335.207578</ele>
        <time>2022-06-11T09:27:35.027Z</time>
      </trkpt>
      <trkpt lat="42.92303" lon="17.93026">
        <ele>335.36389</ele>
        <time>2022-06-11T09:27:38.021Z</time>
      </trkpt>
      <trkpt lat="42.92291" lon="17.93021">
        <ele>335.540837</ele>
        <time>2022-06-11T09:27:41.015Z</time>
      </trkpt>
      <trkpt lat="42.92279" lon="17.93015">
        <ele>335.715294</ele>
        <time>2022-06-11T09:27:44.021Z</time>
      </trkpt>
      <trkpt lat="42.92268" lon="17.93008">
        <ele>335.893193</ele>
        <time>2022-06-11T09:27:47.049Z</time>
      </trkpt>
      <trkpt lat="42.92255" lon="17.93002">
        <ele>336.079802</ele>
        <time>2022-06-11T09:27:50.023Z</time>
      </trkpt>
      <trkpt lat="42.92247" lon="17.92998">
        <ele>336.206134</ele>
        <time>2022-06-11T09:27:52.024Z</time>
      </trkpt>
      <trkpt lat="42.92235" lon="17.92991">
        <ele>336.387636</ele>
        <time>2022-06-11T09:27:55.007Z</time>
      </trkpt>
      <trkpt lat="42.92223" lon="17.92985">
        <ele>336.564343</ele>
        <time>2022-06-11T09:27:58.019Z</time>
      </trkpt>
      <trkpt lat="42.92211" lon="17.92978">
        <ele>336.738078</ele>
        <time>2022-06-11T09:28:01.024Z</time>
      </trkpt>
      <trkpt lat="42.92202" lon="17.92973">
        <ele>336.88083</ele>
        <time>2022-06-11T09:28:04.027Z</time>
      </trkpt>
      <trkpt lat="42.92193" lon="17.92969">
        <ele>337.008026</ele>
        <time>2022-06-11T09:28:07.014Z</time>
      </trkpt>
      <trkpt lat="42.92184" lon="17.92967">
        <ele>337.140824</ele>
        <time>2022-06-11T09:28:10.016Z</time>
      </trkpt>
      <trkpt lat="42.92172" lon="17.92964">
        <ele>337.307368</ele>
        <time>2022-06-11T09:28:14.056Z</time>
      </trkpt>
      <trkpt lat="42.9216" lon="17.92962">
        <ele>337.267011</ele>
        <time>2022-06-11T09:28:18.022Z</time>
      </trkpt>
      <trkpt lat="42.92149" lon="17.92959">
        <ele>337.228032</ele>
        <time>2022-06-11T09:28:22.024Z</time>
      </trkpt>
      <trkpt lat="42.92139" lon="17.92958">
        <ele>337.192563</ele>
        <time>2022-06-11T09:28:26.045Z</time>
      </trkpt>
      <trkpt lat="42.92127" lon="17.92957">
        <ele>337.154095</ele>
        <time>2022-06-11T09:28:30.028Z</time>
      </trkpt>
      <trkpt lat="42.92118" lon="17.92955">
        <ele>337.123558</ele>
        <time>2022-06-11T09:28:33.030Z</time>
      </trkpt>
      <trkpt lat="42.92109" lon="17.92953">
        <ele>337.09052</ele>
        <time>2022-06-11T09:28:36.012Z</time>
      </trkpt>
      <trkpt lat="42.92098" lon="17.9295">
        <ele>337.054838</ele>
        <time>2022-06-11T09:28:39.024Z</time>
      </trkpt>
      <trkpt lat="42.92088" lon="17.92948">
        <ele>337.01986</ele>
        <time>2022-06-11T09:28:42.019Z</time>
      </trkpt>
      <trkpt lat="42.92078" lon="17.92944">
        <ele>336.983234</ele>
        <time>2022-06-11T09:28:45.014Z</time>
      </trkpt>
      <trkpt lat="42.92067" lon="17.92939">
        <ele>336.943619</ele>
        <time>2022-06-11T09:28:48.018Z</time>
      </trkpt>
      <trkpt lat="42.92057" lon="17.92931">
        <ele>336.905611</ele>
        <time>2022-06-11T09:28:51.025Z</time>
      </trkpt>
      <trkpt lat="42.92047" lon="17.92923">
        <ele>336.866149</ele>
        <time>2022-06-11T09:28:54.023Z</time>
      </trkpt>
      <trkpt lat="42.92038" lon="17.92914">
        <ele>336.827027</ele>
        <time>2022-06-11T09:28:57.016Z</time>
      </trkpt>
      <trkpt lat="42.92027" lon="17.92902">
        <ele>336.780848</ele>
        <time>2022-06-11T09:29:00.056Z</time>
      </trkpt>
      <trkpt lat="42.92019" lon="17.92895">
        <ele>336.747615</ele>
        <time>2022-06-11T09:29:02.022Z</time>
      </trkpt>
      <trkpt lat="42.92011" lon="17.92887">
        <ele>336.71579</ele>
        <time>2022-06-11T09:29:04.085Z</time>
      </trkpt>
      <trkpt lat="42.92004" lon="17.9288">
        <ele>336.723394</ele>
        <time>2022-06-11T09:29:06.005Z</time>
      </trkpt>
      <trkpt lat="42.91992" lon="17.9287">
        <ele>336.818656</ele>
        <time>2022-06-11T09:29:09.012Z</time>
      </trkpt>
      <trkpt lat="42.91984" lon="17.92864">
        <ele>336.886312</ele>
        <time>2022-06-11T09:29:11.016Z</time>
      </trkpt>
      <trkpt lat="42.91975" lon="17.92859">
        <ele>336.950997</ele>
        <time>2022-06-11T09:29:13.025Z</time>
      </trkpt>
      <trkpt lat="42.91963" lon="17.92854">
        <ele>337.045648</ele>
        <time>2022-06-11T09:29:16.022Z</time>
      </trkpt>
      <trkpt lat="42.9195" lon="17.92851">
        <ele>337.137552</ele>
        <time>2022-06-11T09:29:19.022Z</time>
      </trkpt>
      <trkpt lat="42.9194" lon="17.92851">
        <ele>337.203183</ele>
        <time>2022-06-11T09:29:21.065Z</time>
      </trkpt>
      <trkpt lat="42.91931" lon="17.92851">
        <ele>337.269496</ele>
        <time>2022-06-11T09:29:23.015Z</time>
      </trkpt>
      <trkpt lat="42.91922" lon="17.92853">
        <ele>337.334282</ele>
        <time>2022-06-11T09:29:25.009Z</time>
      </trkpt>
      <trkpt lat="42.9191" lon="17.92855">
        <ele>337.41642</ele>
        <time>2022-06-11T09:29:28.072Z</time>
      </trkpt>
      <trkpt lat="42.91902" lon="17.9286">
        <ele>337.480724</ele>
        <time>2022-06-11T09:29:30.027Z</time>
      </trkpt>
      <trkpt lat="42.91893" lon="17.92865">
        <ele>337.551157</ele>
        <time>2022-06-11T09:29:32.010Z</time>
      </trkpt>
      <trkpt lat="42.91884" lon="17.92869">
        <ele>337.618079</ele>
        <time>2022-06-11T09:29:34.028Z</time>
      </trkpt>
      <trkpt lat="42.91875" lon="17.92873">
        <ele>337.684376</ele>
        <time>2022-06-11T09:29:36.012Z</time>
      </trkpt>
      <trkpt lat="42.91865" lon="17.92877">
        <ele>337.752703</ele>
        <time>2022-06-11T09:29:38.023Z</time>
      </trkpt>
      <trkpt lat="42.91856" lon="17.9288">
        <ele>337.820887</ele>
        <time>2022-06-11T09:29:40.023Z</time>
      </trkpt>
      <trkpt lat="42.91847" lon="17.92884">
        <ele>337.890712</ele>
        <time>2022-06-11T09:29:42.004Z</time>
      </trkpt>
      <trkpt lat="42.91837" lon="17.92887">
        <ele>337.960645</ele>
        <time>2022-06-11T09:29:44.025Z</time>
      </trkpt>
      <trkpt lat="42.91827" lon="17.92891">
        <ele>337.882873</ele>
        <time>2022-06-11T09:29:46.027Z</time>
      </trkpt>
      <trkpt lat="42.91817" lon="17.92894">
        <ele>337.795124</ele>
        <time>2022-06-11T09:29:48.012Z</time>
      </trkpt>
      <trkpt lat="42.91808" lon="17.92898">
        <ele>337.706333</ele>
        <time>2022-06-11T09:29:50.063Z</time>
      </trkpt>
      <trkpt lat="42.91799" lon="17.92901">
        <ele>337.627238</ele>
        <time>2022-06-11T09:29:52.027Z</time>
      </trkpt>
      <trkpt lat="42.91788" lon="17.92904">
        <ele>337.529025</ele>
        <time>2022-06-11T09:29:55.012Z</time>
      </trkpt>
      <trkpt lat="42.91778" lon="17.92907">
        <ele>337.442803</ele>
        <time>2022-06-11T09:29:58.023Z</time>
      </trkpt>
      <trkpt lat="42.91769" lon="17.92912">
        <ele>337.349099</ele>
        <time>2022-06-11T09:30:01.023Z</time>
      </trkpt>
      <trkpt lat="42.91758" lon="17.92919">
        <ele>337.247102</ele>
        <time>2022-06-11T09:30:04.019Z</time>
      </trkpt>
      <trkpt lat="42.91748" lon="17.92928">
        <ele>337.139184</ele>
        <time>2022-06-11T09:30:07.056Z</time>
      </trkpt>
      <trkpt lat="42.91738" lon="17.92938">
        <ele>337.035657</ele>
        <time>2022-06-11T09:30:10.027Z</time>
      </trkpt>
      <trkpt lat="42.91728" lon="17.92946">
        <ele>336.927688</ele>
        <time>2022-06-11T09:30:13.029Z</time>
      </trkpt>
      <trkpt lat="42.91717" lon="17.92955">
        <ele>336.81512</ele>
        <time>2022-06-11T09:30:16.006Z</time>
      </trkpt>
      <trkpt lat="42.91705" lon="17.92964">
        <ele>336.696788</ele>
        <time>2022-06-11T09:30:19.020Z</time>
      </trkpt>
      <trkpt lat="42.91694" lon="17.92973">
        <ele>336.584639</ele>
        <time>2022-06-11T09:30:22.018Z</time>
      </trkpt>
      <trkpt lat="42.91683" lon="17.92981">
        <ele>336.474527</ele>
        <time>2022-06-11T09:30:25.031Z</time>
      </trkpt>
      <trkpt lat="42.91672" lon="17.92988">
        <ele>336.373541</ele>
        <time>2022-06-11T09:30:28.017Z</time>
      </trkpt>
      <trkpt lat="42.9166" lon="17.92994">
        <ele>336.309406</ele>
        <time>2022-06-11T09:30:31.022Z</time>
      </trkpt>
      <trkpt lat="42.91647" lon="17.92999">
        <ele>336.242682</ele>
        <time>2022-06-11T09:30:34.002Z</time>
      </trkpt>
      <trkpt lat="42.91635" lon="17.93004">
        <ele>336.176396</ele>
        <time>2022-06-11T09:30:37.023Z</time>
      </trkpt>
      <trkpt lat="42.91626" lon="17.93008">
        <ele>336.130819</ele>
        <time>2022-06-11T09:30:39.059Z</time>
      </trkpt>
      <trkpt lat="42.91613" lon="17.93013">
        <ele>336.063707</ele>
        <time>2022-06-11T09:30:42.055Z</time>
      </trkpt>
      <trkpt lat="42.91601" lon="17.93019">
        <ele>335.995974</ele>
        <time>2022-06-11T09:30:45.006Z</time>
      </trkpt>
      <trkpt lat="42.91592" lon="17.93022">
        <ele>335.949931</ele>
        <time>2022-06-11T09:30:47.006Z</time>
      </trkpt>
      <trkpt lat="42.9158" lon="17.93026">
        <ele>335.885842</ele>
        <time>2022-06-11T09:30:50.027Z</time>
      </trkpt>
      <trkpt lat="42.91567" lon="17.9303">
        <ele>335.819417</ele>
        <time>2022-06-11T09:30:53.028Z</time>
      </trkpt>
      <trkpt lat="42.91553" lon="17.93032">
        <ele>335.752228</ele>
        <time>2022-06-11T09:30:56.025Z</time>
      </trkpt>
      <trkpt lat="42.91545" lon="17.93034">
        <ele>335.706684</ele>
        <time>2022-06-11T09:30:58.046Z</time>
      </trkpt>
      <trkpt lat="42.91532" lon="17.93038">
        <ele>335.641523</ele>
        <time>2022-06-11T09:31:01.029Z</time>
      </trkpt>
      <trkpt lat="42.91519" lon="17.93042">
        <ele>335.575949</ele>
        <time>2022-06-11T09:31:04.031Z</time>
      </trkpt>
      <trkpt lat="42.91506" lon="17.93045">
        <ele>335.508231</ele>
        <time>2022-06-11T09:31:07.009Z</time>
      </trkpt>
      <trkpt lat="42.91497" lon="17.93047">
        <ele>335.472438</ele>
        <time>2022-06-11T09:31:09.027Z</time>
      </trkpt>
      <trkpt lat="42.91485" lon="17.93049">
        <ele>335.462878</ele>
        <time>2022-06-11T09:31:12.023Z</time>
      </trkpt>
      <trkpt lat="42.91471" lon="17.9305">
        <ele>335.45294</ele>
        <time>2022-06-11T09:31:15.022Z</time>
      </trkpt>
      <trkpt lat="42.91458" lon="17.9305">
        <ele>335.443085</ele>
        <time>2022-06-11T09:31:18.014Z</time>
      </trkpt>
      <trkpt lat="42.91446" lon="17.93048">
        <ele>335.43372</ele>
        <time>2022-06-11T09:31:21.048Z</time>
      </trkpt>
      <trkpt lat="42.91433" lon="17.93045">
        <ele>335.424044</ele>
        <time>2022-06-11T09:31:24.027Z</time>
      </trkpt>
      <trkpt lat="42.9142" lon="17.93043">
        <ele>335.41426</ele>
        <time>2022-06-11T09:31:27.056Z</time>
      </trkpt>
      <trkpt lat="42.91408" lon="17.93039">
        <ele>335.404471</ele>
        <time>2022-06-11T09:31:30.015Z</time>
      </trkpt>
      <trkpt lat="42.91395" lon="17.93036">
        <ele>335.394608</ele>
        <time>2022-06-11T09:31:33.015Z</time>
      </trkpt>
      <trkpt lat="42.91382" lon="17.93033">
        <ele>335.384949</ele>
        <time>2022-06-11T09:31:36.014Z</time>
      </trkpt>
      <trkpt lat="42.91369" lon="17.93031">
        <ele>335.374793</ele>
        <time>2022-06-11T09:31:39.014Z</time>
      </trkpt>
      <trkpt lat="42.91359" lon="17.93029">
        <ele>335.367675</ele>
        <time>2022-06-11T09:31:41.033Z</time>
      </trkpt>
      <trkpt lat="42.9135" lon="17.93029">
        <ele>335.360686</ele>
        <time>2022-06-11T09:31:43.012Z</time>
      </trkpt>
      <trkpt lat="42.91341" lon="17.93029">
        <ele>335.353772</ele>
        <time>2022-06-11T09:31:45.019Z</time>
      </trkpt>
      <trkpt lat="42.91332" lon="17.9303">
        <ele>335.34693</ele>
        <time>2022-06-11T09:31:47.047Z</time>
      </trkpt>
      <trkpt lat="42.91322" lon="17.9303">
        <ele>335.340091</ele>
        <time>2022-06-11T09:31:49.065Z</time>
      </trkpt>
      <trkpt lat="42.91313" lon="17.9303">
        <ele>335.279278</ele>
        <time>2022-06-11T09:31:51.025Z</time>
      </trkpt>
      <trkpt lat="42.913" lon="17.9303">
        <ele>335.176232</ele>
        <time>2022-06-11T09:31:54.024Z</time>
      </trkpt>
      <trkpt lat="42.91291" lon="17.9303">
        <ele>335.102855</ele>
        <time>2022-06-11T09:31:56.002Z</time>
      </trkpt>
      <trkpt lat="42.91281" lon="17.9303">
        <ele>335.03025</ele>
        <time>2022-06-11T09:31:58.027Z</time>
      </trkpt>
      <trkpt lat="42.91272" lon="17.93029">
        <ele>334.957598</ele>
        <time>2022-06-11T09:32:00.045Z</time>
      </trkpt>
      <trkpt lat="42.91263" lon="17.93029">
        <ele>334.885762</ele>
        <time>2022-06-11T09:32:02.018Z</time>
      </trkpt>
      <trkpt lat="42.9125" lon="17.93027">
        <ele>334.782732</ele>
        <time>2022-06-11T09:32:05.013Z</time>
      </trkpt>
      <trkpt lat="42.91238" lon="17.93023">
        <ele>334.685813</ele>
        <time>2022-06-11T09:32:08.019Z</time>
      </trkpt>
      <trkpt lat="42.91226" lon="17.93017">
        <ele>334.588253</ele>
        <time>2022-06-11T09:32:11.053Z</time>
      </trkpt>
      <trkpt lat="42.91214" lon="17.9301">
        <ele>334.489435</ele>
        <time>2022-06-11T09:32:14.016Z</time>
      </trkpt>
      <trkpt lat="42.91204" lon="17.93002">
        <ele>334.394892</ele>
        <time>2022-06-11T09:32:17.023Z</time>
      </trkpt>
      <trkpt lat="42.91196" lon="17.92995">
        <ele>334.322363</ele>
        <time>2022-06-11T09:32:19.018Z</time>
      </trkpt>
      <trkpt lat="42.91186" lon="17.92985">
        <ele>334.222407</ele>
        <time>2022-06-11T09:32:22.046Z</time>
      </trkpt>
      <trkpt lat="42.91176" lon="17.92975">
        <ele>334.1271</ele>
        <time>2022-06-11T09:32:25.018Z</time>
      </trkpt>
      <trkpt lat="42.91165" lon="17.92965">
        <ele>334.024591</ele>
        <time>2022-06-11T09:32:28.010Z</time>
      </trkpt>
      <trkpt lat="42.91154" lon="17.92955">
        <ele>333.932286</ele>
        <time>2022-06-11T09:32:31.049Z</time>
      </trkpt>
      <trkpt lat="42.91147" lon="17.92949">
        <ele>333.913887</ele>
        <time>2022-06-11T09:32:33.055Z</time>
      </trkpt>
      <trkpt lat="42.91136" lon="17.92938">
        <ele>333.887103</ele>
        <time>2022-06-11T09:32:36.013Z</time>
      </trkpt>
      <trkpt lat="42.91129" lon="17.92931">
        <ele>333.868799</ele>
        <time>2022-06-11T09:32:38.020Z</time>
      </trkpt>
      <trkpt lat="42.91118" lon="17.92921">
        <ele>333.842641</ele>
        <time>2022-06-11T09:32:41.014Z</time>
      </trkpt>
      <trkpt lat="42.91107" lon="17.92912">
        <ele>333.817311</ele>
        <time>2022-06-11T09:32:44.074Z</time>
      </trkpt>
      <trkpt lat="42.91096" lon="17.92905">
        <ele>333.791618</ele>
        <time>2022-06-11T09:32:47.032Z</time>
      </trkpt>
      <trkpt lat="42.91087" lon="17.92899">
        <ele>333.772645</ele>
        <time>2022-06-11T09:32:49.026Z</time>
      </trkpt>
      <trkpt lat="42.91079" lon="17.92894">
        <ele>333.754164</ele>
        <time>2022-06-11T09:32:51.028Z</time>
      </trkpt>
      <trkpt lat="42.91067" lon="17.92886">
        <ele>333.727577</ele>
        <time>2022-06-11T09:32:54.018Z</time>
      </trkpt>
      <trkpt lat="42.91055" lon="17.92879">
        <ele>333.701052</ele>
        <time>2022-06-11T09:32:57.013Z</time>
      </trkpt>
      <trkpt lat="42.91047" lon="17.92873">
        <ele>333.682262</ele>
        <time>2022-06-11T09:32:59.032Z</time>
      </trkpt>
      <trkpt lat="42.91034" lon="17.92867">
        <ele>333.655016</ele>
        <time>2022-06-11T09:33:02.011Z</time>
      </trkpt>
      <trkpt lat="42.91022" lon="17.92861">
        <ele>333.628567</ele>
        <time>2022-06-11T09:33:05.016Z</time>
      </trkpt>
      <trkpt lat="42.91011" lon="17.92854">
        <ele>333.603507</ele>
        <time>2022-06-11T09:33:08.025Z</time>
      </trkpt>
      <trkpt lat="42.91" lon="17.92846">
        <ele>333.578651</ele>
        <time>2022-06-11T09:33:11.040Z</time>
      </trkpt>
      <trkpt lat="42.90989" lon="17.92837">
        <ele>333.660802</ele>
        <time>2022-06-11T09:33:14.012Z</time>
      </trkpt>
      <trkpt lat="42.90979" lon="17.92828">
        <ele>333.790881</ele>
        <time>2022-06-11T09:33:17.007Z</time>
      </trkpt>
      <trkpt lat="42.90969" lon="17.92817">
        <ele>333.921055</ele>
        <time>2022-06-11T09:33:20.015Z</time>
      </trkpt>
      <trkpt lat="42.90958" lon="17.92809">
        <ele>334.050449</ele>
        <time>2022-06-11T09:33:23.023Z</time>
      </trkpt>
      <trkpt lat="42.90947" lon="17.928">
        <ele>334.18101</ele>
        <time>2022-06-11T09:33:26.015Z</time>
      </trkpt>
      <trkpt lat="42.90937" lon="17.9279">
        <ele>334.311834</ele>
        <time>2022-06-11T09:33:29.004Z</time>
      </trkpt>
      <trkpt lat="42.90926" lon="17.9278">
        <ele>334.443127</ele>
        <time>2022-06-11T09:33:32.019Z</time>
      </trkpt>
      <trkpt lat="42.90914" lon="17.92772">
        <ele>334.577524</ele>
        <time>2022-06-11T09:33:35.015Z</time>
      </trkpt>
      <trkpt lat="42.90907" lon="17.92765">
        <ele>334.671742</ele>
        <time>2022-06-11T09:33:37.012Z</time>
      </trkpt>
      <trkpt lat="42.90899" lon="17.92758">
        <ele>334.770661</ele>
        <time>2022-06-11T09:33:39.072Z</time>
      </trkpt>
      <trkpt lat="42.9089" lon="17.92751">
        <ele>334.871817</ele>
        <time>2022-06-11T09:33:41.025Z</time>
      </trkpt>
      <trkpt lat="42.90882" lon="17.92744">
        <ele>334.974367</ele>
        <time>2022-06-11T09:33:43.015Z</time>
      </trkpt>
      <trkpt lat="42.90873" lon="17.92738">
        <ele>335.075634</ele>
        <time>2022-06-11T09:33:45.012Z</time>
      </trkpt>
      <trkpt lat="42.90864" lon="17.92732">
        <ele>335.179911</ele>
        <time>2022-06-11T09:33:47.017Z</time>
      </trkpt>
      <trkpt lat="42.90855" lon="17.92726">
        <ele>335.285538</ele>
        <time>2022-06-11T09:33:49.031Z</time>
      </trkpt>
      <trkpt lat="42.90846" lon="17.92719">
        <ele>335.389335</ele>
        <time>2022-06-11T09:33:51.020Z</time>
      </trkpt>
      <trkpt lat="42.90837" lon="17.92713">
        <ele>335.4643</ele>
        <time>2022-06-11T09:33:53.013Z</time>
      </trkpt>
      <trkpt lat="42.90829" lon="17.92707">
        <ele>335.526264</ele>
        <time>2022-06-11T09:33:55.025Z</time>
      </trkpt>
      <trkpt lat="42.90819" lon="17.927">
        <ele>335.590385</ele>
        <time>2022-06-11T09:33:57.040Z</time>
      </trkpt>
      <trkpt lat="42.9081" lon="17.92695">
        <ele>335.654681</ele>
        <time>2022-06-11T09:33:59.013Z</time>
      </trkpt>
      <trkpt lat="42.908" lon="17.92689">
        <ele>335.720296</ele>
        <time>2022-06-11T09:34:01.017Z</time>
      </trkpt>
      <trkpt lat="42.90791" lon="17.92683">
        <ele>335.784074</ele>
        <time>2022-06-11T09:34:03.017Z</time>
      </trkpt>
      <trkpt lat="42.90781" lon="17.92679">
        <ele>335.847597</ele>
        <time>2022-06-11T09:34:05.020Z</time>
      </trkpt>
      <trkpt lat="42.90771" lon="17.92675">
        <ele>335.913081</ele>
        <time>2022-06-11T09:34:07.016Z</time>
      </trkpt>
      <trkpt lat="42.90761" lon="17.92671">
        <ele>335.979388</ele>
        <time>2022-06-11T09:34:09.027Z</time>
      </trkpt>
      <trkpt lat="42.9075" lon="17.92668">
        <ele>336.046319</ele>
        <time>2022-06-11T09:34:11.038Z</time>
      </trkpt>
      <trkpt lat="42.90739" lon="17.92667">
        <ele>336.11754</ele>
        <time>2022-06-11T09:34:13.015Z</time>
      </trkpt>
      <trkpt lat="42.90728" lon="17.92666">
        <ele>336.186119</ele>
        <time>2022-06-11T09:34:15.021Z</time>
      </trkpt>
      <trkpt lat="42.90717" lon="17.92665">
        <ele>336.253898</ele>
        <time>2022-06-11T09:34:17.021Z</time>
      </trkpt>
      <trkpt lat="42.90706" lon="17.92665">
        <ele>336.319798</ele>
        <time>2022-06-11T09:34:19.036Z</time>
      </trkpt>
      <trkpt lat="42.90696" lon="17.92667">
        <ele>336.385939</ele>
        <time>2022-06-11T09:34:21.043Z</time>
      </trkpt>
      <trkpt lat="42.90685" lon="17.92669">
        <ele>336.45189</ele>
        <time>2022-06-11T09:34:23.007Z</time>
      </trkpt>
      <trkpt lat="42.90674" lon="17.92671">
        <ele>336.519892</ele>
        <time>2022-06-11T09:34:25.022Z</time>
      </trkpt>
      <trkpt lat="42.90664" lon="17.92675">
        <ele>336.464644</ele>
        <time>2022-06-11T09:34:27.030Z</time>
      </trkpt>
      <trkpt lat="42.90653" lon="17.92679">
        <ele>336.337775</ele>
        <time>2022-06-11T09:34:29.013Z</time>
      </trkpt>
      <trkpt lat="42.90641" lon="17.92683">
        <ele>336.204184</ele>
        <time>2022-06-11T09:34:31.030Z</time>
      </trkpt>
      <trkpt lat="42.90629" lon="17.92686">
        <ele>336.071682</ele>
        <time>2022-06-11T09:34:33.021Z</time>
      </trkpt>
      <trkpt lat="42.90618" lon="17.92691">
        <ele>335.940091</ele>
        <time>2022-06-11T09:34:35.028Z</time>
      </trkpt>
      <trkpt lat="42.90607" lon="17.92696">
        <ele>335.807317</ele>
        <time>2022-06-11T09:34:37.028Z</time>
      </trkpt>
      <trkpt lat="42.90596" lon="17.92701">
        <ele>335.675847</ele>
        <time>2022-06-11T09:34:39.025Z</time>
      </trkpt>
      <trkpt lat="42.90585" lon="17.92708">
        <ele>335.545026</ele>
        <time>2022-06-11T09:34:41.026Z</time>
      </trkpt>
      <trkpt lat="42.90574" lon="17.92715">
        <ele>335.403312</ele>
        <time>2022-06-11T09:34:43.020Z</time>
      </trkpt>
      <trkpt lat="42.90564" lon="17.92723">
        <ele>335.274948</ele>
        <time>2022-06-11T09:34:45.067Z</time>
      </trkpt>
      <trkpt lat="42.90553" lon="17.9273">
        <ele>335.137131</ele>
        <time>2022-06-11T09:34:47.026Z</time>
      </trkpt>
      <trkpt lat="42.90542" lon="17.92738">
        <ele>335.001438</ele>
        <time>2022-06-11T09:34:49.024Z</time>
      </trkpt>
      <trkpt lat="42.90532" lon="17.92745">
        <ele>334.872591</ele>
        <time>2022-06-11T09:34:51.028Z</time>
      </trkpt>
      <trkpt lat="42.90521" lon="17.92752">
        <ele>334.742447</ele>
        <time>2022-06-11T09:34:53.014Z</time>
      </trkpt>
      <trkpt lat="42.90511" lon="17.92757">
        <ele>334.617842</ele>
        <time>2022-06-11T09:34:55.028Z</time>
      </trkpt>
      <trkpt lat="42.905" lon="17.92761">
        <ele>334.506986</ele>
        <time>2022-06-11T09:34:57.019Z</time>
      </trkpt>
      <trkpt lat="42.90489" lon="17.92765">
        <ele>334.425464</ele>
        <time>2022-06-11T09:34:59.011Z</time>
      </trkpt>
      <trkpt lat="42.90478" lon="17.92769">
        <ele>334.340827</ele>
        <time>2022-06-11T09:35:01.053Z</time>
      </trkpt>
      <trkpt lat="42.90467" lon="17.92773">
        <ele>334.258011</ele>
        <time>2022-06-11T09:35:03.019Z</time>
      </trkpt>
      <trkpt lat="42.90456" lon="17.92776">
        <ele>334.173545</ele>
        <time>2022-06-11T09:35:05.031Z</time>
      </trkpt>
      <trkpt lat="42.90444" lon="17.9278">
        <ele>334.084695</ele>
        <time>2022-06-11T09:35:07.049Z</time>
      </trkpt>
      <trkpt lat="42.90432" lon="17.92785">
        <ele>333.993527</ele>
        <time>2022-06-11T09:35:09.022Z</time>
      </trkpt>
      <trkpt lat="42.90421" lon="17.92789">
        <ele>333.906204</ele>
        <time>2022-06-11T09:35:11.023Z</time>
      </trkpt>
      <trkpt lat="42.9041" lon="17.92794">
        <ele>333.821289</ele>
        <time>2022-06-11T09:35:13.013Z</time>
      </trkpt>
      <trkpt lat="42.90399" lon="17.928">
        <ele>333.737219</ele>
        <time>2022-06-11T09:35:15.027Z</time>
      </trkpt>
      <trkpt lat="42.90388" lon="17.92806">
        <ele>333.654481</ele>
        <time>2022-06-11T09:35:17.018Z</time>
      </trkpt>
      <trkpt lat="42.90378" lon="17.92813">
        <ele>333.571928</ele>
        <time>2022-06-11T09:35:19.033Z</time>
      </trkpt>
      <trkpt lat="42.90368" lon="17.9282">
        <ele>333.489133</ele>
        <time>2022-06-11T09:35:21.019Z</time>
      </trkpt>
      <trkpt lat="42.90359" lon="17.92828">
        <ele>333.407882</ele>
        <time>2022-06-11T09:35:23.032Z</time>
      </trkpt>
      <trkpt lat="42.9035" lon="17.92837">
        <ele>333.327443</ele>
        <time>2022-06-11T09:35:25.033Z</time>
      </trkpt>
      <trkpt lat="42.90341" lon="17.92846">
        <ele>333.245023</ele>
        <time>2022-06-11T09:35:27.031Z</time>
      </trkpt>
      <trkpt lat="42.90331" lon="17.92854">
        <ele>333.257652</ele>
        <time>2022-06-11T09:35:29.023Z</time>
      </trkpt>
      <trkpt lat="42.9032" lon="17.9286">
        <ele>333.322598</ele>
        <time>2022-06-11T09:35:31.053Z</time>
      </trkpt>
      <trkpt lat="42.90309" lon="17.92864">
        <ele>333.390492</ele>
        <time>2022-06-11T09:35:33.022Z</time>
      </trkpt>
      <trkpt lat="42.90297" lon="17.92867">
        <ele>333.455963</ele>
        <time>2022-06-11T09:35:35.023Z</time>
      </trkpt>
      <trkpt lat="42.90286" lon="17.92869">
        <ele>333.522238</ele>
        <time>2022-06-11T09:35:37.022Z</time>
      </trkpt>
      <trkpt lat="42.90274" lon="17.92867">
        <ele>333.589044</ele>
        <time>2022-06-11T09:35:39.046Z</time>
      </trkpt>
      <trkpt lat="42.90262" lon="17.92864">
        <ele>333.657365</ele>
        <time>2022-06-11T09:35:41.015Z</time>
      </trkpt>
      <trkpt lat="42.90251" lon="17.92861">
        <ele>333.722055</ele>
        <time>2022-06-11T09:35:43.023Z</time>
      </trkpt>
      <trkpt lat="42.9024" lon="17.92857">
        <ele>333.782733</ele>
        <time>2022-06-11T09:35:45.010Z</time>
      </trkpt>
      <trkpt lat="42.9023" lon="17.92853">
        <ele>333.846607</ele>
        <time>2022-06-11T09:35:47.013Z</time>
      </trkpt>
      <trkpt lat="42.90219" lon="17.92848">
        <ele>333.910733</ele>
        <time>2022-06-11T09:35:49.024Z</time>
      </trkpt>
      <trkpt lat="42.90208" lon="17.92843">
        <ele>333.976856</ele>
        <time>2022-06-11T09:35:51.026Z</time>
      </trkpt>
      <trkpt lat="42.90197" lon="17.92838">
        <ele>334.038972</ele>
        <time>2022-06-11T09:35:53.044Z</time>
      </trkpt>
      <trkpt lat="42.90187" lon="17.92833">
        <ele>334.102426</ele>
        <time>2022-06-11T09:35:55.031Z</time>
      </trkpt>
      <trkpt lat="42.90176" lon="17.92827">
        <ele>334.166376</ele>
        <time>2022-06-11T09:35:57.019Z</time>
      </trkpt>
      <trkpt lat="42.90167" lon="17.92822">
        <ele>334.224998</ele>
        <time>2022-06-11T09:35:59.011Z</time>
      </trkpt>
      <trkpt lat="42.90157" lon="17.92815">
        <ele>334.103569</ele>
        <time>2022-06-11T09:36:01.015Z</time>
      </trkpt>
      <trkpt lat="42.90148" lon="17.92808">
        <ele>333.963306</ele>
        <time>2022-06-11T09:36:03.027Z</time>
      </trkpt>
      <trkpt lat="42.90139" lon="17.928">
        <ele>333.823478</ele>
        <time>2022-06-11T09:36:05.016Z</time>
      </trkpt>
      <trkpt lat="42.90131" lon="17.92792">
        <ele>333.689734</ele>
        <time>2022-06-11T09:36:07.019Z</time>
      </trkpt>
      <trkpt lat="42.90123" lon="17.92785">
        <ele>333.562622</ele>
        <time>2022-06-11T09:36:09.023Z</time>
      </trkpt>
      <trkpt lat="42.90115" lon="17.92777">
        <ele>333.430406</ele>
        <time>2022-06-11T09:36:11.018Z</time>
      </trkpt>
      <trkpt lat="42.90107" lon="17.92768">
        <ele>333.292483</ele>
        <time>2022-06-11T09:36:13.038Z</time>
      </trkpt>
      <trkpt lat="42.901" lon="17.92759">
        <ele>333.158543</ele>
        <time>2022-06-11T09:36:15.054Z</time>
      </trkpt>
      <trkpt lat="42.90092" lon="17.92749">
        <ele>333.01998</ele>
        <time>2022-06-11T09:36:17.005Z</time>
      </trkpt>
      <trkpt lat="42.90085" lon="17.92739">
        <ele>332.880621</ele>
        <time>2022-06-11T09:36:19.020Z</time>
      </trkpt>
      <trkpt lat="42.90079" lon="17.92728">
        <ele>332.742916</ele>
        <time>2022-06-11T09:36:21.081Z</time>
      </trkpt>
      <trkpt lat="42.90073" lon="17.92717">
        <ele>332.606889</ele>
        <time>2022-06-11T09:36:23.015Z</time>
      </trkpt>
      <trkpt lat="42.90068" lon="17.92706">
        <ele>332.481666</ele>
        <time>2022-06-11T09:36:25.030Z</time>
      </trkpt>
      <trkpt lat="42.90063" lon="17.92689">
        <ele>332.299488</ele>
        <time>2022-06-11T09:36:28.028Z</time>
      </trkpt>
      <trkpt lat="42.90059" lon="17.92677">
        <ele>332.171462</ele>
        <time>2022-06-11T09:36:30.013Z</time>
      </trkpt>
      <trkpt lat="42.90055" lon="17.92665">
        <ele>332.042588</ele>
        <time>2022-06-11T09:36:32.015Z</time>
      </trkpt>
      <trkpt lat="42.90053" lon="17.92652">
        <ele>331.917458</ele>
        <time>2022-06-11T09:36:34.030Z</time>
      </trkpt>
      <trkpt lat="42.90051" lon="17.9264">
        <ele>331.861448</ele>
        <time>2022-06-11T09:36:36.009Z</time>
      </trkpt>
      <trkpt lat="42.90049" lon="17.92627">
        <ele>332.012983</ele>
        <time>2022-06-11T09:36:38.059Z</time>
      </trkpt>
      <trkpt lat="42.90047" lon="17.92614">
        <ele>332.17058</ele>
        <time>2022-06-11T09:36:40.030Z</time>
      </trkpt>
      <trkpt lat="42.90046" lon="17.926">
        <ele>332.333349</ele>
        <time>2022-06-11T09:36:42.016Z</time>
      </trkpt>
      <trkpt lat="42.90046" lon="17.92586">
        <ele>332.498973</ele>
        <time>2022-06-11T09:36:44.016Z</time>
      </trkpt>
      <trkpt lat="42.90046" lon="17.92572">
        <ele>332.661236</ele>
        <time>2022-06-11T09:36:46.013Z</time>
      </trkpt>
      <trkpt lat="42.90048" lon="17.92559">
        <ele>332.819437</ele>
        <time>2022-06-11T09:36:48.029Z</time>
      </trkpt>
      <trkpt lat="42.9005" lon="17.92546">
        <ele>332.974206</ele>
        <time>2022-06-11T09:36:50.008Z</time>
      </trkpt>
      <trkpt lat="42.90053" lon="17.92534">
        <ele>333.121346</ele>
        <time>2022-06-11T09:36:52.034Z</time>
      </trkpt>
      <trkpt lat="42.90057" lon="17.92523">
        <ele>333.266628</ele>
        <time>2022-06-11T09:36:54.018Z</time>
      </trkpt>
      <trkpt lat="42.90061" lon="17.92512">
        <ele>333.415049</ele>
        <time>2022-06-11T09:36:56.014Z</time>
      </trkpt>
      <trkpt lat="42.90065" lon="17.92501">
        <ele>333.563188</ele>
        <time>2022-06-11T09:36:58.016Z</time>
      </trkpt>
      <trkpt lat="42.90072" lon="17.92485">
        <ele>333.778962</ele>
        <time>2022-06-11T09:37:01.040Z</time>
      </trkpt>
      <trkpt lat="42.90077" lon="17.92474">
        <ele>333.928433</ele>
        <time>2022-06-11T09:37:03.035Z</time>
      </trkpt>
      <trkpt lat="42.90083" lon="17.92458">
        <ele>334.137784</ele>
        <time>2022-06-11T09:37:06.048Z</time>
      </trkpt>
      <trkpt lat="42.90088" lon="17.92443">
        <ele>334.337826</ele>
        <time>2022-06-11T09:37:09.015Z</time>
      </trkpt>
      <trkpt lat="42.90093" lon="17.92426">
        <ele>334.543435</ele>
        <time>2022-06-11T09:37:12.003Z</time>
      </trkpt>
      <trkpt lat="42.90095" lon="17.92408">
        <ele>334.715293</ele>
        <time>2022-06-11T09:37:15.027Z</time>
      </trkpt>
      <trkpt lat="42.90096" lon="17.9239">
        <ele>334.752518</ele>
        <time>2022-06-11T09:37:18.045Z</time>
      </trkpt>
      <trkpt lat="42.90097" lon="17.92372">
        <ele>334.789665</ele>
        <time>2022-06-11T09:37:21.014Z</time>
      </trkpt>
      <trkpt lat="42.90097" lon="17.9236">
        <ele>334.815543</ele>
        <time>2022-06-11T09:37:23.031Z</time>
      </trkpt>
      <trkpt lat="42.90098" lon="17.92346">
        <ele>334.843115</ele>
        <time>2022-06-11T09:37:25.082Z</time>
      </trkpt>
      <trkpt lat="42.90098" lon="17.92333">
        <ele>334.870222</ele>
        <time>2022-06-11T09:37:27.020Z</time>
      </trkpt>
      <trkpt lat="42.90099" lon="17.9232">
        <ele>334.896545</ele>
        <time>2022-06-11T09:37:29.023Z</time>
      </trkpt>
      <trkpt lat="42.90101" lon="17.92308">
        <ele>334.922478</ele>
        <time>2022-06-11T09:37:31.039Z</time>
      </trkpt>
      <trkpt lat="42.90103" lon="17.92295">
        <ele>334.949119</ele>
        <time>2022-06-11T09:37:33.019Z</time>
      </trkpt>
      <trkpt lat="42.90106" lon="17.92282">
        <ele>334.977156</ele>
        <time>2022-06-11T09:37:35.011Z</time>
      </trkpt>
      <trkpt lat="42.9011" lon="17.92269">
        <ele>335.005587</ele>
        <time>2022-06-11T09:37:37.025Z</time>
      </trkpt>
      <trkpt lat="42.90114" lon="17.92257">
        <ele>335.032625</ele>
        <time>2022-06-11T09:37:39.023Z</time>
      </trkpt>
      <trkpt lat="42.90118" lon="17.92245">
        <ele>335.0604</ele>
        <time>2022-06-11T09:37:41.027Z</time>
      </trkpt>
      <trkpt lat="42.90122" lon="17.92233">
        <ele>335.087305</ele>
        <time>2022-06-11T09:37:43.020Z</time>
      </trkpt>
      <trkpt lat="42.90127" lon="17.92221">
        <ele>335.116303</ele>
        <time>2022-06-11T09:37:45.031Z</time>
      </trkpt>
      <trkpt lat="42.90132" lon="17.92209">
        <ele>335.14439</ele>
        <time>2022-06-11T09:37:47.021Z</time>
      </trkpt>
      <trkpt lat="42.90136" lon="17.92197">
        <ele>335.171603</ele>
        <time>2022-06-11T09:37:49.026Z</time>
      </trkpt>
      <trkpt lat="42.90139" lon="17.92184">
        <ele>335.198756</ele>
        <time>2022-06-11T09:37:51.032Z</time>
      </trkpt>
      <trkpt lat="42.90142" lon="17.92172">
        <ele>335.126888</ele>
        <time>2022-06-11T09:37:53.018Z</time>
      </trkpt>
      <trkpt lat="42.90143" lon="17.9216">
        <ele>334.983656</ele>
        <time>2022-06-11T09:37:55.028Z</time>
      </trkpt>
      <trkpt lat="42.90143" lon="17.92146">
        <ele>334.828818</ele>
        <time>2022-06-11T09:37:57.010Z</time>
      </trkpt>
      <trkpt lat="42.90144" lon="17.92133">
        <ele>334.675354</ele>
        <time>2022-06-11T09:37:59.055Z</time>
      </trkpt>
      <trkpt lat="42.90143" lon="17.9212">
        <ele>334.521527</ele>
        <time>2022-06-11T09:38:01.032Z</time>
      </trkpt>
      <trkpt lat="42.90141" lon="17.92106">
        <ele>334.362902</ele>
        <time>2022-06-11T09:38:03.019Z</time>
      </trkpt>
      <trkpt lat="42.90139" lon="17.92093">
        <ele>334.202911</ele>
        <time>2022-06-11T09:38:05.060Z</time>
      </trkpt>
      <trkpt lat="42.90134" lon="17.9208">
        <ele>334.035889</ele>
        <time>2022-06-11T09:38:07.022Z</time>
      </trkpt>
      <trkpt lat="42.90129" lon="17.92067">
        <ele>333.869237</ele>
        <time>2022-06-11T09:38:09.006Z</time>
      </trkpt>
      <trkpt lat="42.90123" lon="17.92056">
        <ele>333.713064</ele>
        <time>2022-06-11T09:38:11.046Z</time>
      </trkpt>
      <trkpt lat="42.90118" lon="17.92044">
        <ele>333.550048</ele>
        <time>2022-06-11T09:38:13.020Z</time>
      </trkpt>
      <trkpt lat="42.90113" lon="17.92031">
        <ele>333.384736</ele>
        <time>2022-06-11T09:38:15.020Z</time>
      </trkpt>
      <trkpt lat="42.90108" lon="17.92019">
        <ele>333.227283</ele>
        <time>2022-06-11T09:38:17.007Z</time>
      </trkpt>
      <trkpt lat="42.90102" lon="17.92008">
        <ele>333.066321</ele>
        <time>2022-06-11T09:38:19.022Z</time>
      </trkpt>
      <trkpt lat="42.90096" lon="17.91997">
        <ele>332.908354</ele>
        <time>2022-06-11T09:38:21.015Z</time>
      </trkpt>
      <trkpt lat="42.9009" lon="17.91986">
        <ele>332.750151</ele>
        <time>2022-06-11T09:38:23.028Z</time>
      </trkpt>
      <trkpt lat="42.90082" lon="17.91977">
        <ele>332.588835</ele>
        <time>2022-06-11T09:38:25.027Z</time>
      </trkpt>
      <trkpt lat="42.90074" lon="17.91968">
        <ele>332.424311</ele>
        <time>2022-06-11T09:38:27.026Z</time>
      </trkpt>
      <trkpt lat="42.90065" lon="17.91959">
        <ele>332.403002</ele>
        <time>2022-06-11T09:38:29.016Z</time>
      </trkpt>
      <trkpt lat="42.90058" lon="17.91951">
        <ele>332.428435</ele>
        <time>2022-06-11T09:38:31.065Z</time>
      </trkpt>
      <trkpt lat="42.90047" lon="17.91943">
        <ele>332.460453</ele>
        <time>2022-06-11T09:38:34.030Z</time>
      </trkpt>
      <trkpt lat="42.9004" lon="17.91936">
        <ele>332.484004</ele>
        <time>2022-06-11T09:38:37.024Z</time>
      </trkpt>
      <trkpt lat="42.90032" lon="17.91927">
        <ele>332.509201</ele>
        <time>2022-06-11T09:38:40.028Z</time>
      </trkpt>
      <trkpt lat="42.90024" lon="17.91918">
        <ele>332.536754</ele>
        <time>2022-06-11T09:38:43.025Z</time>
      </trkpt>
      <trkpt lat="42.90015" lon="17.91908">
        <ele>332.568102</ele>
        <time>2022-06-11T09:38:46.022Z</time>
      </trkpt>
      <trkpt lat="42.90004" lon="17.91897">
        <ele>332.602632</ele>
        <time>2022-06-11T09:38:49.028Z</time>
      </trkpt>
      <trkpt lat="42.89995" lon="17.91884">
        <ele>332.637462</ele>
        <time>2022-06-11T09:38:52.023Z</time>
      </trkpt>
      <trkpt lat="42.89988" lon="17.91876">
        <ele>332.661304</ele>
        <time>2022-06-11T09:38:54.028Z</time>
      </trkpt>
      <trkpt lat="42.89982" lon="17.91867">
        <ele>332.684959</ele>
        <time>2022-06-11T09:38:56.042Z</time>
      </trkpt>
      <trkpt lat="42.89975" lon="17.91859">
        <ele>332.709117</ele>
        <time>2022-06-11T09:38:58.018Z</time>
      </trkpt>
      <trkpt lat="42.89968" lon="17.9185">
        <ele>332.7337</ele>
        <time>2022-06-11T09:39:00.012Z</time>
      </trkpt>
      <trkpt lat="42.89961" lon="17.91841">
        <ele>332.757739</ele>
        <time>2022-06-11T09:39:02.064Z</time>
      </trkpt>
      <trkpt lat="42.89956" lon="17.91831">
        <ele>332.782912</ele>
        <time>2022-06-11T09:39:04.031Z</time>
      </trkpt>
      <trkpt lat="42.89948" lon="17.9182">
        <ele>332.810584</ele>
        <time>2022-06-11T09:39:06.011Z</time>
      </trkpt>
      <trkpt lat="42.89941" lon="17.91808">
        <ele>332.839948</ele>
        <time>2022-06-11T09:39:08.023Z</time>
      </trkpt>
      <trkpt lat="42.89935" lon="17.91796">
        <ele>332.878946</ele>
        <time>2022-06-11T09:39:10.025Z</time>
      </trkpt>
      <trkpt lat="42.89931" lon="17.91784">
        <ele>332.922752</ele>
        <time>2022-06-11T09:39:12.023Z</time>
      </trkpt>
      <trkpt lat="42.89928" lon="17.91772">
        <ele>332.963778</ele>
        <time>2022-06-11T09:39:14.023Z</time>
      </trkpt>
      <trkpt lat="42.89924" lon="17.91761">
        <ele>333.004912</ele>
        <time>2022-06-11T09:39:16.014Z</time>
      </trkpt>
      <trkpt lat="42.8992" lon="17.91749">
        <ele>333.04605</ele>
        <time>2022-06-11T09:39:18.062Z</time>
      </trkpt>
      <trkpt lat="42.89915" lon="17.91737">
        <ele>333.088744</ele>
        <time>2022-06-11T09:39:20.032Z</time>
      </trkpt>
      <trkpt lat="42.89911" lon="17.91726">
        <ele>333.131641</ele>
        <time>2022-06-11T09:39:22.007Z</time>
      </trkpt>
      <trkpt lat="42.89906" lon="17.91714">
        <ele>333.175173</ele>
        <time>2022-06-11T09:39:24.068Z</time>
      </trkpt>
      <trkpt lat="42.89902" lon="17.91702">
        <ele>333.219225</ele>
        <time>2022-06-11T09:39:26.032Z</time>
      </trkpt>
      <trkpt lat="42.89898" lon="17.91689">
        <ele>333.264195</ele>
        <time>2022-06-11T09:39:28.034Z</time>
      </trkpt>
      <trkpt lat="42.89895" lon="17.91676">
        <ele>333.308547</ele>
        <time>2022-06-11T09:39:30.046Z</time>
      </trkpt>
      <trkpt lat="42.89892" lon="17.91663">
        <ele>333.353782</ele>
        <time>2022-06-11T09:39:32.026Z</time>
      </trkpt>
      <trkpt lat="42.8989" lon="17.91649">
        <ele>333.399849</ele>
        <time>2022-06-11T09:39:34.030Z</time>
      </trkpt>
      <trkpt lat="42.89889" lon="17.91634">
        <ele>333.446442</ele>
        <time>2022-06-11T09:39:36.017Z</time>
      </trkpt>
      <trkpt lat="42.8989" lon="17.9162">
        <ele>333.491898</ele>
        <time>2022-06-11T09:39:38.030Z</time>
      </trkpt>
      <trkpt lat="42.89891" lon="17.91606">
        <ele>333.536961</ele>
        <time>2022-06-11T09:39:40.036Z</time>
      </trkpt>
      <trkpt lat="42.89893" lon="17.91593">
        <ele>333.581505</ele>
        <time>2022-06-11T09:39:42.052Z</time>
      </trkpt>
      <trkpt lat="42.89895" lon="17.9158">
        <ele>333.624945</ele>
        <time>2022-06-11T09:39:44.018Z</time>
      </trkpt>
      <trkpt lat="42.89897" lon="17.91567">
        <ele>333.677749</ele>
        <time>2022-06-11T09:39:46.071Z</time>
      </trkpt>
      <trkpt lat="42.899" lon="17.91555">
        <ele>333.745126</ele>
        <time>2022-06-11T09:39:48.010Z</time>
      </trkpt>
      <trkpt lat="42.89902" lon="17.91542">
        <ele>333.812789</ele>
        <time>2022-06-11T09:39:50.022Z</time>
      </trkpt>
      <trkpt lat="42.89904" lon="17.91529">
        <ele>333.8817</ele>
        <time>2022-06-11T09:39:52.023Z</time>
      </trkpt>
      <trkpt lat="42.89904" lon="17.91511">
        <ele>333.976876</ele>
        <time>2022-06-11T09:39:55.015Z</time>
      </trkpt>
      <trkpt lat="42.89904" lon="17.91492">
        <ele>334.07361</ele>
        <time>2022-06-11T09:39:58.029Z</time>
      </trkpt>
      <trkpt lat="42.89903" lon="17.9148">
        <ele>334.140377</ele>
        <time>2022-06-11T09:40:00.025Z</time>
      </trkpt>
      <trkpt lat="42.89901" lon="17.91467">
        <ele>334.206964</ele>
        <time>2022-06-11T09:40:02.032Z</time>
      </trkpt>
      <trkpt lat="42.89899" lon="17.91454">
        <ele>334.27463</ele>
        <time>2022-06-11T09:40:04.023Z</time>
      </trkpt>
      <trkpt lat="42.89897" lon="17.91441">
        <ele>334.34616</ele>
        <time>2022-06-11T09:40:06.012Z</time>
      </trkpt>
      <trkpt lat="42.89895" lon="17.91428">
        <ele>334.414181</ele>
        <time>2022-06-11T09:40:08.055Z</time>
      </trkpt>
      <trkpt lat="42.89892" lon="17.91415">
        <ele>334.48167</ele>
        <time>2022-06-11T09:40:10.033Z</time>
      </trkpt>
      <trkpt lat="42.8989" lon="17.91402">
        <ele>334.551523</ele>
        <time>2022-06-11T09:40:12.032Z</time>
      </trkpt>
      <trkpt lat="42.89888" lon="17.91389">
        <ele>334.624229</ele>
        <time>2022-06-11T09:40:14.025Z</time>
      </trkpt>
      <trkpt lat="42.89885" lon="17.91375">
        <ele>334.696465</ele>
        <time>2022-06-11T09:40:16.029Z</time>
      </trkpt>
      <trkpt lat="42.89884" lon="17.91361">
        <ele>334.770107</ele>
        <time>2022-06-11T09:40:18.035Z</time>
      </trkpt>
      <trkpt lat="42.89882" lon="17.91348">
        <ele>334.840275</ele>
        <time>2022-06-11T09:40:20.020Z</time>
      </trkpt>
      <trkpt lat="42.89881" lon="17.91335">
        <ele>334.906007</ele>
        <time>2022-06-11T09:40:22.031Z</time>
      </trkpt>
      <trkpt lat="42.89881" lon="17.91323">
        <ele>334.963668</ele>
        <time>2022-06-11T09:40:24.020Z</time>
      </trkpt>
      <trkpt lat="42.89882" lon="17.91305">
        <ele>335.04484</ele>
        <time>2022-06-11T09:40:27.022Z</time>
      </trkpt>
      <trkpt lat="42.89885" lon="17.91293">
        <ele>335.099491</ele>
        <time>2022-06-11T09:40:29.020Z</time>
      </trkpt>
      <trkpt lat="42.89888" lon="17.91281">
        <ele>335.154874</ele>
        <time>2022-06-11T09:40:31.025Z</time>
      </trkpt>
      <trkpt lat="42.89892" lon="17.91269">
        <ele>335.211664</ele>
        <time>2022-06-11T09:40:33.021Z</time>
      </trkpt>
      <trkpt lat="42.89896" lon="17.91258">
        <ele>335.266979</ele>
        <time>2022-06-11T09:40:35.019Z</time>
      </trkpt>
      <trkpt lat="42.89901" lon="17.91247">
        <ele>335.32241</ele>
        <time>2022-06-11T09:40:37.034Z</time>
      </trkpt>
      <trkpt lat="42.89906" lon="17.91237">
        <ele>335.37801</ele>
        <time>2022-06-11T09:40:39.028Z</time>
      </trkpt>
      <trkpt lat="42.89912" lon="17.91228">
        <ele>335.43422</ele>
        <time>2022-06-11T09:40:41.031Z</time>
      </trkpt>
      <trkpt lat="42.89922" lon="17.91215">
        <ele>335.514065</ele>
        <time>2022-06-11T09:40:44.021Z</time>
      </trkpt>
      <trkpt lat="42.89933" lon="17.91204">
        <ele>335.596745</ele>
        <time>2022-06-11T09:40:47.044Z</time>
      </trkpt>
      <trkpt lat="42.89942" lon="17.91197">
        <ele>335.658782</ele>
        <time>2022-06-11T09:40:49.010Z</time>
      </trkpt>
      <trkpt lat="42.89951" lon="17.91191">
        <ele>335.720814</ele>
        <time>2022-06-11T09:40:51.026Z</time>
      </trkpt>
      <trkpt lat="42.89961" lon="17.91187">
        <ele>335.785327</ele>
        <time>2022-06-11T09:40:53.019Z</time>
      </trkpt>
      <trkpt lat="42.89972" lon="17.91183">
        <ele>335.851771</ele>
        <time>2022-06-11T09:40:55.015Z</time>
      </trkpt>
      <trkpt lat="42.89981" lon="17.91179">
        <ele>335.912511</ele>
        <time>2022-06-11T09:40:57.019Z</time>
      </trkpt>
      <trkpt lat="42.89991" lon="17.91176">
        <ele>335.969946</ele>
        <time>2022-06-11T09:40:59.058Z</time>
      </trkpt>
      <trkpt lat="42.90003" lon="17.91171">
        <ele>335.908554</ele>
        <time>2022-06-11T09:41:02.032Z</time>
      </trkpt>
      <trkpt lat="42.90015" lon="17.91165">
        <ele>335.699025</ele>
        <time>2022-06-11T09:41:05.011Z</time>
      </trkpt>
      <trkpt lat="42.90024" lon="17.91162">
        <ele>335.541637</ele>
        <time>2022-06-11T09:41:07.028Z</time>
      </trkpt>
      <trkpt lat="42.90033" lon="17.91158">
        <ele>335.384332</ele>
        <time>2022-06-11T09:41:09.060Z</time>
      </trkpt>
      <trkpt lat="42.90043" lon="17.91154">
        <ele>335.207365</ele>
        <time>2022-06-11T09:41:11.021Z</time>
      </trkpt>
      <trkpt lat="42.90051" lon="17.91149">
        <ele>335.053226</ele>
        <time>2022-06-11T09:41:13.004Z</time>
      </trkpt>
      <trkpt lat="42.90061" lon="17.91137">
        <ele>334.836162</ele>
        <time>2022-06-11T09:41:16.030Z</time>
      </trkpt>
      <trkpt lat="42.90068" lon="17.91129">
        <ele>334.683642</ele>
        <time>2022-06-11T09:41:18.063Z</time>
      </trkpt>
      <trkpt lat="42.90078" lon="17.91119">
        <ele>334.474193</ele>
        <time>2022-06-11T09:41:21.020Z</time>
      </trkpt>
      <trkpt lat="42.90088" lon="17.91109">
        <ele>334.267152</ele>
        <time>2022-06-11T09:41:24.031Z</time>
      </trkpt>
      <trkpt lat="42.901" lon="17.911">
        <ele>334.041782</ele>
        <time>2022-06-11T09:41:27.028Z</time>
      </trkpt>
      <trkpt lat="42.90112" lon="17.91092">
        <ele>333.818132</ele>
        <time>2022-06-11T09:41:30.028Z</time>
      </trkpt>
      <trkpt lat="42.90121" lon="17.91087">
        <ele>333.659353</ele>
        <time>2022-06-11T09:41:32.015Z</time>
      </trkpt>
      <trkpt lat="42.9013" lon="17.91083">
        <ele>333.496082</ele>
        <time>2022-06-11T09:41:34.028Z</time>
      </trkpt>
      <trkpt lat="42.90139" lon="17.91079">
        <ele>333.337954</ele>
        <time>2022-06-11T09:41:36.023Z</time>
      </trkpt>
      <trkpt lat="42.90148" lon="17.91075">
        <ele>333.179034</ele>
        <time>2022-06-11T09:41:38.019Z</time>
      </trkpt>
      <trkpt lat="42.90161" lon="17.91074">
        <ele>332.975275</ele>
        <time>2022-06-11T09:41:41.014Z</time>
      </trkpt>
      <trkpt lat="42.90174" lon="17.91074">
        <ele>332.84263</ele>
        <time>2022-06-11T09:41:44.025Z</time>
      </trkpt>
      <trkpt lat="42.90186" lon="17.91074">
        <ele>332.717239</ele>
        <time>2022-06-11T09:41:47.027Z</time>
      </trkpt>
      <trkpt lat="42.90197" lon="17.91075">
        <ele>332.597139</ele>
        <time>2022-06-11T09:41:50.023Z</time>
      </trkpt>
      <trkpt lat="42.90209" lon="17.91072">
        <ele>332.466501</ele>
        <time>2022-06-11T09:41:53.026Z</time>
      </trkpt>
      <trkpt lat="42.90222" lon="17.9107">
        <ele>332.331828</ele>
        <time>2022-06-11T09:41:56.034Z</time>
      </trkpt>
      <trkpt lat="42.90234" lon="17.91067">
        <ele>332.199866</ele>
        <time>2022-06-11T09:41:59.056Z</time>
      </trkpt>
      <trkpt lat="42.90247" lon="17.91063">
        <ele>332.061099</ele>
        <time>2022-06-11T09:42:02.024Z</time>
      </trkpt>
      <trkpt lat="42.90256" lon="17.91061">
        <ele>331.965451</ele>
        <time>2022-06-11T09:42:04.028Z</time>
      </trkpt>
      <trkpt lat="42.90265" lon="17.91059">
        <ele>331.870981</ele>
        <time>2022-06-11T09:42:06.017Z</time>
      </trkpt>
      <trkpt lat="42.90278" lon="17.91055">
        <ele>331.728804</ele>
        <time>2022-06-11T09:42:09.041Z</time>
      </trkpt>
      <trkpt lat="42.90287" lon="17.91053">
        <ele>331.633722</ele>
        <time>2022-06-11T09:42:11.023Z</time>
      </trkpt>
      <trkpt lat="42.903" lon="17.9105">
        <ele>331.496215</ele>
        <time>2022-06-11T09:42:14.034Z</time>
      </trkpt>
      <trkpt lat="42.90312" lon="17.91047">
        <ele>331.369222</ele>
        <time>2022-06-11T09:42:17.027Z</time>
      </trkpt>
      <trkpt lat="42.90323" lon="17.91043">
        <ele>331.246743</ele>
        <time>2022-06-11T09:42:20.029Z</time>
      </trkpt>
      <trkpt lat="42.90335" lon="17.91037">
        <ele>331.119458</ele>
        <time>2022-06-11T09:42:23.029Z</time>
      </trkpt>
      <trkpt lat="42.90346" lon="17.91032">
        <ele>331.126559</ele>
        <time>2022-06-11T09:42:26.033Z</time>
      </trkpt>
      <trkpt lat="42.90358" lon="17.91026">
        <ele>331.142754</ele>
        <time>2022-06-11T09:42:29.024Z</time>
      </trkpt>
      <trkpt lat="42.90368" lon="17.91018">
        <ele>331.158689</ele>
        <time>2022-06-11T09:42:32.027Z</time>
      </trkpt>
      <trkpt lat="42.90378" lon="17.91006">
        <ele>331.175603</ele>
        <time>2022-06-11T09:42:35.025Z</time>
      </trkpt>
      <trkpt lat="42.90387" lon="17.90994">
        <ele>331.191679</ele>
        <time>2022-06-11T09:42:38.054Z</time>
      </trkpt>
      <trkpt lat="42.90397" lon="17.90983">
        <ele>331.208042</ele>
        <time>2022-06-11T09:42:41.032Z</time>
      </trkpt>
      <trkpt lat="42.90406" lon="17.90971">
        <ele>331.224921</ele>
        <time>2022-06-11T09:42:44.067Z</time>
      </trkpt>
      <trkpt lat="42.90416" lon="17.90959">
        <ele>331.242381</ele>
        <time>2022-06-11T09:42:47.025Z</time>
      </trkpt>
      <trkpt lat="42.90426" lon="17.90947">
        <ele>331.259387</ele>
        <time>2022-06-11T09:42:50.023Z</time>
      </trkpt>
      <trkpt lat="42.90436" lon="17.90936">
        <ele>331.276093</ele>
        <time>2022-06-11T09:42:53.022Z</time>
      </trkpt>
      <trkpt lat="42.90446" lon="17.90925">
        <ele>331.292926</ele>
        <time>2022-06-11T09:42:56.022Z</time>
      </trkpt>
      <trkpt lat="42.90456" lon="17.90914">
        <ele>331.309834</ele>
        <time>2022-06-11T09:42:59.044Z</time>
      </trkpt>
      <trkpt lat="42.90463" lon="17.90906">
        <ele>331.321749</ele>
        <time>2022-06-11T09:43:01.031Z</time>
      </trkpt>
      <trkpt lat="42.90473" lon="17.90895">
        <ele>331.338743</ele>
        <time>2022-06-11T09:43:04.039Z</time>
      </trkpt>
      <trkpt lat="42.90484" lon="17.90885">
        <ele>331.243982</ele>
        <time>2022-06-11T09:43:07.052Z</time>
      </trkpt>
      <trkpt lat="42.90493" lon="17.90873">
        <ele>331.063004</ele>
        <time>2022-06-11T09:43:10.018Z</time>
      </trkpt>
      <trkpt lat="42.90501" lon="17.90865">
        <ele>330.930761</ele>
        <time>2022-06-11T09:43:12.023Z</time>
      </trkpt>
      <trkpt lat="42.90508" lon="17.90857">
        <ele>330.80121</ele>
        <time>2022-06-11T09:43:14.006Z</time>
      </trkpt>
      <trkpt lat="42.90516" lon="17.90843">
        <ele>330.617333</ele>
        <time>2022-06-11T09:43:17.027Z</time>
      </trkpt>
      <trkpt lat="42.90521" lon="17.90833">
        <ele>330.488769</ele>
        <time>2022-06-11T09:43:19.027Z</time>
      </trkpt>
      <trkpt lat="42.90529" lon="17.9082">
        <ele>330.309885</ele>
        <time>2022-06-11T09:43:22.030Z</time>
      </trkpt>
      <trkpt lat="42.90538" lon="17.90806">
        <ele>330.121333</ele>
        <time>2022-06-11T09:43:25.026Z</time>
      </trkpt>
      <trkpt lat="42.90544" lon="17.90797">
        <ele>329.992155</ele>
        <time>2022-06-11T09:43:27.034Z</time>
      </trkpt>
      <trkpt lat="42.90552" lon="17.90783">
        <ele>329.808073</ele>
        <time>2022-06-11T09:43:30.020Z</time>
      </trkpt>
      <trkpt lat="42.90561" lon="17.9077">
        <ele>329.630548</ele>
        <time>2022-06-11T09:43:33.030Z</time>
      </trkpt>
      <trkpt lat="42.90569" lon="17.90758">
        <ele>329.455014</ele>
        <time>2022-06-11T09:43:36.033Z</time>
      </trkpt>
      <trkpt lat="42.90577" lon="17.90744">
        <ele>329.272369</ele>
        <time>2022-06-11T09:43:39.020Z</time>
      </trkpt>
      <trkpt lat="42.90583" lon="17.90735">
        <ele>329.145471</ele>
        <time>2022-06-11T09:43:41.030Z</time>
      </trkpt>
      <trkpt lat="42.9059" lon="17.90719">
        <ele>328.955752</ele>
        <time>2022-06-11T09:43:44.019Z</time>
      </trkpt>
      <trkpt lat="42.90595" lon="17.90708">
        <ele>328.823546</ele>
        <time>2022-06-11T09:43:46.057Z</time>
      </trkpt>
      <trkpt lat="42.90602" lon="17.90693">
        <ele>328.831192</ele>
        <time>2022-06-11T09:43:49.025Z</time>
      </trkpt>
      <trkpt lat="42.90606" lon="17.90681">
        <ele>328.851938</ele>
        <time>2022-06-11T09:43:51.031Z</time>
      </trkpt>
      <trkpt lat="42.9061" lon="17.90669">
        <ele>328.873124</ele>
        <time>2022-06-11T09:43:53.013Z</time>
      </trkpt>
      <trkpt lat="42.90614" lon="17.90657">
        <ele>328.894794</ele>
        <time>2022-06-11T09:43:55.032Z</time>
      </trkpt>
      <trkpt lat="42.90618" lon="17.90646">
        <ele>328.915931</ele>
        <time>2022-06-11T09:43:57.066Z</time>
      </trkpt>
      <trkpt lat="42.90624" lon="17.90635">
        <ele>328.936996</ele>
        <time>2022-06-11T09:43:59.023Z</time>
      </trkpt>
      <trkpt lat="42.90629" lon="17.90624">
        <ele>328.958335</ele>
        <time>2022-06-11T09:44:01.019Z</time>
      </trkpt>
      <trkpt lat="42.90634" lon="17.90613">
        <ele>328.979091</ele>
        <time>2022-06-11T09:44:03.026Z</time>
      </trkpt>
      <trkpt lat="42.9064" lon="17.90603">
        <ele>328.999901</ele>
        <time>2022-06-11T09:44:05.032Z</time>
      </trkpt>
      <trkpt lat="42.90646" lon="17.90593">
        <ele>329.020958</ele>
        <time>2022-06-11T09:44:07.030Z</time>
      </trkpt>
      <trkpt lat="42.90655" lon="17.90579">
        <ele>329.050336</ele>
        <time>2022-06-11T09:44:10.028Z</time>
      </trkpt>
      <trkpt lat="42.90663" lon="17.90565">
        <ele>329.079511</ele>
        <time>2022-06-11T09:44:13.026Z</time>
      </trkpt>
      <trkpt lat="42.90671" lon="17.9055">
        <ele>329.109424</ele>
        <time>2022-06-11T09:44:16.011Z</time>
      </trkpt>
      <trkpt lat="42.90675" lon="17.90539">
        <ele>329.129473</ele>
        <time>2022-06-11T09:44:18.025Z</time>
      </trkpt>
      <trkpt lat="42.90679" lon="17.90528">
        <ele>329.149926</ele>
        <time>2022-06-11T09:44:20.034Z</time>
      </trkpt>
      <trkpt lat="42.90683" lon="17.90516">
        <ele>329.170818</ele>
        <time>2022-06-11T09:44:22.012Z</time>
      </trkpt>
      <trkpt lat="42.90687" lon="17.90504">
        <ele>329.191824</ele>
        <time>2022-06-11T09:44:24.025Z</time>
      </trkpt>
      <trkpt lat="42.90691" lon="17.90493">
        <ele>329.180101</ele>
        <time>2022-06-11T09:44:26.023Z</time>
      </trkpt>
      <trkpt lat="42.90695" lon="17.90481">
        <ele>329.135024</ele>
        <time>2022-06-11T09:44:28.027Z</time>
      </trkpt>
      <trkpt lat="42.90699" lon="17.90469">
        <ele>329.089946</ele>
        <time>2022-06-11T09:44:30.056Z</time>
      </trkpt>
      <trkpt lat="42.90703" lon="17.90458">
        <ele>329.044562</ele>
        <time>2022-06-11T09:44:32.025Z</time>
      </trkpt>
      <trkpt lat="42.90707" lon="17.90447">
        <ele>329.000658</ele>
        <time>2022-06-11T09:44:34.033Z</time>
      </trkpt>
      <trkpt lat="42.90712" lon="17.90436">
        <ele>328.956535</ele>
        <time>2022-06-11T09:44:36.047Z</time>
      </trkpt>
      <trkpt lat="42.90717" lon="17.90425">
        <ele>328.911478</ele>
        <time>2022-06-11T09:44:38.032Z</time>
      </trkpt>
      <trkpt lat="42.90723" lon="17.90416">
        <ele>328.867833</ele>
        <time>2022-06-11T09:44:40.030Z</time>
      </trkpt>
      <trkpt lat="42.90728" lon="17.90406">
        <ele>328.823657</ele>
        <time>2022-06-11T09:44:42.026Z</time>
      </trkpt>
      <trkpt lat="42.90734" lon="17.90396">
        <ele>328.780286</ele>
        <time>2022-06-11T09:44:44.015Z</time>
      </trkpt>
      <trkpt lat="42.90743" lon="17.90383">
        <ele>328.716266</ele>
        <time>2022-06-11T09:44:47.061Z</time>
      </trkpt>
      <trkpt lat="42.90752" lon="17.90371">
        <ele>328.653773</ele>
        <time>2022-06-11T09:44:50.030Z</time>
      </trkpt>
      <trkpt lat="42.90759" lon="17.90362">
        <ele>328.607282</ele>
        <time>2022-06-11T09:44:52.032Z</time>
      </trkpt>
      <trkpt lat="42.90767" lon="17.90354">
        <ele>328.562964</ele>
        <time>2022-06-11T09:44:54.013Z</time>
      </trkpt>
      <trkpt lat="42.90774" lon="17.90347">
        <ele>328.518699</ele>
        <time>2022-06-11T09:44:56.027Z</time>
      </trkpt>
      <trkpt lat="42.90783" lon="17.90341">
        <ele>328.471702</ele>
        <time>2022-06-11T09:44:58.054Z</time>
      </trkpt>
      <trkpt lat="42.90792" lon="17.90336">
        <ele>328.422859</ele>
        <time>2022-06-11T09:45:00.028Z</time>
      </trkpt>
      <trkpt lat="42.90802" lon="17.90331">
        <ele>328.372892</ele>
        <time>2022-06-11T09:45:02.016Z</time>
      </trkpt>
      <trkpt lat="42.90811" lon="17.90328">
        <ele>328.337627</ele>
        <time>2022-06-11T09:45:04.068Z</time>
      </trkpt>
      <trkpt lat="42.9082" lon="17.90326">
        <ele>328.350179</ele>
        <time>2022-06-11T09:45:06.016Z</time>
      </trkpt>
      <trkpt lat="42.90833" lon="17.90326">
        <ele>328.366775</ele>
        <time>2022-06-11T09:45:09.019Z</time>
      </trkpt>
      <trkpt lat="42.90844" lon="17.90329">
        <ele>328.381685</ele>
        <time>2022-06-11T09:45:12.022Z</time>
      </trkpt>
      <trkpt lat="42.90853" lon="17.90332">
        <ele>328.394803</ele>
        <time>2022-06-11T09:45:15.031Z</time>
      </trkpt>
      <trkpt lat="42.90863" lon="17.90335">
        <ele>328.408265</ele>
        <time>2022-06-11T09:45:18.021Z</time>
      </trkpt>
      <trkpt lat="42.90872" lon="17.90339">
        <ele>328.421851</ele>
        <time>2022-06-11T09:45:21.025Z</time>
      </trkpt>
      <trkpt lat="42.90882" lon="17.90346">
        <ele>328.436472</ele>
        <time>2022-06-11T09:45:24.013Z</time>
      </trkpt>
      <trkpt lat="42.90892" lon="17.90353">
        <ele>328.451129</ele>
        <time>2022-06-11T09:45:27.023Z</time>
      </trkpt>
      <trkpt lat="42.90901" lon="17.9036">
        <ele>328.465765</ele>
        <time>2022-06-11T09:45:30.019Z</time>
      </trkpt>
      <trkpt lat="42.9091" lon="17.90367">
        <ele>328.47958</ele>
        <time>2022-06-11T09:45:33.021Z</time>
      </trkpt>
      <trkpt lat="42.90919" lon="17.90376">
        <ele>328.494909</ele>
        <time>2022-06-11T09:45:36.022Z</time>
      </trkpt>
      <trkpt lat="42.9093" lon="17.90385">
        <ele>328.511853</ele>
        <time>2022-06-11T09:45:39.013Z</time>
      </trkpt>
      <trkpt lat="42.9094" lon="17.90393">
        <ele>328.528337</ele>
        <time>2022-06-11T09:45:42.020Z</time>
      </trkpt>
      <trkpt lat="42.90951" lon="17.90401">
        <ele>328.544939</ele>
        <time>2022-06-11T09:45:45.038Z</time>
      </trkpt>
      <trkpt lat="42.90963" lon="17.90409">
        <ele>328.56201</ele>
        <time>2022-06-11T09:45:48.027Z</time>
      </trkpt>
      <trkpt lat="42.90974" lon="17.90417">
        <ele>328.562318</ele>
        <time>2022-06-11T09:45:51.022Z</time>
      </trkpt>
      <trkpt lat="42.90982" lon="17.90423">
        <ele>328.456676</ele>
        <time>2022-06-11T09:45:53.030Z</time>
      </trkpt>
      <trkpt lat="42.90994" lon="17.90431">
        <ele>328.306385</ele>
        <time>2022-06-11T09:45:56.024Z</time>
      </trkpt>
      <trkpt lat="42.91006" lon="17.90438">
        <ele>328.160645</ele>
        <time>2022-06-11T09:45:59.038Z</time>
      </trkpt>
      <trkpt lat="42.91016" lon="17.90446">
        <ele>328.023522</ele>
        <time>2022-06-11T09:46:02.020Z</time>
      </trkpt>
      <trkpt lat="42.91027" lon="17.90453">
        <ele>327.888826</ele>
        <time>2022-06-11T09:46:05.037Z</time>
      </trkpt>
      <trkpt lat="42.91038" lon="17.90459">
        <ele>327.755785</ele>
        <time>2022-06-11T09:46:08.027Z</time>
      </trkpt>
      <trkpt lat="42.91049" lon="17.90463">
        <ele>327.618645</ele>
        <time>2022-06-11T09:46:11.033Z</time>
      </trkpt>
      <trkpt lat="42.91061" lon="17.90467">
        <ele>327.482458</ele>
        <time>2022-06-11T09:46:14.017Z</time>
      </trkpt>
      <trkpt lat="42.91072" lon="17.90468">
        <ele>327.348803</ele>
        <time>2022-06-11T09:46:17.085Z</time>
      </trkpt>
      <trkpt lat="42.91084" lon="17.90467">
        <ele>327.214088</ele>
        <time>2022-06-11T09:46:20.026Z</time>
      </trkpt>
      <trkpt lat="42.91095" lon="17.90464">
        <ele>327.086252</ele>
        <time>2022-06-11T09:46:23.029Z</time>
      </trkpt>
      <trkpt lat="42.91106" lon="17.90461">
        <ele>326.958948</ele>
        <time>2022-06-11T09:46:26.031Z</time>
      </trkpt>
      <trkpt lat="42.91116" lon="17.90458">
        <ele>326.837094</ele>
        <time>2022-06-11T09:46:29.030Z</time>
      </trkpt>
      <trkpt lat="42.91127" lon="17.90454">
        <ele>326.713457</ele>
        <time>2022-06-11T09:46:32.011Z</time>
      </trkpt>
      <trkpt lat="42.91137" lon="17.9045">
        <ele>326.591942</ele>
        <time>2022-06-11T09:46:35.019Z</time>
      </trkpt>
      <trkpt lat="42.91147" lon="17.90445">
        <ele>326.537256</ele>
        <time>2022-06-11T09:46:38.025Z</time>
      </trkpt>
      <trkpt lat="42.91156" lon="17.90441">
        <ele>326.5889</ele>
        <time>2022-06-11T09:46:41.034Z</time>
      </trkpt>
      <trkpt lat="42.91166" lon="17.90436">
        <ele>326.641576</ele>
        <time>2022-06-11T09:46:44.017Z</time>
      </trkpt>
      <trkpt lat="42.91176" lon="17.9043">
        <ele>326.698063</ele>
        <time>2022-06-11T09:46:47.034Z</time>
      </trkpt>
      <trkpt lat="42.91185" lon="17.90424">
        <ele>326.752898</ele>
        <time>2022-06-11T09:46:50.062Z</time>
      </trkpt>
      <trkpt lat="42.91195" lon="17.90418">
        <ele>326.807408</ele>
        <time>2022-06-11T09:46:53.022Z</time>
      </trkpt>
      <trkpt lat="42.91205" lon="17.90413">
        <ele>326.862443</ele>
        <time>2022-06-11T09:46:56.077Z</time>
      </trkpt>
      <trkpt lat="42.91214" lon="17.90408">
        <ele>326.916794</ele>
        <time>2022-06-11T09:46:59.026Z</time>
      </trkpt>
      <trkpt lat="42.91224" lon="17.90403">
        <ele>326.971144</ele>
        <time>2022-06-11T09:47:02.025Z</time>
      </trkpt>
      <trkpt lat="42.91233" lon="17.90397">
        <ele>327.024573</ele>
        <time>2022-06-11T09:47:05.024Z</time>
      </trkpt>
      <trkpt lat="42.91242" lon="17.90389">
        <ele>327.077263</ele>
        <time>2022-06-11T09:47:08.009Z</time>
      </trkpt>
      <trkpt lat="42.9125" lon="17.9038">
        <ele>327.133582</ele>
        <time>2022-06-11T09:47:11.025Z</time>
      </trkpt>
      <trkpt lat="42.91258" lon="17.90371">
        <ele>327.187967</ele>
        <time>2022-06-11T09:47:14.042Z</time>
      </trkpt>
      <trkpt lat="42.91266" lon="17.90361">
        <ele>327.243825</ele>
        <time>2022-06-11T09:47:17.047Z</time>
      </trkpt>
      <trkpt lat="42.91274" lon="17.90351">
        <ele>327.298219</ele>
        <time>2022-06-11T09:47:20.028Z</time>
      </trkpt>
      <trkpt lat="42.91282" lon="17.9034">
        <ele>327.35553</ele>
        <time>2022-06-11T09:47:23.018Z</time>
      </trkpt>
      <trkpt lat="42.91289" lon="17.9033">
        <ele>327.409838</ele>
        <time>2022-06-11T09:47:26.018Z</time>
      </trkpt>
      <trkpt lat="42.91296" lon="17.9032">
        <ele>327.465938</ele>
        <time>2022-06-11T09:47:29.059Z</time>
      </trkpt>
      <trkpt lat="42.91303" lon="17.90309">
        <ele>327.539167</ele>
        <time>2022-06-11T09:47:32.030Z</time>
      </trkpt>
      <trkpt lat="42.9131" lon="17.90298">
        <ele>327.617981</ele>
        <time>2022-06-11T09:47:35.015Z</time>
      </trkpt>
      <trkpt lat="42.91318" lon="17.90287">
        <ele>327.696796</ele>
        <time>2022-06-11T09:47:38.032Z</time>
      </trkpt>
      <trkpt lat="42.91325" lon="17.90277">
        <ele>327.769372</ele>
        <time>2022-06-11T09:47:41.029Z</time>
      </trkpt>
      <trkpt lat="42.91333" lon="17.90267">
        <ele>327.845745</ele>
        <time>2022-06-11T09:47:44.019Z</time>
      </trkpt>
      <trkpt lat="42.91342" lon="17.90255">
        <ele>327.931433</ele>
        <time>2022-06-11T09:47:47.029Z</time>
      </trkpt>
      <trkpt lat="42.9135" lon="17.90243">
        <ele>328.01677</ele>
        <time>2022-06-11T09:47:50.019Z</time>
      </trkpt>
      <trkpt lat="42.91358" lon="17.9023">
        <ele>328.102513</ele>
        <time>2022-06-11T09:47:53.019Z</time>
      </trkpt>
      <trkpt lat="42.91365" lon="17.90217">
        <ele>328.184058</ele>
        <time>2022-06-11T09:47:56.022Z</time>
      </trkpt>
      <trkpt lat="42.91371" lon="17.90203">
        <ele>328.268969</ele>
        <time>2022-06-11T09:47:59.028Z</time>
      </trkpt>
      <trkpt lat="42.91378" lon="17.90189">
        <ele>328.351159</ele>
        <time>2022-06-11T09:48:02.025Z</time>
      </trkpt>
      <trkpt lat="42.91384" lon="17.90176">
        <ele>328.430804</ele>
        <time>2022-06-11T09:48:05.031Z</time>
      </trkpt>
      <trkpt lat="42.91389" lon="17.90163">
        <ele>328.509514</ele>
        <time>2022-06-11T09:48:08.053Z</time>
      </trkpt>
      <trkpt lat="42.91395" lon="17.9015">
        <ele>328.590095</ele>
        <time>2022-06-11T09:48:11.023Z</time>
      </trkpt>
      <trkpt lat="42.91401" lon="17.90136">
        <ele>328.669072</ele>
        <time>2022-06-11T09:48:14.057Z</time>
      </trkpt>
      <trkpt lat="42.91407" lon="17.90123">
        <ele>328.644046</ele>
        <time>2022-06-11T09:48:17.046Z</time>
      </trkpt>
      <trkpt lat="42.91412" lon="17.90109">
        <ele>328.481718</ele>
        <time>2022-06-11T09:48:20.055Z</time>
      </trkpt>
      <trkpt lat="42.91417" lon="17.90094">
        <ele>328.320317</ele>
        <time>2022-06-11T09:48:23.016Z</time>
      </trkpt>
      <trkpt lat="42.91422" lon="17.9008">
        <ele>328.162302</ele>
        <time>2022-06-11T09:48:26.012Z</time>
      </trkpt>
      <trkpt lat="42.91426" lon="17.90065">
        <ele>328.002094</ele>
        <time>2022-06-11T09:48:29.036Z</time>
      </trkpt>
      <trkpt lat="42.91429" lon="17.9005">
        <ele>327.843175</ele>
        <time>2022-06-11T09:48:32.016Z</time>
      </trkpt>
      <trkpt lat="42.91433" lon="17.90034">
        <ele>327.676382</ele>
        <time>2022-06-11T09:48:35.018Z</time>
      </trkpt>
      <trkpt lat="42.91436" lon="17.90018">
        <ele>327.516834</ele>
        <time>2022-06-11T09:48:38.026Z</time>
      </trkpt>
      <trkpt lat="42.91439" lon="17.90003">
        <ele>327.360448</ele>
        <time>2022-06-11T09:48:41.022Z</time>
      </trkpt>
      <trkpt lat="42.91443" lon="17.89988">
        <ele>327.195779</ele>
        <time>2022-06-11T09:48:44.020Z</time>
      </trkpt>
      <trkpt lat="42.91446" lon="17.89972">
        <ele>327.03207</ele>
        <time>2022-06-11T09:48:47.029Z</time>
      </trkpt>
      <trkpt lat="42.9145" lon="17.89957">
        <ele>326.873304</ele>
        <time>2022-06-11T09:48:50.014Z</time>
      </trkpt>
      <trkpt lat="42.91454" lon="17.89942">
        <ele>326.713129</ele>
        <time>2022-06-11T09:48:53.019Z</time>
      </trkpt>
      <trkpt lat="42.91458" lon="17.89927">
        <ele>326.556123</ele>
        <time>2022-06-11T09:48:56.033Z</time>
      </trkpt>
      <trkpt lat="42.9146" lon="17.89913">
        <ele>326.402398</ele>
        <time>2022-06-11T09:48:59.020Z</time>
      </trkpt>
      <trkpt lat="42.91462" lon="17.89897">
        <ele>326.246685</ele>
        <time>2022-06-11T09:49:02.038Z</time>
      </trkpt>
      <trkpt lat="42.91464" lon="17.89881">
        <ele>326.154071</ele>
        <time>2022-06-11T09:49:05.057Z</time>
      </trkpt>
      <trkpt lat="42.91465" lon="17.89866">
        <ele>326.061412</ele>
        <time>2022-06-11T09:49:08.022Z</time>
      </trkpt>
      <trkpt lat="42.91466" lon="17.8985">
        <ele>325.968753</ele>
        <time>2022-06-11T09:49:11.025Z</time>
      </trkpt>
      <trkpt lat="42.91467" lon="17.89834">
        <ele>325.874412</ele>
        <time>2022-06-11T09:49:14.017Z</time>
      </trkpt>
      <trkpt lat="42.91468" lon="17.89818">
        <ele>325.783042</ele>
        <time>2022-06-11T09:49:17.067Z</time>
      </trkpt>
      <trkpt lat="42.9147" lon="17.89802">
        <ele>325.686152</ele>
        <time>2022-06-11T09:49:20.023Z</time>
      </trkpt>
      <trkpt lat="42.91471" lon="17.89787">
        <ele>325.598165</ele>
        <time>2022-06-11T09:49:23.015Z</time>
      </trkpt>
      <trkpt lat="42.91473" lon="17.89771">
        <ele>325.506208</ele>
        <time>2022-06-11T09:49:26.024Z</time>
      </trkpt>
      <trkpt lat="42.91475" lon="17.89756">
        <ele>325.412385</ele>
        <time>2022-06-11T09:49:29.011Z</time>
      </trkpt>
      <trkpt lat="42.91478" lon="17.89739">
        <ele>325.315083</ele>
        <time>2022-06-11T09:49:32.020Z</time>
      </trkpt>
      <trkpt lat="42.9148" lon="17.89723">
        <ele>325.2214</ele>
        <time>2022-06-11T09:49:35.026Z</time>
      </trkpt>
      <trkpt lat="42.91482" lon="17.89707">
        <ele>325.12456</ele>
        <time>2022-06-11T09:49:38.052Z</time>
      </trkpt>
      <trkpt lat="42.91484" lon="17.89691">
        <ele>325.030018</ele>
        <time>2022-06-11T09:49:41.016Z</time>
      </trkpt>
      <trkpt lat="42.91486" lon="17.89676">
        <ele>324.938446</ele>
        <time>2022-06-11T09:49:44.027Z</time>
      </trkpt>
      <trkpt lat="42.91489" lon="17.89661">
        <ele>324.847724</ele>
        <time>2022-06-11T09:49:47.019Z</time>
      </trkpt>
      <trkpt lat="42.91493" lon="17.89646">
        <ele>324.878292</ele>
        <time>2022-06-11T09:49:50.012Z</time>
      </trkpt>
      <trkpt lat="42.91497" lon="17.89632">
        <ele>324.980879</ele>
        <time>2022-06-11T09:49:53.011Z</time>
      </trkpt>
      <trkpt lat="42.91501" lon="17.89617">
        <ele>325.084399</ele>
        <time>2022-06-11T09:49:56.083Z</time>
      </trkpt>
      <trkpt lat="42.91505" lon="17.89603">
        <ele>325.18905</ele>
        <time>2022-06-11T09:49:59.013Z</time>
      </trkpt>
      <trkpt lat="42.9151" lon="17.89588">
        <ele>325.297317</ele>
        <time>2022-06-11T09:50:02.019Z</time>
      </trkpt>
      <trkpt lat="42.91514" lon="17.89573">
        <ele>325.403337</ele>
        <time>2022-06-11T09:50:05.022Z</time>
      </trkpt>
      <trkpt lat="42.91517" lon="17.89558">
        <ele>325.508096</ele>
        <time>2022-06-11T09:50:08.026Z</time>
      </trkpt>
      <trkpt lat="42.91522" lon="17.89544">
        <ele>325.616183</ele>
        <time>2022-06-11T09:50:11.029Z</time>
      </trkpt>
      <trkpt lat="42.91526" lon="17.89529">
        <ele>325.723158</ele>
        <time>2022-06-11T09:50:14.028Z</time>
      </trkpt>
      <trkpt lat="42.9153" lon="17.89512">
        <ele>325.837762</ele>
        <time>2022-06-11T09:50:17.008Z</time>
      </trkpt>
      <trkpt lat="42.91534" lon="17.89498">
        <ele>325.94224</ele>
        <time>2022-06-11T09:50:20.016Z</time>
      </trkpt>
      <trkpt lat="42.91541" lon="17.89484">
        <ele>326.056422</ele>
        <time>2022-06-11T09:50:23.024Z</time>
      </trkpt>
      <trkpt lat="42.91547" lon="17.8947">
        <ele>326.164674</ele>
        <time>2022-06-11T09:50:26.017Z</time>
      </trkpt>
      <trkpt lat="42.91553" lon="17.89457">
        <ele>326.266941</ele>
        <time>2022-06-11T09:50:29.070Z</time>
      </trkpt>
      <trkpt lat="42.9156" lon="17.89445">
        <ele>326.368144</ele>
        <time>2022-06-11T09:50:32.024Z</time>
      </trkpt>
      <trkpt lat="42.91566" lon="17.89432">
        <ele>326.451327</ele>
        <time>2022-06-11T09:50:35.003Z</time>
      </trkpt>
      <trkpt lat="42.91572" lon="17.89418">
        <ele>326.375177</ele>
        <time>2022-06-11T09:50:38.014Z</time>
      </trkpt>
      <trkpt lat="42.91577" lon="17.89404">
        <ele>326.298232</ele>
        <time>2022-06-11T09:50:41.012Z</time>
      </trkpt>
      <trkpt lat="42.91583" lon="17.8939">
        <ele>326.219938</ele>
        <time>2022-06-11T09:50:44.016Z</time>
      </trkpt>
      <trkpt lat="42.91589" lon="17.89374">
        <ele>326.139066</ele>
        <time>2022-06-11T09:50:47.064Z</time>
      </trkpt>
      <trkpt lat="42.91592" lon="17.89359">
        <ele>326.06171</ele>
        <time>2022-06-11T09:50:50.026Z</time>
      </trkpt>
      <trkpt lat="42.91595" lon="17.89343">
        <ele>325.984421</ele>
        <time>2022-06-11T09:50:53.025Z</time>
      </trkpt>
      <trkpt lat="42.91598" lon="17.89327">
        <ele>325.908361</ele>
        <time>2022-06-11T09:50:56.025Z</time>
      </trkpt>
      <trkpt lat="42.91601" lon="17.89311">
        <ele>325.825993</ele>
        <time>2022-06-11T09:50:59.028Z</time>
      </trkpt>
      <trkpt lat="42.91604" lon="17.89294">
        <ele>325.743632</ele>
        <time>2022-06-11T09:51:02.031Z</time>
      </trkpt>
      <trkpt lat="42.91606" lon="17.89276">
        <ele>325.659152</ele>
        <time>2022-06-11T09:51:05.022Z</time>
      </trkpt>
      <trkpt lat="42.91609" lon="17.89259">
        <ele>325.577122</ele>
        <time>2022-06-11T09:51:08.104Z</time>
      </trkpt>
      <trkpt lat="42.91611" lon="17.89241">
        <ele>325.49089</ele>
        <time>2022-06-11T09:51:11.038Z</time>
      </trkpt>
      <trkpt lat="42.91614" lon="17.89224">
        <ele>325.406627</ele>
        <time>2022-06-11T09:51:14.027Z</time>
      </trkpt>
      <trkpt lat="42.91616" lon="17.89207">
        <ele>325.327008</ele>
        <time>2022-06-11T09:51:17.034Z</time>
      </trkpt>
      <trkpt lat="42.91619" lon="17.89191">
        <ele>325.266462</ele>
        <time>2022-06-11T09:51:20.022Z</time>
      </trkpt>
      <trkpt lat="42.91622" lon="17.89175">
        <ele>325.221168</ele>
        <time>2022-06-11T09:51:23.029Z</time>
      </trkpt>
      <trkpt lat="42.91625" lon="17.89158">
        <ele>325.174922</ele>
        <time>2022-06-11T09:51:26.017Z</time>
      </trkpt>
      <trkpt lat="42.91628" lon="17.89141">
        <ele>325.126284</ele>
        <time>2022-06-11T09:51:29.088Z</time>
      </trkpt>
      <trkpt lat="42.9163" lon="17.89129">
        <ele>325.092428</ele>
        <time>2022-06-11T09:51:31.034Z</time>
      </trkpt>
      <trkpt lat="42.91632" lon="17.89117">
        <ele>325.058452</ele>
        <time>2022-06-11T09:51:33.019Z</time>
      </trkpt>
      <trkpt lat="42.91634" lon="17.89099">
        <ele>325.008721</ele>
        <time>2022-06-11T09:51:36.024Z</time>
      </trkpt>
      <trkpt lat="42.91637" lon="17.89083">
        <ele>324.962288</ele>
        <time>2022-06-11T09:51:39.022Z</time>
      </trkpt>
      <trkpt lat="42.9164" lon="17.89066">
        <ele>324.915122</ele>
        <time>2022-06-11T09:51:42.023Z</time>
      </trkpt>
      <trkpt lat="42.91642" lon="17.89048">
        <ele>324.866195</ele>
        <time>2022-06-11T09:51:45.036Z</time>
      </trkpt>
      <trkpt lat="42.91645" lon="17.89031">
        <ele>324.817374</ele>
        <time>2022-06-11T09:51:48.005Z</time>
      </trkpt>
      <trkpt lat="42.91648" lon="17.89013">
        <ele>324.768554</ele>
        <time>2022-06-11T09:51:51.015Z</time>
      </trkpt>
      <trkpt lat="42.91651" lon="17.88997">
        <ele>324.721133</ele>
        <time>2022-06-11T09:51:54.022Z</time>
      </trkpt>
      <trkpt lat="42.91655" lon="17.8898">
        <ele>324.673138</ele>
        <time>2022-06-11T09:51:57.026Z</time>
      </trkpt>
      <trkpt lat="42.91659" lon="17.88963">
        <ele>324.623416</ele>
        <time>2022-06-11T09:52:00.008Z</time>
      </trkpt>
      <trkpt lat="42.91664" lon="17.88946">
        <ele>324.634713</ele>
        <time>2022-06-11T09:52:03.027Z</time>
      </trkpt>
      <trkpt lat="42.9167" lon="17.8893">
        <ele>324.647911</ele>
        <time>2022-06-11T09:52:06.035Z</time>
      </trkpt>
      <trkpt lat="42.91674" lon="17.88914">
        <ele>324.660503</ele>
        <time>2022-06-11T09:52:09.014Z</time>
      </trkpt>
      <trkpt lat="42.91678" lon="17.88898">
        <ele>324.673216</ele>
        <time>2022-06-11T09:52:12.016Z</time>
      </trkpt>
      <trkpt lat="42.91681" lon="17.88882">
        <ele>324.685385</ele>
        <time>2022-06-11T09:52:15.023Z</time>
      </trkpt>
      <trkpt lat="42.91685" lon="17.88866">
        <ele>324.69819</ele>
        <time>2022-06-11T09:52:18.056Z</time>
      </trkpt>
      <trkpt lat="42.91689" lon="17.8885">
        <ele>324.710777</ele>
        <time>2022-06-11T09:52:21.021Z</time>
      </trkpt>
      <trkpt lat="42.91693" lon="17.88834">
        <ele>324.723472</ele>
        <time>2022-06-11T09:52:24.015Z</time>
      </trkpt>
      <trkpt lat="42.91697" lon="17.88817">
        <ele>324.736451</ele>
        <time>2022-06-11T09:52:27.023Z</time>
      </trkpt>
      <trkpt lat="42.91701" lon="17.88801">
        <ele>324.749249</ele>
        <time>2022-06-11T09:52:30.023Z</time>
      </trkpt>
      <trkpt lat="42.91706" lon="17.88785">
        <ele>324.762221</ele>
        <time>2022-06-11T09:52:33.010Z</time>
      </trkpt>
      <trkpt lat="42.9171" lon="17.88769">
        <ele>324.774923</ele>
        <time>2022-06-11T09:52:36.005Z</time>
      </trkpt>
      <trkpt lat="42.91714" lon="17.88753">
        <ele>324.78776</ele>
        <time>2022-06-11T09:52:39.035Z</time>
      </trkpt>
      <trkpt lat="42.91717" lon="17.88736">
        <ele>324.800631</ele>
        <time>2022-06-11T09:52:42.037Z</time>
      </trkpt>
      <trkpt lat="42.91721" lon="17.8872">
        <ele>324.892278</ele>
        <time>2022-06-11T09:52:45.024Z</time>
      </trkpt>
      <trkpt lat="42.91726" lon="17.88705">
        <ele>325.02732</ele>
        <time>2022-06-11T09:52:48.030Z</time>
      </trkpt>
      <trkpt lat="42.91733" lon="17.88692">
        <ele>325.158059</ele>
        <time>2022-06-11T09:52:51.053Z</time>
      </trkpt>
      <trkpt lat="42.9174" lon="17.8868">
        <ele>325.287403</ele>
        <time>2022-06-11T09:52:54.020Z</time>
      </trkpt>
      <trkpt lat="42.91747" lon="17.88668">
        <ele>325.409044</ele>
        <time>2022-06-11T09:52:57.017Z</time>
      </trkpt>
      <trkpt lat="42.91754" lon="17.88658">
        <ele>325.520334</ele>
        <time>2022-06-11T09:53:01.007Z</time>
      </trkpt>
      <trkpt lat="42.91761" lon="17.88646">
        <ele>325.64726</ele>
        <time>2022-06-11T10:21:53.032Z</time>
      </trkpt>
      <trkpt lat="42.91764" lon="17.88634">
        <ele>325.751779</ele>
        <time>2022-06-11T10:21:57.039Z</time>
      </trkpt>
      <trkpt lat="42.91769" lon="17.88623">
        <ele>325.854801</ele>
        <time>2022-06-11T10:22:00.025Z</time>
      </trkpt>
      <trkpt lat="42.91774" lon="17.8861">
        <ele>325.976107</ele>
        <time>2022-06-11T10:22:03.015Z</time>
      </trkpt>
      <trkpt lat="42.91781" lon="17.88598">
        <ele>326.103521</ele>
        <time>2022-06-11T10:22:06.023Z</time>
      </trkpt>
      <trkpt lat="42.91789" lon="17.88586">
        <ele>326.232512</ele>
        <time>2022-06-11T10:22:09.023Z</time>
      </trkpt>
      <trkpt lat="42.91795" lon="17.88574">
        <ele>326.355892</ele>
        <time>2022-06-11T10:22:12.015Z</time>
      </trkpt>
      <trkpt lat="42.91802" lon="17.88562">
        <ele>326.481229</ele>
        <time>2022-06-11T10:22:15.005Z</time>
      </trkpt>
      <trkpt lat="42.91809" lon="17.88548">
        <ele>326.612518</ele>
        <time>2022-06-11T10:22:18.023Z</time>
      </trkpt>
      <trkpt lat="42.91815" lon="17.88535">
        <ele>326.743614</ele>
        <time>2022-06-11T10:22:21.023Z</time>
      </trkpt>
      <trkpt lat="42.91819" lon="17.8852">
        <ele>326.69263</ele>
        <time>2022-06-11T10:22:24.023Z</time>
      </trkpt>
      <trkpt lat="42.91823" lon="17.88505">
        <ele>326.442129</ele>
        <time>2022-06-11T10:22:27.019Z</time>
      </trkpt>
      <trkpt lat="42.91826" lon="17.88489">
        <ele>326.182714</ele>
        <time>2022-06-11T10:22:30.024Z</time>
      </trkpt>
      <trkpt lat="42.91827" lon="17.88471">
        <ele>325.896016</ele>
        <time>2022-06-11T10:22:33.020Z</time>
      </trkpt>
      <trkpt lat="42.91827" lon="17.88459">
        <ele>325.698521</ele>
        <time>2022-06-11T10:22:35.011Z</time>
      </trkpt>
      <trkpt lat="42.91827" lon="17.88446">
        <ele>325.496248</ele>
        <time>2022-06-11T10:22:39.014Z</time>
      </trkpt>
      <trkpt lat="42.91821" lon="17.88422">
        <ele>325.080498</ele>
        <time>2022-06-11T10:25:03.030Z</time>
      </trkpt>
      <trkpt lat="42.91818" lon="17.88409">
        <ele>324.876881</ele>
        <time>2022-06-11T10:25:06.025Z</time>
      </trkpt>
      <trkpt lat="42.91815" lon="17.88396">
        <ele>324.658534</ele>
        <time>2022-06-11T10:25:09.017Z</time>
      </trkpt>
      <trkpt lat="42.91811" lon="17.88383">
        <ele>324.436408</ele>
        <time>2022-06-11T10:25:12.027Z</time>
      </trkpt>
      <trkpt lat="42.91807" lon="17.88368">
        <ele>324.17677</ele>
        <time>2022-06-11T10:25:15.027Z</time>
      </trkpt>
      <trkpt lat="42.91803" lon="17.88352">
        <ele>323.902319</ele>
        <time>2022-06-11T10:25:18.013Z</time>
      </trkpt>
      <trkpt lat="42.918" lon="17.88336">
        <ele>323.637227</ele>
        <time>2022-06-11T10:25:21.022Z</time>
      </trkpt>
      <trkpt lat="42.91798" lon="17.88319">
        <ele>323.376589</ele>
        <time>2022-06-11T10:25:24.018Z</time>
      </trkpt>
      <trkpt lat="42.91797" lon="17.88303">
        <ele>323.115458</ele>
        <time>2022-06-11T10:25:27.048Z</time>
      </trkpt>
      <trkpt lat="42.91797" lon="17.88286">
        <ele>322.891675</ele>
        <time>2022-06-11T10:25:30.052Z</time>
      </trkpt>
      <trkpt lat="42.91798" lon="17.88269">
        <ele>322.838441</ele>
        <time>2022-06-11T10:25:33.024Z</time>
      </trkpt>
      <trkpt lat="42.918" lon="17.88252">
        <ele>322.78564</ele>
        <time>2022-06-11T10:25:36.061Z</time>
      </trkpt>
      <trkpt lat="42.91802" lon="17.88236">
        <ele>322.734629</ele>
        <time>2022-06-11T10:25:39.026Z</time>
      </trkpt>
      <trkpt lat="42.91804" lon="17.8822">
        <ele>322.685003</ele>
        <time>2022-06-11T10:25:42.023Z</time>
      </trkpt>
      <trkpt lat="42.91806" lon="17.88204">
        <ele>322.634232</ele>
        <time>2022-06-11T10:25:45.015Z</time>
      </trkpt>
      <trkpt lat="42.91808" lon="17.88187">
        <ele>322.582004</ele>
        <time>2022-06-11T10:25:48.015Z</time>
      </trkpt>
      <trkpt lat="42.91811" lon="17.8817">
        <ele>322.52891</ele>
        <time>2022-06-11T10:25:51.019Z</time>
      </trkpt>
      <trkpt lat="42.91814" lon="17.88154">
        <ele>322.476593</ele>
        <time>2022-06-11T10:25:54.018Z</time>
      </trkpt>
      <trkpt lat="42.91817" lon="17.88137">
        <ele>322.424994</ele>
        <time>2022-06-11T10:25:57.020Z</time>
      </trkpt>
      <trkpt lat="42.9182" lon="17.8812">
        <ele>322.369312</ele>
        <time>2022-06-11T10:26:00.025Z</time>
      </trkpt>
      <trkpt lat="42.91823" lon="17.88103">
        <ele>322.316418</ele>
        <time>2022-06-11T10:26:03.022Z</time>
      </trkpt>
      <trkpt lat="42.91827" lon="17.88086">
        <ele>322.262986</ele>
        <time>2022-06-11T10:26:06.022Z</time>
      </trkpt>
      <trkpt lat="42.91831" lon="17.8807">
        <ele>322.210413</ele>
        <time>2022-06-11T10:26:09.032Z</time>
      </trkpt>
      <trkpt lat="42.91837" lon="17.88055">
        <ele>322.156211</ele>
        <time>2022-06-11T10:26:12.017Z</time>
      </trkpt>
      <trkpt lat="42.91843" lon="17.8804">
        <ele>322.208306</ele>
        <time>2022-06-11T10:26:15.020Z</time>
      </trkpt>
      <trkpt lat="42.9185" lon="17.88026">
        <ele>322.287257</ele>
        <time>2022-06-11T10:26:18.020Z</time>
      </trkpt>
      <trkpt lat="42.91858" lon="17.88012">
        <ele>322.363687</ele>
        <time>2022-06-11T10:26:21.015Z</time>
      </trkpt>
      <trkpt lat="42.91865" lon="17.87999">
        <ele>322.440832</ele>
        <time>2022-06-11T10:26:24.012Z</time>
      </trkpt>
      <trkpt lat="42.91873" lon="17.87985">
        <ele>322.51767</ele>
        <time>2022-06-11T10:26:27.021Z</time>
      </trkpt>
      <trkpt lat="42.9188" lon="17.87972">
        <ele>322.593346</ele>
        <time>2022-06-11T10:26:30.019Z</time>
      </trkpt>
      <trkpt lat="42.91886" lon="17.87958">
        <ele>322.665186</ele>
        <time>2022-06-11T10:26:33.056Z</time>
      </trkpt>
      <trkpt lat="42.91891" lon="17.87943">
        <ele>322.739664</ele>
        <time>2022-06-11T10:26:36.021Z</time>
      </trkpt>
      <trkpt lat="42.91894" lon="17.87927">
        <ele>322.814143</ele>
        <time>2022-06-11T10:26:39.012Z</time>
      </trkpt>
      <trkpt lat="42.91898" lon="17.8791">
        <ele>322.891899</ele>
        <time>2022-06-11T10:26:42.022Z</time>
      </trkpt>
      <trkpt lat="42.91901" lon="17.87895">
        <ele>322.965728</ele>
        <time>2022-06-11T10:26:45.025Z</time>
      </trkpt>
      <trkpt lat="42.91906" lon="17.87879">
        <ele>323.042374</ele>
        <time>2022-06-11T10:26:48.016Z</time>
      </trkpt>
      <trkpt lat="42.9191" lon="17.87864">
        <ele>323.11644</ele>
        <time>2022-06-11T10:26:51.029Z</time>
      </trkpt>
      <trkpt lat="42.91916" lon="17.8785">
        <ele>323.18928</ele>
        <time>2022-06-11T10:26:54.040Z</time>
      </trkpt>
      <trkpt lat="42.91923" lon="17.87836">
        <ele>323.244482</ele>
        <time>2022-06-11T10:26:57.016Z</time>
      </trkpt>
      <trkpt lat="42.91928" lon="17.87822">
        <ele>323.140793</ele>
        <time>2022-06-11T10:27:00.023Z</time>
      </trkpt>
      <trkpt lat="42.91934" lon="17.87808">
        <ele>323.035224</ele>
        <time>2022-06-11T10:27:03.017Z</time>
      </trkpt>
      <trkpt lat="42.91941" lon="17.87794">
        <ele>322.926987</ele>
        <time>2022-06-11T10:27:06.014Z</time>
      </trkpt>
      <trkpt lat="42.91946" lon="17.87778">
        <ele>322.815377</ele>
        <time>2022-06-11T10:27:09.037Z</time>
      </trkpt>
      <trkpt lat="42.91951" lon="17.87762">
        <ele>322.702299</ele>
        <time>2022-06-11T10:27:12.020Z</time>
      </trkpt>
      <trkpt lat="42.91955" lon="17.87746">
        <ele>322.596648</ele>
        <time>2022-06-11T10:27:15.032Z</time>
      </trkpt>
      <trkpt lat="42.91958" lon="17.87731">
        <ele>322.492272</ele>
        <time>2022-06-11T10:27:18.018Z</time>
      </trkpt>
      <trkpt lat="42.91961" lon="17.87714">
        <ele>322.382679</ele>
        <time>2022-06-11T10:27:21.039Z</time>
      </trkpt>
      <trkpt lat="42.91965" lon="17.87698">
        <ele>322.270705</ele>
        <time>2022-06-11T10:27:24.019Z</time>
      </trkpt>
      <trkpt lat="42.91968" lon="17.87683">
        <ele>322.168673</ele>
        <time>2022-06-11T10:27:27.033Z</time>
      </trkpt>
      <trkpt lat="42.91973" lon="17.87669">
        <ele>322.069758</ele>
        <time>2022-06-11T10:27:30.082Z</time>
      </trkpt>
      <trkpt lat="42.91979" lon="17.87655">
        <ele>321.968863</ele>
        <time>2022-06-11T10:27:33.008Z</time>
      </trkpt>
      <trkpt lat="42.91986" lon="17.87642">
        <ele>321.861205</ele>
        <time>2022-06-11T10:27:36.018Z</time>
      </trkpt>
      <trkpt lat="42.91993" lon="17.87629">
        <ele>321.753975</ele>
        <time>2022-06-11T10:27:39.028Z</time>
      </trkpt>
      <trkpt lat="42.92" lon="17.87615">
        <ele>321.638726</ele>
        <time>2022-06-11T10:27:42.012Z</time>
      </trkpt>
      <trkpt lat="42.92007" lon="17.87602">
        <ele>321.467484</ele>
        <time>2022-06-11T10:27:45.020Z</time>
      </trkpt>
      <trkpt lat="42.92015" lon="17.87588">
        <ele>321.295362</ele>
        <time>2022-06-11T10:27:48.024Z</time>
      </trkpt>
      <trkpt lat="42.92022" lon="17.87576">
        <ele>321.132157</ele>
        <time>2022-06-11T10:27:51.016Z</time>
      </trkpt>
      <trkpt lat="42.9203" lon="17.87563">
        <ele>320.963147</ele>
        <time>2022-06-11T10:27:54.022Z</time>
      </trkpt>
      <trkpt lat="42.92038" lon="17.87551">
        <ele>320.790597</ele>
        <time>2022-06-11T10:27:57.031Z</time>
      </trkpt>
      <trkpt lat="42.92047" lon="17.87539">
        <ele>320.618557</ele>
        <time>2022-06-11T10:28:00.021Z</time>
      </trkpt>
      <trkpt lat="42.92056" lon="17.87527">
        <ele>320.452565</ele>
        <time>2022-06-11T10:28:03.060Z</time>
      </trkpt>
      <trkpt lat="42.92064" lon="17.87516">
        <ele>320.289708</ele>
        <time>2022-06-11T10:28:06.022Z</time>
      </trkpt>
      <trkpt lat="42.92072" lon="17.87505">
        <ele>320.124475</ele>
        <time>2022-06-11T10:28:09.012Z</time>
      </trkpt>
      <trkpt lat="42.9208" lon="17.87493">
        <ele>319.964907</ele>
        <time>2022-06-11T10:28:12.011Z</time>
      </trkpt>
      <trkpt lat="42.92087" lon="17.8748">
        <ele>319.796158</ele>
        <time>2022-06-11T10:28:15.016Z</time>
      </trkpt>
      <trkpt lat="42.92093" lon="17.87465">
        <ele>319.623562</ele>
        <time>2022-06-11T10:28:18.015Z</time>
      </trkpt>
      <trkpt lat="42.92099" lon="17.87451">
        <ele>319.45591</ele>
        <time>2022-06-11T10:28:21.020Z</time>
      </trkpt>
      <trkpt lat="42.92105" lon="17.87437">
        <ele>319.295114</ele>
        <time>2022-06-11T10:28:24.039Z</time>
      </trkpt>
      <trkpt lat="42.92111" lon="17.87423">
        <ele>319.202316</ele>
        <time>2022-06-11T10:28:27.020Z</time>
      </trkpt>
      <trkpt lat="42.92116" lon="17.87409">
        <ele>319.370699</ele>
        <time>2022-06-11T10:28:30.025Z</time>
      </trkpt>
      <trkpt lat="42.92121" lon="17.87394">
        <ele>319.549858</ele>
        <time>2022-06-11T10:28:33.023Z</time>
      </trkpt>
      <trkpt lat="42.92125" lon="17.87378">
        <ele>319.729672</ele>
        <time>2022-06-11T10:28:36.023Z</time>
      </trkpt>
      <trkpt lat="42.92129" lon="17.87363">
        <ele>319.906442</ele>
        <time>2022-06-11T10:28:39.028Z</time>
      </trkpt>
      <trkpt lat="42.92133" lon="17.87347">
        <ele>320.08372</ele>
        <time>2022-06-11T10:28:42.051Z</time>
      </trkpt>
      <trkpt lat="42.92138" lon="17.87333">
        <ele>320.253609</ele>
        <time>2022-06-11T10:28:45.013Z</time>
      </trkpt>
      <trkpt lat="42.92143" lon="17.87318">
        <ele>320.424226</ele>
        <time>2022-06-11T10:28:48.050Z</time>
      </trkpt>
      <trkpt lat="42.92148" lon="17.87305">
        <ele>320.593284</ele>
        <time>2022-06-11T10:28:51.031Z</time>
      </trkpt>
      <trkpt lat="42.92154" lon="17.87291">
        <ele>320.768859</ele>
        <time>2022-06-11T10:28:54.019Z</time>
      </trkpt>
      <trkpt lat="42.92162" lon="17.87278">
        <ele>320.945703</ele>
        <time>2022-06-11T10:28:57.027Z</time>
      </trkpt>
      <trkpt lat="42.92169" lon="17.87264">
        <ele>321.131984</ele>
        <time>2022-06-11T10:29:00.021Z</time>
      </trkpt>
      <trkpt lat="42.92176" lon="17.8725">
        <ele>321.309582</ele>
        <time>2022-06-11T10:29:03.028Z</time>
      </trkpt>
      <trkpt lat="42.92183" lon="17.87237">
        <ele>321.484688</ele>
        <time>2022-06-11T10:29:06.021Z</time>
      </trkpt>
      <trkpt lat="42.92189" lon="17.87223">
        <ele>321.662407</ele>
        <time>2022-06-11T10:29:09.017Z</time>
      </trkpt>
      <trkpt lat="42.92196" lon="17.87209">
        <ele>321.831749</ele>
        <time>2022-06-11T10:29:12.034Z</time>
      </trkpt>
      <trkpt lat="42.92202" lon="17.87195">
        <ele>321.957459</ele>
        <time>2022-06-11T10:29:15.018Z</time>
      </trkpt>
      <trkpt lat="42.92206" lon="17.87181">
        <ele>322.079884</ele>
        <time>2022-06-11T10:29:18.024Z</time>
      </trkpt>
      <trkpt lat="42.92212" lon="17.87167">
        <ele>322.205073</ele>
        <time>2022-06-11T10:29:21.022Z</time>
      </trkpt>
      <trkpt lat="42.92216" lon="17.87152">
        <ele>322.327944</ele>
        <time>2022-06-11T10:29:24.021Z</time>
      </trkpt>
      <trkpt lat="42.92221" lon="17.87137">
        <ele>322.45862</ele>
        <time>2022-06-11T10:29:27.086Z</time>
      </trkpt>
      <trkpt lat="42.92226" lon="17.87122">
        <ele>322.586175</ele>
        <time>2022-06-11T10:29:30.020Z</time>
      </trkpt>
      <trkpt lat="42.92232" lon="17.87108">
        <ele>322.710682</ele>
        <time>2022-06-11T10:29:33.020Z</time>
      </trkpt>
      <trkpt lat="42.92239" lon="17.87095">
        <ele>322.838169</ele>
        <time>2022-06-11T10:29:36.017Z</time>
      </trkpt>
      <trkpt lat="42.92246" lon="17.87081">
        <ele>322.968155</ele>
        <time>2022-06-11T10:29:39.018Z</time>
      </trkpt>
      <trkpt lat="42.92254" lon="17.87068">
        <ele>323.102644</ele>
        <time>2022-06-11T10:29:42.023Z</time>
      </trkpt>
      <trkpt lat="42.92262" lon="17.87054">
        <ele>323.23864</ele>
        <time>2022-06-11T10:29:45.019Z</time>
      </trkpt>
      <trkpt lat="42.92271" lon="17.87042">
        <ele>323.370411</ele>
        <time>2022-06-11T10:29:48.019Z</time>
      </trkpt>
      <trkpt lat="42.92278" lon="17.8703">
        <ele>323.495285</ele>
        <time>2022-06-11T10:29:51.018Z</time>
      </trkpt>
      <trkpt lat="42.92286" lon="17.87017">
        <ele>323.624083</ele>
        <time>2022-06-11T10:29:54.026Z</time>
      </trkpt>
      <trkpt lat="42.92293" lon="17.87003">
        <ele>323.733965</ele>
        <time>2022-06-11T10:29:57.024Z</time>
      </trkpt>
      <trkpt lat="42.92299" lon="17.86988">
        <ele>323.772688</ele>
        <time>2022-06-11T10:30:00.022Z</time>
      </trkpt>
      <trkpt lat="42.92305" lon="17.86974">
        <ele>323.810709</ele>
        <time>2022-06-11T10:30:03.015Z</time>
      </trkpt>
      <trkpt lat="42.9231" lon="17.86959">
        <ele>323.848906</ele>
        <time>2022-06-11T10:30:06.009Z</time>
      </trkpt>
      <trkpt lat="42.92315" lon="17.86944">
        <ele>323.886587</ele>
        <time>2022-06-11T10:30:09.030Z</time>
      </trkpt>
      <trkpt lat="42.92319" lon="17.86927">
        <ele>323.926039</ele>
        <time>2022-06-11T10:30:12.011Z</time>
      </trkpt>
      <trkpt lat="42.92322" lon="17.8691">
        <ele>323.966599</ele>
        <time>2022-06-11T10:30:15.021Z</time>
      </trkpt>
      <trkpt lat="42.92326" lon="17.86893">
        <ele>324.006636</ele>
        <time>2022-06-11T10:30:18.013Z</time>
      </trkpt>
      <trkpt lat="42.92329" lon="17.86876">
        <ele>324.048081</ele>
        <time>2022-06-11T10:30:21.013Z</time>
      </trkpt>
      <trkpt lat="42.92332" lon="17.86858">
        <ele>324.088777</ele>
        <time>2022-06-11T10:30:24.047Z</time>
      </trkpt>
      <trkpt lat="42.92335" lon="17.86842">
        <ele>324.12844</ele>
        <time>2022-06-11T10:30:27.028Z</time>
      </trkpt>
      <trkpt lat="42.9234" lon="17.86825">
        <ele>324.168967</ele>
        <time>2022-06-11T10:30:30.043Z</time>
      </trkpt>
      <trkpt lat="42.92344" lon="17.86814">
        <ele>324.197285</ele>
        <time>2022-06-11T10:30:32.021Z</time>
      </trkpt>
      <trkpt lat="42.92351" lon="17.86798">
        <ele>324.239166</ele>
        <time>2022-06-11T10:30:35.014Z</time>
      </trkpt>
      <trkpt lat="42.92358" lon="17.86783">
        <ele>324.280742</ele>
        <time>2022-06-11T10:30:38.018Z</time>
      </trkpt>
      <trkpt lat="42.92363" lon="17.86773">
        <ele>324.242353</ele>
        <time>2022-06-11T10:30:40.025Z</time>
      </trkpt>
      <trkpt lat="42.9237" lon="17.86758">
        <ele>324.157923</ele>
        <time>2022-06-11T10:30:43.049Z</time>
      </trkpt>
      <trkpt lat="42.92376" lon="17.86743">
        <ele>324.072555</ele>
        <time>2022-06-11T10:30:46.026Z</time>
      </trkpt>
      <trkpt lat="42.92381" lon="17.86728">
        <ele>323.991477</ele>
        <time>2022-06-11T10:30:49.017Z</time>
      </trkpt>
      <trkpt lat="42.92385" lon="17.86713">
        <ele>323.91072</ele>
        <time>2022-06-11T10:30:52.017Z</time>
      </trkpt>
      <trkpt lat="42.92388" lon="17.86697">
        <ele>323.82959</ele>
        <time>2022-06-11T10:30:55.020Z</time>
      </trkpt>
      <trkpt lat="42.92392" lon="17.8668">
        <ele>323.741672</ele>
        <time>2022-06-11T10:30:58.020Z</time>
      </trkpt>
      <trkpt lat="42.92397" lon="17.86663">
        <ele>323.655643</ele>
        <time>2022-06-11T10:31:01.025Z</time>
      </trkpt>
      <trkpt lat="42.92402" lon="17.86647">
        <ele>323.568573</ele>
        <time>2022-06-11T10:31:04.016Z</time>
      </trkpt>
      <trkpt lat="42.92407" lon="17.86632">
        <ele>323.484826</ele>
        <time>2022-06-11T10:31:07.023Z</time>
      </trkpt>
      <trkpt lat="42.92413" lon="17.86616">
        <ele>323.400065</ele>
        <time>2022-06-11T10:31:10.020Z</time>
      </trkpt>
      <trkpt lat="42.92419" lon="17.866">
        <ele>323.311579</ele>
        <time>2022-06-11T10:31:13.028Z</time>
      </trkpt>
      <trkpt lat="42.92424" lon="17.86585">
        <ele>323.228439</ele>
        <time>2022-06-11T10:31:16.027Z</time>
      </trkpt>
      <trkpt lat="42.9243" lon="17.8657">
        <ele>323.145863</ele>
        <time>2022-06-11T10:31:19.022Z</time>
      </trkpt>
      <trkpt lat="42.92435" lon="17.86555">
        <ele>323.082878</ele>
        <time>2022-06-11T10:31:22.055Z</time>
      </trkpt>
      <trkpt lat="42.9244" lon="17.86539">
        <ele>323.089651</ele>
        <time>2022-06-11T10:31:25.027Z</time>
      </trkpt>
      <trkpt lat="42.92445" lon="17.86523">
        <ele>323.096446</ele>
        <time>2022-06-11T10:31:28.044Z</time>
      </trkpt>
      <trkpt lat="42.92447" lon="17.86506">
        <ele>323.103129</ele>
        <time>2022-06-11T10:31:31.026Z</time>
      </trkpt>
      <trkpt lat="42.92448" lon="17.86488">
        <ele>323.11011</ele>
        <time>2022-06-11T10:31:34.024Z</time>
      </trkpt>
      <trkpt lat="42.92449" lon="17.86471">
        <ele>323.117113</ele>
        <time>2022-06-11T10:31:37.021Z</time>
      </trkpt>
      <trkpt lat="42.92449" lon="17.86452">
        <ele>323.124229</ele>
        <time>2022-06-11T10:31:40.027Z</time>
      </trkpt>
      <trkpt lat="42.92448" lon="17.8644">
        <ele>323.129024</ele>
        <time>2022-06-11T10:31:42.017Z</time>
      </trkpt>
      <trkpt lat="42.92447" lon="17.86428">
        <ele>323.133831</ele>
        <time>2022-06-11T10:31:44.018Z</time>
      </trkpt>
      <trkpt lat="42.92444" lon="17.8641">
        <ele>323.140973</ele>
        <time>2022-06-11T10:31:47.030Z</time>
      </trkpt>
      <trkpt lat="42.92441" lon="17.86394">
        <ele>323.147596</ele>
        <time>2022-06-11T10:31:50.025Z</time>
      </trkpt>
      <trkpt lat="42.92438" lon="17.86379">
        <ele>323.153616</ele>
        <time>2022-06-11T10:31:53.035Z</time>
      </trkpt>
      <trkpt lat="42.92434" lon="17.86364">
        <ele>323.159532</ele>
        <time>2022-06-11T10:31:56.020Z</time>
      </trkpt>
      <trkpt lat="42.9243" lon="17.86351">
        <ele>323.165475</ele>
        <time>2022-06-11T10:31:59.025Z</time>
      </trkpt>
      <trkpt lat="42.92424" lon="17.86337">
        <ele>323.171516</ele>
        <time>2022-06-11T10:32:02.057Z</time>
      </trkpt>
      <trkpt lat="42.92418" lon="17.86326">
        <ele>323.177006</ele>
        <time>2022-06-11T10:32:05.026Z</time>
      </trkpt>
      <trkpt lat="42.92411" lon="17.86314">
        <ele>323.305488</ele>
        <time>2022-06-11T10:32:08.049Z</time>
      </trkpt>
      <trkpt lat="42.92402" lon="17.86303">
        <ele>323.451432</ele>
        <time>2022-06-11T10:32:11.020Z</time>
      </trkpt>
      <trkpt lat="42.92392" lon="17.86292">
        <ele>323.600845</ele>
        <time>2022-06-11T10:32:14.015Z</time>
      </trkpt>
      <trkpt lat="42.92381" lon="17.86284">
        <ele>323.751012</ele>
        <time>2022-06-11T10:32:17.033Z</time>
      </trkpt>
      <trkpt lat="42.92371" lon="17.86277">
        <ele>323.884444</ele>
        <time>2022-06-11T10:32:20.058Z</time>
      </trkpt>
      <trkpt lat="42.9236" lon="17.86271">
        <ele>324.03046</ele>
        <time>2022-06-11T10:32:23.030Z</time>
      </trkpt>
      <trkpt lat="42.92349" lon="17.86266">
        <ele>324.172299</ele>
        <time>2022-06-11T10:32:26.020Z</time>
      </trkpt>
      <trkpt lat="42.92338" lon="17.86259">
        <ele>324.311589</ele>
        <time>2022-06-11T10:32:29.020Z</time>
      </trkpt>
      <trkpt lat="42.92328" lon="17.86253">
        <ele>324.446116</ele>
        <time>2022-06-11T10:32:32.030Z</time>
      </trkpt>
      <trkpt lat="42.92319" lon="17.86246">
        <ele>324.579333</ele>
        <time>2022-06-11T10:32:35.013Z</time>
      </trkpt>
      <trkpt lat="42.92307" lon="17.86236">
        <ele>324.742182</ele>
        <time>2022-06-11T10:32:38.022Z</time>
      </trkpt>
      <trkpt lat="42.92297" lon="17.86225">
        <ele>324.892461</ele>
        <time>2022-06-11T10:32:41.054Z</time>
      </trkpt>
      <trkpt lat="42.92289" lon="17.86214">
        <ele>325.039893</ele>
        <time>2022-06-11T10:32:44.023Z</time>
      </trkpt>
      <trkpt lat="42.92281" lon="17.86203">
        <ele>325.174171</ele>
        <time>2022-06-11T10:32:47.043Z</time>
      </trkpt>
      <trkpt lat="42.92272" lon="17.8619">
        <ele>325.326749</ele>
        <time>2022-06-11T10:32:50.021Z</time>
      </trkpt>
      <trkpt lat="42.92265" lon="17.86177">
        <ele>325.305864</ele>
        <time>2022-06-11T10:32:53.030Z</time>
      </trkpt>
      <trkpt lat="42.92258" lon="17.86165">
        <ele>325.256421</ele>
        <time>2022-06-11T10:32:56.019Z</time>
      </trkpt>
      <trkpt lat="42.92252" lon="17.86152">
        <ele>325.204239</ele>
        <time>2022-06-11T10:32:59.023Z</time>
      </trkpt>
      <trkpt lat="42.92245" lon="17.86138">
        <ele>325.1495</ele>
        <time>2022-06-11T10:33:02.052Z</time>
      </trkpt>
      <trkpt lat="42.92238" lon="17.86123">
        <ele>325.092141</ele>
        <time>2022-06-11T10:33:05.029Z</time>
      </trkpt>
      <trkpt lat="42.92231" lon="17.86108">
        <ele>325.033132</ele>
        <time>2022-06-11T10:33:08.027Z</time>
      </trkpt>
      <trkpt lat="42.92223" lon="17.86093">
        <ele>324.974151</ele>
        <time>2022-06-11T10:33:11.032Z</time>
      </trkpt>
      <trkpt lat="42.92217" lon="17.86078">
        <ele>324.917289</ele>
        <time>2022-06-11T10:33:14.037Z</time>
      </trkpt>
      <trkpt lat="42.92211" lon="17.86064">
        <ele>324.86562</ele>
        <time>2022-06-11T10:33:17.026Z</time>
      </trkpt>
      <trkpt lat="42.92205" lon="17.86051">
        <ele>324.817017</ele>
        <time>2022-06-11T10:33:20.020Z</time>
      </trkpt>
      <trkpt lat="42.922" lon="17.86038">
        <ele>324.767794</ele>
        <time>2022-06-11T10:33:23.030Z</time>
      </trkpt>
      <trkpt lat="42.92195" lon="17.86024">
        <ele>324.715328</ele>
        <time>2022-06-11T10:33:26.027Z</time>
      </trkpt>
      <trkpt lat="42.92192" lon="17.86009">
        <ele>324.665584</ele>
        <time>2022-06-11T10:33:29.023Z</time>
      </trkpt>
      <trkpt lat="42.92189" lon="17.85993">
        <ele>324.611334</ele>
        <time>2022-06-11T10:33:32.031Z</time>
      </trkpt>
      <trkpt lat="42.92185" lon="17.85977">
        <ele>324.556814</ele>
        <time>2022-06-11T10:33:35.023Z</time>
      </trkpt>
      <trkpt lat="42.92182" lon="17.85961">
        <ele>324.44621</ele>
        <time>2022-06-11T10:33:38.023Z</time>
      </trkpt>
      <trkpt lat="42.92181" lon="17.85945">
        <ele>324.329235</ele>
        <time>2022-06-11T10:33:41.036Z</time>
      </trkpt>
      <trkpt lat="42.92179" lon="17.85929">
        <ele>324.217012</ele>
        <time>2022-06-11T10:33:44.029Z</time>
      </trkpt>
      <trkpt lat="42.92179" lon="17.85913">
        <ele>324.103158</ele>
        <time>2022-06-11T10:33:47.059Z</time>
      </trkpt>
      <trkpt lat="42.92179" lon="17.85897">
        <ele>323.988779</ele>
        <time>2022-06-11T10:33:50.020Z</time>
      </trkpt>
      <trkpt lat="42.92178" lon="17.8588">
        <ele>323.868682</ele>
        <time>2022-06-11T10:33:53.029Z</time>
      </trkpt>
      <trkpt lat="42.92177" lon="17.85863">
        <ele>323.74678</ele>
        <time>2022-06-11T10:33:56.024Z</time>
      </trkpt>
      <trkpt lat="42.92177" lon="17.85846">
        <ele>323.619548</ele>
        <time>2022-06-11T10:33:59.022Z</time>
      </trkpt>
      <trkpt lat="42.92178" lon="17.85829">
        <ele>323.500038</ele>
        <time>2022-06-11T10:34:02.023Z</time>
      </trkpt>
      <trkpt lat="42.92178" lon="17.85812">
        <ele>323.382715</ele>
        <time>2022-06-11T10:34:05.012Z</time>
      </trkpt>
      <trkpt lat="42.92178" lon="17.85796">
        <ele>323.2676</ele>
        <time>2022-06-11T10:34:08.046Z</time>
      </trkpt>
      <trkpt lat="42.92178" lon="17.8578">
        <ele>323.147519</ele>
        <time>2022-06-11T10:34:11.025Z</time>
      </trkpt>
      <trkpt lat="42.92178" lon="17.85763">
        <ele>323.028089</ele>
        <time>2022-06-11T10:34:14.033Z</time>
      </trkpt>
      <trkpt lat="42.92176" lon="17.85747">
        <ele>322.911375</ele>
        <time>2022-06-11T10:34:17.016Z</time>
      </trkpt>
      <trkpt lat="42.92173" lon="17.85729">
        <ele>322.780326</ele>
        <time>2022-06-11T10:34:20.045Z</time>
      </trkpt>
      <trkpt lat="42.9217" lon="17.85713">
        <ele>322.613585</ele>
        <time>2022-06-11T10:34:23.045Z</time>
      </trkpt>
      <trkpt lat="42.92165" lon="17.85697">
        <ele>322.448285</ele>
        <time>2022-06-11T10:34:26.020Z</time>
      </trkpt>
      <trkpt lat="42.92159" lon="17.85682">
        <ele>322.276013</ele>
        <time>2022-06-11T10:34:29.025Z</time>
      </trkpt>
      <trkpt lat="42.92154" lon="17.85671">
        <ele>322.154938</ele>
        <time>2022-06-11T10:34:31.024Z</time>
      </trkpt>
      <trkpt lat="42.92148" lon="17.85655">
        <ele>321.982047</ele>
        <time>2022-06-11T10:34:34.053Z</time>
      </trkpt>
      <trkpt lat="42.92143" lon="17.8564">
        <ele>321.819157</ele>
        <time>2022-06-11T10:34:37.026Z</time>
      </trkpt>
      <trkpt lat="42.9214" lon="17.85628">
        <ele>321.69995</ele>
        <time>2022-06-11T10:34:39.019Z</time>
      </trkpt>
      <trkpt lat="42.92136" lon="17.85611">
        <ele>321.520287</ele>
        <time>2022-06-11T10:34:42.021Z</time>
      </trkpt>
      <trkpt lat="42.92133" lon="17.85599">
        <ele>321.399208</ele>
        <time>2022-06-11T10:34:44.016Z</time>
      </trkpt>
      <trkpt lat="42.92129" lon="17.85582">
        <ele>321.230795</ele>
        <time>2022-06-11T10:34:47.019Z</time>
      </trkpt>
      <trkpt lat="42.92127" lon="17.85565">
        <ele>321.058556</ele>
        <time>2022-06-11T10:34:50.024Z</time>
      </trkpt>
      <trkpt lat="42.92124" lon="17.85547">
        <ele>320.882953</ele>
        <time>2022-06-11T10:34:53.038Z</time>
      </trkpt>
      <trkpt lat="42.92123" lon="17.8553">
        <ele>320.716046</ele>
        <time>2022-06-11T10:34:56.029Z</time>
      </trkpt>
      <trkpt lat="42.92121" lon="17.85514">
        <ele>320.556653</ele>
        <time>2022-06-11T10:34:59.002Z</time>
      </trkpt>
      <trkpt lat="42.9212" lon="17.85498">
        <ele>320.405815</ele>
        <time>2022-06-11T10:35:02.018Z</time>
      </trkpt>
      <trkpt lat="42.92118" lon="17.85481">
        <ele>320.491044</ele>
        <time>2022-06-11T10:35:05.024Z</time>
      </trkpt>
      <trkpt lat="42.92117" lon="17.85469">
        <ele>320.551853</ele>
        <time>2022-06-11T10:35:07.028Z</time>
      </trkpt>
      <trkpt lat="42.92115" lon="17.85451">
        <ele>320.639295</ele>
        <time>2022-06-11T10:35:10.028Z</time>
      </trkpt>
      <trkpt lat="42.92113" lon="17.85438">
        <ele>320.702408</ele>
        <time>2022-06-11T10:35:12.022Z</time>
      </trkpt>
      <trkpt lat="42.92112" lon="17.85426">
        <ele>320.764409</ele>
        <time>2022-06-11T10:35:14.010Z</time>
      </trkpt>
      <trkpt lat="42.9211" lon="17.85412">
        <ele>320.830729</ele>
        <time>2022-06-11T10:35:16.027Z</time>
      </trkpt>
      <trkpt lat="42.92109" lon="17.85399">
        <ele>320.8969</ele>
        <time>2022-06-11T10:35:18.028Z</time>
      </trkpt>
      <trkpt lat="42.92108" lon="17.85386">
        <ele>320.957667</ele>
        <time>2022-06-11T10:35:20.025Z</time>
      </trkpt>
      <trkpt lat="42.92107" lon="17.85369">
        <ele>321.044109</ele>
        <time>2022-06-11T10:35:23.020Z</time>
      </trkpt>
      <trkpt lat="42.92108" lon="17.85351">
        <ele>321.130936</ele>
        <time>2022-06-11T10:35:26.037Z</time>
      </trkpt>
      <trkpt lat="42.92109" lon="17.85333">
        <ele>321.217563</ele>
        <time>2022-06-11T10:35:29.056Z</time>
      </trkpt>
      <trkpt lat="42.92111" lon="17.85316">
        <ele>321.305229</ele>
        <time>2022-06-11T10:35:32.022Z</time>
      </trkpt>
      <trkpt lat="42.92114" lon="17.85298">
        <ele>321.392728</ele>
        <time>2022-06-11T10:35:35.013Z</time>
      </trkpt>
      <trkpt lat="42.92118" lon="17.85282">
        <ele>321.476688</ele>
        <time>2022-06-11T10:35:38.020Z</time>
      </trkpt>
      <trkpt lat="42.92122" lon="17.85264">
        <ele>321.564644</ele>
        <time>2022-06-11T10:35:41.033Z</time>
      </trkpt>
      <trkpt lat="42.92126" lon="17.85247">
        <ele>321.649834</ele>
        <time>2022-06-11T10:35:44.028Z</time>
      </trkpt>
      <trkpt lat="42.9213" lon="17.8523">
        <ele>321.731294</ele>
        <time>2022-06-11T10:35:47.013Z</time>
      </trkpt>
      <trkpt lat="42.92133" lon="17.85213">
        <ele>321.808784</ele>
        <time>2022-06-11T10:35:50.010Z</time>
      </trkpt>
      <trkpt lat="42.92135" lon="17.85196">
        <ele>321.884531</ele>
        <time>2022-06-11T10:35:53.048Z</time>
      </trkpt>
      <trkpt lat="42.92135" lon="17.85178">
        <ele>321.964283</ele>
        <time>2022-06-11T10:35:56.015Z</time>
      </trkpt>
      <trkpt lat="42.92134" lon="17.8516">
        <ele>322.045482</ele>
        <time>2022-06-11T10:35:59.014Z</time>
      </trkpt>
      <trkpt lat="42.92134" lon="17.85148">
        <ele>322.101153</ele>
        <time>2022-06-11T10:36:01.034Z</time>
      </trkpt>
      <trkpt lat="42.92133" lon="17.85131">
        <ele>322.176616</ele>
        <time>2022-06-11T10:36:04.035Z</time>
      </trkpt>
      <trkpt lat="42.92132" lon="17.85116">
        <ele>322.244886</ele>
        <time>2022-06-11T10:36:07.033Z</time>
      </trkpt>
      <trkpt lat="42.92131" lon="17.851">
        <ele>322.317271</ele>
        <time>2022-06-11T10:36:10.008Z</time>
      </trkpt>
      <trkpt lat="42.9213" lon="17.85083">
        <ele>322.392062</ele>
        <time>2022-06-11T10:36:13.024Z</time>
      </trkpt>
      <trkpt lat="42.92128" lon="17.85066">
        <ele>322.469019</ele>
        <time>2022-06-11T10:36:16.016Z</time>
      </trkpt>
      <trkpt lat="42.92127" lon="17.85048">
        <ele>322.549044</ele>
        <time>2022-06-11T10:36:19.027Z</time>
      </trkpt>
      <trkpt lat="42.92126" lon="17.85031">
        <ele>322.627284</ele>
        <time>2022-06-11T10:36:22.025Z</time>
      </trkpt>
      <trkpt lat="42.92126" lon="17.85014">
        <ele>322.702161</ele>
        <time>2022-06-11T10:36:25.016Z</time>
      </trkpt>
      <trkpt lat="42.92125" lon="17.84998">
        <ele>322.809424</ele>
        <time>2022-06-11T10:36:28.023Z</time>
      </trkpt>
      <trkpt lat="42.92125" lon="17.84981">
        <ele>322.917062</ele>
        <time>2022-06-11T10:36:31.020Z</time>
      </trkpt>
      <trkpt lat="42.92123" lon="17.84964">
        <ele>323.028784</ele>
        <time>2022-06-11T10:36:34.023Z</time>
      </trkpt>
      <trkpt lat="42.9212" lon="17.84947">
        <ele>323.140014</ele>
        <time>2022-06-11T10:36:37.013Z</time>
      </trkpt>
      <trkpt lat="42.92116" lon="17.84931">
        <ele>323.250777</ele>
        <time>2022-06-11T10:36:40.033Z</time>
      </trkpt>
      <trkpt lat="42.92111" lon="17.84916">
        <ele>323.357222</ele>
        <time>2022-06-11T10:36:43.026Z</time>
      </trkpt>
      <trkpt lat="42.92106" lon="17.84902">
        <ele>323.456822</ele>
        <time>2022-06-11T10:36:46.024Z</time>
      </trkpt>
      <trkpt lat="42.92099" lon="17.8489">
        <ele>323.558303</ele>
        <time>2022-06-11T10:36:49.026Z</time>
      </trkpt>
      <trkpt lat="42.92092" lon="17.84876">
        <ele>323.667723</ele>
        <time>2022-06-11T10:36:52.030Z</time>
      </trkpt>
      <trkpt lat="42.92083" lon="17.84864">
        <ele>323.779825</ele>
        <time>2022-06-11T10:36:55.020Z</time>
      </trkpt>
      <trkpt lat="42.92075" lon="17.8485">
        <ele>323.893649</ele>
        <time>2022-06-11T10:36:58.015Z</time>
      </trkpt>
      <trkpt lat="42.92066" lon="17.84839">
        <ele>323.999668</ele>
        <time>2022-06-11T10:37:01.055Z</time>
      </trkpt>
      <trkpt lat="42.92057" lon="17.84829">
        <ele>324.103287</ele>
        <time>2022-06-11T10:37:04.020Z</time>
      </trkpt>
      <trkpt lat="42.92048" lon="17.84818">
        <ele>324.208985</ele>
        <time>2022-06-11T10:37:07.039Z</time>
      </trkpt>
      <trkpt lat="42.92039" lon="17.84807">
        <ele>324.326791</ele>
        <time>2022-06-11T10:37:10.010Z</time>
      </trkpt>
      <trkpt lat="42.92029" lon="17.84795">
        <ele>324.495421</ele>
        <time>2022-06-11T10:37:13.042Z</time>
      </trkpt>
      <trkpt lat="42.92023" lon="17.84785">
        <ele>324.610393</ele>
        <time>2022-06-11T10:37:15.020Z</time>
      </trkpt>
      <trkpt lat="42.92015" lon="17.84771">
        <ele>324.778204</ele>
        <time>2022-06-11T10:37:18.025Z</time>
      </trkpt>
      <trkpt lat="42.92006" lon="17.84758">
        <ele>324.943963</ele>
        <time>2022-06-11T10:37:21.024Z</time>
      </trkpt>
      <trkpt lat="42.91997" lon="17.84746">
        <ele>325.10991</ele>
        <time>2022-06-11T10:37:24.020Z</time>
      </trkpt>
      <trkpt lat="42.91989" lon="17.84733">
        <ele>325.265305</ele>
        <time>2022-06-11T10:37:27.016Z</time>
      </trkpt>
      <trkpt lat="42.91981" lon="17.84719">
        <ele>325.427746</ele>
        <time>2022-06-11T10:37:30.019Z</time>
      </trkpt>
      <trkpt lat="42.91973" lon="17.84705">
        <ele>325.593983</ele>
        <time>2022-06-11T10:37:33.019Z</time>
      </trkpt>
      <trkpt lat="42.91966" lon="17.8469">
        <ele>325.759873</ele>
        <time>2022-06-11T10:37:36.015Z</time>
      </trkpt>
      <trkpt lat="42.9196" lon="17.84674">
        <ele>325.923705</ele>
        <time>2022-06-11T10:37:39.019Z</time>
      </trkpt>
      <trkpt lat="42.91956" lon="17.84663">
        <ele>326.038208</ele>
        <time>2022-06-11T10:37:41.021Z</time>
      </trkpt>
      <trkpt lat="42.91952" lon="17.84652">
        <ele>326.153877</ele>
        <time>2022-06-11T10:37:43.026Z</time>
      </trkpt>
      <trkpt lat="42.9195" lon="17.84639">
        <ele>326.273524</ele>
        <time>2022-06-11T10:37:45.022Z</time>
      </trkpt>
      <trkpt lat="42.91947" lon="17.84627">
        <ele>326.387973</ele>
        <time>2022-06-11T10:37:47.024Z</time>
      </trkpt>
      <trkpt lat="42.91944" lon="17.84609">
        <ele>326.558614</ele>
        <time>2022-06-11T10:37:50.016Z</time>
      </trkpt>
      <trkpt lat="42.91942" lon="17.84592">
        <ele>326.517833</ele>
        <time>2022-06-11T10:37:53.020Z</time>
      </trkpt>
      <trkpt lat="42.91939" lon="17.84574">
        <ele>326.457962</ele>
        <time>2022-06-11T10:37:56.017Z</time>
      </trkpt>
      <trkpt lat="42.91937" lon="17.84557">
        <ele>326.39792</ele>
        <time>2022-06-11T10:37:59.033Z</time>
      </trkpt>
      <trkpt lat="42.91934" lon="17.8454">
        <ele>326.339244</ele>
        <time>2022-06-11T10:38:02.022Z</time>
      </trkpt>
      <trkpt lat="42.9193" lon="17.84523">
        <ele>326.278844</ele>
        <time>2022-06-11T10:38:05.022Z</time>
      </trkpt>
      <trkpt lat="42.91924" lon="17.84506">
        <ele>326.218045</ele>
        <time>2022-06-11T10:38:08.055Z</time>
      </trkpt>
      <trkpt lat="42.9192" lon="17.84495">
        <ele>326.17578</ele>
        <time>2022-06-11T10:38:10.025Z</time>
      </trkpt>
      <trkpt lat="42.91916" lon="17.84483">
        <ele>326.131799</ele>
        <time>2022-06-11T10:38:12.024Z</time>
      </trkpt>
      <trkpt lat="42.91912" lon="17.84471">
        <ele>326.087618</ele>
        <time>2022-06-11T10:38:14.020Z</time>
      </trkpt>
      <trkpt lat="42.91908" lon="17.84459">
        <ele>326.043134</ele>
        <time>2022-06-11T10:38:16.027Z</time>
      </trkpt>
      <trkpt lat="42.91903" lon="17.84443">
        <ele>325.983176</ele>
        <time>2022-06-11T10:38:19.044Z</time>
      </trkpt>
      <trkpt lat="42.91898" lon="17.84426">
        <ele>325.92242</ele>
        <time>2022-06-11T10:38:22.015Z</time>
      </trkpt>
      <trkpt lat="42.91894" lon="17.84415">
        <ele>325.880658</ele>
        <time>2022-06-11T10:38:24.008Z</time>
      </trkpt>
      <trkpt lat="42.9189" lon="17.84403">
        <ele>325.837981</ele>
        <time>2022-06-11T10:38:26.012Z</time>
      </trkpt>
      <trkpt lat="42.91885" lon="17.84387">
        <ele>325.776691</ele>
        <time>2022-06-11T10:38:29.024Z</time>
      </trkpt>
      <trkpt lat="42.9188" lon="17.84369">
        <ele>325.641315</ele>
        <time>2022-06-11T10:38:32.023Z</time>
      </trkpt>
      <trkpt lat="42.91878" lon="17.84358">
        <ele>325.5048</ele>
        <time>2022-06-11T10:38:34.016Z</time>
      </trkpt>
      <trkpt lat="42.91875" lon="17.84346">
        <ele>325.367224</ele>
        <time>2022-06-11T10:38:36.021Z</time>
      </trkpt>
      <trkpt lat="42.91872" lon="17.84328">
        <ele>325.168509</ele>
        <time>2022-06-11T10:38:39.026Z</time>
      </trkpt>
      <trkpt lat="42.91871" lon="17.84312">
        <ele>324.983661</ele>
        <time>2022-06-11T10:38:42.024Z</time>
      </trkpt>
      <trkpt lat="42.9187" lon="17.84297">
        <ele>324.818113</ele>
        <time>2022-06-11T10:38:45.020Z</time>
      </trkpt>
      <trkpt lat="42.91868" lon="17.8428">
        <ele>324.626456</ele>
        <time>2022-06-11T10:38:48.026Z</time>
      </trkpt>
      <trkpt lat="42.91867" lon="17.84263">
        <ele>324.43418</ele>
        <time>2022-06-11T10:38:51.047Z</time>
      </trkpt>
      <trkpt lat="42.91866" lon="17.84246">
        <ele>324.244733</ele>
        <time>2022-06-11T10:38:54.025Z</time>
      </trkpt>
      <trkpt lat="42.91865" lon="17.84233">
        <ele>324.105494</ele>
        <time>2022-06-11T10:38:56.037Z</time>
      </trkpt>
      <trkpt lat="42.91865" lon="17.84221">
        <ele>323.969591</ele>
        <time>2022-06-11T10:38:58.045Z</time>
      </trkpt>
      <trkpt lat="42.91865" lon="17.84204">
        <ele>323.777068</ele>
        <time>2022-06-11T10:39:01.032Z</time>
      </trkpt>
      <trkpt lat="42.91864" lon="17.84188">
        <ele>323.598695</ele>
        <time>2022-06-11T10:39:04.048Z</time>
      </trkpt>
      <trkpt lat="42.91864" lon="17.84173">
        <ele>323.433994</ele>
        <time>2022-06-11T10:39:07.030Z</time>
      </trkpt>
      <trkpt lat="42.91865" lon="17.84157">
        <ele>323.257633</ele>
        <time>2022-06-11T10:39:10.019Z</time>
      </trkpt>
      <trkpt lat="42.91866" lon="17.8414">
        <ele>323.063277</ele>
        <time>2022-06-11T10:39:13.021Z</time>
      </trkpt>
      <trkpt lat="42.91868" lon="17.84127">
        <ele>322.936137</ele>
        <time>2022-06-11T10:39:15.017Z</time>
      </trkpt>
      <trkpt lat="42.9187" lon="17.8411">
        <ele>322.761637</ele>
        <time>2022-06-11T10:39:18.022Z</time>
      </trkpt>
      <trkpt lat="42.91873" lon="17.84093">
        <ele>322.595775</ele>
        <time>2022-06-11T10:39:21.016Z</time>
      </trkpt>
      <trkpt lat="42.91877" lon="17.84077">
        <ele>322.427133</ele>
        <time>2022-06-11T10:39:24.017Z</time>
      </trkpt>
      <trkpt lat="42.91881" lon="17.84062">
        <ele>322.276382</ele>
        <time>2022-06-11T10:39:27.018Z</time>
      </trkpt>
      <trkpt lat="42.91886" lon="17.84049">
        <ele>322.131684</ele>
        <time>2022-06-11T10:39:30.020Z</time>
      </trkpt>
      <trkpt lat="42.91892" lon="17.84035">
        <ele>321.977886</ele>
        <time>2022-06-11T10:39:33.036Z</time>
      </trkpt>
      <trkpt lat="42.91898" lon="17.8402">
        <ele>321.80748</ele>
        <time>2022-06-11T10:39:36.019Z</time>
      </trkpt>
      <trkpt lat="42.91904" lon="17.84005">
        <ele>321.643238</ele>
        <time>2022-06-11T10:39:39.010Z</time>
      </trkpt>
      <trkpt lat="42.9191" lon="17.83991">
        <ele>321.483718</ele>
        <time>2022-06-11T10:39:42.047Z</time>
      </trkpt>
      <trkpt lat="42.91916" lon="17.83977">
        <ele>321.328038</ele>
        <time>2022-06-11T10:39:45.018Z</time>
      </trkpt>
      <trkpt lat="42.91921" lon="17.83962">
        <ele>321.168203</ele>
        <time>2022-06-11T10:39:48.014Z</time>
      </trkpt>
      <trkpt lat="42.91926" lon="17.83947">
        <ele>321.006035</ele>
        <time>2022-06-11T10:39:51.028Z</time>
      </trkpt>
      <trkpt lat="42.91932" lon="17.83932">
        <ele>320.84354</ele>
        <time>2022-06-11T10:39:54.021Z</time>
      </trkpt>
      <trkpt lat="42.91937" lon="17.83916">
        <ele>320.671269</ele>
        <time>2022-06-11T10:39:57.015Z</time>
      </trkpt>
      <trkpt lat="42.91942" lon="17.839">
        <ele>320.643491</ele>
        <time>2022-06-11T10:40:00.021Z</time>
      </trkpt>
      <trkpt lat="42.91947" lon="17.83884">
        <ele>320.6659</ele>
        <time>2022-06-11T10:40:03.015Z</time>
      </trkpt>
      <trkpt lat="42.91951" lon="17.83868">
        <ele>320.689428</ele>
        <time>2022-06-11T10:40:06.013Z</time>
      </trkpt>
      <trkpt lat="42.91955" lon="17.83852">
        <ele>320.711634</ele>
        <time>2022-06-11T10:40:09.021Z</time>
      </trkpt>
      <trkpt lat="42.91959" lon="17.83837">
        <ele>320.733835</ele>
        <time>2022-06-11T10:40:12.022Z</time>
      </trkpt>
      <trkpt lat="42.91964" lon="17.83822">
        <ele>320.756121</ele>
        <time>2022-06-11T10:40:15.049Z</time>
      </trkpt>
      <trkpt lat="42.91968" lon="17.83806">
        <ele>320.778385</ele>
        <time>2022-06-11T10:40:18.017Z</time>
      </trkpt>
      <trkpt lat="42.91971" lon="17.83791">
        <ele>320.800206</ele>
        <time>2022-06-11T10:40:21.050Z</time>
      </trkpt>
      <trkpt lat="42.91975" lon="17.83776">
        <ele>320.821705</ele>
        <time>2022-06-11T10:40:24.019Z</time>
      </trkpt>
      <trkpt lat="42.91979" lon="17.83761">
        <ele>320.843378</ele>
        <time>2022-06-11T10:40:27.019Z</time>
      </trkpt>
      <trkpt lat="42.91982" lon="17.83746">
        <ele>320.864433</ele>
        <time>2022-06-11T10:40:30.026Z</time>
      </trkpt>
      <trkpt lat="42.91987" lon="17.83731">
        <ele>320.885805</ele>
        <time>2022-06-11T10:40:33.019Z</time>
      </trkpt>
      <trkpt lat="42.91991" lon="17.83716">
        <ele>320.907304</ele>
        <time>2022-06-11T10:40:36.019Z</time>
      </trkpt>
      <trkpt lat="42.91996" lon="17.83701">
        <ele>320.929242</ele>
        <time>2022-06-11T10:40:39.043Z</time>
      </trkpt>
      <trkpt lat="42.92" lon="17.83686">
        <ele>320.951331</ele>
        <time>2022-06-11T10:40:42.012Z</time>
      </trkpt>
      <trkpt lat="42.92005" lon="17.83672">
        <ele>320.939392</ele>
        <time>2022-06-11T10:40:45.014Z</time>
      </trkpt>
      <trkpt lat="42.92012" lon="17.83658">
        <ele>320.910956</ele>
        <time>2022-06-11T10:40:48.019Z</time>
      </trkpt>
      <trkpt lat="42.92019" lon="17.83643">
        <ele>320.88068</ele>
        <time>2022-06-11T10:40:51.016Z</time>
      </trkpt>
      <trkpt lat="42.92026" lon="17.8363">
        <ele>320.852474</ele>
        <time>2022-06-11T10:40:54.024Z</time>
      </trkpt>
      <trkpt lat="42.92034" lon="17.83616">
        <ele>320.823297</ele>
        <time>2022-06-11T10:40:57.021Z</time>
      </trkpt>
      <trkpt lat="42.92041" lon="17.83603">
        <ele>320.795191</ele>
        <time>2022-06-11T10:41:00.019Z</time>
      </trkpt>
      <trkpt lat="42.92051" lon="17.83591">
        <ele>320.76583</ele>
        <time>2022-06-11T10:41:03.011Z</time>
      </trkpt>
      <trkpt lat="42.92059" lon="17.8358">
        <ele>320.73867</ele>
        <time>2022-06-11T10:41:06.020Z</time>
      </trkpt>
      <trkpt lat="42.92066" lon="17.83567">
        <ele>320.710805</ele>
        <time>2022-06-11T10:41:09.015Z</time>
      </trkpt>
      <trkpt lat="42.92074" lon="17.83555">
        <ele>320.684205</ele>
        <time>2022-06-11T10:41:12.062Z</time>
      </trkpt>
      <trkpt lat="42.9208" lon="17.83542">
        <ele>320.657365</ele>
        <time>2022-06-11T10:41:15.074Z</time>
      </trkpt>
      <trkpt lat="42.92087" lon="17.83528">
        <ele>320.629153</ele>
        <time>2022-06-11T10:41:18.017Z</time>
      </trkpt>
      <trkpt lat="42.92094" lon="17.83515">
        <ele>320.601086</ele>
        <time>2022-06-11T10:41:21.021Z</time>
      </trkpt>
      <trkpt lat="42.92101" lon="17.83501">
        <ele>320.572874</ele>
        <time>2022-06-11T10:41:24.024Z</time>
      </trkpt>
      <trkpt lat="42.92108" lon="17.83488">
        <ele>320.544802</ele>
        <time>2022-06-11T10:41:27.039Z</time>
      </trkpt>
      <trkpt lat="42.92115" lon="17.83474">
        <ele>320.51413</ele>
        <time>2022-06-11T10:41:30.030Z</time>
      </trkpt>
      <trkpt lat="42.92122" lon="17.8346">
        <ele>320.48318</ele>
        <time>2022-06-11T10:41:33.017Z</time>
      </trkpt>
      <trkpt lat="42.92129" lon="17.83446">
        <ele>320.451678</ele>
        <time>2022-06-11T10:41:36.019Z</time>
      </trkpt>
      <trkpt lat="42.92136" lon="17.83433">
        <ele>320.421249</ele>
        <time>2022-06-11T10:41:39.023Z</time>
      </trkpt>
      <trkpt lat="42.92143" lon="17.83419">
        <ele>320.390042</ele>
        <time>2022-06-11T10:41:42.018Z</time>
      </trkpt>
      <trkpt lat="42.9215" lon="17.83404">
        <ele>320.35707</ele>
        <time>2022-06-11T10:41:45.026Z</time>
      </trkpt>
      <trkpt lat="42.92158" lon="17.8339">
        <ele>320.324093</ele>
        <time>2022-06-11T10:41:48.030Z</time>
      </trkpt>
      <trkpt lat="42.92165" lon="17.83376">
        <ele>320.292126</ele>
        <time>2022-06-11T10:41:51.026Z</time>
      </trkpt>
      <trkpt lat="42.92172" lon="17.83361">
        <ele>320.26034</ele>
        <time>2022-06-11T10:41:54.020Z</time>
      </trkpt>
      <trkpt lat="42.92179" lon="17.83347">
        <ele>320.227666</ele>
        <time>2022-06-11T10:41:57.061Z</time>
      </trkpt>
      <trkpt lat="42.92186" lon="17.83333">
        <ele>320.196341</ele>
        <time>2022-06-11T10:42:00.028Z</time>
      </trkpt>
      <trkpt lat="42.92193" lon="17.83319">
        <ele>320.164839</ele>
        <time>2022-06-11T10:42:03.013Z</time>
      </trkpt>
      <trkpt lat="42.922" lon="17.83306">
        <ele>320.133655</ele>
        <time>2022-06-11T10:42:06.021Z</time>
      </trkpt>
      <trkpt lat="42.92207" lon="17.83292">
        <ele>320.102319</ele>
        <time>2022-06-11T10:42:09.014Z</time>
      </trkpt>
      <trkpt lat="42.92214" lon="17.83277">
        <ele>319.976757</ele>
        <time>2022-06-11T10:42:12.043Z</time>
      </trkpt>
      <trkpt lat="42.92221" lon="17.83263">
        <ele>319.735403</ele>
        <time>2022-06-11T10:42:15.021Z</time>
      </trkpt>
      <trkpt lat="42.92228" lon="17.8325">
        <ele>319.517188</ele>
        <time>2022-06-11T10:42:18.012Z</time>
      </trkpt>
      <trkpt lat="42.92234" lon="17.83238">
        <ele>319.296714</ele>
        <time>2022-06-11T10:42:21.022Z</time>
      </trkpt>
      <trkpt lat="42.92242" lon="17.83226">
        <ele>319.072338</ele>
        <time>2022-06-11T10:42:24.020Z</time>
      </trkpt>
      <trkpt lat="42.9225" lon="17.83214">
        <ele>318.842172</ele>
        <time>2022-06-11T10:42:27.038Z</time>
      </trkpt>
      <trkpt lat="42.92259" lon="17.83201">
        <ele>318.599258</ele>
        <time>2022-06-11T10:42:30.020Z</time>
      </trkpt>
      <trkpt lat="42.92268" lon="17.8319">
        <ele>318.360003</ele>
        <time>2022-06-11T10:42:33.017Z</time>
      </trkpt>
      <trkpt lat="42.92278" lon="17.8318">
        <ele>318.12993</ele>
        <time>2022-06-11T10:42:36.050Z</time>
      </trkpt>
      <trkpt lat="42.92286" lon="17.83171">
        <ele>317.926065</ele>
        <time>2022-06-11T10:42:39.014Z</time>
      </trkpt>
      <trkpt lat="42.92296" lon="17.83162">
        <ele>317.706042</ele>
        <time>2022-06-11T10:42:42.031Z</time>
      </trkpt>
      <trkpt lat="42.92306" lon="17.83154">
        <ele>317.465559</ele>
        <time>2022-06-11T10:42:45.015Z</time>
      </trkpt>
      <trkpt lat="42.92318" lon="17.83147">
        <ele>317.217752</ele>
        <time>2022-06-11T10:42:48.018Z</time>
      </trkpt>
      <trkpt lat="42.9233" lon="17.83141">
        <ele>316.979928</ele>
        <time>2022-06-11T10:42:51.015Z</time>
      </trkpt>
      <trkpt lat="42.92341" lon="17.83135">
        <ele>316.741749</ele>
        <time>2022-06-11T10:42:54.020Z</time>
      </trkpt>
      <trkpt lat="42.92352" lon="17.83127">
        <ele>316.723874</ele>
        <time>2022-06-11T10:42:57.029Z</time>
      </trkpt>
      <trkpt lat="42.92364" lon="17.83121">
        <ele>316.93043</ele>
        <time>2022-06-11T10:43:00.021Z</time>
      </trkpt>
      <trkpt lat="42.92376" lon="17.83114">
        <ele>317.131439</ele>
        <time>2022-06-11T10:43:03.021Z</time>
      </trkpt>
      <trkpt lat="42.92387" lon="17.83107">
        <ele>317.325971</ele>
        <time>2022-06-11T10:43:06.019Z</time>
      </trkpt>
      <trkpt lat="42.92398" lon="17.83101">
        <ele>317.52071</ele>
        <time>2022-06-11T10:43:09.054Z</time>
      </trkpt>
      <trkpt lat="42.92409" lon="17.83095">
        <ele>317.718738</ele>
        <time>2022-06-11T10:43:12.010Z</time>
      </trkpt>
      <trkpt lat="42.9242" lon="17.83089">
        <ele>317.91048</ele>
        <time>2022-06-11T10:43:15.017Z</time>
      </trkpt>
      <trkpt lat="42.92431" lon="17.83082">
        <ele>318.109545</ele>
        <time>2022-06-11T10:43:18.016Z</time>
      </trkpt>
      <trkpt lat="42.92443" lon="17.83075">
        <ele>318.311414</ele>
        <time>2022-06-11T10:43:21.024Z</time>
      </trkpt>
      <trkpt lat="42.92454" lon="17.83068">
        <ele>318.508419</ele>
        <time>2022-06-11T10:43:24.032Z</time>
      </trkpt>
      <trkpt lat="42.92464" lon="17.83061">
        <ele>318.690445</ele>
        <time>2022-06-11T10:43:27.045Z</time>
      </trkpt>
      <trkpt lat="42.92473" lon="17.83053">
        <ele>318.871322</ele>
        <time>2022-06-11T10:43:30.018Z</time>
      </trkpt>
      <trkpt lat="42.92484" lon="17.83046">
        <ele>319.062522</ele>
        <time>2022-06-11T10:43:33.024Z</time>
      </trkpt>
      <trkpt lat="42.92494" lon="17.83038">
        <ele>319.253892</ele>
        <time>2022-06-11T10:43:36.016Z</time>
      </trkpt>
      <trkpt lat="42.92503" lon="17.83027">
        <ele>319.447531</ele>
        <time>2022-06-11T10:43:39.012Z</time>
      </trkpt>
      <trkpt lat="42.92513" lon="17.83019">
        <ele>319.524481</ele>
        <time>2022-06-11T10:43:41.999Z</time>
      </trkpt>
      <trkpt lat="42.92523" lon="17.8301">
        <ele>319.514672</ele>
        <time>2022-06-11T10:43:45.021Z</time>
      </trkpt>
      <trkpt lat="42.92533" lon="17.83003">
        <ele>319.505279</ele>
        <time>2022-06-11T10:43:48.010Z</time>
      </trkpt>
      <trkpt lat="42.92542" lon="17.82994">
        <ele>319.495831</ele>
        <time>2022-06-11T10:43:51.025Z</time>
      </trkpt>
      <trkpt lat="42.92551" lon="17.82985">
        <ele>319.486166</ele>
        <time>2022-06-11T10:43:54.018Z</time>
      </trkpt>
      <trkpt lat="42.92561" lon="17.82979">
        <ele>319.476902</ele>
        <time>2022-06-11T10:43:57.027Z</time>
      </trkpt>
      <trkpt lat="42.92572" lon="17.82971">
        <ele>319.46719</ele>
        <time>2022-06-11T10:44:00.049Z</time>
      </trkpt>
      <trkpt lat="42.92582" lon="17.82964">
        <ele>319.457591</ele>
        <time>2022-06-11T10:44:03.021Z</time>
      </trkpt>
      <trkpt lat="42.92592" lon="17.82957">
        <ele>319.448188</ele>
        <time>2022-06-11T10:44:06.048Z</time>
      </trkpt>
      <trkpt lat="42.92602" lon="17.8295">
        <ele>319.43852</ele>
        <time>2022-06-11T10:44:09.025Z</time>
      </trkpt>
      <trkpt lat="42.92611" lon="17.82942">
        <ele>319.429423</ele>
        <time>2022-06-11T10:44:12.033Z</time>
      </trkpt>
      <trkpt lat="42.9262" lon="17.82936">
        <ele>319.420468</ele>
        <time>2022-06-11T10:44:15.024Z</time>
      </trkpt>
      <trkpt lat="42.9263" lon="17.82929">
        <ele>319.411793</ele>
        <time>2022-06-11T10:44:18.015Z</time>
      </trkpt>
      <trkpt lat="42.92639" lon="17.82921">
        <ele>319.402243</ele>
        <time>2022-06-11T10:44:21.019Z</time>
      </trkpt>
      <trkpt lat="42.92649" lon="17.82913">
        <ele>319.392663</ele>
        <time>2022-06-11T10:44:24.027Z</time>
      </trkpt>
      <trkpt lat="42.92658" lon="17.82905">
        <ele>319.383425</ele>
        <time>2022-06-11T10:44:27.019Z</time>
      </trkpt>
      <trkpt lat="42.92667" lon="17.82896">
        <ele>319.390624</ele>
        <time>2022-06-11T10:44:30.016Z</time>
      </trkpt>
      <trkpt lat="42.92677" lon="17.82887">
        <ele>319.415972</ele>
        <time>2022-06-11T10:44:33.013Z</time>
      </trkpt>
      <trkpt lat="42.92686" lon="17.82878">
        <ele>319.441145</ele>
        <time>2022-06-11T10:44:36.054Z</time>
      </trkpt>
      <trkpt lat="42.92696" lon="17.82867">
        <ele>319.46718</ele>
        <time>2022-06-11T10:44:39.019Z</time>
      </trkpt>
      <trkpt lat="42.92704" lon="17.82858">
        <ele>319.490987</ele>
        <time>2022-06-11T10:44:42.047Z</time>
      </trkpt>
      <trkpt lat="42.92713" lon="17.82849">
        <ele>319.514728</ele>
        <time>2022-06-11T10:44:45.018Z</time>
      </trkpt>
      <trkpt lat="42.92722" lon="17.8284">
        <ele>319.538105</ele>
        <time>2022-06-11T10:44:48.042Z</time>
      </trkpt>
      <trkpt lat="42.92731" lon="17.82832">
        <ele>319.562384</ele>
        <time>2022-06-11T10:44:51.027Z</time>
      </trkpt>
      <trkpt lat="42.92741" lon="17.82825">
        <ele>319.587027</ele>
        <time>2022-06-11T10:44:54.050Z</time>
      </trkpt>
      <trkpt lat="42.92751" lon="17.82817">
        <ele>319.61282</ele>
        <time>2022-06-11T10:44:57.023Z</time>
      </trkpt>
      <trkpt lat="42.92762" lon="17.8281">
        <ele>319.638312</ele>
        <time>2022-06-11T10:45:00.062Z</time>
      </trkpt>
      <trkpt lat="42.92773" lon="17.82804">
        <ele>319.663691</ele>
        <time>2022-06-11T10:45:03.019Z</time>
      </trkpt>
      <trkpt lat="42.92783" lon="17.82799">
        <ele>319.6873</ele>
        <time>2022-06-11T10:45:06.049Z</time>
      </trkpt>
      <trkpt lat="42.92794" lon="17.82794">
        <ele>319.71228</ele>
        <time>2022-06-11T10:45:09.015Z</time>
      </trkpt>
      <trkpt lat="42.92804" lon="17.82787">
        <ele>319.737244</ele>
        <time>2022-06-11T10:45:12.019Z</time>
      </trkpt>
      <trkpt lat="42.92815" lon="17.8278">
        <ele>319.763865</ele>
        <time>2022-06-11T10:45:15.054Z</time>
      </trkpt>
      <trkpt lat="42.92826" lon="17.82772">
        <ele>319.682875</ele>
        <time>2022-06-11T10:45:18.007Z</time>
      </trkpt>
      <trkpt lat="42.92838" lon="17.82764">
        <ele>319.565658</ele>
        <time>2022-06-11T10:45:21.023Z</time>
      </trkpt>
      <trkpt lat="42.92849" lon="17.82757">
        <ele>319.453522</ele>
        <time>2022-06-11T10:45:24.007Z</time>
      </trkpt>
      <trkpt lat="42.92861" lon="17.82749">
        <ele>319.332488</ele>
        <time>2022-06-11T10:45:27.019Z</time>
      </trkpt>
      <trkpt lat="42.92873" lon="17.82741">
        <ele>319.213791</ele>
        <time>2022-06-11T10:45:30.016Z</time>
      </trkpt>
      <trkpt lat="42.92884" lon="17.82734">
        <ele>319.101498</ele>
        <time>2022-06-11T10:45:33.019Z</time>
      </trkpt>
      <trkpt lat="42.92895" lon="17.82726">
        <ele>318.990996</ele>
        <time>2022-06-11T10:45:36.011Z</time>
      </trkpt>
      <trkpt lat="42.92907" lon="17.82718">
        <ele>318.870943</ele>
        <time>2022-06-11T10:45:39.018Z</time>
      </trkpt>
      <trkpt lat="42.92915" lon="17.82712">
        <ele>318.788613</ele>
        <time>2022-06-11T10:45:41.032Z</time>
      </trkpt>
      <trkpt lat="42.92922" lon="17.82705">
        <ele>318.70652</ele>
        <time>2022-06-11T10:45:43.026Z</time>
      </trkpt>
      <trkpt lat="42.92932" lon="17.82695">
        <ele>318.593265</ele>
        <time>2022-06-11T10:45:46.023Z</time>
      </trkpt>
      <trkpt lat="42.92942" lon="17.82683">
        <ele>318.476522</ele>
        <time>2022-06-11T10:45:49.010Z</time>
      </trkpt>
      <trkpt lat="42.92952" lon="17.82673">
        <ele>318.363354</ele>
        <time>2022-06-11T10:45:52.021Z</time>
      </trkpt>
      <trkpt lat="42.92962" lon="17.82662">
        <ele>318.248666</ele>
        <time>2022-06-11T10:45:55.027Z</time>
      </trkpt>
      <trkpt lat="42.92971" lon="17.82651">
        <ele>318.148692</ele>
        <time>2022-06-11T10:45:58.013Z</time>
      </trkpt>
      <trkpt lat="42.9298" lon="17.82639">
        <ele>318.207063</ele>
        <time>2022-06-11T10:46:01.022Z</time>
      </trkpt>
      <trkpt lat="42.92987" lon="17.82628">
        <ele>318.25967</ele>
        <time>2022-06-11T10:46:04.019Z</time>
      </trkpt>
      <trkpt lat="42.92995" lon="17.82616">
        <ele>318.315809</ele>
        <time>2022-06-11T10:46:07.024Z</time>
      </trkpt>
      <trkpt lat="42.93004" lon="17.82604">
        <ele>318.374769</ele>
        <time>2022-06-11T10:46:10.023Z</time>
      </trkpt>
      <trkpt lat="42.93014" lon="17.82592">
        <ele>318.436498</ele>
        <time>2022-06-11T10:46:13.043Z</time>
      </trkpt>
      <trkpt lat="42.93023" lon="17.82581">
        <ele>318.494425</ele>
        <time>2022-06-11T10:46:16.026Z</time>
      </trkpt>
      <trkpt lat="42.93032" lon="17.82568">
        <ele>318.557752</ele>
        <time>2022-06-11T10:46:19.021Z</time>
      </trkpt>
      <trkpt lat="42.93038" lon="17.82558">
        <ele>318.602265</ele>
        <time>2022-06-11T10:46:21.031Z</time>
      </trkpt>
      <trkpt lat="42.93047" lon="17.82544">
        <ele>318.666746</ele>
        <time>2022-06-11T10:46:24.051Z</time>
      </trkpt>
      <trkpt lat="42.93056" lon="17.82531">
        <ele>318.728336</ele>
        <time>2022-06-11T10:46:27.015Z</time>
      </trkpt>
      <trkpt lat="42.93065" lon="17.82518">
        <ele>318.788488</ele>
        <time>2022-06-11T10:46:30.015Z</time>
      </trkpt>
      <trkpt lat="42.93074" lon="17.82504">
        <ele>318.851396</ele>
        <time>2022-06-11T10:46:33.046Z</time>
      </trkpt>
      <trkpt lat="42.93081" lon="17.82492">
        <ele>318.908057</ele>
        <time>2022-06-11T10:46:36.024Z</time>
      </trkpt>
      <trkpt lat="42.9309" lon="17.8248">
        <ele>318.966228</ele>
        <time>2022-06-11T10:46:39.026Z</time>
      </trkpt>
      <trkpt lat="42.93096" lon="17.82471">
        <ele>318.942827</ele>
        <time>2022-06-11T10:46:41.073Z</time>
      </trkpt>
      <trkpt lat="42.93103" lon="17.82462">
        <ele>318.766297</ele>
        <time>2022-06-11T10:46:43.016Z</time>
      </trkpt>
      <trkpt lat="42.93109" lon="17.82453">
        <ele>318.586452</ele>
        <time>2022-06-11T10:46:45.019Z</time>
      </trkpt>
      <trkpt lat="42.93115" lon="17.82443">
        <ele>318.409981</ele>
        <time>2022-06-11T10:46:47.023Z</time>
      </trkpt>
      <trkpt lat="42.93123" lon="17.8243">
        <ele>318.162054</ele>
        <time>2022-06-11T10:46:50.021Z</time>
      </trkpt>
      <trkpt lat="42.93132" lon="17.82416">
        <ele>317.903304</ele>
        <time>2022-06-11T10:46:53.014Z</time>
      </trkpt>
      <trkpt lat="42.9314" lon="17.82404">
        <ele>317.674197</ele>
        <time>2022-06-11T10:46:56.022Z</time>
      </trkpt>
      <trkpt lat="42.93147" lon="17.82389">
        <ele>317.435223</ele>
        <time>2022-06-11T10:46:59.022Z</time>
      </trkpt>
      <trkpt lat="42.93152" lon="17.82379">
        <ele>317.254354</ele>
        <time>2022-06-11T10:47:01.019Z</time>
      </trkpt>
      <trkpt lat="42.93158" lon="17.82368">
        <ele>317.06673</ele>
        <time>2022-06-11T10:47:03.050Z</time>
      </trkpt>
      <trkpt lat="42.93163" lon="17.82359">
        <ele>316.893855</ele>
        <time>2022-06-11T10:47:05.013Z</time>
      </trkpt>
      <trkpt lat="42.93169" lon="17.82348">
        <ele>316.709579</ele>
        <time>2022-06-11T10:47:07.023Z</time>
      </trkpt>
      <trkpt lat="42.93175" lon="17.82338">
        <ele>316.535626</ele>
        <time>2022-06-11T10:47:09.057Z</time>
      </trkpt>
      <trkpt lat="42.93182" lon="17.82324">
        <ele>316.279815</ele>
        <time>2022-06-11T10:47:12.021Z</time>
      </trkpt>
      <trkpt lat="42.93191" lon="17.82309">
        <ele>316.024981</ele>
        <time>2022-06-11T10:47:15.023Z</time>
      </trkpt>
      <trkpt lat="42.932" lon="17.82297">
        <ele>315.785283</ele>
        <time>2022-06-11T10:47:18.015Z</time>
      </trkpt>
      <trkpt lat="42.93208" lon="17.82284">
        <ele>315.534796</ele>
        <time>2022-06-11T10:47:21.030Z</time>
      </trkpt>
      <trkpt lat="42.93216" lon="17.8227">
        <ele>315.488708</ele>
        <time>2022-06-11T10:47:24.021Z</time>
      </trkpt>
      <trkpt lat="42.93224" lon="17.82256">
        <ele>315.442114</ele>
        <time>2022-06-11T10:47:27.015Z</time>
      </trkpt>
      <trkpt lat="42.9323" lon="17.82246">
        <ele>315.409956</ele>
        <time>2022-06-11T10:47:29.023Z</time>
      </trkpt>
      <trkpt lat="42.93236" lon="17.82237">
        <ele>315.377147</ele>
        <time>2022-06-11T10:47:31.033Z</time>
      </trkpt>
      <trkpt lat="42.93243" lon="17.82228">
        <ele>315.345212</ele>
        <time>2022-06-11T10:47:33.023Z</time>
      </trkpt>
      <trkpt lat="42.93251" lon="17.82214">
        <ele>315.299892</ele>
        <time>2022-06-11T10:47:36.011Z</time>
      </trkpt>
      <trkpt lat="42.93257" lon="17.82206">
        <ele>315.267777</ele>
        <time>2022-06-11T10:47:38.041Z</time>
      </trkpt>
      <trkpt lat="42.93264" lon="17.82197">
        <ele>315.234813</ele>
        <time>2022-06-11T10:47:40.035Z</time>
      </trkpt>
      <trkpt lat="42.93272" lon="17.82189">
        <ele>315.200858</ele>
        <time>2022-06-11T10:47:42.020Z</time>
      </trkpt>
      <trkpt lat="42.9328" lon="17.82181">
        <ele>315.165562</ele>
        <time>2022-06-11T10:47:44.064Z</time>
      </trkpt>
      <trkpt lat="42.93287" lon="17.82172">
        <ele>315.131293</ele>
        <time>2022-06-11T10:47:46.026Z</time>
      </trkpt>
      <trkpt lat="42.93295" lon="17.82163">
        <ele>315.096401</ele>
        <time>2022-06-11T10:47:48.014Z</time>
      </trkpt>
      <trkpt lat="42.93302" lon="17.82155">
        <ele>315.063689</ele>
        <time>2022-06-11T10:47:50.028Z</time>
      </trkpt>
      <trkpt lat="42.93311" lon="17.82143">
        <ele>315.018286</ele>
        <time>2022-06-11T10:47:53.024Z</time>
      </trkpt>
      <trkpt lat="42.9332" lon="17.82131">
        <ele>314.973721</ele>
        <time>2022-06-11T10:47:56.025Z</time>
      </trkpt>
      <trkpt lat="42.93329" lon="17.82119">
        <ele>314.930396</ele>
        <time>2022-06-11T10:47:59.016Z</time>
      </trkpt>
      <trkpt lat="42.93337" lon="17.82106">
        <ele>314.919952</ele>
        <time>2022-06-11T10:48:02.033Z</time>
      </trkpt>
      <trkpt lat="42.93345" lon="17.82092">
        <ele>314.976623</ele>
        <time>2022-06-11T10:48:05.032Z</time>
      </trkpt>
      <trkpt lat="42.93353" lon="17.82079">
        <ele>315.030827</ele>
        <time>2022-06-11T10:48:08.021Z</time>
      </trkpt>
      <trkpt lat="42.93361" lon="17.82068">
        <ele>315.081123</ele>
        <time>2022-06-11T10:48:11.030Z</time>
      </trkpt>
      <trkpt lat="42.93368" lon="17.82057">
        <ele>315.129579</ele>
        <time>2022-06-11T10:48:14.023Z</time>
      </trkpt>
      <trkpt lat="42.93375" lon="17.82046">
        <ele>315.177748</ele>
        <time>2022-06-11T10:48:17.019Z</time>
      </trkpt>
      <trkpt lat="42.93382" lon="17.82034">
        <ele>315.229075</ele>
        <time>2022-06-11T10:48:20.015Z</time>
      </trkpt>
      <trkpt lat="42.93389" lon="17.8202">
        <ele>315.28376</ele>
        <time>2022-06-11T10:48:23.033Z</time>
      </trkpt>
      <trkpt lat="42.93396" lon="17.82006">
        <ele>315.338989</ele>
        <time>2022-06-11T10:48:26.024Z</time>
      </trkpt>
      <trkpt lat="42.93404" lon="17.81994">
        <ele>315.392216</ele>
        <time>2022-06-11T10:48:29.051Z</time>
      </trkpt>
      <trkpt lat="42.93411" lon="17.81981">
        <ele>315.446398</ele>
        <time>2022-06-11T10:48:32.029Z</time>
      </trkpt>
      <trkpt lat="42.93419" lon="17.81967">
        <ele>315.50319</ele>
        <time>2022-06-11T10:48:35.018Z</time>
      </trkpt>
      <trkpt lat="42.93426" lon="17.81953">
        <ele>315.558927</ele>
        <time>2022-06-11T10:48:38.019Z</time>
      </trkpt>
      <trkpt lat="42.93433" lon="17.8194">
        <ele>315.610437</ele>
        <time>2022-06-11T10:48:41.026Z</time>
      </trkpt>
      <trkpt lat="42.93439" lon="17.8193">
        <ele>315.652201</ele>
        <time>2022-06-11T10:48:44.022Z</time>
      </trkpt>
      <trkpt lat="42.93444" lon="17.81919">
        <ele>315.696101</ele>
        <time>2022-06-11T10:48:49.019Z</time>
      </trkpt>
      <trkpt lat="42.93439" lon="17.81949">
        <ele>315.033238</ele>
        <time>2022-06-11T10:51:26.030Z</time>
      </trkpt>
      <trkpt lat="42.93433" lon="17.81961">
        <ele>314.685124</ele>
        <time>2022-06-11T10:51:28.077Z</time>
      </trkpt>
      <trkpt lat="42.93428" lon="17.81972">
        <ele>314.355672</ele>
        <time>2022-06-11T10:51:30.020Z</time>
      </trkpt>
      <trkpt lat="42.93423" lon="17.81984">
        <ele>314.034704</ele>
        <time>2022-06-11T10:51:32.024Z</time>
      </trkpt>
      <trkpt lat="42.93417" lon="17.81996">
        <ele>313.699689</ele>
        <time>2022-06-11T10:51:34.017Z</time>
      </trkpt>
      <trkpt lat="42.93412" lon="17.82007">
        <ele>313.38386</ele>
        <time>2022-06-11T10:51:36.026Z</time>
      </trkpt>
      <trkpt lat="42.93408" lon="17.8202">
        <ele>313.036033</ele>
        <time>2022-06-11T10:51:38.019Z</time>
      </trkpt>
      <trkpt lat="42.93406" lon="17.82035">
        <ele>312.679354</ele>
        <time>2022-06-11T10:51:40.017Z</time>
      </trkpt>
      <trkpt lat="42.93406" lon="17.82051">
        <ele>312.293143</ele>
        <time>2022-06-11T10:51:42.018Z</time>
      </trkpt>
      <trkpt lat="42.93406" lon="17.82066">
        <ele>311.933642</ele>
        <time>2022-06-11T10:51:44.023Z</time>
      </trkpt>
      <trkpt lat="42.93406" lon="17.8208">
        <ele>311.607629</ele>
        <time>2022-06-11T10:51:46.058Z</time>
      </trkpt>
      <trkpt lat="42.93405" lon="17.82094">
        <ele>311.266736</ele>
        <time>2022-06-11T10:51:48.021Z</time>
      </trkpt>
      <trkpt lat="42.93404" lon="17.82107">
        <ele>310.937863</ele>
        <time>2022-06-11T10:51:50.023Z</time>
      </trkpt>
      <trkpt lat="42.934" lon="17.82124">
        <ele>310.525226</ele>
        <time>2022-06-11T10:51:53.018Z</time>
      </trkpt>
      <trkpt lat="42.93404" lon="17.82138">
        <ele>310.162285</ele>
        <time>2022-06-11T10:51:56.028Z</time>
      </trkpt>
      <trkpt lat="42.93417" lon="17.82144">
        <ele>309.537123</ele>
        <time>2022-06-11T10:51:58.020Z</time>
      </trkpt>
      <trkpt lat="42.93432" lon="17.82147">
        <ele>307.817431</ele>
        <time>2022-06-11T10:52:00.020Z</time>
      </trkpt>
      <trkpt lat="42.93449" lon="17.82149">
        <ele>305.881162</ele>
        <time>2022-06-11T10:52:02.023Z</time>
      </trkpt>
      <trkpt lat="42.93466" lon="17.8215">
        <ele>304.003204</ele>
        <time>2022-06-11T10:52:04.031Z</time>
      </trkpt>
      <trkpt lat="42.9348" lon="17.82153">
        <ele>302.440534</ele>
        <time>2022-06-11T10:52:06.018Z</time>
      </trkpt>
      <trkpt lat="42.93492" lon="17.82157">
        <ele>301.117712</ele>
        <time>2022-06-11T10:52:08.016Z</time>
      </trkpt>
      <trkpt lat="42.93503" lon="17.82164">
        <ele>299.754925</ele>
        <time>2022-06-11T10:52:10.026Z</time>
      </trkpt>
      <trkpt lat="42.93519" lon="17.82169">
        <ele>297.959637</ele>
        <time>2022-06-11T10:52:12.033Z</time>
      </trkpt>
      <trkpt lat="42.93528" lon="17.8217">
        <ele>296.880965</ele>
        <time>2022-06-11T10:52:13.017Z</time>
      </trkpt>
      <trkpt lat="42.93538" lon="17.82172">
        <ele>295.799364</ele>
        <time>2022-06-11T10:52:14.009Z</time>
      </trkpt>
      <trkpt lat="42.93548" lon="17.82174">
        <ele>294.651648</ele>
        <time>2022-06-11T10:52:15.010Z</time>
      </trkpt>
      <trkpt lat="42.93558" lon="17.82177">
        <ele>293.502527</ele>
        <time>2022-06-11T10:52:16.013Z</time>
      </trkpt>
      <trkpt lat="42.93569" lon="17.8218">
        <ele>292.354631</ele>
        <time>2022-06-11T10:52:17.015Z</time>
      </trkpt>
      <trkpt lat="42.93579" lon="17.82184">
        <ele>291.176587</ele>
        <time>2022-06-11T10:52:18.018Z</time>
      </trkpt>
      <trkpt lat="42.93589" lon="17.8219">
        <ele>289.958922</ele>
        <time>2022-06-11T10:52:19.001Z</time>
      </trkpt>
      <trkpt lat="42.93599" lon="17.82195">
        <ele>289.612547</ele>
        <time>2022-06-11T10:52:20.013Z</time>
      </trkpt>
      <trkpt lat="42.93609" lon="17.822">
        <ele>289.339771</ele>
        <time>2022-06-11T10:52:21.015Z</time>
      </trkpt>
      <trkpt lat="42.93619" lon="17.82204">
        <ele>289.077386</ele>
        <time>2022-06-11T10:52:22.028Z</time>
      </trkpt>
      <trkpt lat="42.93629" lon="17.82207">
        <ele>288.82183</ele>
        <time>2022-06-11T10:52:23.030Z</time>
      </trkpt>
      <trkpt lat="42.93638" lon="17.8221">
        <ele>288.570825</ele>
        <time>2022-06-11T10:52:24.011Z</time>
      </trkpt>
      <trkpt lat="42.93647" lon="17.82213">
        <ele>288.326524</ele>
        <time>2022-06-11T10:52:25.026Z</time>
      </trkpt>
      <trkpt lat="42.93657" lon="17.82215">
        <ele>288.086926</ele>
        <time>2022-06-11T10:52:26.028Z</time>
      </trkpt>
      <trkpt lat="42.93673" lon="17.82217">
        <ele>287.664541</ele>
        <time>2022-06-11T10:52:28.021Z</time>
      </trkpt>
      <trkpt lat="42.93685" lon="17.82219">
        <ele>287.36325</ele>
        <time>2022-06-11T10:52:30.029Z</time>
      </trkpt>
      <trkpt lat="42.93694" lon="17.82218">
        <ele>287.113397</ele>
        <time>2022-06-11T10:52:35.047Z</time>
      </trkpt>
      <trkpt lat="42.93704" lon="17.8222">
        <ele>286.86659</ele>
        <time>2022-06-11T10:52:43.014Z</time>
      </trkpt>
      <trkpt lat="42.93713" lon="17.82221">
        <ele>286.617691</ele>
        <time>2022-06-11T10:52:50.025Z</time>
      </trkpt>
      <trkpt lat="42.93723" lon="17.82224">
        <ele>286.358308</ele>
        <time>2022-06-11T10:52:56.026Z</time>
      </trkpt>
      <trkpt lat="42.93733" lon="17.82225">
        <ele>286.116285</ele>
        <time>2022-06-11T10:53:01.025Z</time>
      </trkpt>
      <trkpt lat="42.93743" lon="17.82226">
        <ele>285.846764</ele>
        <time>2022-06-11T10:53:07.021Z</time>
      </trkpt>
      <trkpt lat="42.93753" lon="17.82225">
        <ele>285.587423</ele>
        <time>2022-06-11T10:53:13.032Z</time>
      </trkpt>
      <trkpt lat="42.93763" lon="17.82226">
        <ele>285.348111</ele>
        <time>2022-06-11T10:53:18.030Z</time>
      </trkpt>
      <trkpt lat="42.93772" lon="17.82227">
        <ele>285.63301</ele>
        <time>2022-06-11T10:53:23.027Z</time>
      </trkpt>
      <trkpt lat="42.93782" lon="17.82229">
        <ele>286.291376</ele>
        <time>2022-06-11T10:53:29.020Z</time>
      </trkpt>
      <trkpt lat="42.93792" lon="17.82231">
        <ele>286.932587</ele>
        <time>2022-06-11T10:53:35.023Z</time>
      </trkpt>
      <trkpt lat="42.93802" lon="17.82229">
        <ele>287.577328</ele>
        <time>2022-06-11T10:53:41.016Z</time>
      </trkpt>
      <trkpt lat="42.93812" lon="17.8223">
        <ele>288.213037</ele>
        <time>2022-06-11T10:53:48.015Z</time>
      </trkpt>
      <trkpt lat="42.93822" lon="17.8223">
        <ele>288.841852</ele>
        <time>2022-06-11T10:53:55.033Z</time>
      </trkpt>
      <trkpt lat="42.93832" lon="17.82231">
        <ele>289.433388</ele>
        <time>2022-06-11T10:54:01.015Z</time>
      </trkpt>
      <trkpt lat="42.93841" lon="17.82233">
        <ele>290.061384</ele>
        <time>2022-06-11T10:54:08.050Z</time>
      </trkpt>
      <trkpt lat="42.93852" lon="17.82231">
        <ele>290.736894</ele>
        <time>2022-06-11T10:54:15.028Z</time>
      </trkpt>
      <trkpt lat="42.93863" lon="17.82232">
        <ele>291.410113</ele>
        <time>2022-06-11T10:54:21.014Z</time>
      </trkpt>
      <trkpt lat="42.93873" lon="17.82233">
        <ele>292.107408</ele>
        <time>2022-06-11T10:54:26.046Z</time>
      </trkpt>
      <trkpt lat="42.93885" lon="17.82234">
        <ele>292.812611</ele>
        <time>2022-06-11T10:54:30.012Z</time>
      </trkpt>
      <trkpt lat="42.93896" lon="17.82235">
        <ele>293.543918</ele>
        <time>2022-06-11T10:54:34.018Z</time>
      </trkpt>
      <trkpt lat="42.93907" lon="17.82236">
        <ele>294.244394</ele>
        <time>2022-06-11T10:54:38.030Z</time>
      </trkpt>
      <trkpt lat="42.93916" lon="17.82236">
        <ele>294.822332</ele>
        <time>2022-06-11T10:54:41.009Z</time>
      </trkpt>
      <trkpt lat="42.93928" lon="17.82236">
        <ele>295.584675</ele>
        <time>2022-06-11T10:54:45.022Z</time>
      </trkpt>
      <trkpt lat="42.93938" lon="17.82237">
        <ele>296.21385</ele>
        <time>2022-06-11T10:54:48.023Z</time>
      </trkpt>
      <trkpt lat="42.93948" lon="17.82237">
        <ele>296.67576</ele>
        <time>2022-06-11T10:54:51.040Z</time>
      </trkpt>
      <trkpt lat="42.93958" lon="17.82238">
        <ele>296.653125</ele>
        <time>2022-06-11T10:54:54.069Z</time>
      </trkpt>
      <trkpt lat="42.93969" lon="17.82239">
        <ele>296.629345</ele>
        <time>2022-06-11T10:54:57.052Z</time>
      </trkpt>
      <trkpt lat="42.9398" lon="17.82241">
        <ele>296.604895</ele>
        <time>2022-06-11T10:55:00.048Z</time>
      </trkpt>
      <trkpt lat="42.93991" lon="17.82242">
        <ele>296.581361</ele>
        <time>2022-06-11T10:55:03.033Z</time>
      </trkpt>
      <trkpt lat="42.94001" lon="17.82243">
        <ele>296.558091</ele>
        <time>2022-06-11T10:55:06.048Z</time>
      </trkpt>
      <trkpt lat="42.94012" lon="17.82244">
        <ele>296.53515</ele>
        <time>2022-06-11T10:55:09.021Z</time>
      </trkpt>
      <trkpt lat="42.94022" lon="17.82246">
        <ele>296.511806</ele>
        <time>2022-06-11T10:55:12.059Z</time>
      </trkpt>
      <trkpt lat="42.94033" lon="17.82248">
        <ele>296.486738</ele>
        <time>2022-06-11T10:55:15.020Z</time>
      </trkpt>
      <trkpt lat="42.94045" lon="17.8225">
        <ele>296.461819</ele>
        <time>2022-06-11T10:55:18.025Z</time>
      </trkpt>
      <trkpt lat="42.94056" lon="17.8225">
        <ele>296.437921</ele>
        <time>2022-06-11T10:55:21.019Z</time>
      </trkpt>
      <trkpt lat="42.94066" lon="17.8225">
        <ele>296.4149</ele>
        <time>2022-06-11T10:55:24.020Z</time>
      </trkpt>
      <trkpt lat="42.94077" lon="17.82249">
        <ele>296.391213</ele>
        <time>2022-06-11T10:55:27.020Z</time>
      </trkpt>
      <trkpt lat="42.94088" lon="17.82248">
        <ele>296.367214</ele>
        <time>2022-06-11T10:55:30.039Z</time>
      </trkpt>
      <trkpt lat="42.94099" lon="17.82248">
        <ele>296.343319</ele>
        <time>2022-06-11T10:55:33.011Z</time>
      </trkpt>
      <trkpt lat="42.9411" lon="17.82247">
        <ele>296.318516</ele>
        <time>2022-06-11T10:55:36.018Z</time>
      </trkpt>
      <trkpt lat="42.94122" lon="17.82246">
        <ele>296.293003</ele>
        <time>2022-06-11T10:55:39.016Z</time>
      </trkpt>
      <trkpt lat="42.94132" lon="17.82245">
        <ele>296.190015</ele>
        <time>2022-06-11T10:55:42.018Z</time>
      </trkpt>
      <trkpt lat="42.94141" lon="17.82244">
        <ele>296.072581</ele>
        <time>2022-06-11T10:55:45.050Z</time>
      </trkpt>
      <trkpt lat="42.94151" lon="17.82243">
        <ele>295.943252</ele>
        <time>2022-06-11T10:55:49.020Z</time>
      </trkpt>
      <trkpt lat="42.9416" lon="17.82242">
        <ele>295.827402</ele>
        <time>2022-06-11T10:55:53.024Z</time>
      </trkpt>
      <trkpt lat="42.9417" lon="17.8224">
        <ele>295.694902</ele>
        <time>2022-06-11T10:55:57.020Z</time>
      </trkpt>
      <trkpt lat="42.94179" lon="17.82236">
        <ele>295.579724</ele>
        <time>2022-06-11T10:56:01.023Z</time>
      </trkpt>
      <trkpt lat="42.94188" lon="17.82228">
        <ele>295.43845</ele>
        <time>2022-06-11T10:56:06.029Z</time>
      </trkpt>
      <trkpt lat="42.94199" lon="17.82222">
        <ele>295.295199</ele>
        <time>2022-06-11T10:56:11.015Z</time>
      </trkpt>
      <trkpt lat="42.94208" lon="17.82218">
        <ele>295.16815</ele>
        <time>2022-06-11T10:56:16.014Z</time>
      </trkpt>
      <trkpt lat="42.94217" lon="17.82211">
        <ele>295.036939</ele>
        <time>2022-06-11T10:56:21.025Z</time>
      </trkpt>
      <trkpt lat="42.94224" lon="17.82204">
        <ele>294.919691</ele>
        <time>2022-06-11T10:56:26.025Z</time>
      </trkpt>
      <trkpt lat="42.94232" lon="17.82197">
        <ele>294.799644</ele>
        <time>2022-06-11T10:56:32.029Z</time>
      </trkpt>
      <trkpt lat="42.94242" lon="17.82195">
        <ele>294.669538</ele>
        <time>2022-06-11T10:56:37.016Z</time>
      </trkpt>
      <trkpt lat="42.94253" lon="17.82196">
        <ele>294.53198</ele>
        <time>2022-06-11T10:56:42.018Z</time>
      </trkpt>
      <trkpt lat="42.94262" lon="17.82196">
        <ele>294.413745</ele>
        <time>2022-06-11T10:56:46.052Z</time>
      </trkpt>
      <trkpt lat="42.94273" lon="17.82197">
        <ele>294.27328</ele>
        <time>2022-06-11T10:56:51.023Z</time>
      </trkpt>
      <trkpt lat="42.94284" lon="17.822">
        <ele>294.129207</ele>
        <time>2022-06-11T10:56:56.025Z</time>
      </trkpt>
      <trkpt lat="42.94293" lon="17.82202">
        <ele>294.013192</ele>
        <time>2022-06-11T10:57:00.025Z</time>
      </trkpt>
      <trkpt lat="42.94304" lon="17.82203">
        <ele>293.662074</ele>
        <time>2022-06-11T10:57:05.012Z</time>
      </trkpt>
      <trkpt lat="42.94314" lon="17.82203">
        <ele>293.311367</ele>
        <time>2022-06-11T10:57:09.037Z</time>
      </trkpt>
      <trkpt lat="42.94323" lon="17.82203">
        <ele>292.945599</ele>
        <time>2022-06-11T10:57:13.026Z</time>
      </trkpt>
      <trkpt lat="42.94333" lon="17.82199">
        <ele>292.552965</ele>
        <time>2022-06-11T10:57:17.016Z</time>
      </trkpt>
      <trkpt lat="42.94344" lon="17.82193">
        <ele>292.140125</ele>
        <time>2022-06-11T10:57:21.020Z</time>
      </trkpt>
      <trkpt lat="42.94353" lon="17.82187">
        <ele>291.735458</ele>
        <time>2022-06-11T10:57:25.025Z</time>
      </trkpt>
      <trkpt lat="42.94363" lon="17.82181">
        <ele>291.347673</ele>
        <time>2022-06-11T10:57:29.014Z</time>
      </trkpt>
      <trkpt lat="42.94373" lon="17.82176">
        <ele>290.951798</ele>
        <time>2022-06-11T10:57:33.020Z</time>
      </trkpt>
      <trkpt lat="42.94382" lon="17.8217">
        <ele>290.572239</ele>
        <time>2022-06-11T10:57:37.021Z</time>
      </trkpt>
      <trkpt lat="42.94392" lon="17.82164">
        <ele>290.14586</ele>
        <time>2022-06-11T10:57:41.018Z</time>
      </trkpt>
      <trkpt lat="42.94402" lon="17.82159">
        <ele>289.750696</ele>
        <time>2022-06-11T10:57:45.021Z</time>
      </trkpt>
      <trkpt lat="42.94412" lon="17.82155">
        <ele>289.360886</ele>
        <time>2022-06-11T10:57:50.015Z</time>
      </trkpt>
      <trkpt lat="42.94421" lon="17.8215">
        <ele>288.972177</ele>
        <time>2022-06-11T10:57:55.010Z</time>
      </trkpt>
      <trkpt lat="42.94431" lon="17.82146">
        <ele>288.61111</ele>
        <time>2022-06-11T10:58:00.032Z</time>
      </trkpt>
      <trkpt lat="42.94441" lon="17.82141">
        <ele>288.208895</ele>
        <time>2022-06-11T10:58:05.023Z</time>
      </trkpt>
      <trkpt lat="42.9445" lon="17.82136">
        <ele>287.821171</ele>
        <time>2022-06-11T10:58:10.060Z</time>
      </trkpt>
      <trkpt lat="42.9446" lon="17.8213">
        <ele>287.429076</ele>
        <time>2022-06-11T10:58:15.023Z</time>
      </trkpt>
      <trkpt lat="42.94469" lon="17.82124">
        <ele>287.326656</ele>
        <time>2022-06-11T10:58:20.018Z</time>
      </trkpt>
      <trkpt lat="42.94478" lon="17.82119">
        <ele>287.661711</ele>
        <time>2022-06-11T10:58:25.025Z</time>
      </trkpt>
      <trkpt lat="42.94487" lon="17.82112">
        <ele>287.990601</ele>
        <time>2022-06-11T10:58:30.060Z</time>
      </trkpt>
      <trkpt lat="42.94495" lon="17.82106">
        <ele>288.304992</ele>
        <time>2022-06-11T10:58:35.029Z</time>
      </trkpt>
      <trkpt lat="42.94503" lon="17.82097">
        <ele>288.637964</ele>
        <time>2022-06-11T10:58:40.014Z</time>
      </trkpt>
      <trkpt lat="42.94509" lon="17.82085">
        <ele>289.000688</ele>
        <time>2022-06-11T10:58:45.027Z</time>
      </trkpt>
      <trkpt lat="42.94514" lon="17.82074">
        <ele>289.319561</ele>
        <time>2022-06-11T10:58:50.011Z</time>
      </trkpt>
      <trkpt lat="42.94519" lon="17.82062">
        <ele>289.653958</ele>
        <time>2022-06-11T10:58:55.050Z</time>
      </trkpt>
      <trkpt lat="42.94526" lon="17.82053">
        <ele>289.987553</ele>
        <time>2022-06-11T10:59:00.014Z</time>
      </trkpt>
      <trkpt lat="42.94535" lon="17.82046">
        <ele>290.313537</ele>
        <time>2022-06-11T10:59:05.026Z</time>
      </trkpt>
      <trkpt lat="42.94544" lon="17.82042">
        <ele>290.625842</ele>
        <time>2022-06-11T10:59:09.016Z</time>
      </trkpt>
      <trkpt lat="42.94554" lon="17.82041">
        <ele>290.949619</ele>
        <time>2022-06-11T10:59:14.011Z</time>
      </trkpt>
      <trkpt lat="42.94563" lon="17.82038">
        <ele>291.265533</ele>
        <time>2022-06-11T10:59:19.014Z</time>
      </trkpt>
      <trkpt lat="42.94573" lon="17.82038">
        <ele>291.584022</ele>
        <time>2022-06-11T10:59:24.005Z</time>
      </trkpt>
      <trkpt lat="42.94583" lon="17.82036">
        <ele>291.926519</ele>
        <time>2022-06-11T10:59:29.027Z</time>
      </trkpt>
      <trkpt lat="42.94593" lon="17.82031">
        <ele>292.278874</ele>
        <time>2022-06-11T10:59:34.050Z</time>
      </trkpt>
      <trkpt lat="42.94603" lon="17.82027">
        <ele>292.625</ele>
        <time>2022-06-11T10:59:39.026Z</time>
      </trkpt>
      <trkpt lat="42.94611" lon="17.82021">
        <ele>292.941225</ele>
        <time>2022-06-11T10:59:44.024Z</time>
      </trkpt>
      <trkpt lat="42.9462" lon="17.82014">
        <ele>293.305029</ele>
        <time>2022-06-11T10:59:49.032Z</time>
      </trkpt>
      <trkpt lat="42.9463" lon="17.82006">
        <ele>293.761525</ele>
        <time>2022-06-11T10:59:54.005Z</time>
      </trkpt>
      <trkpt lat="42.94638" lon="17.82">
        <ele>294.137634</ele>
        <time>2022-06-11T10:59:58.024Z</time>
      </trkpt>
      <trkpt lat="42.94646" lon="17.81995">
        <ele>294.51209</ele>
        <time>2022-06-11T11:00:02.017Z</time>
      </trkpt>
      <trkpt lat="42.94654" lon="17.81989">
        <ele>294.896838</ele>
        <time>2022-06-11T11:00:06.017Z</time>
      </trkpt>
      <trkpt lat="42.94662" lon="17.81978">
        <ele>295.355266</ele>
        <time>2022-06-11T11:00:10.013Z</time>
      </trkpt>
      <trkpt lat="42.94668" lon="17.81965">
        <ele>295.807215</ele>
        <time>2022-06-11T11:00:14.052Z</time>
      </trkpt>
      <trkpt lat="42.94673" lon="17.81953">
        <ele>296.237997</ele>
        <time>2022-06-11T11:00:18.023Z</time>
      </trkpt>
      <trkpt lat="42.94679" lon="17.81942">
        <ele>296.652537</ele>
        <time>2022-06-11T11:00:22.019Z</time>
      </trkpt>
      <trkpt lat="42.94685" lon="17.81933">
        <ele>297.041763</ele>
        <time>2022-06-11T11:00:26.017Z</time>
      </trkpt>
      <trkpt lat="42.94693" lon="17.81926">
        <ele>297.425982</ele>
        <time>2022-06-11T11:00:30.020Z</time>
      </trkpt>
      <trkpt lat="42.94702" lon="17.81922">
        <ele>297.823707</ele>
        <time>2022-06-11T11:00:34.020Z</time>
      </trkpt>
      <trkpt lat="42.94711" lon="17.81917">
        <ele>298.199999</ele>
        <time>2022-06-11T11:00:38.028Z</time>
      </trkpt>
      <trkpt lat="42.94719" lon="17.81913">
        <ele>298.575211</ele>
        <time>2022-06-11T11:00:42.018Z</time>
      </trkpt>
      <trkpt lat="42.94728" lon="17.81908">
        <ele>298.958153</ele>
        <time>2022-06-11T11:00:47.023Z</time>
      </trkpt>
      <trkpt lat="42.94738" lon="17.81903">
        <ele>299.38444</ele>
        <time>2022-06-11T11:00:52.024Z</time>
      </trkpt>
      <trkpt lat="42.94747" lon="17.81894">
        <ele>299.837945</ele>
        <time>2022-06-11T11:00:57.031Z</time>
      </trkpt>
      <trkpt lat="42.94755" lon="17.81888">
        <ele>300.237547</ele>
        <time>2022-06-11T11:01:01.029Z</time>
      </trkpt>
      <trkpt lat="42.94763" lon="17.8188">
        <ele>300.698606</ele>
        <time>2022-06-11T11:01:05.043Z</time>
      </trkpt>
      <trkpt lat="42.9477" lon="17.81869">
        <ele>301.656584</ele>
        <time>2022-06-11T11:01:09.027Z</time>
      </trkpt>
      <trkpt lat="42.94776" lon="17.81858">
        <ele>302.630077</ele>
        <time>2022-06-11T11:01:13.015Z</time>
      </trkpt>
      <trkpt lat="42.94782" lon="17.81846">
        <ele>303.603569</ele>
        <time>2022-06-11T11:01:17.019Z</time>
      </trkpt>
      <trkpt lat="42.94788" lon="17.81836">
        <ele>304.539528</ele>
        <time>2022-06-11T11:01:21.028Z</time>
      </trkpt>
      <trkpt lat="42.94794" lon="17.81825">
        <ele>305.41448</ele>
        <time>2022-06-11T11:01:25.028Z</time>
      </trkpt>
      <trkpt lat="42.94799" lon="17.81814">
        <ele>306.280533</ele>
        <time>2022-06-11T11:01:29.029Z</time>
      </trkpt>
      <trkpt lat="42.94805" lon="17.81803">
        <ele>307.265182</ele>
        <time>2022-06-11T11:01:33.046Z</time>
      </trkpt>
      <trkpt lat="42.94813" lon="17.81792">
        <ele>308.325362</ele>
        <time>2022-06-11T11:01:37.046Z</time>
      </trkpt>
      <trkpt lat="42.94822" lon="17.81783">
        <ele>309.337419</ele>
        <time>2022-06-11T11:01:41.019Z</time>
      </trkpt>
      <trkpt lat="42.94832" lon="17.81777">
        <ele>310.332092</ele>
        <time>2022-06-11T11:01:45.036Z</time>
      </trkpt>
      <trkpt lat="42.94842" lon="17.81773">
        <ele>311.330175</ele>
        <time>2022-06-11T11:01:49.026Z</time>
      </trkpt>
      <trkpt lat="42.9485" lon="17.81768">
        <ele>312.197829</ele>
        <time>2022-06-11T11:01:52.019Z</time>
      </trkpt>
      <trkpt lat="42.94861" lon="17.81762">
        <ele>313.281697</ele>
        <time>2022-06-11T11:01:56.056Z</time>
      </trkpt>
      <trkpt lat="42.94871" lon="17.81757">
        <ele>314.219551</ele>
        <time>2022-06-11T11:02:00.017Z</time>
      </trkpt>
      <trkpt lat="42.94879" lon="17.81749">
        <ele>315.131177</ele>
        <time>2022-06-11T11:02:04.023Z</time>
      </trkpt>
      <trkpt lat="42.94885" lon="17.81741">
        <ele>315.968787</ele>
        <time>2022-06-11T11:02:08.027Z</time>
      </trkpt>
      <trkpt lat="42.94894" lon="17.81732">
        <ele>316.934685</ele>
        <time>2022-06-11T11:02:13.011Z</time>
      </trkpt>
      <trkpt lat="42.94901" lon="17.81724">
        <ele>317.721283</ele>
        <time>2022-06-11T11:02:17.029Z</time>
      </trkpt>
      <trkpt lat="42.94909" lon="17.81716">
        <ele>318.448299</ele>
        <time>2022-06-11T11:02:21.022Z</time>
      </trkpt>
      <trkpt lat="42.94917" lon="17.81709">
        <ele>319.135516</ele>
        <time>2022-06-11T11:02:25.022Z</time>
      </trkpt>
      <trkpt lat="42.94925" lon="17.81702">
        <ele>319.812418</ele>
        <time>2022-06-11T11:02:29.050Z</time>
      </trkpt>
      <trkpt lat="42.94932" lon="17.81695">
        <ele>320.46861</ele>
        <time>2022-06-11T11:02:33.021Z</time>
      </trkpt>
      <trkpt lat="42.9494" lon="17.81689">
        <ele>321.135143</ele>
        <time>2022-06-11T11:02:37.020Z</time>
      </trkpt>
      <trkpt lat="42.94949" lon="17.81683">
        <ele>321.86156</ele>
        <time>2022-06-11T11:02:41.021Z</time>
      </trkpt>
      <trkpt lat="42.94957" lon="17.81677">
        <ele>322.550846</ele>
        <time>2022-06-11T11:02:45.017Z</time>
      </trkpt>
      <trkpt lat="42.94967" lon="17.81672">
        <ele>323.269848</ele>
        <time>2022-06-11T11:02:50.016Z</time>
      </trkpt>
      <trkpt lat="42.94978" lon="17.8167">
        <ele>324.091382</ele>
        <time>2022-06-11T11:02:55.035Z</time>
      </trkpt>
      <trkpt lat="42.94988" lon="17.81668">
        <ele>324.811894</ele>
        <time>2022-06-11T11:02:59.024Z</time>
      </trkpt>
      <trkpt lat="42.94999" lon="17.81667">
        <ele>325.6083</ele>
        <time>2022-06-11T11:03:03.026Z</time>
      </trkpt>
      <trkpt lat="42.9501" lon="17.81665">
        <ele>326.421061</ele>
        <time>2022-06-11T11:03:07.028Z</time>
      </trkpt>
      <trkpt lat="42.95019" lon="17.81664">
        <ele>327.109503</ele>
        <time>2022-06-11T11:03:11.016Z</time>
      </trkpt>
      <trkpt lat="42.95028" lon="17.81662">
        <ele>327.767613</ele>
        <time>2022-06-11T11:03:15.021Z</time>
      </trkpt>
      <trkpt lat="42.95037" lon="17.81658">
        <ele>328.428461</ele>
        <time>2022-06-11T11:03:19.017Z</time>
      </trkpt>
      <trkpt lat="42.95046" lon="17.81655">
        <ele>329.115891</ele>
        <time>2022-06-11T11:03:23.033Z</time>
      </trkpt>
      <trkpt lat="42.95054" lon="17.81646">
        <ele>329.889784</ele>
        <time>2022-06-11T11:03:28.017Z</time>
      </trkpt>
      <trkpt lat="42.95063" lon="17.81638">
        <ele>330.422834</ele>
        <time>2022-06-11T11:03:33.027Z</time>
      </trkpt>
      <trkpt lat="42.95071" lon="17.8163">
        <ele>330.366858</ele>
        <time>2022-06-11T11:03:38.029Z</time>
      </trkpt>
      <trkpt lat="42.9508" lon="17.81621">
        <ele>330.307142</ele>
        <time>2022-06-11T11:03:43.022Z</time>
      </trkpt>
      <trkpt lat="42.95088" lon="17.81612">
        <ele>330.249294</ele>
        <time>2022-06-11T11:03:48.072Z</time>
      </trkpt>
      <trkpt lat="42.95096" lon="17.81603">
        <ele>330.186511</ele>
        <time>2022-06-11T11:03:53.022Z</time>
      </trkpt>
      <trkpt lat="42.95105" lon="17.81596">
        <ele>330.129865</ele>
        <time>2022-06-11T11:03:58.021Z</time>
      </trkpt>
      <trkpt lat="42.95113" lon="17.81591">
        <ele>330.07875</ele>
        <time>2022-06-11T11:04:02.022Z</time>
      </trkpt>
      <trkpt lat="42.95122" lon="17.81586">
        <ele>330.02473</ele>
        <time>2022-06-11T11:04:06.011Z</time>
      </trkpt>
      <trkpt lat="42.95131" lon="17.8158">
        <ele>329.967355</ele>
        <time>2022-06-11T11:04:10.051Z</time>
      </trkpt>
      <trkpt lat="42.9514" lon="17.81576">
        <ele>329.914252</ele>
        <time>2022-06-11T11:04:14.023Z</time>
      </trkpt>
      <trkpt lat="42.9515" lon="17.81572">
        <ele>329.85341</ele>
        <time>2022-06-11T11:04:18.020Z</time>
      </trkpt>
      <trkpt lat="42.95159" lon="17.8157">
        <ele>329.801183</ele>
        <time>2022-06-11T11:04:22.035Z</time>
      </trkpt>
      <trkpt lat="42.95169" lon="17.81567">
        <ele>329.740406</ele>
        <time>2022-06-11T11:04:26.024Z</time>
      </trkpt>
      <trkpt lat="42.95179" lon="17.81563">
        <ele>329.68478</ele>
        <time>2022-06-11T11:04:29.012Z</time>
      </trkpt>
      <trkpt lat="42.95189" lon="17.8156">
        <ele>329.626673</ele>
        <time>2022-06-11T11:04:32.025Z</time>
      </trkpt>
      <trkpt lat="42.95198" lon="17.81558">
        <ele>329.573082</ele>
        <time>2022-06-11T11:04:35.016Z</time>
      </trkpt>
      <trkpt lat="42.95208" lon="17.81555">
        <ele>329.51286</ele>
        <time>2022-06-11T11:04:39.023Z</time>
      </trkpt>
      <trkpt lat="42.95219" lon="17.8155">
        <ele>329.450761</ele>
        <time>2022-06-11T11:04:43.022Z</time>
      </trkpt>
      <trkpt lat="42.95229" lon="17.81547">
        <ele>329.531467</ele>
        <time>2022-06-11T11:04:47.018Z</time>
      </trkpt>
      <trkpt lat="42.95239" lon="17.81543">
        <ele>329.751098</ele>
        <time>2022-06-11T11:04:51.019Z</time>
      </trkpt>
      <trkpt lat="42.9525" lon="17.8154">
        <ele>329.997692</ele>
        <time>2022-06-11T11:04:55.018Z</time>
      </trkpt>
      <trkpt lat="42.95261" lon="17.81535">
        <ele>330.233537</ele>
        <time>2022-06-11T11:04:59.014Z</time>
      </trkpt>
      <trkpt lat="42.9527" lon="17.81531">
        <ele>330.441759</ele>
        <time>2022-06-11T11:05:03.017Z</time>
      </trkpt>
      <trkpt lat="42.95279" lon="17.81525">
        <ele>330.663751</ele>
        <time>2022-06-11T11:05:07.060Z</time>
      </trkpt>
      <trkpt lat="42.95288" lon="17.81521">
        <ele>330.861759</ele>
        <time>2022-06-11T11:05:11.028Z</time>
      </trkpt>
      <trkpt lat="42.95297" lon="17.81517">
        <ele>331.05926</ele>
        <time>2022-06-11T11:05:15.014Z</time>
      </trkpt>
      <trkpt lat="42.95306" lon="17.81512">
        <ele>331.280642</ele>
        <time>2022-06-11T11:05:19.019Z</time>
      </trkpt>
      <trkpt lat="42.95315" lon="17.81504">
        <ele>331.506456</ele>
        <time>2022-06-11T11:05:23.027Z</time>
      </trkpt>
      <trkpt lat="42.95322" lon="17.81497">
        <ele>331.702029</ele>
        <time>2022-06-11T11:05:27.022Z</time>
      </trkpt>
      <trkpt lat="42.95329" lon="17.81487">
        <ele>331.910034</ele>
        <time>2022-06-11T11:05:31.028Z</time>
      </trkpt>
      <trkpt lat="42.95335" lon="17.81474">
        <ele>332.146752</ele>
        <time>2022-06-11T11:05:36.053Z</time>
      </trkpt>
      <trkpt lat="42.9534" lon="17.81463">
        <ele>332.35581</ele>
        <time>2022-06-11T11:05:41.030Z</time>
      </trkpt>
      <trkpt lat="42.95344" lon="17.81451">
        <ele>332.557382</ele>
        <time>2022-06-11T11:05:46.017Z</time>
      </trkpt>
      <trkpt lat="42.95348" lon="17.8144">
        <ele>332.764489</ele>
        <time>2022-06-11T11:05:51.024Z</time>
      </trkpt>
      <trkpt lat="42.95352" lon="17.81428">
        <ele>332.971251</ele>
        <time>2022-06-11T11:05:56.025Z</time>
      </trkpt>
      <trkpt lat="42.95357" lon="17.81416">
        <ele>333.184987</ele>
        <time>2022-06-11T11:06:02.016Z</time>
      </trkpt>
      <trkpt lat="42.95362" lon="17.81403">
        <ele>333.090332</ele>
        <time>2022-06-11T11:06:08.027Z</time>
      </trkpt>
      <trkpt lat="42.95366" lon="17.81392">
        <ele>332.758274</ele>
        <time>2022-06-11T11:06:13.023Z</time>
      </trkpt>
      <trkpt lat="42.9537" lon="17.8138">
        <ele>332.43665</ele>
        <time>2022-06-11T11:06:18.036Z</time>
      </trkpt>
      <trkpt lat="42.95374" lon="17.81369">
        <ele>332.114639</ele>
        <time>2022-06-11T11:06:23.022Z</time>
      </trkpt>
      <trkpt lat="42.95379" lon="17.81356">
        <ele>331.744398</ele>
        <time>2022-06-11T11:06:29.019Z</time>
      </trkpt>
      <trkpt lat="42.95384" lon="17.81343">
        <ele>331.352514</ele>
        <time>2022-06-11T11:06:35.013Z</time>
      </trkpt>
      <trkpt lat="42.9539" lon="17.81332">
        <ele>331.020289</ele>
        <time>2022-06-11T11:06:40.039Z</time>
      </trkpt>
      <trkpt lat="42.95395" lon="17.81322">
        <ele>330.692403</ele>
        <time>2022-06-11T11:06:45.017Z</time>
      </trkpt>
      <trkpt lat="42.95402" lon="17.8131">
        <ele>330.310603</ele>
        <time>2022-06-11T11:06:51.024Z</time>
      </trkpt>
      <trkpt lat="42.95409" lon="17.81299">
        <ele>329.925354</ele>
        <time>2022-06-11T11:06:56.014Z</time>
      </trkpt>
      <trkpt lat="42.95415" lon="17.8129">
        <ele>329.593802</ele>
        <time>2022-06-11T11:07:01.024Z</time>
      </trkpt>
      <trkpt lat="42.95421" lon="17.81279">
        <ele>329.257478</ele>
        <time>2022-06-11T11:07:07.011Z</time>
      </trkpt>
      <trkpt lat="42.95427" lon="17.81268">
        <ele>328.898457</ele>
        <time>2022-06-11T11:07:12.052Z</time>
      </trkpt>
      <trkpt lat="42.95433" lon="17.81257">
        <ele>328.55155</ele>
        <time>2022-06-11T11:07:17.027Z</time>
      </trkpt>
      <trkpt lat="42.9544" lon="17.81247">
        <ele>328.187786</ele>
        <time>2022-06-11T11:07:22.022Z</time>
      </trkpt>
      <trkpt lat="42.95446" lon="17.81236">
        <ele>327.849563</ele>
        <time>2022-06-11T11:07:27.023Z</time>
      </trkpt>
      <trkpt lat="42.95452" lon="17.81225">
        <ele>327.498639</ele>
        <time>2022-06-11T11:07:32.025Z</time>
      </trkpt>
      <trkpt lat="42.95458" lon="17.81215">
        <ele>327.172823</ele>
        <time>2022-06-11T11:07:37.016Z</time>
      </trkpt>
      <trkpt lat="42.95464" lon="17.81206">
        <ele>327.316597</ele>
        <time>2022-06-11T11:07:42.015Z</time>
      </trkpt>
      <trkpt lat="42.95471" lon="17.81197">
        <ele>328.113036</ele>
        <time>2022-06-11T11:07:46.021Z</time>
      </trkpt>
      <trkpt lat="42.95477" lon="17.81186">
        <ele>329.05345</ele>
        <time>2022-06-11T11:07:51.019Z</time>
      </trkpt>
      <trkpt lat="42.95485" lon="17.81175">
        <ele>330.014452</ele>
        <time>2022-06-11T11:07:56.018Z</time>
      </trkpt>
      <trkpt lat="42.95492" lon="17.81167">
        <ele>330.812318</ele>
        <time>2022-06-11T11:08:00.024Z</time>
      </trkpt>
      <trkpt lat="42.955" lon="17.81157">
        <ele>331.811553</ele>
        <time>2022-06-11T11:08:05.019Z</time>
      </trkpt>
      <trkpt lat="42.95507" lon="17.81147">
        <ele>332.716476</ele>
        <time>2022-06-11T11:08:09.015Z</time>
      </trkpt>
      <trkpt lat="42.95514" lon="17.81136">
        <ele>333.630931</ele>
        <time>2022-06-11T11:08:13.019Z</time>
      </trkpt>
      <trkpt lat="42.95521" lon="17.81126">
        <ele>334.590367</ele>
        <time>2022-06-11T11:08:18.020Z</time>
      </trkpt>
      <trkpt lat="42.95528" lon="17.81116">
        <ele>335.445076</ele>
        <time>2022-06-11T11:08:22.020Z</time>
      </trkpt>
      <trkpt lat="42.95533" lon="17.81105">
        <ele>336.306517</ele>
        <time>2022-06-11T11:08:26.053Z</time>
      </trkpt>
      <trkpt lat="42.95539" lon="17.81095">
        <ele>337.183524</ele>
        <time>2022-06-11T11:08:30.029Z</time>
      </trkpt>
      <trkpt lat="42.95545" lon="17.81085">
        <ele>338.019391</ele>
        <time>2022-06-11T11:08:34.029Z</time>
      </trkpt>
      <trkpt lat="42.9555" lon="17.81074">
        <ele>338.843823</ele>
        <time>2022-06-11T11:08:38.024Z</time>
      </trkpt>
      <trkpt lat="42.95556" lon="17.81062">
        <ele>339.763411</ele>
        <time>2022-06-11T11:08:43.020Z</time>
      </trkpt>
      <trkpt lat="42.9556" lon="17.81049">
        <ele>340.681104</ele>
        <time>2022-06-11T11:08:48.053Z</time>
      </trkpt>
      <trkpt lat="42.95565" lon="17.81038">
        <ele>341.526896</ele>
        <time>2022-06-11T11:08:52.019Z</time>
      </trkpt>
      <trkpt lat="42.95569" lon="17.81025">
        <ele>342.490966</ele>
        <time>2022-06-11T11:08:57.015Z</time>
      </trkpt>
      <trkpt lat="42.95573" lon="17.81011">
        <ele>342.961985</ele>
        <time>2022-06-11T11:09:02.017Z</time>
      </trkpt>
      <trkpt lat="42.95577" lon="17.80998">
        <ele>342.961155</ele>
        <time>2022-06-11T11:09:06.009Z</time>
      </trkpt>
      <trkpt lat="42.95581" lon="17.80984">
        <ele>342.960208</ele>
        <time>2022-06-11T11:09:10.026Z</time>
      </trkpt>
      <trkpt lat="42.95584" lon="17.80971">
        <ele>342.959388</ele>
        <time>2022-06-11T11:09:13.016Z</time>
      </trkpt>
      <trkpt lat="42.95587" lon="17.80958">
        <ele>342.958562</ele>
        <time>2022-06-11T11:09:16.005Z</time>
      </trkpt>
      <trkpt lat="42.95591" lon="17.80943">
        <ele>342.957544</ele>
        <time>2022-06-11T11:09:19.015Z</time>
      </trkpt>
      <trkpt lat="42.95594" lon="17.80925">
        <ele>342.956469</ele>
        <time>2022-06-11T11:09:22.035Z</time>
      </trkpt>
      <trkpt lat="42.95597" lon="17.80908">
        <ele>342.955371</ele>
        <time>2022-06-11T11:09:25.017Z</time>
      </trkpt>
      <trkpt lat="42.95598" lon="17.8089">
        <ele>342.954246</ele>
        <time>2022-06-11T11:09:28.053Z</time>
      </trkpt>
      <trkpt lat="42.956" lon="17.80877">
        <ele>342.953435</ele>
        <time>2022-06-11T11:09:30.018Z</time>
      </trkpt>
      <trkpt lat="42.95601" lon="17.80864">
        <ele>342.952638</ele>
        <time>2022-06-11T11:09:32.024Z</time>
      </trkpt>
      <trkpt lat="42.95602" lon="17.8085">
        <ele>342.951822</ele>
        <time>2022-06-11T11:09:34.067Z</time>
      </trkpt>
      <trkpt lat="42.95604" lon="17.80838">
        <ele>342.951067</ele>
        <time>2022-06-11T11:09:36.012Z</time>
      </trkpt>
      <trkpt lat="42.95605" lon="17.80826">
        <ele>342.950299</ele>
        <time>2022-06-11T11:09:38.026Z</time>
      </trkpt>
      <trkpt lat="42.95607" lon="17.80809">
        <ele>342.949241</ele>
        <time>2022-06-11T11:09:41.020Z</time>
      </trkpt>
      <trkpt lat="42.9561" lon="17.80793">
        <ele>342.948261</ele>
        <time>2022-06-11T11:09:44.022Z</time>
      </trkpt>
      <trkpt lat="42.95613" lon="17.80778">
        <ele>342.952319</ele>
        <time>2022-06-11T11:09:47.008Z</time>
      </trkpt>
      <trkpt lat="42.95615" lon="17.80762">
        <ele>342.994626</ele>
        <time>2022-06-11T11:09:50.022Z</time>
      </trkpt>
      <trkpt lat="42.95618" lon="17.80746">
        <ele>343.040318</ele>
        <time>2022-06-11T11:09:53.094Z</time>
      </trkpt>
      <trkpt lat="42.95621" lon="17.80729">
        <ele>343.086869</ele>
        <time>2022-06-11T11:09:56.040Z</time>
      </trkpt>
      <trkpt lat="42.95624" lon="17.80717">
        <ele>343.121111</ele>
        <time>2022-06-11T11:09:58.021Z</time>
      </trkpt>
      <trkpt lat="42.95626" lon="17.80704">
        <ele>343.154928</ele>
        <time>2022-06-11T11:10:00.032Z</time>
      </trkpt>
      <trkpt lat="42.95629" lon="17.80692">
        <ele>343.18879</ele>
        <time>2022-06-11T11:10:02.045Z</time>
      </trkpt>
      <trkpt lat="42.95632" lon="17.8068">
        <ele>343.224989</ele>
        <time>2022-06-11T11:10:04.034Z</time>
      </trkpt>
      <trkpt lat="42.95635" lon="17.80668">
        <ele>343.259054</ele>
        <time>2022-06-11T11:10:06.031Z</time>
      </trkpt>
      <trkpt lat="42.95639" lon="17.80656">
        <ele>343.293318</ele>
        <time>2022-06-11T11:10:08.018Z</time>
      </trkpt>
      <trkpt lat="42.95643" lon="17.80644">
        <ele>343.329807</ele>
        <time>2022-06-11T11:10:10.038Z</time>
      </trkpt>
      <trkpt lat="42.95648" lon="17.80631">
        <ele>343.369118</ele>
        <time>2022-06-11T11:10:12.024Z</time>
      </trkpt>
      <trkpt lat="42.95653" lon="17.80618">
        <ele>343.406333</ele>
        <time>2022-06-11T11:10:14.097Z</time>
      </trkpt>
      <trkpt lat="42.95655" lon="17.80602">
        <ele>343.450769</ele>
        <time>2022-06-11T11:10:17.023Z</time>
      </trkpt>
      <trkpt lat="42.95655" lon="17.80589">
        <ele>343.485599</ele>
        <time>2022-06-11T11:10:20.034Z</time>
      </trkpt>
      <trkpt lat="42.95653" lon="17.80574">
        <ele>343.524703</ele>
        <time>2022-06-11T11:10:24.022Z</time>
      </trkpt>
      <trkpt lat="42.95652" lon="17.80561">
        <ele>343.559347</ele>
        <time>2022-06-11T11:10:28.018Z</time>
      </trkpt>
      <trkpt lat="42.9565" lon="17.80549">
        <ele>343.592855</ele>
        <time>2022-06-11T11:10:32.028Z</time>
      </trkpt>
      <trkpt lat="42.95645" lon="17.80538">
        <ele>343.714898</ele>
        <time>2022-06-11T11:10:37.030Z</time>
      </trkpt>
      <trkpt lat="42.95639" lon="17.80529">
        <ele>343.883474</ele>
        <time>2022-06-11T11:10:42.057Z</time>
      </trkpt>
      <trkpt lat="42.95639" lon="17.80515">
        <ele>344.065394</ele>
        <time>2022-06-11T11:10:47.018Z</time>
      </trkpt>
      <trkpt lat="42.95641" lon="17.80502">
        <ele>344.238911</ele>
        <time>2022-06-11T11:10:51.025Z</time>
      </trkpt>
      <trkpt lat="42.95641" lon="17.80489">
        <ele>344.417916</ele>
        <time>2022-06-11T11:10:55.025Z</time>
      </trkpt>
      <trkpt lat="42.95641" lon="17.80476">
        <ele>344.595652</ele>
        <time>2022-06-11T11:10:59.019Z</time>
      </trkpt>
      <trkpt lat="42.95639" lon="17.80462">
        <ele>344.784031</ele>
        <time>2022-06-11T11:11:04.032Z</time>
      </trkpt>
      <trkpt lat="42.95639" lon="17.80448">
        <ele>344.970084</ele>
        <time>2022-06-11T11:11:09.023Z</time>
      </trkpt>
      <trkpt lat="42.95639" lon="17.80435">
        <ele>345.157191</ele>
        <time>2022-06-11T11:11:14.015Z</time>
      </trkpt>
      <trkpt lat="42.95641" lon="17.80422">
        <ele>345.334033</ele>
        <time>2022-06-11T11:11:18.006Z</time>
      </trkpt>
      <trkpt lat="42.95643" lon="17.80407">
        <ele>345.530338</ele>
        <time>2022-06-11T11:11:22.056Z</time>
      </trkpt>
      <trkpt lat="42.95643" lon="17.80392">
        <ele>345.733633</ele>
        <time>2022-06-11T11:11:26.023Z</time>
      </trkpt>
      <trkpt lat="42.95642" lon="17.80378">
        <ele>345.928918</ele>
        <time>2022-06-11T11:11:30.027Z</time>
      </trkpt>
      <trkpt lat="42.95644" lon="17.80365">
        <ele>346.10576</ele>
        <time>2022-06-11T11:11:33.042Z</time>
      </trkpt>
      <trkpt lat="42.95646" lon="17.80352">
        <ele>346.285356</ele>
        <time>2022-06-11T11:11:36.013Z</time>
      </trkpt>
      <trkpt lat="42.9565" lon="17.80339">
        <ele>346.469472</ele>
        <time>2022-06-11T11:11:39.049Z</time>
      </trkpt>
      <trkpt lat="42.95654" lon="17.80324">
        <ele>346.682849</ele>
        <time>2022-06-11T11:11:42.009Z</time>
      </trkpt>
      <trkpt lat="42.95655" lon="17.8031">
        <ele>346.868851</ele>
        <time>2022-06-11T11:11:45.056Z</time>
      </trkpt>
      <trkpt lat="42.95655" lon="17.80297">
        <ele>347.101064</ele>
        <time>2022-06-11T11:11:48.015Z</time>
      </trkpt>
      <trkpt lat="42.95655" lon="17.80285">
        <ele>347.354285</ele>
        <time>2022-06-11T11:11:51.022Z</time>
      </trkpt>
      <trkpt lat="42.95653" lon="17.80271">
        <ele>347.620382</ele>
        <time>2022-06-11T11:11:55.021Z</time>
      </trkpt>
      <trkpt lat="42.95651" lon="17.80258">
        <ele>347.887911</ele>
        <time>2022-06-11T11:11:59.022Z</time>
      </trkpt>
      <trkpt lat="42.9565" lon="17.80243">
        <ele>348.185625</ele>
        <time>2022-06-11T11:12:03.002Z</time>
      </trkpt>
      <trkpt lat="42.95646" lon="17.80229">
        <ele>348.488791</ele>
        <time>2022-06-11T11:12:07.020Z</time>
      </trkpt>
      <trkpt lat="42.95639" lon="17.80217">
        <ele>348.78561</ele>
        <time>2022-06-11T11:12:11.016Z</time>
      </trkpt>
      <trkpt lat="42.9563" lon="17.80209">
        <ele>349.06189</ele>
        <time>2022-06-11T11:12:15.014Z</time>
      </trkpt>
      <trkpt lat="42.95622" lon="17.80202">
        <ele>349.319153</ele>
        <time>2022-06-11T11:12:21.018Z</time>
      </trkpt>
      <trkpt lat="42.95613" lon="17.80208">
        <ele>349.592513</ele>
        <time>2022-06-11T11:21:55.027Z</time>
      </trkpt>
      <trkpt lat="42.95634" lon="17.80214">
        <ele>350.166353</ele>
        <time>2022-06-11T11:22:20.024Z</time>
      </trkpt>
      <trkpt lat="42.95644" lon="17.80222">
        <ele>350.473644</ele>
        <time>2022-06-11T11:22:24.042Z</time>
      </trkpt>
      <trkpt lat="42.9565" lon="17.80235">
        <ele>350.771757</ele>
        <time>2022-06-11T11:22:28.035Z</time>
      </trkpt>
      <trkpt lat="42.9565" lon="17.80247">
        <ele>351.026662</ele>
        <time>2022-06-11T11:22:32.030Z</time>
      </trkpt>
      <trkpt lat="42.95651" lon="17.80261">
        <ele>351.30412</ele>
        <time>2022-06-11T11:22:37.011Z</time>
      </trkpt>
      <trkpt lat="42.95652" lon="17.80277">
        <ele>351.605668</ele>
        <time>2022-06-11T11:22:42.010Z</time>
      </trkpt>
      <trkpt lat="42.95653" lon="17.8029">
        <ele>351.36772</ele>
        <time>2022-06-11T11:22:45.016Z</time>
      </trkpt>
      <trkpt lat="42.95655" lon="17.80304">
        <ele>350.292906</ele>
        <time>2022-06-11T11:22:48.018Z</time>
      </trkpt>
      <trkpt lat="42.95654" lon="17.80318">
        <ele>349.247495</ele>
        <time>2022-06-11T11:22:51.031Z</time>
      </trkpt>
      <trkpt lat="42.9565" lon="17.80331">
        <ele>348.174805</ele>
        <time>2022-06-11T11:22:55.005Z</time>
      </trkpt>
      <trkpt lat="42.95647" lon="17.80343">
        <ele>347.192582</ele>
        <time>2022-06-11T11:22:59.008Z</time>
      </trkpt>
      <trkpt lat="42.95642" lon="17.80354">
        <ele>346.182326</ele>
        <time>2022-06-11T11:23:04.004Z</time>
      </trkpt>
      <trkpt lat="42.95639" lon="17.80366">
        <ele>345.214343</ele>
        <time>2022-06-11T11:23:08.996Z</time>
      </trkpt>
      <trkpt lat="42.95638" lon="17.80381">
        <ele>344.085502</ele>
        <time>2022-06-11T11:23:15.011Z</time>
      </trkpt>
      <trkpt lat="42.95637" lon="17.80396">
        <ele>342.961505</ele>
        <time>2022-06-11T11:23:20.015Z</time>
      </trkpt>
      <trkpt lat="42.95635" lon="17.80409">
        <ele>341.977521</ele>
        <time>2022-06-11T11:23:24.015Z</time>
      </trkpt>
      <trkpt lat="42.95634" lon="17.80421">
        <ele>341.029678</ele>
        <time>2022-06-11T11:23:28.044Z</time>
      </trkpt>
      <trkpt lat="42.95634" lon="17.80434">
        <ele>340.062747</ele>
        <time>2022-06-11T11:23:32.014Z</time>
      </trkpt>
      <trkpt lat="42.95633" lon="17.80449">
        <ele>338.860894</ele>
        <time>2022-06-11T11:23:36.018Z</time>
      </trkpt>
      <trkpt lat="42.95633" lon="17.80462">
        <ele>337.879149</ele>
        <time>2022-06-11T11:23:40.025Z</time>
      </trkpt>
      <trkpt lat="42.95634" lon="17.80475">
        <ele>336.909737</ele>
        <time>2022-06-11T11:23:43.018Z</time>
      </trkpt>
      <trkpt lat="42.95634" lon="17.80489">
        <ele>335.829401</ele>
        <time>2022-06-11T11:23:46.014Z</time>
      </trkpt>
      <trkpt lat="42.95632" lon="17.80503">
        <ele>334.776227</ele>
        <time>2022-06-11T11:23:49.012Z</time>
      </trkpt>
      <trkpt lat="42.95631" lon="17.80515">
        <ele>333.828383</ele>
        <time>2022-06-11T11:23:52.007Z</time>
      </trkpt>
      <trkpt lat="42.95633" lon="17.80529">
        <ele>333.088322</ele>
        <time>2022-06-11T11:23:56.015Z</time>
      </trkpt>
      <trkpt lat="42.95638" lon="17.80542">
        <ele>333.147174</ele>
        <time>2022-06-11T11:23:58.999Z</time>
      </trkpt>
      <trkpt lat="42.95648" lon="17.80544">
        <ele>333.203489</ele>
        <time>2022-06-11T11:24:03.035Z</time>
      </trkpt>
      <trkpt lat="42.95655" lon="17.80531">
        <ele>333.26752</ele>
        <time>2022-06-11T11:24:07.009Z</time>
      </trkpt>
      <trkpt lat="42.95662" lon="17.80521">
        <ele>333.322781</ele>
        <time>2022-06-11T11:24:10.024Z</time>
      </trkpt>
      <trkpt lat="42.95672" lon="17.80511">
        <ele>333.388012</ele>
        <time>2022-06-11T11:24:13.010Z</time>
      </trkpt>
      <trkpt lat="42.95681" lon="17.805">
        <ele>333.454427</ele>
        <time>2022-06-11T11:24:16.012Z</time>
      </trkpt>
      <trkpt lat="42.9569" lon="17.8049">
        <ele>333.516521</ele>
        <time>2022-06-11T11:24:19.028Z</time>
      </trkpt>
      <trkpt lat="42.95696" lon="17.80481">
        <ele>333.566807</ele>
        <time>2022-06-11T11:24:22.023Z</time>
      </trkpt>
      <trkpt lat="42.95701" lon="17.80467">
        <ele>333.629617</ele>
        <time>2022-06-11T11:24:26.026Z</time>
      </trkpt>
      <trkpt lat="42.95703" lon="17.80455">
        <ele>333.678696</ele>
        <time>2022-06-11T11:24:29.018Z</time>
      </trkpt>
      <trkpt lat="42.95706" lon="17.80442">
        <ele>333.73359</ele>
        <time>2022-06-11T11:24:32.032Z</time>
      </trkpt>
      <trkpt lat="42.95708" lon="17.80429">
        <ele>333.786715</ele>
        <time>2022-06-11T11:24:35.013Z</time>
      </trkpt>
      <trkpt lat="42.9571" lon="17.80414">
        <ele>333.848362</ele>
        <time>2022-06-11T11:24:39.019Z</time>
      </trkpt>
      <trkpt lat="42.95712" lon="17.80401">
        <ele>333.901981</ele>
        <time>2022-06-11T11:24:43.049Z</time>
      </trkpt>
      <trkpt lat="42.95715" lon="17.80377">
        <ele>333.99925</ele>
        <time>2022-06-11T11:34:07.017Z</time>
      </trkpt>
      <trkpt lat="42.95717" lon="17.80364">
        <ele>334.052077</ele>
        <time>2022-06-11T11:34:10.000Z</time>
      </trkpt>
      <trkpt lat="42.95718" lon="17.80351">
        <ele>334.304047</ele>
        <time>2022-06-11T11:34:13.008Z</time>
      </trkpt>
      <trkpt lat="42.9572" lon="17.80338">
        <ele>334.571389</ele>
        <time>2022-06-11T11:34:15.996Z</time>
      </trkpt>
      <trkpt lat="42.95721" lon="17.80325">
        <ele>334.860918</ele>
        <time>2022-06-11T11:34:19.005Z</time>
      </trkpt>
      <trkpt lat="42.95723" lon="17.80312">
        <ele>335.13416</ele>
        <time>2022-06-11T11:34:22.005Z</time>
      </trkpt>
      <trkpt lat="42.95725" lon="17.803">
        <ele>335.391249</ele>
        <time>2022-06-11T11:34:25.007Z</time>
      </trkpt>
      <trkpt lat="42.95726" lon="17.80285">
        <ele>335.69352</ele>
        <time>2022-06-11T11:34:28.004Z</time>
      </trkpt>
      <trkpt lat="42.95728" lon="17.80271">
        <ele>335.991678</ele>
        <time>2022-06-11T11:34:31.001Z</time>
      </trkpt>
      <trkpt lat="42.95727" lon="17.80258">
        <ele>336.264287</ele>
        <time>2022-06-11T11:34:33.997Z</time>
      </trkpt>
      <trkpt lat="42.95725" lon="17.80245">
        <ele>336.546272</ele>
        <time>2022-06-11T11:34:37.013Z</time>
      </trkpt>
      <trkpt lat="42.95721" lon="17.80232">
        <ele>336.834001</ele>
        <time>2022-06-11T11:34:39.998Z</time>
      </trkpt>
      <trkpt lat="42.95716" lon="17.8022">
        <ele>337.123498</ele>
        <time>2022-06-11T11:34:43.006Z</time>
      </trkpt>
      <trkpt lat="42.95713" lon="17.80208">
        <ele>337.384042</ele>
        <time>2022-06-11T11:34:46.000Z</time>
      </trkpt>
      <trkpt lat="42.95709" lon="17.80196">
        <ele>337.64933</ele>
        <time>2022-06-11T11:34:49.011Z</time>
      </trkpt>
      <trkpt lat="42.95705" lon="17.80185">
        <ele>337.925339</ele>
        <time>2022-06-11T11:34:51.999Z</time>
      </trkpt>
      <trkpt lat="42.957" lon="17.80171">
        <ele>338.226771</ele>
        <time>2022-06-11T11:34:55.003Z</time>
      </trkpt>
      <trkpt lat="42.95697" lon="17.80159">
        <ele>338.502068</ele>
        <time>2022-06-11T11:34:57.993Z</time>
      </trkpt>
      <trkpt lat="42.95692" lon="17.80148">
        <ele>338.762144</ele>
        <time>2022-06-11T11:35:01.002Z</time>
      </trkpt>
      <trkpt lat="42.95688" lon="17.80135">
        <ele>339.056031</ele>
        <time>2022-06-11T11:35:04.993Z</time>
      </trkpt>
      <trkpt lat="42.95681" lon="17.80124">
        <ele>339.032689</ele>
        <time>2022-06-11T11:35:09.997Z</time>
      </trkpt>
      <trkpt lat="42.95679" lon="17.8011">
        <ele>338.828966</ele>
        <time>2022-06-11T11:35:13.997Z</time>
      </trkpt>
      <trkpt lat="42.95681" lon="17.80097">
        <ele>338.652862</ele>
        <time>2022-06-11T11:35:16.994Z</time>
      </trkpt>
      <trkpt lat="42.95683" lon="17.80085">
        <ele>338.475627</ele>
        <time>2022-06-11T11:35:20.996Z</time>
      </trkpt>
      <trkpt lat="42.9569" lon="17.80073">
        <ele>338.264542</ele>
        <time>2022-06-11T11:35:27.000Z</time>
      </trkpt>
      <trkpt lat="42.95698" lon="17.80066">
        <ele>338.081822</ele>
        <time>2022-06-11T11:35:30.987Z</time>
      </trkpt>
      <trkpt lat="42.95708" lon="17.80063">
        <ele>337.891581</ele>
        <time>2022-06-11T11:35:34.010Z</time>
      </trkpt>
      <trkpt lat="42.95718" lon="17.80059">
        <ele>337.701262</ele>
        <time>2022-06-11T11:35:37.004Z</time>
      </trkpt>
      <trkpt lat="42.9573" lon="17.80055">
        <ele>337.466176</ele>
        <time>2022-06-11T11:35:40.991Z</time>
      </trkpt>
      <trkpt lat="42.95739" lon="17.80051">
        <ele>337.286518</ele>
        <time>2022-06-11T11:35:43.988Z</time>
      </trkpt>
      <trkpt lat="42.95748" lon="17.80046">
        <ele>337.110388</ele>
        <time>2022-06-11T11:35:47.031Z</time>
      </trkpt>
      <trkpt lat="42.95756" lon="17.80039">
        <ele>336.920677</ele>
        <time>2022-06-11T11:35:49.997Z</time>
      </trkpt>
      <trkpt lat="42.95765" lon="17.80031">
        <ele>336.716438</ele>
        <time>2022-06-11T11:35:53.992Z</time>
      </trkpt>
      <trkpt lat="42.95774" lon="17.80023">
        <ele>336.520617</ele>
        <time>2022-06-11T11:35:57.992Z</time>
      </trkpt>
      <trkpt lat="42.95784" lon="17.80015">
        <ele>336.299208</ele>
        <time>2022-06-11T11:36:01.991Z</time>
      </trkpt>
      <trkpt lat="42.95793" lon="17.80007">
        <ele>336.101783</ele>
        <time>2022-06-11T11:36:05.990Z</time>
      </trkpt>
      <trkpt lat="42.95803" lon="17.79999">
        <ele>335.887384</ele>
        <time>2022-06-11T11:36:10.006Z</time>
      </trkpt>
      <trkpt lat="42.95812" lon="17.79991">
        <ele>335.659768</ele>
        <time>2022-06-11T11:36:14.009Z</time>
      </trkpt>
      <trkpt lat="42.9582" lon="17.79983">
        <ele>335.473171</ele>
        <time>2022-06-11T11:36:17.016Z</time>
      </trkpt>
      <trkpt lat="42.95828" lon="17.79975">
        <ele>335.272105</ele>
        <time>2022-06-11T11:36:20.019Z</time>
      </trkpt>
      <trkpt lat="42.95837" lon="17.79967">
        <ele>335.049177</ele>
        <time>2022-06-11T11:36:23.015Z</time>
      </trkpt>
      <trkpt lat="42.95845" lon="17.79959">
        <ele>334.845716</ele>
        <time>2022-06-11T11:36:26.019Z</time>
      </trkpt>
      <trkpt lat="42.95853" lon="17.79951">
        <ele>334.648797</ele>
        <time>2022-06-11T11:36:29.018Z</time>
      </trkpt>
      <trkpt lat="42.95862" lon="17.79942">
        <ele>334.417278</ele>
        <time>2022-06-11T11:36:33.007Z</time>
      </trkpt>
      <trkpt lat="42.95871" lon="17.79933">
        <ele>334.18529</ele>
        <time>2022-06-11T11:36:37.026Z</time>
      </trkpt>
      <trkpt lat="42.9588" lon="17.79926">
        <ele>333.969908</ele>
        <time>2022-06-11T11:36:41.015Z</time>
      </trkpt>
      <trkpt lat="42.9589" lon="17.79916">
        <ele>333.725299</ele>
        <time>2022-06-11T11:36:45.040Z</time>
      </trkpt>
      <trkpt lat="42.95898" lon="17.79909">
        <ele>333.533673</ele>
        <time>2022-06-11T11:36:48.021Z</time>
      </trkpt>
      <trkpt lat="42.95906" lon="17.79901">
        <ele>333.336988</ele>
        <time>2022-06-11T11:36:51.020Z</time>
      </trkpt>
      <trkpt lat="42.95914" lon="17.79893">
        <ele>333.136642</ele>
        <time>2022-06-11T11:36:53.997Z</time>
      </trkpt>
      <trkpt lat="42.95922" lon="17.79886">
        <ele>332.937296</ele>
        <time>2022-06-11T11:36:57.020Z</time>
      </trkpt>
      <trkpt lat="42.9593" lon="17.79878">
        <ele>332.740162</ele>
        <time>2022-06-11T11:37:00.013Z</time>
      </trkpt>
      <trkpt lat="42.95937" lon="17.79871">
        <ele>332.556088</ele>
        <time>2022-06-11T11:37:03.020Z</time>
      </trkpt>
      <trkpt lat="42.95945" lon="17.79863">
        <ele>332.351859</ele>
        <time>2022-06-11T11:37:06.010Z</time>
      </trkpt>
      <trkpt lat="42.95955" lon="17.79856">
        <ele>332.126739</ele>
        <time>2022-06-11T11:37:10.018Z</time>
      </trkpt>
      <trkpt lat="42.95964" lon="17.7985">
        <ele>331.685671</ele>
        <time>2022-06-11T11:37:14.022Z</time>
      </trkpt>
      <trkpt lat="42.95972" lon="17.79842">
        <ele>331.21651</ele>
        <time>2022-06-11T11:37:18.008Z</time>
      </trkpt>
      <trkpt lat="42.95981" lon="17.79835">
        <ele>330.689842</ele>
        <time>2022-06-11T11:37:22.004Z</time>
      </trkpt>
      <trkpt lat="42.95992" lon="17.79827">
        <ele>330.133687</ele>
        <time>2022-06-11T11:37:26.012Z</time>
      </trkpt>
      <trkpt lat="42.96002" lon="17.7982">
        <ele>329.556074</ele>
        <time>2022-06-11T11:37:29.993Z</time>
      </trkpt>
      <trkpt lat="42.96012" lon="17.79815">
        <ele>329.058399</ele>
        <time>2022-06-11T11:37:33.023Z</time>
      </trkpt>
      <trkpt lat="42.96024" lon="17.7981">
        <ele>328.481288</ele>
        <time>2022-06-11T11:37:36.031Z</time>
      </trkpt>
      <trkpt lat="42.96035" lon="17.79805">
        <ele>327.89924</ele>
        <time>2022-06-11T11:37:39.023Z</time>
      </trkpt>
      <trkpt lat="42.96046" lon="17.79801">
        <ele>327.374124</ele>
        <time>2022-06-11T11:37:42.011Z</time>
      </trkpt>
      <trkpt lat="42.96055" lon="17.79796">
        <ele>326.876233</ele>
        <time>2022-06-11T11:37:45.017Z</time>
      </trkpt>
      <trkpt lat="42.96065" lon="17.79792">
        <ele>326.372611</ele>
        <time>2022-06-11T11:37:48.003Z</time>
      </trkpt>
      <trkpt lat="42.96075" lon="17.79787">
        <ele>325.902982</ele>
        <time>2022-06-11T11:37:51.013Z</time>
      </trkpt>
      <trkpt lat="42.96084" lon="17.79782">
        <ele>325.410774</ele>
        <time>2022-06-11T11:37:54.025Z</time>
      </trkpt>
      <trkpt lat="42.96093" lon="17.79776">
        <ele>324.917461</ele>
        <time>2022-06-11T11:37:57.007Z</time>
      </trkpt>
      <trkpt lat="42.96102" lon="17.79768">
        <ele>324.424574</ele>
        <time>2022-06-11T11:38:00.012Z</time>
      </trkpt>
      <trkpt lat="42.9611" lon="17.7976">
        <ele>323.941573</ele>
        <time>2022-06-11T11:38:03.011Z</time>
      </trkpt>
      <trkpt lat="42.96118" lon="17.79752">
        <ele>323.477659</ele>
        <time>2022-06-11T11:38:06.025Z</time>
      </trkpt>
      <trkpt lat="42.96126" lon="17.79743">
        <ele>323.191373</ele>
        <time>2022-06-11T11:38:09.024Z</time>
      </trkpt>
      <trkpt lat="42.96135" lon="17.79733">
        <ele>322.882665</ele>
        <time>2022-06-11T11:38:12.010Z</time>
      </trkpt>
      <trkpt lat="42.96143" lon="17.79722">
        <ele>322.571402</ele>
        <time>2022-06-11T11:38:15.022Z</time>
      </trkpt>
      <trkpt lat="42.96151" lon="17.79713">
        <ele>322.275395</ele>
        <time>2022-06-11T11:38:18.010Z</time>
      </trkpt>
      <trkpt lat="42.96161" lon="17.79703">
        <ele>321.942703</ele>
        <time>2022-06-11T11:38:21.007Z</time>
      </trkpt>
      <trkpt lat="42.9617" lon="17.79694">
        <ele>321.634083</ele>
        <time>2022-06-11T11:38:24.002Z</time>
      </trkpt>
      <trkpt lat="42.9618" lon="17.79687">
        <ele>321.334259</ele>
        <time>2022-06-11T11:38:27.048Z</time>
      </trkpt>
      <trkpt lat="42.9619" lon="17.79681">
        <ele>321.025169</ele>
        <time>2022-06-11T11:38:30.017Z</time>
      </trkpt>
      <trkpt lat="42.96199" lon="17.79676">
        <ele>320.750525</ele>
        <time>2022-06-11T11:38:33.015Z</time>
      </trkpt>
      <trkpt lat="42.96209" lon="17.79669">
        <ele>320.443464</ele>
        <time>2022-06-11T11:38:37.020Z</time>
      </trkpt>
      <trkpt lat="42.96219" lon="17.79664">
        <ele>320.169404</ele>
        <time>2022-06-11T11:38:41.013Z</time>
      </trkpt>
      <trkpt lat="42.96228" lon="17.7966">
        <ele>319.901858</ele>
        <time>2022-06-11T11:38:45.005Z</time>
      </trkpt>
      <trkpt lat="42.96239" lon="17.79656">
        <ele>319.599658</ele>
        <time>2022-06-11T11:38:50.032Z</time>
      </trkpt>
      <trkpt lat="42.96249" lon="17.7965">
        <ele>319.293597</ele>
        <time>2022-06-11T11:38:55.055Z</time>
      </trkpt>
      <trkpt lat="42.96259" lon="17.79645">
        <ele>319.014862</ele>
        <time>2022-06-11T11:38:59.012Z</time>
      </trkpt>
      <trkpt lat="42.96268" lon="17.79642">
        <ele>318.744394</ele>
        <time>2022-06-11T11:39:03.025Z</time>
      </trkpt>
      <trkpt lat="42.96277" lon="17.79637">
        <ele>318.692014</ele>
        <time>2022-06-11T11:39:07.006Z</time>
      </trkpt>
      <trkpt lat="42.96288" lon="17.79634">
        <ele>319.159909</ele>
        <time>2022-06-11T11:39:11.006Z</time>
      </trkpt>
      <trkpt lat="42.96299" lon="17.79631">
        <ele>319.663776</ele>
        <time>2022-06-11T11:39:15.004Z</time>
      </trkpt>
      <trkpt lat="42.9631" lon="17.79628">
        <ele>320.150202</ele>
        <time>2022-06-11T11:39:19.007Z</time>
      </trkpt>
      <trkpt lat="42.96321" lon="17.79624">
        <ele>320.647355</ele>
        <time>2022-06-11T11:39:23.007Z</time>
      </trkpt>
      <trkpt lat="42.96331" lon="17.79621">
        <ele>321.108881</ele>
        <time>2022-06-11T11:39:26.999Z</time>
      </trkpt>
      <trkpt lat="42.96341" lon="17.79618">
        <ele>321.541787</ele>
        <time>2022-06-11T11:39:30.991Z</time>
      </trkpt>
      <trkpt lat="42.9635" lon="17.79616">
        <ele>321.937592</ele>
        <time>2022-06-11T11:39:34.998Z</time>
      </trkpt>
      <trkpt lat="42.96359" lon="17.79614">
        <ele>322.335331</ele>
        <time>2022-06-11T11:39:39.007Z</time>
      </trkpt>
      <trkpt lat="42.96369" lon="17.7961">
        <ele>322.812177</ele>
        <time>2022-06-11T11:39:43.990Z</time>
      </trkpt>
      <trkpt lat="42.96378" lon="17.79607">
        <ele>323.212413</ele>
        <time>2022-06-11T11:39:47.992Z</time>
      </trkpt>
      <trkpt lat="42.96387" lon="17.79603">
        <ele>323.644832</ele>
        <time>2022-06-11T11:39:53.017Z</time>
      </trkpt>
      <trkpt lat="42.96398" lon="17.796">
        <ele>324.115794</ele>
        <time>2022-06-11T11:39:57.998Z</time>
      </trkpt>
      <trkpt lat="42.96409" lon="17.79595">
        <ele>324.606414</ele>
        <time>2022-06-11T11:40:02.996Z</time>
      </trkpt>
      <trkpt lat="42.96419" lon="17.79591">
        <ele>325.095959</ele>
        <time>2022-06-11T11:40:08.019Z</time>
      </trkpt>
      <trkpt lat="42.9643" lon="17.79588">
        <ele>325.585926</ele>
        <time>2022-06-11T11:40:13.019Z</time>
      </trkpt>
      <trkpt lat="42.96439" lon="17.79584">
        <ele>325.988195</ele>
        <time>2022-06-11T11:40:17.058Z</time>
      </trkpt>
      <trkpt lat="42.9645" lon="17.7958">
        <ele>326.502369</ele>
        <time>2022-06-11T11:40:22.015Z</time>
      </trkpt>
      <trkpt lat="42.9646" lon="17.79575">
        <ele>327.200756</ele>
        <time>2022-06-11T11:40:27.058Z</time>
      </trkpt>
      <trkpt lat="42.96469" lon="17.79571">
        <ele>327.820339</ele>
        <time>2022-06-11T11:40:31.017Z</time>
      </trkpt>
      <trkpt lat="42.9648" lon="17.79567">
        <ele>328.496328</ele>
        <time>2022-06-11T11:40:36.029Z</time>
      </trkpt>
      <trkpt lat="42.9649" lon="17.79564">
        <ele>329.174282</ele>
        <time>2022-06-11T11:40:41.018Z</time>
      </trkpt>
      <trkpt lat="42.96501" lon="17.79561">
        <ele>329.884347</ele>
        <time>2022-06-11T11:40:46.022Z</time>
      </trkpt>
      <trkpt lat="42.96511" lon="17.79557">
        <ele>330.579138</ele>
        <time>2022-06-11T11:40:51.023Z</time>
      </trkpt>
      <trkpt lat="42.9652" lon="17.79553">
        <ele>331.157937</ele>
        <time>2022-06-11T11:40:55.005Z</time>
      </trkpt>
      <trkpt lat="42.9653" lon="17.7955">
        <ele>331.806743</ele>
        <time>2022-06-11T11:41:00.011Z</time>
      </trkpt>
      <trkpt lat="42.96539" lon="17.79545">
        <ele>332.403831</ele>
        <time>2022-06-11T11:41:04.016Z</time>
      </trkpt>
      <trkpt lat="42.96548" lon="17.79542">
        <ele>332.987666</ele>
        <time>2022-06-11T11:41:08.017Z</time>
      </trkpt>
      <trkpt lat="42.96557" lon="17.79538">
        <ele>333.579964</ele>
        <time>2022-06-11T11:41:12.016Z</time>
      </trkpt>
      <trkpt lat="42.96568" lon="17.79535">
        <ele>334.305502</ele>
        <time>2022-06-11T11:41:17.016Z</time>
      </trkpt>
      <trkpt lat="42.96577" lon="17.79533">
        <ele>334.907737</ele>
        <time>2022-06-11T11:41:21.028Z</time>
      </trkpt>
      <trkpt lat="42.96586" lon="17.79531">
        <ele>335.513277</ele>
        <time>2022-06-11T11:41:26.029Z</time>
      </trkpt>
      <trkpt lat="42.96598" lon="17.79527">
        <ele>336.294776</ele>
        <time>2022-06-11T11:41:30.014Z</time>
      </trkpt>
      <trkpt lat="42.96611" lon="17.79524">
        <ele>337.130654</ele>
        <time>2022-06-11T11:41:33.005Z</time>
      </trkpt>
      <trkpt lat="42.96621" lon="17.79523">
        <ele>337.775006</ele>
        <time>2022-06-11T11:41:35.008Z</time>
      </trkpt>
      <trkpt lat="42.96631" lon="17.79522">
        <ele>338.311421</ele>
        <time>2022-06-11T11:41:37.030Z</time>
      </trkpt>
      <trkpt lat="42.96642" lon="17.79527">
        <ele>338.989383</ele>
        <time>2022-06-11T11:41:40.036Z</time>
      </trkpt>
      <trkpt lat="42.9665" lon="17.79533">
        <ele>339.4974</ele>
        <time>2022-06-11T11:41:43.021Z</time>
      </trkpt>
      <trkpt lat="42.96654" lon="17.79545">
        <ele>340.045131</ele>
        <time>2022-06-11T11:41:49.009Z</time>
      </trkpt>
      <trkpt lat="42.96655" lon="17.79557">
        <ele>340.558333</ele>
        <time>2022-06-11T11:41:56.020Z</time>
      </trkpt>
      <trkpt lat="42.96656" lon="17.79569">
        <ele>341.071668</ele>
        <time>2022-06-11T11:42:02.019Z</time>
      </trkpt>
      <trkpt lat="42.96656" lon="17.79582">
        <ele>341.601077</ele>
        <time>2022-06-11T11:42:09.007Z</time>
      </trkpt>
      <trkpt lat="42.96653" lon="17.79594">
        <ele>342.121991</ele>
        <time>2022-06-11T11:42:16.043Z</time>
      </trkpt>
      <trkpt lat="42.9665" lon="17.79606">
        <ele>342.6393</ele>
        <time>2022-06-11T11:42:23.055Z</time>
      </trkpt>
      <trkpt lat="42.96646" lon="17.79618">
        <ele>343.1809</ele>
        <time>2022-06-11T11:42:30.002Z</time>
      </trkpt>
      <trkpt lat="42.96643" lon="17.7963">
        <ele>343.719925</ele>
        <time>2022-06-11T11:42:37.056Z</time>
      </trkpt>
      <trkpt lat="42.96653" lon="17.79631">
        <ele>344.292576</ele>
        <time>2022-06-11T11:42:46.020Z</time>
      </trkpt>
      <trkpt lat="42.96659" lon="17.79622">
        <ele>344.800787</ele>
        <time>2022-06-11T11:42:52.022Z</time>
      </trkpt>
      <trkpt lat="42.96665" lon="17.79612">
        <ele>345.35238</ele>
        <time>2022-06-11T11:43:00.010Z</time>
      </trkpt>
      <trkpt lat="42.96672" lon="17.79603">
        <ele>345.879347</ele>
        <time>2022-06-11T11:43:09.003Z</time>
      </trkpt>
      <trkpt lat="42.9668" lon="17.79595">
        <ele>346.448785</ele>
        <time>2022-06-11T11:43:17.006Z</time>
      </trkpt>
      <trkpt lat="42.96685" lon="17.79583">
        <ele>347.00991</ele>
        <time>2022-06-11T11:43:25.020Z</time>
      </trkpt>
      <trkpt lat="42.96691" lon="17.79572">
        <ele>347.580757</ele>
        <time>2022-06-11T11:43:34.022Z</time>
      </trkpt>
      <trkpt lat="42.96696" lon="17.79561">
        <ele>348.085277</ele>
        <time>2022-06-11T11:43:44.019Z</time>
      </trkpt>
      <trkpt lat="42.967" lon="17.7955">
        <ele>348.26846</ele>
        <time>2022-06-11T11:43:52.017Z</time>
      </trkpt>
      <trkpt lat="42.96703" lon="17.79538">
        <ele>348.458931</ele>
        <time>2022-06-11T11:43:59.038Z</time>
      </trkpt>
      <trkpt lat="42.96705" lon="17.79526">
        <ele>348.644946</ele>
        <time>2022-06-11T11:44:06.034Z</time>
      </trkpt>
      <trkpt lat="42.96706" lon="17.79512">
        <ele>348.84069</ele>
        <time>2022-06-11T11:44:15.029Z</time>
      </trkpt>
      <trkpt lat="42.96708" lon="17.795">
        <ele>349.039702</ele>
        <time>2022-06-11T11:44:24.016Z</time>
      </trkpt>
      <trkpt lat="42.96708" lon="17.79487">
        <ele>349.226394</ele>
        <time>2022-06-11T11:44:31.032Z</time>
      </trkpt>
      <trkpt lat="42.96704" lon="17.79475">
        <ele>349.421766</ele>
        <time>2022-06-11T11:44:39.022Z</time>
      </trkpt>
      <trkpt lat="42.96702" lon="17.79462">
        <ele>349.619774</ele>
        <time>2022-06-11T11:44:48.055Z</time>
      </trkpt>
      <trkpt lat="42.96706" lon="17.79449">
        <ele>349.820259</ele>
        <time>2022-06-11T11:44:58.023Z</time>
      </trkpt>
      <trkpt lat="42.96733" lon="17.79437">
        <ele>350.405169</ele>
        <time>2022-06-11T11:47:28.987Z</time>
      </trkpt>
      <trkpt lat="42.96742" lon="17.79434">
        <ele>350.597145</ele>
        <time>2022-06-11T11:47:30.993Z</time>
      </trkpt>
      <trkpt lat="42.96753" lon="17.79427">
        <ele>350.830258</ele>
        <time>2022-06-11T11:47:33.003Z</time>
      </trkpt>
      <trkpt lat="42.96764" lon="17.7942">
        <ele>351.092383</ele>
        <time>2022-06-11T11:47:34.998Z</time>
      </trkpt>
      <trkpt lat="42.96778" lon="17.79411">
        <ele>351.398417</ele>
        <time>2022-06-11T11:47:36.985Z</time>
      </trkpt>
      <trkpt lat="42.96794" lon="17.79404">
        <ele>351.727291</ele>
        <time>2022-06-11T11:47:38.991Z</time>
      </trkpt>
      <trkpt lat="42.9681" lon="17.79396">
        <ele>351.711843</ele>
        <time>2022-06-11T11:47:40.989Z</time>
      </trkpt>
      <trkpt lat="42.96827" lon="17.7939">
        <ele>351.695844</ele>
        <time>2022-06-11T11:47:42.997Z</time>
      </trkpt>
      <trkpt lat="42.96836" lon="17.79387">
        <ele>351.687496</ele>
        <time>2022-06-11T11:47:43.992Z</time>
      </trkpt>
      <trkpt lat="42.96845" lon="17.79383">
        <ele>351.67908</ele>
        <time>2022-06-11T11:47:45.091Z</time>
      </trkpt>
      <trkpt lat="42.96862" lon="17.79376">
        <ele>351.663512</ele>
        <time>2022-06-11T11:47:47.008Z</time>
      </trkpt>
      <trkpt lat="42.96876" lon="17.7937">
        <ele>351.650064</ele>
        <time>2022-06-11T11:47:49.031Z</time>
      </trkpt>
      <trkpt lat="42.96889" lon="17.79364">
        <ele>351.637633</ele>
        <time>2022-06-11T11:47:51.049Z</time>
      </trkpt>
      <trkpt lat="42.96901" lon="17.79358">
        <ele>351.626523</ele>
        <time>2022-06-11T11:47:53.025Z</time>
      </trkpt>
      <trkpt lat="42.9691" lon="17.79351">
        <ele>351.616608</ele>
        <time>2022-06-11T11:47:55.008Z</time>
      </trkpt>
      <trkpt lat="42.96918" lon="17.79344">
        <ele>351.608058</ele>
        <time>2022-06-11T11:47:57.005Z</time>
      </trkpt>
      <trkpt lat="42.96927" lon="17.79336">
        <ele>351.59873</ele>
        <time>2022-06-11T11:48:00.052Z</time>
      </trkpt>
      <trkpt lat="42.96936" lon="17.7933">
        <ele>351.58918</ele>
        <time>2022-06-11T11:48:04.995Z</time>
      </trkpt>
      <trkpt lat="42.96945" lon="17.79323">
        <ele>351.580305</ele>
        <time>2022-06-11T11:48:09.024Z</time>
      </trkpt>
      <trkpt lat="42.96957" lon="17.79317">
        <ele>351.568953</ele>
        <time>2022-06-11T11:48:13.024Z</time>
      </trkpt>
      <trkpt lat="42.96968" lon="17.79312">
        <ele>351.763644</ele>
        <time>2022-06-11T11:48:16.001Z</time>
      </trkpt>
      <trkpt lat="42.96979" lon="17.79308">
        <ele>352.027423</ele>
        <time>2022-06-11T11:48:19.027Z</time>
      </trkpt>
      <trkpt lat="42.96989" lon="17.79304">
        <ele>352.284366</ele>
        <time>2022-06-11T11:48:22.002Z</time>
      </trkpt>
      <trkpt lat="42.97002" lon="17.79301">
        <ele>352.580985</ele>
        <time>2022-06-11T11:48:25.014Z</time>
      </trkpt>
      <trkpt lat="42.97014" lon="17.79296">
        <ele>352.885653</ele>
        <time>2022-06-11T11:48:28.005Z</time>
      </trkpt>
      <trkpt lat="42.97025" lon="17.79292">
        <ele>353.15442</ele>
        <time>2022-06-11T11:48:31.022Z</time>
      </trkpt>
      <trkpt lat="42.97034" lon="17.79289">
        <ele>353.377431</ele>
        <time>2022-06-11T11:48:34.017Z</time>
      </trkpt>
      <trkpt lat="42.97044" lon="17.79285">
        <ele>353.602715</ele>
        <time>2022-06-11T11:48:37.024Z</time>
      </trkpt>
      <trkpt lat="42.97054" lon="17.79281">
        <ele>353.848353</ele>
        <time>2022-06-11T11:48:40.006Z</time>
      </trkpt>
      <trkpt lat="42.97064" lon="17.79276">
        <ele>354.105673</ele>
        <time>2022-06-11T11:48:43.012Z</time>
      </trkpt>
      <trkpt lat="42.97074" lon="17.7927">
        <ele>354.359543</ele>
        <time>2022-06-11T11:48:46.052Z</time>
      </trkpt>
      <trkpt lat="42.97083" lon="17.79265">
        <ele>354.597474</ele>
        <time>2022-06-11T11:48:49.019Z</time>
      </trkpt>
      <trkpt lat="42.97093" lon="17.79263">
        <ele>354.832666</ele>
        <time>2022-06-11T11:48:52.005Z</time>
      </trkpt>
      <trkpt lat="42.97104" lon="17.79263">
        <ele>355.086745</ele>
        <time>2022-06-11T11:48:55.021Z</time>
      </trkpt>
      <trkpt lat="42.97114" lon="17.79267">
        <ele>355.328308</ele>
        <time>2022-06-11T11:48:58.029Z</time>
      </trkpt>
      <trkpt lat="42.97123" lon="17.79273">
        <ele>355.549923</ele>
        <time>2022-06-11T11:49:01.014Z</time>
      </trkpt>
      <trkpt lat="42.97131" lon="17.79281">
        <ele>355.800379</ele>
        <time>2022-06-11T11:49:05.048Z</time>
      </trkpt>
      <trkpt lat="42.97137" lon="17.79293">
        <ele>356.154901</ele>
        <time>2022-06-11T11:49:09.019Z</time>
      </trkpt>
      <trkpt lat="42.97143" lon="17.79303">
        <ele>356.481082</ele>
        <time>2022-06-11T11:49:13.021Z</time>
      </trkpt>
      <trkpt lat="42.97149" lon="17.79313">
        <ele>356.822201</ele>
        <time>2022-06-11T11:49:17.028Z</time>
      </trkpt>
      <trkpt lat="42.97157" lon="17.79323">
        <ele>357.17992</ele>
        <time>2022-06-11T11:49:21.012Z</time>
      </trkpt>
      <trkpt lat="42.97164" lon="17.79331">
        <ele>357.497268</ele>
        <time>2022-06-11T11:49:25.030Z</time>
      </trkpt>
      <trkpt lat="42.97173" lon="17.79339">
        <ele>357.859859</ele>
        <time>2022-06-11T11:49:30.045Z</time>
      </trkpt>
      <trkpt lat="42.97182" lon="17.79344">
        <ele>358.180486</ele>
        <time>2022-06-11T11:49:34.015Z</time>
      </trkpt>
      <trkpt lat="42.97192" lon="17.79349">
        <ele>358.55397</ele>
        <time>2022-06-11T11:49:39.024Z</time>
      </trkpt>
      <trkpt lat="42.97201" lon="17.79352">
        <ele>358.891817</ele>
        <time>2022-06-11T11:49:43.994Z</time>
      </trkpt>
      <trkpt lat="42.9721" lon="17.79357">
        <ele>359.220672</ele>
        <time>2022-06-11T11:49:48.993Z</time>
      </trkpt>
      <trkpt lat="42.97221" lon="17.79362">
        <ele>359.600512</ele>
        <time>2022-06-11T11:49:53.995Z</time>
      </trkpt>
      <trkpt lat="42.97229" lon="17.79367">
        <ele>359.922854</ele>
        <time>2022-06-11T11:49:58.015Z</time>
      </trkpt>
      <trkpt lat="42.9724" lon="17.79372">
        <ele>360.295467</ele>
        <time>2022-06-11T11:50:02.997Z</time>
      </trkpt>
      <trkpt lat="42.9725" lon="17.79377">
        <ele>360.675763</ele>
        <time>2022-06-11T11:50:08.020Z</time>
      </trkpt>
      <trkpt lat="42.9726" lon="17.79382">
        <ele>361.047512</ele>
        <time>2022-06-11T11:50:13.014Z</time>
      </trkpt>
      <trkpt lat="42.9727" lon="17.79385">
        <ele>361.390989</ele>
        <time>2022-06-11T11:50:18.045Z</time>
      </trkpt>
      <trkpt lat="42.9728" lon="17.79385">
        <ele>361.730638</ele>
        <time>2022-06-11T11:50:24.026Z</time>
      </trkpt>
      <trkpt lat="42.9729" lon="17.79384">
        <ele>362.224459</ele>
        <time>2022-06-11T11:50:30.021Z</time>
      </trkpt>
      <trkpt lat="42.97299" lon="17.79383">
        <ele>362.956175</ele>
        <time>2022-06-11T11:50:35.024Z</time>
      </trkpt>
      <trkpt lat="42.97308" lon="17.79383">
        <ele>363.674355</ele>
        <time>2022-06-11T11:50:40.034Z</time>
      </trkpt>
      <trkpt lat="42.97319" lon="17.79382">
        <ele>364.510118</ele>
        <time>2022-06-11T11:50:46.015Z</time>
      </trkpt>
      <trkpt lat="42.97329" lon="17.79384">
        <ele>365.282795</ele>
        <time>2022-06-11T11:50:52.022Z</time>
      </trkpt>
      <trkpt lat="42.97339" lon="17.79385">
        <ele>366.088142</ele>
        <time>2022-06-11T11:50:58.039Z</time>
      </trkpt>
      <trkpt lat="42.9735" lon="17.79383">
        <ele>366.914957</ele>
        <time>2022-06-11T11:51:04.014Z</time>
      </trkpt>
      <trkpt lat="42.97359" lon="17.79382">
        <ele>367.626455</ele>
        <time>2022-06-11T11:51:09.017Z</time>
      </trkpt>
      <trkpt lat="42.97368" lon="17.79382">
        <ele>368.329046</ele>
        <time>2022-06-11T11:51:14.024Z</time>
      </trkpt>
      <trkpt lat="42.97377" lon="17.7938">
        <ele>369.066822</ele>
        <time>2022-06-11T11:51:20.015Z</time>
      </trkpt>
      <trkpt lat="42.97387" lon="17.79378">
        <ele>369.820984</ele>
        <time>2022-06-11T11:51:26.015Z</time>
      </trkpt>
      <trkpt lat="42.97396" lon="17.79374">
        <ele>370.552345</ele>
        <time>2022-06-11T11:51:32.014Z</time>
      </trkpt>
      <trkpt lat="42.97406" lon="17.7937">
        <ele>371.362586</ele>
        <time>2022-06-11T11:51:38.024Z</time>
      </trkpt>
      <trkpt lat="42.97415" lon="17.79366">
        <ele>372.106844</ele>
        <time>2022-06-11T11:51:43.025Z</time>
      </trkpt>
      <trkpt lat="42.97424" lon="17.79363">
        <ele>372.830004</ele>
        <time>2022-06-11T11:51:48.017Z</time>
      </trkpt>
      <trkpt lat="42.97433" lon="17.79358">
        <ele>373.624305</ele>
        <time>2022-06-11T11:51:54.014Z</time>
      </trkpt>
      <trkpt lat="42.97443" lon="17.79354">
        <ele>374.422709</ele>
        <time>2022-06-11T11:52:01.024Z</time>
      </trkpt>
      <trkpt lat="42.97452" lon="17.79351">
        <ele>375.130667</ele>
        <time>2022-06-11T11:52:07.023Z</time>
      </trkpt>
      <trkpt lat="42.97461" lon="17.79346">
        <ele>375.91743</ele>
        <time>2022-06-11T11:52:14.046Z</time>
      </trkpt>
      <trkpt lat="42.9747" lon="17.79342">
        <ele>376.242904</ele>
        <time>2022-06-11T11:52:21.027Z</time>
      </trkpt>
      <trkpt lat="42.97479" lon="17.7934">
        <ele>376.511653</ele>
        <time>2022-06-11T11:52:27.054Z</time>
      </trkpt>
      <trkpt lat="42.9749" lon="17.79338">
        <ele>376.817698</ele>
        <time>2022-06-11T11:52:34.026Z</time>
      </trkpt>
      <trkpt lat="42.975" lon="17.79337">
        <ele>377.134843</ele>
        <time>2022-06-11T11:52:41.015Z</time>
      </trkpt>
      <trkpt lat="42.9751" lon="17.79337">
        <ele>377.403566</ele>
        <time>2022-06-11T11:52:46.007Z</time>
      </trkpt>
      <trkpt lat="42.97519" lon="17.79335">
        <ele>377.670484</ele>
        <time>2022-06-11T11:52:50.992Z</time>
      </trkpt>
      <trkpt lat="42.97528" lon="17.79331">
        <ele>377.965071</ele>
        <time>2022-06-11T11:52:57.013Z</time>
      </trkpt>
      <trkpt lat="42.97537" lon="17.79328">
        <ele>378.245044</ele>
        <time>2022-06-11T11:53:03.991Z</time>
      </trkpt>
      <trkpt lat="42.97548" lon="17.79327">
        <ele>378.540532</ele>
        <time>2022-06-11T11:53:09.988Z</time>
      </trkpt>
      <trkpt lat="42.97557" lon="17.79327">
        <ele>378.812048</ele>
        <time>2022-06-11T11:53:15.006Z</time>
      </trkpt>
      <trkpt lat="42.97566" lon="17.79327">
        <ele>379.080711</ele>
        <time>2022-06-11T11:53:21.011Z</time>
      </trkpt>
      <trkpt lat="42.97576" lon="17.79327">
        <ele>379.366887</ele>
        <time>2022-06-11T11:53:27.001Z</time>
      </trkpt>
      <trkpt lat="42.97585" lon="17.79328">
        <ele>379.641985</ele>
        <time>2022-06-11T11:53:33.994Z</time>
      </trkpt>
      <trkpt lat="42.97595" lon="17.79331">
        <ele>379.935177</ele>
        <time>2022-06-11T11:53:43.994Z</time>
      </trkpt>
      <trkpt lat="42.97605" lon="17.79334">
        <ele>380.218455</ele>
        <time>2022-06-11T11:53:53.011Z</time>
      </trkpt>
      <trkpt lat="42.97614" lon="17.79339">
        <ele>380.508675</ele>
        <time>2022-06-11T11:53:59.996Z</time>
      </trkpt>
      <trkpt lat="42.97624" lon="17.79343">
        <ele>380.823721</ele>
        <time>2022-06-11T11:54:05.994Z</time>
      </trkpt>
      <trkpt lat="42.97633" lon="17.79349">
        <ele>381.122156</ele>
        <time>2022-06-11T11:54:10.990Z</time>
      </trkpt>
      <trkpt lat="42.97643" lon="17.79356">
        <ele>381.240253</ele>
        <time>2022-06-11T11:54:14.995Z</time>
      </trkpt>
      <trkpt lat="42.97651" lon="17.79363">
        <ele>381.221789</ele>
        <time>2022-06-11T11:54:17.989Z</time>
      </trkpt>
      <trkpt lat="42.97659" lon="17.79371">
        <ele>381.201593</ele>
        <time>2022-06-11T11:54:21.001Z</time>
      </trkpt>
      <trkpt lat="42.97668" lon="17.7938">
        <ele>381.180904</ele>
        <time>2022-06-11T11:54:23.998Z</time>
      </trkpt>
      <trkpt lat="42.97677" lon="17.79387">
        <ele>381.159629</ele>
        <time>2022-06-11T11:54:27.034Z</time>
      </trkpt>
      <trkpt lat="42.97687" lon="17.79394">
        <ele>381.136893</ele>
        <time>2022-06-11T11:54:29.993Z</time>
      </trkpt>
      <trkpt lat="42.97697" lon="17.79402">
        <ele>381.114068</ele>
        <time>2022-06-11T11:54:33.002Z</time>
      </trkpt>
      <trkpt lat="42.97704" lon="17.79412">
        <ele>381.092934</ele>
        <time>2022-06-11T11:54:35.990Z</time>
      </trkpt>
      <trkpt lat="42.97711" lon="17.79423">
        <ele>381.073186</ele>
        <time>2022-06-11T11:54:38.994Z</time>
      </trkpt>
      <trkpt lat="42.97718" lon="17.79432">
        <ele>381.054082</ele>
        <time>2022-06-11T11:54:41.989Z</time>
      </trkpt>
      <trkpt lat="42.97725" lon="17.7944">
        <ele>381.034562</ele>
        <time>2022-06-11T11:54:45.007Z</time>
      </trkpt>
      <trkpt lat="42.97732" lon="17.79449">
        <ele>381.016086</ele>
        <time>2022-06-11T11:54:47.996Z</time>
      </trkpt>
      <trkpt lat="42.97741" lon="17.79461">
        <ele>380.992341</ele>
        <time>2022-06-11T11:54:51.990Z</time>
      </trkpt>
      <trkpt lat="42.97749" lon="17.79468">
        <ele>380.972073</ele>
        <time>2022-06-11T11:54:55.017Z</time>
      </trkpt>
      <trkpt lat="42.9776" lon="17.79474">
        <ele>380.949536</ele>
        <time>2022-06-11T11:54:58.995Z</time>
      </trkpt>
      <trkpt lat="42.9777" lon="17.79475">
        <ele>380.929185</ele>
        <time>2022-06-11T11:55:03.007Z</time>
      </trkpt>
      <trkpt lat="42.9778" lon="17.79478">
        <ele>380.908964</ele>
        <time>2022-06-11T11:55:06.999Z</time>
      </trkpt>
      <trkpt lat="42.97791" lon="17.7948">
        <ele>381.13251</ele>
        <time>2022-06-11T11:55:11.003Z</time>
      </trkpt>
      <trkpt lat="42.97803" lon="17.79479">
        <ele>381.664498</ele>
        <time>2022-06-11T11:55:14.994Z</time>
      </trkpt>
      <trkpt lat="42.97813" lon="17.79477">
        <ele>382.103788</ele>
        <time>2022-06-11T11:55:17.991Z</time>
      </trkpt>
      <trkpt lat="42.97822" lon="17.79478">
        <ele>382.515473</ele>
        <time>2022-06-11T11:55:20.999Z</time>
      </trkpt>
      <trkpt lat="42.97832" lon="17.7948">
        <ele>382.926693</ele>
        <time>2022-06-11T11:55:24.007Z</time>
      </trkpt>
      <trkpt lat="42.97841" lon="17.79483">
        <ele>383.34936</ele>
        <time>2022-06-11T11:55:26.986Z</time>
      </trkpt>
      <trkpt lat="42.97851" lon="17.79487">
        <ele>383.808699</ele>
        <time>2022-06-11T11:55:31.001Z</time>
      </trkpt>
      <trkpt lat="42.9786" lon="17.7949">
        <ele>384.227825</ele>
        <time>2022-06-11T11:55:35.006Z</time>
      </trkpt>
      <trkpt lat="42.9787" lon="17.79492">
        <ele>384.65689</ele>
        <time>2022-06-11T11:55:38.993Z</time>
      </trkpt>
      <trkpt lat="42.9788" lon="17.79491">
        <ele>385.113637</ele>
        <time>2022-06-11T11:55:42.994Z</time>
      </trkpt>
      <trkpt lat="42.97889" lon="17.79488">
        <ele>385.519105</ele>
        <time>2022-06-11T11:55:46.992Z</time>
      </trkpt>
      <trkpt lat="42.97897" lon="17.79479">
        <ele>385.981171</ele>
        <time>2022-06-11T11:55:51.997Z</time>
      </trkpt>
      <trkpt lat="42.97908" lon="17.79473">
        <ele>386.478971</ele>
        <time>2022-06-11T11:55:57.027Z</time>
      </trkpt>
      <trkpt lat="42.97918" lon="17.79473">
        <ele>386.952806</ele>
        <time>2022-06-11T11:56:01.990Z</time>
      </trkpt>
      <trkpt lat="42.97927" lon="17.79479">
        <ele>387.383521</ele>
        <time>2022-06-11T11:56:05.994Z</time>
      </trkpt>
      <trkpt lat="42.97937" lon="17.79484">
        <ele>387.85758</ele>
        <time>2022-06-11T11:56:11.021Z</time>
      </trkpt>
      <trkpt lat="42.97946" lon="17.79485">
        <ele>388.263842</ele>
        <time>2022-06-11T11:56:16.056Z</time>
      </trkpt>
      <trkpt lat="42.97956" lon="17.79484">
        <ele>388.675404</ele>
        <time>2022-06-11T11:56:22.020Z</time>
      </trkpt>
      <trkpt lat="42.97965" lon="17.79479">
        <ele>389.074981</ele>
        <time>2022-06-11T11:56:27.044Z</time>
      </trkpt>
      <trkpt lat="42.97975" lon="17.79475">
        <ele>389.490283</ele>
        <time>2022-06-11T11:56:33.049Z</time>
      </trkpt>
      <trkpt lat="42.97984" lon="17.79472">
        <ele>389.855287</ele>
        <time>2022-06-11T11:56:38.020Z</time>
      </trkpt>
      <trkpt lat="42.97994" lon="17.79469">
        <ele>390.284458</ele>
        <time>2022-06-11T11:56:44.012Z</time>
      </trkpt>
      <trkpt lat="42.98003" lon="17.79465">
        <ele>390.648824</ele>
        <time>2022-06-11T11:56:49.060Z</time>
      </trkpt>
      <trkpt lat="42.98012" lon="17.7946">
        <ele>391.05122</ele>
        <time>2022-06-11T11:56:55.012Z</time>
      </trkpt>
      <trkpt lat="42.98021" lon="17.79456">
        <ele>391.441958</ele>
        <time>2022-06-11T11:57:00.045Z</time>
      </trkpt>
      <trkpt lat="42.9803" lon="17.79452">
        <ele>391.804558</ele>
        <time>2022-06-11T11:57:05.027Z</time>
      </trkpt>
      <trkpt lat="42.9804" lon="17.79446">
        <ele>392.222894</ele>
        <time>2022-06-11T11:57:11.028Z</time>
      </trkpt>
      <trkpt lat="42.98049" lon="17.79443">
        <ele>392.592351</ele>
        <time>2022-06-11T11:57:16.019Z</time>
      </trkpt>
      <trkpt lat="42.98059" lon="17.79439">
        <ele>393.015765</ele>
        <time>2022-06-11T11:57:22.030Z</time>
      </trkpt>
      <trkpt lat="42.98068" lon="17.79436">
        <ele>393.400583</ele>
        <time>2022-06-11T11:57:28.020Z</time>
      </trkpt>
      <trkpt lat="42.98079" lon="17.79431">
        <ele>393.841357</ele>
        <time>2022-06-11T11:57:34.015Z</time>
      </trkpt>
      <trkpt lat="42.98089" lon="17.79429">
        <ele>394.243739</ele>
        <time>2022-06-11T11:57:40.023Z</time>
      </trkpt>
      <trkpt lat="42.98099" lon="17.79426">
        <ele>394.672458</ele>
        <time>2022-06-11T11:57:46.051Z</time>
      </trkpt>
      <trkpt lat="42.9811" lon="17.79423">
        <ele>395.095899</ele>
        <time>2022-06-11T11:57:52.047Z</time>
      </trkpt>
      <trkpt lat="42.9812" lon="17.79419">
        <ele>395.5123</ele>
        <time>2022-06-11T11:57:59.020Z</time>
      </trkpt>
      <trkpt lat="42.9813" lon="17.79418">
        <ele>395.936874</ele>
        <time>2022-06-11T11:58:05.032Z</time>
      </trkpt>
      <trkpt lat="42.98141" lon="17.7942">
        <ele>396.639368</ele>
        <time>2022-06-11T11:58:11.029Z</time>
      </trkpt>
      <trkpt lat="42.98151" lon="17.79421">
        <ele>397.381479</ele>
        <time>2022-06-11T11:58:17.020Z</time>
      </trkpt>
      <trkpt lat="42.9816" lon="17.79425">
        <ele>398.118146</ele>
        <time>2022-06-11T11:58:23.016Z</time>
      </trkpt>
      <trkpt lat="42.9817" lon="17.7943">
        <ele>398.915567</ele>
        <time>2022-06-11T11:58:29.022Z</time>
      </trkpt>
      <trkpt lat="42.98179" lon="17.79436">
        <ele>399.595247</ele>
        <time>2022-06-11T11:58:35.026Z</time>
      </trkpt>
      <trkpt lat="42.98189" lon="17.79437">
        <ele>400.33069</ele>
        <time>2022-06-11T11:58:43.049Z</time>
      </trkpt>
      <trkpt lat="42.98199" lon="17.79438">
        <ele>401.060577</ele>
        <time>2022-06-11T11:58:51.019Z</time>
      </trkpt>
      <trkpt lat="42.98208" lon="17.79437">
        <ele>401.754186</ele>
        <time>2022-06-11T11:58:58.019Z</time>
      </trkpt>
      <trkpt lat="42.98217" lon="17.79436">
        <ele>402.426681</ele>
        <time>2022-06-11T11:59:05.022Z</time>
      </trkpt>
      <trkpt lat="42.98227" lon="17.79437">
        <ele>403.149742</ele>
        <time>2022-06-11T11:59:13.005Z</time>
      </trkpt>
      <trkpt lat="42.98236" lon="17.79437">
        <ele>403.83531</ele>
        <time>2022-06-11T11:59:20.017Z</time>
      </trkpt>
      <trkpt lat="42.98245" lon="17.79439">
        <ele>404.498451</ele>
        <time>2022-06-11T11:59:28.053Z</time>
      </trkpt>
      <trkpt lat="42.98254" lon="17.79444">
        <ele>405.202923</ele>
        <time>2022-06-11T11:59:36.017Z</time>
      </trkpt>
      <trkpt lat="42.98261" lon="17.79453">
        <ele>405.905734</ele>
        <time>2022-06-11T11:59:45.031Z</time>
      </trkpt>
      <trkpt lat="42.98267" lon="17.79462">
        <ele>406.583853</ele>
        <time>2022-06-11T11:59:53.002Z</time>
      </trkpt>
      <trkpt lat="42.98275" lon="17.7947">
        <ele>407.300008</ele>
        <time>2022-06-11T12:00:02.013Z</time>
      </trkpt>
      <trkpt lat="42.98283" lon="17.79475">
        <ele>407.964033</ele>
        <time>2022-06-11T12:00:10.010Z</time>
      </trkpt>
      <trkpt lat="42.98291" lon="17.79483">
        <ele>408.639843</ele>
        <time>2022-06-11T12:00:18.021Z</time>
      </trkpt>
      <trkpt lat="42.98307" lon="17.795">
        <ele>410.757538</ele>
        <time>2022-06-11T12:03:05.024Z</time>
      </trkpt>
      <trkpt lat="42.98314" lon="17.79508">
        <ele>411.864556</ele>
        <time>2022-06-11T12:03:12.023Z</time>
      </trkpt>
      <trkpt lat="42.9832" lon="17.79517">
        <ele>412.978702</ele>
        <time>2022-06-11T12:03:20.023Z</time>
      </trkpt>
      <trkpt lat="42.98327" lon="17.79524">
        <ele>414.087129</ele>
        <time>2022-06-11T12:03:28.020Z</time>
      </trkpt>
      <trkpt lat="42.9833" lon="17.79537">
        <ele>415.230373</ele>
        <time>2022-06-11T12:03:38.028Z</time>
      </trkpt>
      <trkpt lat="42.98329" lon="17.79549">
        <ele>416.341555</ele>
        <time>2022-06-11T12:03:49.013Z</time>
      </trkpt>
      <trkpt lat="42.9833" lon="17.79561">
        <ele>417.447641</ele>
        <time>2022-06-11T12:04:00.016Z</time>
      </trkpt>
      <trkpt lat="42.98336" lon="17.79571">
        <ele>418.584035</ele>
        <time>2022-06-11T12:04:09.018Z</time>
      </trkpt>
      <trkpt lat="42.98344" lon="17.79579">
        <ele>419.821134</ele>
        <time>2022-06-11T12:04:18.014Z</time>
      </trkpt>
      <trkpt lat="42.98353" lon="17.79584">
        <ele>420.956876</ele>
        <time>2022-06-11T12:04:25.015Z</time>
      </trkpt>
      <trkpt lat="42.98361" lon="17.7959">
        <ele>422.147915</ele>
        <time>2022-06-11T12:04:35.025Z</time>
      </trkpt>
      <trkpt lat="42.98369" lon="17.79598">
        <ele>423.299141</ele>
        <time>2022-06-11T12:04:47.016Z</time>
      </trkpt>
      <trkpt lat="42.98376" lon="17.79607">
        <ele>424.48757</ele>
        <time>2022-06-11T12:04:57.014Z</time>
      </trkpt>
      <trkpt lat="42.98384" lon="17.79613">
        <ele>425.62524</ele>
        <time>2022-06-11T12:05:06.022Z</time>
      </trkpt>
      <trkpt lat="42.98392" lon="17.7962">
        <ele>426.844623</ele>
        <time>2022-06-11T12:05:16.024Z</time>
      </trkpt>
      <trkpt lat="42.98399" lon="17.79629">
        <ele>427.965148</ele>
        <time>2022-06-11T12:05:25.018Z</time>
      </trkpt>
      <trkpt lat="42.98405" lon="17.79638">
        <ele>429.072937</ele>
        <time>2022-06-11T12:05:35.052Z</time>
      </trkpt>
      <trkpt lat="42.9841" lon="17.7965">
        <ele>430.283683</ele>
        <time>2022-06-11T12:05:45.019Z</time>
      </trkpt>
      <trkpt lat="42.9841" lon="17.79663">
        <ele>431.446806</ele>
        <time>2022-06-11T12:05:55.048Z</time>
      </trkpt>
      <trkpt lat="42.9841" lon="17.79676">
        <ele>432.337261</ele>
        <time>2022-06-11T12:06:05.017Z</time>
      </trkpt>
      <trkpt lat="42.98409" lon="17.79689">
        <ele>433.262228</ele>
        <time>2022-06-11T12:06:15.038Z</time>
      </trkpt>
      <trkpt lat="42.98407" lon="17.79701">
        <ele>434.171444</ele>
        <time>2022-06-11T12:06:26.019Z</time>
      </trkpt>
      <trkpt lat="42.98406" lon="17.79715">
        <ele>435.119142</ele>
        <time>2022-06-11T12:06:36.023Z</time>
      </trkpt>
      <trkpt lat="42.98405" lon="17.79728">
        <ele>436.023581</ele>
        <time>2022-06-11T12:06:44.020Z</time>
      </trkpt>
      <trkpt lat="42.98404" lon="17.79741">
        <ele>436.967648</ele>
        <time>2022-06-11T12:06:54.015Z</time>
      </trkpt>
      <trkpt lat="42.984" lon="17.79753">
        <ele>437.880595</ele>
        <time>2022-06-11T12:07:02.015Z</time>
      </trkpt>
      <trkpt lat="42.98395" lon="17.79764">
        <ele>438.811208</ele>
        <time>2022-06-11T12:07:12.021Z</time>
      </trkpt>
      <trkpt lat="42.98392" lon="17.79776">
        <ele>439.705448</ele>
        <time>2022-06-11T12:07:20.026Z</time>
      </trkpt>
      <trkpt lat="42.98385" lon="17.79786">
        <ele>440.622722</ele>
        <time>2022-06-11T12:07:29.044Z</time>
      </trkpt>
      <trkpt lat="42.98381" lon="17.79797">
        <ele>441.48486</ele>
        <time>2022-06-11T12:07:39.028Z</time>
      </trkpt>
      <trkpt lat="42.98375" lon="17.79806">
        <ele>442.372146</ele>
        <time>2022-06-11T12:07:48.018Z</time>
      </trkpt>
      <trkpt lat="42.9837" lon="17.79817">
        <ele>443.289866</ele>
        <time>2022-06-11T12:08:00.025Z</time>
      </trkpt>
      <trkpt lat="42.98364" lon="17.79826">
        <ele>444.162361</ele>
        <time>2022-06-11T12:08:07.010Z</time>
      </trkpt>
      <trkpt lat="42.98358" lon="17.79838">
        <ele>445.123106</ele>
        <time>2022-06-11T12:08:17.015Z</time>
      </trkpt>
      <trkpt lat="42.98352" lon="17.79847">
        <ele>445.99421</ele>
        <time>2022-06-11T12:08:24.048Z</time>
      </trkpt>
      <trkpt lat="42.98348" lon="17.79859">
        <ele>446.944567</ele>
        <time>2022-06-11T12:08:35.048Z</time>
      </trkpt>
      <trkpt lat="42.98344" lon="17.79871">
        <ele>447.852864</ele>
        <time>2022-06-11T12:08:43.022Z</time>
      </trkpt>
      <trkpt lat="42.98339" lon="17.79883">
        <ele>448.722259</ele>
        <time>2022-06-11T12:08:52.059Z</time>
      </trkpt>
      <trkpt lat="42.98336" lon="17.79895">
        <ele>449.343784</ele>
        <time>2022-06-11T12:09:04.020Z</time>
      </trkpt>
      <trkpt lat="42.98334" lon="17.79907">
        <ele>449.929039</ele>
        <time>2022-06-11T12:09:10.020Z</time>
      </trkpt>
      <trkpt lat="42.98331" lon="17.7992">
        <ele>450.546003</ele>
        <time>2022-06-11T12:09:16.040Z</time>
      </trkpt>
      <trkpt lat="42.98328" lon="17.79933">
        <ele>451.202618</ele>
        <time>2022-06-11T12:09:22.020Z</time>
      </trkpt>
      <trkpt lat="42.98325" lon="17.79945">
        <ele>451.790181</ele>
        <time>2022-06-11T12:09:28.025Z</time>
      </trkpt>
      <trkpt lat="42.98322" lon="17.79957">
        <ele>452.422663</ele>
        <time>2022-06-11T12:09:35.022Z</time>
      </trkpt>
      <trkpt lat="42.98319" lon="17.7997">
        <ele>453.043696</ele>
        <time>2022-06-11T12:09:42.009Z</time>
      </trkpt>
      <trkpt lat="42.98317" lon="17.79982">
        <ele>453.654551</ele>
        <time>2022-06-11T12:09:49.021Z</time>
      </trkpt>
      <trkpt lat="42.98313" lon="17.79994">
        <ele>454.276856</ele>
        <time>2022-06-11T12:09:56.034Z</time>
      </trkpt>
      <trkpt lat="42.9831" lon="17.80007">
        <ele>454.896908</ele>
        <time>2022-06-11T12:10:03.022Z</time>
      </trkpt>
      <trkpt lat="42.98308" lon="17.8002">
        <ele>455.525531</ele>
        <time>2022-06-11T12:10:10.010Z</time>
      </trkpt>
      <trkpt lat="42.98304" lon="17.80031">
        <ele>456.131443</ele>
        <time>2022-06-11T12:10:16.017Z</time>
      </trkpt>
      <trkpt lat="42.98302" lon="17.80045">
        <ele>456.804099</ele>
        <time>2022-06-11T12:10:23.015Z</time>
      </trkpt>
      <trkpt lat="42.98299" lon="17.80059">
        <ele>457.467634</ele>
        <time>2022-06-11T12:10:29.024Z</time>
      </trkpt>
      <trkpt lat="42.98296" lon="17.80072">
        <ele>458.127236</ele>
        <time>2022-06-11T12:10:35.030Z</time>
      </trkpt>
      <trkpt lat="42.98293" lon="17.80085">
        <ele>458.777787</ele>
        <time>2022-06-11T12:10:41.028Z</time>
      </trkpt>
      <trkpt lat="42.98291" lon="17.80098">
        <ele>459.398991</ele>
        <time>2022-06-11T12:10:47.019Z</time>
      </trkpt>
      <trkpt lat="42.98289" lon="17.80112">
        <ele>460.0555</ele>
        <time>2022-06-11T12:10:53.026Z</time>
      </trkpt>
      <trkpt lat="42.98286" lon="17.80125">
        <ele>460.228935</ele>
        <time>2022-06-11T12:10:59.057Z</time>
      </trkpt>
      <trkpt lat="42.98282" lon="17.80137">
        <ele>460.231574</ele>
        <time>2022-06-11T12:11:05.047Z</time>
      </trkpt>
      <trkpt lat="42.98278" lon="17.80149">
        <ele>460.233963</ele>
        <time>2022-06-11T12:11:10.019Z</time>
      </trkpt>
      <trkpt lat="42.98275" lon="17.80161">
        <ele>460.236451</ele>
        <time>2022-06-11T12:11:16.052Z</time>
      </trkpt>
      <trkpt lat="42.98273" lon="17.80173">
        <ele>460.238994</ele>
        <time>2022-06-11T12:11:23.017Z</time>
      </trkpt>
      <trkpt lat="42.9827" lon="17.80186">
        <ele>460.241416</ele>
        <time>2022-06-11T12:11:29.013Z</time>
      </trkpt>
      <trkpt lat="42.98268" lon="17.80198">
        <ele>460.243868</ele>
        <time>2022-06-11T12:11:35.030Z</time>
      </trkpt>
      <trkpt lat="42.98266" lon="17.8021">
        <ele>460.246301</ele>
        <time>2022-06-11T12:11:41.029Z</time>
      </trkpt>
      <trkpt lat="42.98263" lon="17.80224">
        <ele>460.249095</ele>
        <time>2022-06-11T12:11:48.998Z</time>
      </trkpt>
      <trkpt lat="42.98261" lon="17.80238">
        <ele>460.251814</ele>
        <time>2022-06-11T12:11:53.999Z</time>
      </trkpt>
      <trkpt lat="42.98261" lon="17.80252">
        <ele>460.254518</ele>
        <time>2022-06-11T12:11:57.998Z</time>
      </trkpt>
      <trkpt lat="42.98262" lon="17.80266">
        <ele>460.257241</ele>
        <time>2022-06-11T12:12:01.017Z</time>
      </trkpt>
      <trkpt lat="42.98262" lon="17.8028">
        <ele>460.260052</ele>
        <time>2022-06-11T12:12:05.006Z</time>
      </trkpt>
      <trkpt lat="42.98263" lon="17.80293">
        <ele>460.262576</ele>
        <time>2022-06-11T12:12:09.032Z</time>
      </trkpt>
      <trkpt lat="42.98266" lon="17.80306">
        <ele>460.265067</ele>
        <time>2022-06-11T12:12:12.997Z</time>
      </trkpt>
      <trkpt lat="42.98268" lon="17.80319">
        <ele>460.267689</ele>
        <time>2022-06-11T12:12:17.007Z</time>
      </trkpt>
      <trkpt lat="42.98267" lon="17.80334">
        <ele>460.270608</ele>
        <time>2022-06-11T12:12:22.009Z</time>
      </trkpt>
      <trkpt lat="42.98267" lon="17.80347">
        <ele>460.273083</ele>
        <time>2022-06-11T12:12:25.992Z</time>
      </trkpt>
      <trkpt lat="42.98265" lon="17.80361">
        <ele>459.864698</ele>
        <time>2022-06-11T12:12:29.995Z</time>
      </trkpt>
      <trkpt lat="42.98266" lon="17.80374">
        <ele>459.191806</ele>
        <time>2022-06-11T12:12:35.013Z</time>
      </trkpt>
      <trkpt lat="42.98267" lon="17.80386">
        <ele>458.50874</ele>
        <time>2022-06-11T12:12:38.992Z</time>
      </trkpt>
      <trkpt lat="42.98268" lon="17.804">
        <ele>457.762743</ele>
        <time>2022-06-11T12:12:42.999Z</time>
      </trkpt>
      <trkpt lat="42.98271" lon="17.80414">
        <ele>456.971123</ele>
        <time>2022-06-11T12:12:47.002Z</time>
      </trkpt>
      <trkpt lat="42.98277" lon="17.80426">
        <ele>456.180911</ele>
        <time>2022-06-11T12:12:51.006Z</time>
      </trkpt>
      <trkpt lat="42.98282" lon="17.80435">
        <ele>455.504895</ele>
        <time>2022-06-11T12:12:52.993Z</time>
      </trkpt>
      <trkpt lat="42.98291" lon="17.80445">
        <ele>454.659995</ele>
        <time>2022-06-11T12:12:54.999Z</time>
      </trkpt>
      <trkpt lat="42.98302" lon="17.80454">
        <ele>453.728264</ele>
        <time>2022-06-11T12:12:56.998Z</time>
      </trkpt>
      <trkpt lat="42.98313" lon="17.80465">
        <ele>452.685412</ele>
        <time>2022-06-11T12:12:59.002Z</time>
      </trkpt>
      <trkpt lat="42.98325" lon="17.80477">
        <ele>451.580831</ele>
        <time>2022-06-11T12:13:01.008Z</time>
      </trkpt>
      <trkpt lat="42.98338" lon="17.8049">
        <ele>450.396937</ele>
        <time>2022-06-11T12:13:02.988Z</time>
      </trkpt>
      <trkpt lat="42.9835" lon="17.80505">
        <ele>449.135583</ele>
        <time>2022-06-11T12:13:04.991Z</time>
      </trkpt>
      <trkpt lat="42.98363" lon="17.80522">
        <ele>447.84223</ele>
        <time>2022-06-11T12:13:07.005Z</time>
      </trkpt>
      <trkpt lat="42.98375" lon="17.80537">
        <ele>446.654159</ele>
        <time>2022-06-11T12:13:09.009Z</time>
      </trkpt>
      <trkpt lat="42.98388" lon="17.8055">
        <ele>445.65793</ele>
        <time>2022-06-11T12:13:11.006Z</time>
      </trkpt>
      <trkpt lat="42.98402" lon="17.80561">
        <ele>444.676851</ele>
        <time>2022-06-11T12:13:12.998Z</time>
      </trkpt>
      <trkpt lat="42.98416" lon="17.80573">
        <ele>443.687616</ele>
        <time>2022-06-11T12:13:15.005Z</time>
      </trkpt>
      <trkpt lat="42.98427" lon="17.80589">
        <ele>442.680145</ele>
        <time>2022-06-11T12:13:17.026Z</time>
      </trkpt>
      <trkpt lat="42.98436" lon="17.80609">
        <ele>441.634574</ele>
        <time>2022-06-11T12:13:18.996Z</time>
      </trkpt>
      <trkpt lat="42.98444" lon="17.80631">
        <ele>440.531358</ele>
        <time>2022-06-11T12:13:21.000Z</time>
      </trkpt>
      <trkpt lat="42.98449" lon="17.80642">
        <ele>439.972421</ele>
        <time>2022-06-11T12:13:21.988Z</time>
      </trkpt>
      <trkpt lat="42.98453" lon="17.80653">
        <ele>439.404486</ele>
        <time>2022-06-11T12:13:22.995Z</time>
      </trkpt>
      <trkpt lat="42.98458" lon="17.80664">
        <ele>438.833454</ele>
        <time>2022-06-11T12:13:23.996Z</time>
      </trkpt>
      <trkpt lat="42.98463" lon="17.80675">
        <ele>438.271569</ele>
        <time>2022-06-11T12:13:24.998Z</time>
      </trkpt>
      <trkpt lat="42.98467" lon="17.80686">
        <ele>437.711596</ele>
        <time>2022-06-11T12:13:26.040Z</time>
      </trkpt>
      <trkpt lat="42.98472" lon="17.80697">
        <ele>437.149711</ele>
        <time>2022-06-11T12:13:27.008Z</time>
      </trkpt>
      <trkpt lat="42.9848" lon="17.80717">
        <ele>436.10223</ele>
        <time>2022-06-11T12:13:29.001Z</time>
      </trkpt>
      <trkpt lat="42.9849" lon="17.80735">
        <ele>435.373635</ele>
        <time>2022-06-11T12:13:31.004Z</time>
      </trkpt>
      <trkpt lat="42.985" lon="17.80754">
        <ele>434.689723</ele>
        <time>2022-06-11T12:13:33.061Z</time>
      </trkpt>
      <trkpt lat="42.9851" lon="17.80773">
        <ele>434.001091</ele>
        <time>2022-06-11T12:13:34.999Z</time>
      </trkpt>
      <trkpt lat="42.98517" lon="17.80792">
        <ele>433.36343</ele>
        <time>2022-06-11T12:13:37.001Z</time>
      </trkpt>
      <trkpt lat="42.98522" lon="17.80813">
        <ele>432.699737</ele>
        <time>2022-06-11T12:13:38.998Z</time>
      </trkpt>
      <trkpt lat="42.98526" lon="17.80836">
        <ele>432.005156</ele>
        <time>2022-06-11T12:13:41.000Z</time>
      </trkpt>
      <trkpt lat="42.98532" lon="17.80858">
        <ele>431.302661</ele>
        <time>2022-06-11T12:13:42.997Z</time>
      </trkpt>
      <trkpt lat="42.98536" lon="17.80869">
        <ele>430.93508</ele>
        <time>2022-06-11T12:13:43.992Z</time>
      </trkpt>
      <trkpt lat="42.98548" lon="17.80887">
        <ele>430.222218</ele>
        <time>2022-06-11T12:13:45.995Z</time>
      </trkpt>
      <trkpt lat="42.98562" lon="17.809">
        <ele>429.555194</ele>
        <time>2022-06-11T12:13:47.995Z</time>
      </trkpt>
      <trkpt lat="42.98573" lon="17.80909">
        <ele>429.007115</ele>
        <time>2022-06-11T12:13:50.009Z</time>
      </trkpt>
      <trkpt lat="42.98585" lon="17.80917">
        <ele>428.600687</ele>
        <time>2022-06-11T12:13:52.000Z</time>
      </trkpt>
      <trkpt lat="42.98597" lon="17.80927">
        <ele>428.678532</ele>
        <time>2022-06-11T12:13:53.984Z</time>
      </trkpt>
      <trkpt lat="42.98609" lon="17.80936">
        <ele>428.756174</ele>
        <time>2022-06-11T12:13:56.016Z</time>
      </trkpt>
      <trkpt lat="42.9862" lon="17.80945">
        <ele>428.830659</ele>
        <time>2022-06-11T12:13:57.991Z</time>
      </trkpt>
      <trkpt lat="42.98631" lon="17.80953">
        <ele>428.900159</ele>
        <time>2022-06-11T12:14:00.004Z</time>
      </trkpt>
      <trkpt lat="42.98641" lon="17.8096">
        <ele>428.964608</ele>
        <time>2022-06-11T12:14:01.998Z</time>
      </trkpt>
      <trkpt lat="42.9865" lon="17.80966">
        <ele>429.022827</ele>
        <time>2022-06-11T12:14:03.994Z</time>
      </trkpt>
      <trkpt lat="42.98662" lon="17.80974">
        <ele>429.094827</ele>
        <time>2022-06-11T12:14:06.994Z</time>
      </trkpt>
      <trkpt lat="42.98667" lon="17.80985">
        <ele>429.147968</ele>
        <time>2022-06-11T12:14:09.986Z</time>
      </trkpt>
      <trkpt lat="42.98664" lon="17.80997">
        <ele>429.200443</ele>
        <time>2022-06-11T12:14:14.988Z</time>
      </trkpt>
      <trkpt lat="42.9866" lon="17.81015">
        <ele>429.277828</ele>
        <time>2022-06-11T12:25:16.032Z</time>
      </trkpt>
      <trkpt lat="42.98657" lon="17.81027">
        <ele>429.329627</ele>
        <time>2022-06-11T12:25:20.029Z</time>
      </trkpt>
      <trkpt lat="42.98654" lon="17.81041">
        <ele>429.391861</ele>
        <time>2022-06-11T12:25:24.011Z</time>
      </trkpt>
      <trkpt lat="42.98649" lon="17.81056">
        <ele>429.459573</ele>
        <time>2022-06-11T12:25:28.014Z</time>
      </trkpt>
      <trkpt lat="42.98646" lon="17.81068">
        <ele>429.513797</ele>
        <time>2022-06-11T12:25:31.024Z</time>
      </trkpt>
      <trkpt lat="42.98642" lon="17.8108">
        <ele>429.567651</ele>
        <time>2022-06-11T12:25:34.010Z</time>
      </trkpt>
      <trkpt lat="42.98638" lon="17.81095">
        <ele>429.558105</ele>
        <time>2022-06-11T12:25:38.006Z</time>
      </trkpt>
      <trkpt lat="42.98635" lon="17.81108">
        <ele>429.47594</ele>
        <time>2022-06-11T12:25:41.009Z</time>
      </trkpt>
      <trkpt lat="42.98632" lon="17.81121">
        <ele>429.387938</ele>
        <time>2022-06-11T12:25:44.009Z</time>
      </trkpt>
      <trkpt lat="42.98629" lon="17.81133">
        <ele>429.308667</ele>
        <time>2022-06-11T12:25:47.024Z</time>
      </trkpt>
      <trkpt lat="42.98624" lon="17.81148">
        <ele>429.208731</ele>
        <time>2022-06-11T12:25:51.025Z</time>
      </trkpt>
      <trkpt lat="42.9862" lon="17.81163">
        <ele>429.110894</ele>
        <time>2022-06-11T12:25:54.019Z</time>
      </trkpt>
      <trkpt lat="42.98615" lon="17.81178">
        <ele>429.004526</ele>
        <time>2022-06-11T12:25:57.064Z</time>
      </trkpt>
      <trkpt lat="42.98611" lon="17.8119">
        <ele>428.927359</ele>
        <time>2022-06-11T12:25:59.056Z</time>
      </trkpt>
      <trkpt lat="42.98607" lon="17.81202">
        <ele>428.842574</ele>
        <time>2022-06-11T12:26:01.030Z</time>
      </trkpt>
      <trkpt lat="42.98601" lon="17.81216">
        <ele>428.746809</ele>
        <time>2022-06-11T12:26:03.015Z</time>
      </trkpt>
      <trkpt lat="42.98596" lon="17.81229">
        <ele>428.649132</ele>
        <time>2022-06-11T12:26:05.095Z</time>
      </trkpt>
      <trkpt lat="42.98588" lon="17.8124">
        <ele>428.558802</ele>
        <time>2022-06-11T12:26:07.038Z</time>
      </trkpt>
      <trkpt lat="42.9858" lon="17.81248">
        <ele>428.473019</ele>
        <time>2022-06-11T12:26:10.029Z</time>
      </trkpt>
      <trkpt lat="42.98575" lon="17.8126">
        <ele>428.389245</ele>
        <time>2022-06-11T12:26:14.030Z</time>
      </trkpt>
      <trkpt lat="42.98577" lon="17.81272">
        <ele>428.309555</ele>
        <time>2022-06-11T12:26:17.021Z</time>
      </trkpt>
      <trkpt lat="42.98583" lon="17.81287">
        <ele>428.204272</ele>
        <time>2022-06-11T12:26:20.021Z</time>
      </trkpt>
      <trkpt lat="42.9859" lon="17.81301">
        <ele>428.097597</ele>
        <time>2022-06-11T12:26:23.018Z</time>
      </trkpt>
      <trkpt lat="42.98597" lon="17.81316">
        <ele>427.99468</ele>
        <time>2022-06-11T12:26:26.023Z</time>
      </trkpt>
      <trkpt lat="42.98605" lon="17.81329">
        <ele>427.892278</ele>
        <time>2022-06-11T12:26:29.027Z</time>
      </trkpt>
      <trkpt lat="42.98613" lon="17.81344">
        <ele>427.782228</ele>
        <time>2022-06-11T12:26:32.064Z</time>
      </trkpt>
      <trkpt lat="42.98618" lon="17.81354">
        <ele>427.707108</ele>
        <time>2022-06-11T12:26:34.025Z</time>
      </trkpt>
      <trkpt lat="42.98624" lon="17.81364">
        <ele>427.631917</ele>
        <time>2022-06-11T12:26:36.015Z</time>
      </trkpt>
      <trkpt lat="42.9863" lon="17.81374">
        <ele>427.556981</ele>
        <time>2022-06-11T12:26:38.023Z</time>
      </trkpt>
      <trkpt lat="42.98636" lon="17.81383">
        <ele>427.482388</ele>
        <time>2022-06-11T12:26:40.032Z</time>
      </trkpt>
      <trkpt lat="42.98643" lon="17.81393">
        <ele>427.404841</ele>
        <time>2022-06-11T12:26:42.028Z</time>
      </trkpt>
      <trkpt lat="42.98649" lon="17.81403">
        <ele>427.32856</ele>
        <time>2022-06-11T12:26:44.042Z</time>
      </trkpt>
      <trkpt lat="42.98655" lon="17.81413">
        <ele>427.249421</ele>
        <time>2022-06-11T12:26:46.013Z</time>
      </trkpt>
      <trkpt lat="42.98661" lon="17.81423">
        <ele>427.169469</ele>
        <time>2022-06-11T12:26:48.027Z</time>
      </trkpt>
      <trkpt lat="42.98667" lon="17.81433">
        <ele>427.095139</ele>
        <time>2022-06-11T12:26:50.033Z</time>
      </trkpt>
      <trkpt lat="42.98673" lon="17.81443">
        <ele>427.020951</ele>
        <time>2022-06-11T12:26:52.026Z</time>
      </trkpt>
      <trkpt lat="42.9868" lon="17.81458">
        <ele>426.911806</ele>
        <time>2022-06-11T12:26:55.024Z</time>
      </trkpt>
      <trkpt lat="42.98686" lon="17.81468">
        <ele>426.838111</ele>
        <time>2022-06-11T12:26:57.035Z</time>
      </trkpt>
      <trkpt lat="42.98694" lon="17.81483">
        <ele>426.729494</ele>
        <time>2022-06-11T12:27:00.045Z</time>
      </trkpt>
      <trkpt lat="42.98701" lon="17.81499">
        <ele>426.620916</ele>
        <time>2022-06-11T12:27:03.003Z</time>
      </trkpt>
      <trkpt lat="42.98705" lon="17.81509">
        <ele>426.630404</ele>
        <time>2022-06-11T12:27:05.026Z</time>
      </trkpt>
      <trkpt lat="42.9871" lon="17.81521">
        <ele>426.640714</ele>
        <time>2022-06-11T12:27:07.031Z</time>
      </trkpt>
      <trkpt lat="42.98714" lon="17.81532">
        <ele>426.650772</ele>
        <time>2022-06-11T12:27:09.021Z</time>
      </trkpt>
      <trkpt lat="42.98718" lon="17.81544">
        <ele>426.660909</ele>
        <time>2022-06-11T12:27:11.053Z</time>
      </trkpt>
      <trkpt lat="42.98721" lon="17.81555">
        <ele>426.670772</ele>
        <time>2022-06-11T12:27:13.022Z</time>
      </trkpt>
      <trkpt lat="42.98725" lon="17.81567">
        <ele>426.681053</ele>
        <time>2022-06-11T12:27:15.020Z</time>
      </trkpt>
      <trkpt lat="42.98728" lon="17.8158">
        <ele>426.691512</ele>
        <time>2022-06-11T12:27:17.065Z</time>
      </trkpt>
      <trkpt lat="42.98731" lon="17.81592">
        <ele>426.701964</ele>
        <time>2022-06-11T12:27:19.022Z</time>
      </trkpt>
      <trkpt lat="42.98734" lon="17.81605">
        <ele>426.712102</ele>
        <time>2022-06-11T12:27:21.032Z</time>
      </trkpt>
      <trkpt lat="42.98736" lon="17.81617">
        <ele>426.722194</ele>
        <time>2022-06-11T12:27:23.061Z</time>
      </trkpt>
      <trkpt lat="42.98739" lon="17.81629">
        <ele>426.732028</ele>
        <time>2022-06-11T12:27:25.023Z</time>
      </trkpt>
      <trkpt lat="42.98741" lon="17.81641">
        <ele>426.742415</ele>
        <time>2022-06-11T12:27:27.010Z</time>
      </trkpt>
      <trkpt lat="42.98744" lon="17.81654">
        <ele>426.752629</ele>
        <time>2022-06-11T12:27:29.074Z</time>
      </trkpt>
      <trkpt lat="42.98746" lon="17.81666">
        <ele>426.76289</ele>
        <time>2022-06-11T12:27:31.019Z</time>
      </trkpt>
      <trkpt lat="42.98749" lon="17.8168">
        <ele>426.77366</ele>
        <time>2022-06-11T12:27:33.026Z</time>
      </trkpt>
      <trkpt lat="42.98751" lon="17.81692">
        <ele>426.784047</ele>
        <time>2022-06-11T12:27:35.025Z</time>
      </trkpt>
      <trkpt lat="42.98754" lon="17.81704">
        <ele>426.794002</ele>
        <time>2022-06-11T12:27:37.028Z</time>
      </trkpt>
      <trkpt lat="42.98756" lon="17.81716">
        <ele>426.803944</ele>
        <time>2022-06-11T12:27:39.013Z</time>
      </trkpt>
      <trkpt lat="42.98759" lon="17.81728">
        <ele>426.813583</ele>
        <time>2022-06-11T12:27:41.011Z</time>
      </trkpt>
      <trkpt lat="42.98761" lon="17.8174">
        <ele>426.941915</ele>
        <time>2022-06-11T12:27:43.005Z</time>
      </trkpt>
      <trkpt lat="42.98764" lon="17.81757">
        <ele>427.152986</ele>
        <time>2022-06-11T12:27:46.013Z</time>
      </trkpt>
      <trkpt lat="42.98768" lon="17.81774">
        <ele>427.363626</ele>
        <time>2022-06-11T12:27:49.010Z</time>
      </trkpt>
      <trkpt lat="42.98771" lon="17.81791">
        <ele>427.57618</ele>
        <time>2022-06-11T12:27:52.019Z</time>
      </trkpt>
      <trkpt lat="42.98775" lon="17.81808">
        <ele>427.789304</ele>
        <time>2022-06-11T12:27:55.004Z</time>
      </trkpt>
      <trkpt lat="42.98778" lon="17.81826">
        <ele>428.008099</ele>
        <time>2022-06-11T12:27:58.008Z</time>
      </trkpt>
      <trkpt lat="42.98782" lon="17.81843">
        <ele>428.222649</ele>
        <time>2022-06-11T12:28:01.036Z</time>
      </trkpt>
      <trkpt lat="42.98784" lon="17.81855">
        <ele>428.370457</ele>
        <time>2022-06-11T12:28:03.025Z</time>
      </trkpt>
      <trkpt lat="42.98787" lon="17.81871">
        <ele>428.579104</ele>
        <time>2022-06-11T12:28:06.013Z</time>
      </trkpt>
      <trkpt lat="42.98791" lon="17.81887">
        <ele>428.782194</ele>
        <time>2022-06-11T12:28:09.019Z</time>
      </trkpt>
      <trkpt lat="42.98794" lon="17.81904">
        <ele>428.986592</ele>
        <time>2022-06-11T12:28:12.018Z</time>
      </trkpt>
      <trkpt lat="42.98797" lon="17.81921">
        <ele>429.194071</ele>
        <time>2022-06-11T12:28:15.019Z</time>
      </trkpt>
      <trkpt lat="42.98801" lon="17.81937">
        <ele>429.399341</ele>
        <time>2022-06-11T12:28:18.014Z</time>
      </trkpt>
      <trkpt lat="42.98804" lon="17.81953">
        <ele>429.606013</ele>
        <time>2022-06-11T12:28:21.023Z</time>
      </trkpt>
      <trkpt lat="42.98808" lon="17.81971">
        <ele>429.818332</ele>
        <time>2022-06-11T12:28:24.028Z</time>
      </trkpt>
      <trkpt lat="42.98812" lon="17.81987">
        <ele>429.997789</ele>
        <time>2022-06-11T12:28:27.019Z</time>
      </trkpt>
      <trkpt lat="42.98815" lon="17.82004">
        <ele>430.176718</ele>
        <time>2022-06-11T12:28:30.019Z</time>
      </trkpt>
      <trkpt lat="42.98819" lon="17.8202">
        <ele>430.349881</ele>
        <time>2022-06-11T12:28:33.017Z</time>
      </trkpt>
      <trkpt lat="42.98823" lon="17.82035">
        <ele>430.522494</ele>
        <time>2022-06-11T12:28:36.028Z</time>
      </trkpt>
      <trkpt lat="42.98826" lon="17.82051">
        <ele>430.696405</ele>
        <time>2022-06-11T12:28:39.014Z</time>
      </trkpt>
      <trkpt lat="42.98829" lon="17.82067">
        <ele>430.870548</ele>
        <time>2022-06-11T12:28:42.020Z</time>
      </trkpt>
      <trkpt lat="42.98833" lon="17.82084">
        <ele>431.048866</ele>
        <time>2022-06-11T12:28:45.023Z</time>
      </trkpt>
      <trkpt lat="42.98836" lon="17.821">
        <ele>431.22842</ele>
        <time>2022-06-11T12:28:48.021Z</time>
      </trkpt>
      <trkpt lat="42.98839" lon="17.82115">
        <ele>431.390734</ele>
        <time>2022-06-11T12:28:51.020Z</time>
      </trkpt>
      <trkpt lat="42.98842" lon="17.82132">
        <ele>431.5682</ele>
        <time>2022-06-11T12:28:54.034Z</time>
      </trkpt>
      <trkpt lat="42.98845" lon="17.82148">
        <ele>431.739243</ele>
        <time>2022-06-11T12:28:57.025Z</time>
      </trkpt>
      <trkpt lat="42.98848" lon="17.82163">
        <ele>431.908563</ele>
        <time>2022-06-11T12:29:00.021Z</time>
      </trkpt>
      <trkpt lat="42.98852" lon="17.82179">
        <ele>432.084066</ele>
        <time>2022-06-11T12:29:03.029Z</time>
      </trkpt>
      <trkpt lat="42.98856" lon="17.82194">
        <ele>432.25083</ele>
        <time>2022-06-11T12:29:06.025Z</time>
      </trkpt>
      <trkpt lat="42.98859" lon="17.82209">
        <ele>432.316052</ele>
        <time>2022-06-11T12:29:09.019Z</time>
      </trkpt>
      <trkpt lat="42.98862" lon="17.82226">
        <ele>432.247187</ele>
        <time>2022-06-11T12:29:12.020Z</time>
      </trkpt>
      <trkpt lat="42.98865" lon="17.8224">
        <ele>432.184905</ele>
        <time>2022-06-11T12:29:15.017Z</time>
      </trkpt>
      <trkpt lat="42.98868" lon="17.82255">
        <ele>432.123237</ele>
        <time>2022-06-11T12:29:18.024Z</time>
      </trkpt>
      <trkpt lat="42.98872" lon="17.82271">
        <ele>432.057305</ele>
        <time>2022-06-11T12:29:21.014Z</time>
      </trkpt>
      <trkpt lat="42.98875" lon="17.82286">
        <ele>431.991047</ele>
        <time>2022-06-11T12:29:24.034Z</time>
      </trkpt>
      <trkpt lat="42.98878" lon="17.82302">
        <ele>431.924791</ele>
        <time>2022-06-11T12:29:27.012Z</time>
      </trkpt>
      <trkpt lat="42.9888" lon="17.82319">
        <ele>431.856736</ele>
        <time>2022-06-11T12:29:30.037Z</time>
      </trkpt>
      <trkpt lat="42.98883" lon="17.82334">
        <ele>431.790619</ele>
        <time>2022-06-11T12:29:33.024Z</time>
      </trkpt>
      <trkpt lat="42.98887" lon="17.8235">
        <ele>431.726118</ele>
        <time>2022-06-11T12:29:36.027Z</time>
      </trkpt>
      <trkpt lat="42.98891" lon="17.82365">
        <ele>431.661821</ele>
        <time>2022-06-11T12:29:39.024Z</time>
      </trkpt>
      <trkpt lat="42.98894" lon="17.82379">
        <ele>431.598264</ele>
        <time>2022-06-11T12:29:42.009Z</time>
      </trkpt>
      <trkpt lat="42.98898" lon="17.82394">
        <ele>431.536626</ele>
        <time>2022-06-11T12:29:45.041Z</time>
      </trkpt>
      <trkpt lat="42.98902" lon="17.82409">
        <ele>431.473837</ele>
        <time>2022-06-11T12:29:48.028Z</time>
      </trkpt>
      <trkpt lat="42.98909" lon="17.82421">
        <ele>431.408622</ele>
        <time>2022-06-11T12:29:51.021Z</time>
      </trkpt>
      <trkpt lat="42.98921" lon="17.82424">
        <ele>431.32892</ele>
        <time>2022-06-11T12:29:54.024Z</time>
      </trkpt>
      <trkpt lat="42.9893" lon="17.82421">
        <ele>431.094365</ele>
        <time>2022-06-11T12:29:56.020Z</time>
      </trkpt>
      <trkpt lat="42.98941" lon="17.82414">
        <ele>430.793384</ele>
        <time>2022-06-11T12:29:59.075Z</time>
      </trkpt>
      <trkpt lat="42.9895" lon="17.82407">
        <ele>430.520759</ele>
        <time>2022-06-11T12:30:02.049Z</time>
      </trkpt>
      <trkpt lat="42.98959" lon="17.82402">
        <ele>430.292695</ele>
        <time>2022-06-11T12:30:05.049Z</time>
      </trkpt>
      <trkpt lat="42.98968" lon="17.82396">
        <ele>430.02516</ele>
        <time>2022-06-11T12:30:08.072Z</time>
      </trkpt>
      <trkpt lat="42.98978" lon="17.82389">
        <ele>429.741962</ele>
        <time>2022-06-11T12:30:11.065Z</time>
      </trkpt>
      <trkpt lat="42.98988" lon="17.8238">
        <ele>429.444956</ele>
        <time>2022-06-11T12:30:14.028Z</time>
      </trkpt>
      <trkpt lat="42.98998" lon="17.82369">
        <ele>429.121797</ele>
        <time>2022-06-11T12:30:17.048Z</time>
      </trkpt>
      <trkpt lat="42.99004" lon="17.82359">
        <ele>428.892848</ele>
        <time>2022-06-11T12:30:19.043Z</time>
      </trkpt>
      <trkpt lat="42.9901" lon="17.82349">
        <ele>428.65319</ele>
        <time>2022-06-11T12:30:21.052Z</time>
      </trkpt>
      <trkpt lat="42.99015" lon="17.82336">
        <ele>428.386432</ele>
        <time>2022-06-11T12:30:23.029Z</time>
      </trkpt>
      <trkpt lat="42.9902" lon="17.82323">
        <ele>428.114517</ele>
        <time>2022-06-11T12:30:25.021Z</time>
      </trkpt>
      <trkpt lat="42.99023" lon="17.82308">
        <ele>427.835875</ele>
        <time>2022-06-11T12:30:27.037Z</time>
      </trkpt>
      <trkpt lat="42.99026" lon="17.82293">
        <ele>427.54489</ele>
        <time>2022-06-11T12:30:29.030Z</time>
      </trkpt>
      <trkpt lat="42.99029" lon="17.82277">
        <ele>427.241963</ele>
        <time>2022-06-11T12:30:31.012Z</time>
      </trkpt>
      <trkpt lat="42.99033" lon="17.82261">
        <ele>426.941535</ele>
        <time>2022-06-11T12:30:33.052Z</time>
      </trkpt>
      <trkpt lat="42.99037" lon="17.82245">
        <ele>426.548841</ele>
        <time>2022-06-11T12:30:35.014Z</time>
      </trkpt>
      <trkpt lat="42.99042" lon="17.8223">
        <ele>426.13019</ele>
        <time>2022-06-11T12:30:37.022Z</time>
      </trkpt>
      <trkpt lat="42.99046" lon="17.82214">
        <ele>425.719273</ele>
        <time>2022-06-11T12:30:39.047Z</time>
      </trkpt>
      <trkpt lat="42.99053" lon="17.822">
        <ele>425.296267</ele>
        <time>2022-06-11T12:30:41.023Z</time>
      </trkpt>
      <trkpt lat="42.9906" lon="17.82185">
        <ele>424.847938</ele>
        <time>2022-06-11T12:30:43.013Z</time>
      </trkpt>
      <trkpt lat="42.99068" lon="17.8217">
        <ele>424.389705</ele>
        <time>2022-06-11T12:30:45.024Z</time>
      </trkpt>
      <trkpt lat="42.99076" lon="17.82153">
        <ele>423.898857</ele>
        <time>2022-06-11T12:30:47.030Z</time>
      </trkpt>
      <trkpt lat="42.99084" lon="17.82136">
        <ele>423.394598</ele>
        <time>2022-06-11T12:30:49.022Z</time>
      </trkpt>
      <trkpt lat="42.9909" lon="17.82118">
        <ele>422.892353</ele>
        <time>2022-06-11T12:30:51.024Z</time>
      </trkpt>
      <trkpt lat="42.99097" lon="17.821">
        <ele>422.387898</ele>
        <time>2022-06-11T12:30:53.013Z</time>
      </trkpt>
      <trkpt lat="42.99105" lon="17.82083">
        <ele>421.878552</ele>
        <time>2022-06-11T12:30:55.014Z</time>
      </trkpt>
      <trkpt lat="42.99114" lon="17.82066">
        <ele>421.36606</ele>
        <time>2022-06-11T12:30:57.024Z</time>
      </trkpt>
      <trkpt lat="42.99124" lon="17.82051">
        <ele>420.850591</ele>
        <time>2022-06-11T12:30:59.019Z</time>
      </trkpt>
      <trkpt lat="42.99135" lon="17.82036">
        <ele>420.579007</ele>
        <time>2022-06-11T12:31:01.010Z</time>
      </trkpt>
      <trkpt lat="42.99145" lon="17.82022">
        <ele>420.402077</ele>
        <time>2022-06-11T12:31:03.019Z</time>
      </trkpt>
      <trkpt lat="42.99154" lon="17.82008">
        <ele>420.232896</ele>
        <time>2022-06-11T12:31:05.023Z</time>
      </trkpt>
      <trkpt lat="42.99161" lon="17.81992">
        <ele>420.064222</ele>
        <time>2022-06-11T12:31:07.053Z</time>
      </trkpt>
      <trkpt lat="42.99169" lon="17.81975">
        <ele>419.893792</ele>
        <time>2022-06-11T12:31:09.024Z</time>
      </trkpt>
      <trkpt lat="42.99175" lon="17.81959">
        <ele>419.729154</ele>
        <time>2022-06-11T12:31:11.019Z</time>
      </trkpt>
      <trkpt lat="42.99181" lon="17.81943">
        <ele>419.575651</ele>
        <time>2022-06-11T12:31:13.014Z</time>
      </trkpt>
      <trkpt lat="42.99185" lon="17.8193">
        <ele>419.443961</ele>
        <time>2022-06-11T12:31:15.025Z</time>
      </trkpt>
      <trkpt lat="42.99189" lon="17.81919">
        <ele>419.330769</ele>
        <time>2022-06-11T12:31:17.033Z</time>
      </trkpt>
      <trkpt lat="42.99194" lon="17.81903">
        <ele>419.180203</ele>
        <time>2022-06-11T12:31:20.010Z</time>
      </trkpt>
      <trkpt lat="42.992" lon="17.81887">
        <ele>419.023194</ele>
        <time>2022-06-11T12:31:23.031Z</time>
      </trkpt>
      <trkpt lat="42.99204" lon="17.81876">
        <ele>418.912066</ele>
        <time>2022-06-11T12:31:25.006Z</time>
      </trkpt>
      <trkpt lat="42.99208" lon="17.81864">
        <ele>418.794051</ele>
        <time>2022-06-11T12:31:27.028Z</time>
      </trkpt>
      <trkpt lat="42.99213" lon="17.8185">
        <ele>418.655171</ele>
        <time>2022-06-11T12:31:29.025Z</time>
      </trkpt>
      <trkpt lat="42.99218" lon="17.81837">
        <ele>418.496743</ele>
        <time>2022-06-11T12:31:31.019Z</time>
      </trkpt>
      <trkpt lat="42.99222" lon="17.81824">
        <ele>418.070999</ele>
        <time>2022-06-11T12:31:33.027Z</time>
      </trkpt>
      <trkpt lat="42.99226" lon="17.81812">
        <ele>417.666992</ele>
        <time>2022-06-11T12:31:35.057Z</time>
      </trkpt>
      <trkpt lat="42.99231" lon="17.81796">
        <ele>417.147313</ele>
        <time>2022-06-11T12:31:38.026Z</time>
      </trkpt>
      <trkpt lat="42.99234" lon="17.81779">
        <ele>416.613285</ele>
        <time>2022-06-11T12:31:41.066Z</time>
      </trkpt>
      <trkpt lat="42.99237" lon="17.81766">
        <ele>416.223526</ele>
        <time>2022-06-11T12:31:43.025Z</time>
      </trkpt>
      <trkpt lat="42.99239" lon="17.81753">
        <ele>415.792296</ele>
        <time>2022-06-11T12:31:45.020Z</time>
      </trkpt>
      <trkpt lat="42.99243" lon="17.81737">
        <ele>415.298429</ele>
        <time>2022-06-11T12:31:47.025Z</time>
      </trkpt>
      <trkpt lat="42.99248" lon="17.8172">
        <ele>414.73982</ele>
        <time>2022-06-11T12:31:49.020Z</time>
      </trkpt>
      <trkpt lat="42.99253" lon="17.81704">
        <ele>414.205264</ele>
        <time>2022-06-11T12:31:51.003Z</time>
      </trkpt>
      <trkpt lat="42.99258" lon="17.81688">
        <ele>413.677328</ele>
        <time>2022-06-11T12:31:53.017Z</time>
      </trkpt>
      <trkpt lat="42.99262" lon="17.81671">
        <ele>413.109337</ele>
        <time>2022-06-11T12:31:55.021Z</time>
      </trkpt>
      <trkpt lat="42.99267" lon="17.81653">
        <ele>412.533993</ele>
        <time>2022-06-11T12:31:57.028Z</time>
      </trkpt>
      <trkpt lat="42.99271" lon="17.81635">
        <ele>411.968319</ele>
        <time>2022-06-11T12:31:59.025Z</time>
      </trkpt>
      <trkpt lat="42.99274" lon="17.81616">
        <ele>411.380218</ele>
        <time>2022-06-11T12:32:01.020Z</time>
      </trkpt>
      <trkpt lat="42.99278" lon="17.81597">
        <ele>410.528295</ele>
        <time>2022-06-11T12:32:03.027Z</time>
      </trkpt>
      <trkpt lat="42.99282" lon="17.81578">
        <ele>409.417047</ele>
        <time>2022-06-11T12:32:05.012Z</time>
      </trkpt>
      <trkpt lat="42.99287" lon="17.81559">
        <ele>408.345597</ele>
        <time>2022-06-11T12:32:07.015Z</time>
      </trkpt>
      <trkpt lat="42.9929" lon="17.81542">
        <ele>407.341182</ele>
        <time>2022-06-11T12:32:09.026Z</time>
      </trkpt>
      <trkpt lat="42.99294" lon="17.81525">
        <ele>406.345397</ele>
        <time>2022-06-11T12:32:11.007Z</time>
      </trkpt>
      <trkpt lat="42.99299" lon="17.81506">
        <ele>405.219658</ele>
        <time>2022-06-11T12:32:13.025Z</time>
      </trkpt>
      <trkpt lat="42.99305" lon="17.81488">
        <ele>404.087453</ele>
        <time>2022-06-11T12:32:15.053Z</time>
      </trkpt>
      <trkpt lat="42.99311" lon="17.8147">
        <ele>403.010705</ele>
        <time>2022-06-11T12:32:17.039Z</time>
      </trkpt>
      <trkpt lat="42.99316" lon="17.81454">
        <ele>401.989656</ele>
        <time>2022-06-11T12:32:19.015Z</time>
      </trkpt>
      <trkpt lat="42.99323" lon="17.81436">
        <ele>400.864238</ele>
        <time>2022-06-11T12:32:21.047Z</time>
      </trkpt>
      <trkpt lat="42.9933" lon="17.81416">
        <ele>399.609829</ele>
        <time>2022-06-11T12:32:23.014Z</time>
      </trkpt>
      <trkpt lat="42.99336" lon="17.81394">
        <ele>398.311115</ele>
        <time>2022-06-11T12:32:25.027Z</time>
      </trkpt>
      <trkpt lat="42.99343" lon="17.81372">
        <ele>396.987427</ele>
        <time>2022-06-11T12:32:27.050Z</time>
      </trkpt>
      <trkpt lat="42.99346" lon="17.8136">
        <ele>396.405945</ele>
        <time>2022-06-11T12:32:28.022Z</time>
      </trkpt>
      <trkpt lat="42.9935" lon="17.81349">
        <ele>395.810781</ele>
        <time>2022-06-11T12:32:29.026Z</time>
      </trkpt>
      <trkpt lat="42.99353" lon="17.81337">
        <ele>395.224924</ele>
        <time>2022-06-11T12:32:30.022Z</time>
      </trkpt>
      <trkpt lat="42.99357" lon="17.81326">
        <ele>394.638444</ele>
        <time>2022-06-11T12:32:31.026Z</time>
      </trkpt>
      <trkpt lat="42.99363" lon="17.81304">
        <ele>393.520183</ele>
        <time>2022-06-11T12:32:33.062Z</time>
      </trkpt>
      <trkpt lat="42.99369" lon="17.81284">
        <ele>392.513113</ele>
        <time>2022-06-11T12:32:35.027Z</time>
      </trkpt>
      <trkpt lat="42.99374" lon="17.81265">
        <ele>391.532717</ele>
        <time>2022-06-11T12:32:37.013Z</time>
      </trkpt>
      <trkpt lat="42.99382" lon="17.81245">
        <ele>390.499313</ele>
        <time>2022-06-11T12:32:39.042Z</time>
      </trkpt>
      <trkpt lat="42.9939" lon="17.81226">
        <ele>389.445101</ele>
        <time>2022-06-11T12:32:41.022Z</time>
      </trkpt>
      <trkpt lat="42.99398" lon="17.8121">
        <ele>388.529055</ele>
        <time>2022-06-11T12:32:43.038Z</time>
      </trkpt>
      <trkpt lat="42.99406" lon="17.81195">
        <ele>387.656034</ele>
        <time>2022-06-11T12:32:45.058Z</time>
      </trkpt>
      <trkpt lat="42.99416" lon="17.81181">
        <ele>386.711315</ele>
        <time>2022-06-11T12:32:47.026Z</time>
      </trkpt>
      <trkpt lat="42.99426" lon="17.81167">
        <ele>385.830972</ele>
        <time>2022-06-11T12:32:49.032Z</time>
      </trkpt>
      <trkpt lat="42.99432" lon="17.81158">
        <ele>385.293235</ele>
        <time>2022-06-11T12:32:51.052Z</time>
      </trkpt>
      <trkpt lat="42.9944" lon="17.81148">
        <ele>384.682752</ele>
        <time>2022-06-11T12:32:54.023Z</time>
      </trkpt>
      <trkpt lat="42.9945" lon="17.81135">
        <ele>383.934573</ele>
        <time>2022-06-11T12:32:57.018Z</time>
      </trkpt>
      <trkpt lat="42.99458" lon="17.81125">
        <ele>383.301188</ele>
        <time>2022-06-11T12:32:59.019Z</time>
      </trkpt>
      <trkpt lat="42.99466" lon="17.81114">
        <ele>382.690706</ele>
        <time>2022-06-11T12:33:01.039Z</time>
      </trkpt>
      <trkpt lat="42.99473" lon="17.81102">
        <ele>382.065479</ele>
        <time>2022-06-11T12:33:03.038Z</time>
      </trkpt>
      <trkpt lat="42.99479" lon="17.8109">
        <ele>381.457026</ele>
        <time>2022-06-11T12:33:05.020Z</time>
      </trkpt>
      <trkpt lat="42.99487" lon="17.8108">
        <ele>380.891224</ele>
        <time>2022-06-11T12:33:07.029Z</time>
      </trkpt>
      <trkpt lat="42.99496" lon="17.8107">
        <ele>380.268076</ele>
        <time>2022-06-11T12:33:09.016Z</time>
      </trkpt>
      <trkpt lat="42.99506" lon="17.81064">
        <ele>379.615481</ele>
        <time>2022-06-11T12:33:11.035Z</time>
      </trkpt>
      <trkpt lat="42.99518" lon="17.81063">
        <ele>378.980072</ele>
        <time>2022-06-11T12:33:13.026Z</time>
      </trkpt>
      <trkpt lat="42.99527" lon="17.81061">
        <ele>378.45469</ele>
        <time>2022-06-11T12:33:15.022Z</time>
      </trkpt>
      <trkpt lat="42.99535" lon="17.81056">
        <ele>377.955534</ele>
        <time>2022-06-11T12:33:17.023Z</time>
      </trkpt>
      <trkpt lat="42.99544" lon="17.81048">
        <ele>377.392619</ele>
        <time>2022-06-11T12:33:19.080Z</time>
      </trkpt>
      <trkpt lat="42.99551" lon="17.81037">
        <ele>376.787168</ele>
        <time>2022-06-11T12:33:21.034Z</time>
      </trkpt>
      <trkpt lat="42.99558" lon="17.81025">
        <ele>376.152507</ele>
        <time>2022-06-11T12:33:23.028Z</time>
      </trkpt>
      <trkpt lat="42.99563" lon="17.81013">
        <ele>375.646238</ele>
        <time>2022-06-11T12:33:25.026Z</time>
      </trkpt>
      <trkpt lat="42.99569" lon="17.81001">
        <ele>375.629115</ele>
        <time>2022-06-11T12:33:27.027Z</time>
      </trkpt>
      <trkpt lat="42.99576" lon="17.80987">
        <ele>375.608686</ele>
        <time>2022-06-11T12:33:29.053Z</time>
      </trkpt>
      <trkpt lat="42.99582" lon="17.80973">
        <ele>375.589152</ele>
        <time>2022-06-11T12:33:31.024Z</time>
      </trkpt>
      <trkpt lat="42.99588" lon="17.80961">
        <ele>375.570885</ele>
        <time>2022-06-11T12:33:33.028Z</time>
      </trkpt>
      <trkpt lat="42.99595" lon="17.80949">
        <ele>375.553211</ele>
        <time>2022-06-11T12:33:35.013Z</time>
      </trkpt>
      <trkpt lat="42.99602" lon="17.80937">
        <ele>375.534168</ele>
        <time>2022-06-11T12:33:37.043Z</time>
      </trkpt>
      <trkpt lat="42.99609" lon="17.80926">
        <ele>375.516809</ele>
        <time>2022-06-11T12:33:39.020Z</time>
      </trkpt>
      <trkpt lat="42.99618" lon="17.80914">
        <ele>375.49672</ele>
        <time>2022-06-11T12:33:42.016Z</time>
      </trkpt>
      <trkpt lat="42.99625" lon="17.80902">
        <ele>375.477916</ele>
        <time>2022-06-11T12:33:46.028Z</time>
      </trkpt>
      <trkpt lat="42.99632" lon="17.80893">
        <ele>375.46203</ele>
        <time>2022-06-11T12:33:50.017Z</time>
      </trkpt>
      <trkpt lat="42.99642" lon="17.80885">
        <ele>375.44346</ele>
        <time>2022-06-11T12:33:55.037Z</time>
      </trkpt>
      <trkpt lat="42.99653" lon="17.80883">
        <ele>375.425372</ele>
        <time>2022-06-11T12:33:59.022Z</time>
      </trkpt>
      <trkpt lat="42.99665" lon="17.80885">
        <ele>375.405554</ele>
        <time>2022-06-11T12:34:03.022Z</time>
      </trkpt>
      <trkpt lat="42.99674" lon="17.80886">
        <ele>375.390015</ele>
        <time>2022-06-11T12:34:06.032Z</time>
      </trkpt>
      <trkpt lat="42.99686" lon="17.80889">
        <ele>375.370844</ele>
        <time>2022-06-11T12:34:10.023Z</time>
      </trkpt>
      <trkpt lat="42.99695" lon="17.80891">
        <ele>375.355901</ele>
        <time>2022-06-11T12:34:13.012Z</time>
      </trkpt>
      <trkpt lat="42.99706" lon="17.80893">
        <ele>375.36039</ele>
        <time>2022-06-11T12:34:16.027Z</time>
      </trkpt>
      <trkpt lat="42.99718" lon="17.80894">
        <ele>375.373588</ele>
        <time>2022-06-11T12:34:19.006Z</time>
      </trkpt>
      <trkpt lat="42.99731" lon="17.80893">
        <ele>375.387339</ele>
        <time>2022-06-11T12:34:22.027Z</time>
      </trkpt>
      <trkpt lat="42.99741" lon="17.8089">
        <ele>375.397488</ele>
        <time>2022-06-11T12:34:24.022Z</time>
      </trkpt>
      <trkpt lat="42.99749" lon="17.80884">
        <ele>375.40791</ele>
        <time>2022-06-11T12:34:26.024Z</time>
      </trkpt>
      <trkpt lat="42.99758" lon="17.80874">
        <ele>375.419952</ele>
        <time>2022-06-11T12:34:28.010Z</time>
      </trkpt>
      <trkpt lat="42.99768" lon="17.80863">
        <ele>375.432972</ele>
        <time>2022-06-11T12:34:30.035Z</time>
      </trkpt>
      <trkpt lat="42.99777" lon="17.80851">
        <ele>375.446902</ele>
        <time>2022-06-11T12:34:32.011Z</time>
      </trkpt>
      <trkpt lat="42.99788" lon="17.80839">
        <ele>375.460948</ele>
        <time>2022-06-11T12:34:34.009Z</time>
      </trkpt>
      <trkpt lat="42.99797" lon="17.80828">
        <ele>375.474063</ele>
        <time>2022-06-11T12:34:36.028Z</time>
      </trkpt>
      <trkpt lat="42.99805" lon="17.80818">
        <ele>375.485734</ele>
        <time>2022-06-11T12:34:38.018Z</time>
      </trkpt>
      <trkpt lat="42.99814" lon="17.80808">
        <ele>375.497283</ele>
        <time>2022-06-11T12:34:40.043Z</time>
      </trkpt>
      <trkpt lat="42.99822" lon="17.80802">
        <ele>375.507412</ele>
        <time>2022-06-11T12:34:42.008Z</time>
      </trkpt>
      <trkpt lat="42.9983" lon="17.80794">
        <ele>375.51713</ele>
        <time>2022-06-11T12:34:44.032Z</time>
      </trkpt>
      <trkpt lat="42.99837" lon="17.80787">
        <ele>375.527232</ele>
        <time>2022-06-11T12:34:46.059Z</time>
      </trkpt>
      <trkpt lat="42.99845" lon="17.80776">
        <ele>375.538909</ele>
        <time>2022-06-11T12:34:49.014Z</time>
      </trkpt>
      <trkpt lat="42.99853" lon="17.80768">
        <ele>375.391355</ele>
        <time>2022-06-11T12:34:52.073Z</time>
      </trkpt>
      <trkpt lat="42.99861" lon="17.80758">
        <ele>375.175908</ele>
        <time>2022-06-11T12:34:56.005Z</time>
      </trkpt>
      <trkpt lat="42.9987" lon="17.80748">
        <ele>374.94157</ele>
        <time>2022-06-11T12:35:00.036Z</time>
      </trkpt>
      <trkpt lat="42.99877" lon="17.80738">
        <ele>374.722381</ele>
        <time>2022-06-11T12:35:03.014Z</time>
      </trkpt>
      <trkpt lat="42.99885" lon="17.80727">
        <ele>374.503845</ele>
        <time>2022-06-11T12:35:06.016Z</time>
      </trkpt>
      <trkpt lat="42.99894" lon="17.80716">
        <ele>374.256445</ele>
        <time>2022-06-11T12:35:09.048Z</time>
      </trkpt>
      <trkpt lat="42.99901" lon="17.80708">
        <ele>374.072505</ele>
        <time>2022-06-11T12:35:11.030Z</time>
      </trkpt>
      <trkpt lat="42.99907" lon="17.807">
        <ele>373.88958</ele>
        <time>2022-06-11T12:35:13.020Z</time>
      </trkpt>
      <trkpt lat="42.99914" lon="17.80691">
        <ele>373.703664</ele>
        <time>2022-06-11T12:35:15.013Z</time>
      </trkpt>
      <trkpt lat="42.99921" lon="17.80683">
        <ele>373.507746</ele>
        <time>2022-06-11T12:35:17.011Z</time>
      </trkpt>
      <trkpt lat="42.99929" lon="17.80673">
        <ele>373.303334</ele>
        <time>2022-06-11T12:35:19.037Z</time>
      </trkpt>
      <trkpt lat="42.99936" lon="17.80663">
        <ele>373.089355</ele>
        <time>2022-06-11T12:35:21.019Z</time>
      </trkpt>
      <trkpt lat="42.99944" lon="17.80653">
        <ele>372.868923</ele>
        <time>2022-06-11T12:35:23.012Z</time>
      </trkpt>
      <trkpt lat="42.99952" lon="17.80642">
        <ele>372.637699</ele>
        <time>2022-06-11T12:35:25.014Z</time>
      </trkpt>
      <trkpt lat="42.99961" lon="17.80631">
        <ele>372.395728</ele>
        <time>2022-06-11T12:35:27.050Z</time>
      </trkpt>
      <trkpt lat="42.99969" lon="17.8062">
        <ele>372.170758</ele>
        <time>2022-06-11T12:35:29.019Z</time>
      </trkpt>
      <trkpt lat="42.99976" lon="17.80611">
        <ele>371.973873</ele>
        <time>2022-06-11T12:35:31.081Z</time>
      </trkpt>
      <trkpt lat="42.99983" lon="17.80603">
        <ele>371.635243</ele>
        <time>2022-06-11T12:35:33.024Z</time>
      </trkpt>
      <trkpt lat="42.99991" lon="17.80596">
        <ele>371.150184</ele>
        <time>2022-06-11T12:35:35.062Z</time>
      </trkpt>
      <trkpt lat="42.99999" lon="17.80588">
        <ele>370.656749</ele>
        <time>2022-06-11T12:35:37.073Z</time>
      </trkpt>
      <trkpt lat="43.00007" lon="17.8058">
        <ele>370.148436</ele>
        <time>2022-06-11T12:35:39.020Z</time>
      </trkpt>
      <trkpt lat="43.00015" lon="17.80572">
        <ele>369.656331</ele>
        <time>2022-06-11T12:35:41.029Z</time>
      </trkpt>
      <trkpt lat="43.00023" lon="17.80564">
        <ele>369.133532</ele>
        <time>2022-06-11T12:35:43.013Z</time>
      </trkpt>
      <trkpt lat="43.00031" lon="17.80556">
        <ele>368.650321</ele>
        <time>2022-06-11T12:35:45.020Z</time>
      </trkpt>
      <trkpt lat="43.00039" lon="17.80548">
        <ele>368.154763</ele>
        <time>2022-06-11T12:35:47.020Z</time>
      </trkpt>
      <trkpt lat="43.00047" lon="17.8054">
        <ele>367.62543</ele>
        <time>2022-06-11T12:35:49.024Z</time>
      </trkpt>
      <trkpt lat="43.00056" lon="17.80531">
        <ele>367.079465</ele>
        <time>2022-06-11T12:35:51.024Z</time>
      </trkpt>
      <trkpt lat="43.00064" lon="17.80522">
        <ele>366.533142</ele>
        <time>2022-06-11T12:35:53.011Z</time>
      </trkpt>
      <trkpt lat="43.00073" lon="17.80513">
        <ele>365.986819</ele>
        <time>2022-06-11T12:35:55.024Z</time>
      </trkpt>
      <trkpt lat="43.00082" lon="17.80505">
        <ele>365.45154</ele>
        <time>2022-06-11T12:35:57.026Z</time>
      </trkpt>
      <trkpt lat="43.0009" lon="17.80497">
        <ele>364.933012</ele>
        <time>2022-06-11T12:35:59.065Z</time>
      </trkpt>
      <trkpt lat="43.00098" lon="17.8049">
        <ele>364.437456</ele>
        <time>2022-06-11T12:36:01.048Z</time>
      </trkpt>
      <trkpt lat="43.00106" lon="17.80482">
        <ele>363.941537</ele>
        <time>2022-06-11T12:36:03.029Z</time>
      </trkpt>
      <trkpt lat="43.00115" lon="17.80476">
        <ele>363.452488</ele>
        <time>2022-06-11T12:36:05.016Z</time>
      </trkpt>
      <trkpt lat="43.00123" lon="17.8047">
        <ele>362.97163</ele>
        <time>2022-06-11T12:36:07.022Z</time>
      </trkpt>
      <trkpt lat="43.00132" lon="17.80462">
        <ele>362.198714</ele>
        <time>2022-06-11T12:36:09.031Z</time>
      </trkpt>
      <trkpt lat="43.00141" lon="17.80453">
        <ele>361.261075</ele>
        <time>2022-06-11T12:36:11.045Z</time>
      </trkpt>
      <trkpt lat="43.0015" lon="17.80444">
        <ele>360.274621</ele>
        <time>2022-06-11T12:36:13.033Z</time>
      </trkpt>
      <trkpt lat="43.00159" lon="17.80436">
        <ele>359.298546</ele>
        <time>2022-06-11T12:36:15.014Z</time>
      </trkpt>
      <trkpt lat="43.00168" lon="17.80428">
        <ele>358.407393</ele>
        <time>2022-06-11T12:36:17.025Z</time>
      </trkpt>
      <trkpt lat="43.00177" lon="17.80422">
        <ele>357.562223</ele>
        <time>2022-06-11T12:36:19.024Z</time>
      </trkpt>
      <trkpt lat="43.00188" lon="17.80414">
        <ele>356.503601</ele>
        <time>2022-06-11T12:36:22.069Z</time>
      </trkpt>
      <trkpt lat="43.00199" lon="17.80405">
        <ele>355.333769</ele>
        <time>2022-06-11T12:36:25.024Z</time>
      </trkpt>
      <trkpt lat="43.00211" lon="17.80396">
        <ele>354.192654</ele>
        <time>2022-06-11T12:36:28.049Z</time>
      </trkpt>
      <trkpt lat="43.00222" lon="17.8039">
        <ele>353.119402</ele>
        <time>2022-06-11T12:36:31.016Z</time>
      </trkpt>
      <trkpt lat="43.00232" lon="17.80388">
        <ele>352.256279</ele>
        <time>2022-06-11T12:36:33.031Z</time>
      </trkpt>
      <trkpt lat="43.00241" lon="17.80384">
        <ele>351.429488</ele>
        <time>2022-06-11T12:36:35.034Z</time>
      </trkpt>
      <trkpt lat="43.00252" lon="17.80376">
        <ele>350.31736</ele>
        <time>2022-06-11T12:36:38.030Z</time>
      </trkpt>
      <trkpt lat="43.00259" lon="17.80365">
        <ele>349.459744</ele>
        <time>2022-06-11T12:36:40.069Z</time>
      </trkpt>
      <trkpt lat="43.00264" lon="17.80352">
        <ele>348.50759</ele>
        <time>2022-06-11T12:36:42.019Z</time>
      </trkpt>
      <trkpt lat="43.00269" lon="17.80338">
        <ele>347.499242</ele>
        <time>2022-06-11T12:36:44.026Z</time>
      </trkpt>
      <trkpt lat="43.00272" lon="17.80324">
        <ele>346.455886</ele>
        <time>2022-06-11T12:36:46.018Z</time>
      </trkpt>
      <trkpt lat="43.00277" lon="17.80308">
        <ele>345.02775</ele>
        <time>2022-06-11T12:36:49.028Z</time>
      </trkpt>
      <trkpt lat="43.00279" lon="17.80296">
        <ele>344.039857</ele>
        <time>2022-06-11T12:36:51.049Z</time>
      </trkpt>
      <trkpt lat="43.0028" lon="17.80283">
        <ele>342.997413</ele>
        <time>2022-06-11T12:36:53.011Z</time>
      </trkpt>
      <trkpt lat="43.00279" lon="17.80268">
        <ele>341.852165</ele>
        <time>2022-06-11T12:36:55.020Z</time>
      </trkpt>
      <trkpt lat="43.00279" lon="17.80253">
        <ele>340.643681</ele>
        <time>2022-06-11T12:36:57.013Z</time>
      </trkpt>
      <trkpt lat="43.0028" lon="17.8024">
        <ele>339.546414</ele>
        <time>2022-06-11T12:36:59.026Z</time>
      </trkpt>
      <trkpt lat="43.0028" lon="17.80222">
        <ele>338.105522</ele>
        <time>2022-06-11T12:37:02.084Z</time>
      </trkpt>
      <trkpt lat="43.0028" lon="17.80209">
        <ele>337.110996</ele>
        <time>2022-06-11T12:37:04.019Z</time>
      </trkpt>
      <trkpt lat="43.00282" lon="17.80196">
        <ele>335.993882</ele>
        <time>2022-06-11T12:37:06.028Z</time>
      </trkpt>
      <trkpt lat="43.00286" lon="17.80183">
        <ele>334.88091</ele>
        <time>2022-06-11T12:37:08.019Z</time>
      </trkpt>
      <trkpt lat="43.00291" lon="17.80172">
        <ele>333.868261</ele>
        <time>2022-06-11T12:37:10.028Z</time>
      </trkpt>
      <trkpt lat="43.00297" lon="17.80163">
        <ele>332.875773</ele>
        <time>2022-06-11T12:37:12.025Z</time>
      </trkpt>
      <trkpt lat="43.00305" lon="17.80156">
        <ele>331.833041</ele>
        <time>2022-06-11T12:37:14.022Z</time>
      </trkpt>
      <trkpt lat="43.00318" lon="17.80153">
        <ele>330.449091</ele>
        <time>2022-06-11T12:37:16.027Z</time>
      </trkpt>
      <trkpt lat="43.0033" lon="17.80151">
        <ele>329.085349</ele>
        <time>2022-06-11T12:37:18.083Z</time>
      </trkpt>
      <trkpt lat="43.00342" lon="17.80153">
        <ele>327.740737</ele>
        <time>2022-06-11T12:37:20.028Z</time>
      </trkpt>
      <trkpt lat="43.00354" lon="17.80158">
        <ele>326.498494</ele>
        <time>2022-06-11T12:37:22.020Z</time>
      </trkpt>
      <trkpt lat="43.00365" lon="17.80167">
        <ele>325.191157</ele>
        <time>2022-06-11T12:37:24.030Z</time>
      </trkpt>
      <trkpt lat="43.00376" lon="17.80178">
        <ele>323.771955</ele>
        <time>2022-06-11T12:37:26.028Z</time>
      </trkpt>
      <trkpt lat="43.00387" lon="17.80188">
        <ele>322.404273</ele>
        <time>2022-06-11T12:37:28.035Z</time>
      </trkpt>
      <trkpt lat="43.00397" lon="17.80198">
        <ele>321.121719</ele>
        <time>2022-06-11T12:37:30.027Z</time>
      </trkpt>
      <trkpt lat="43.00408" lon="17.80207">
        <ele>319.774525</ele>
        <time>2022-06-11T12:37:32.024Z</time>
      </trkpt>
      <trkpt lat="43.00419" lon="17.80217">
        <ele>318.410607</ele>
        <time>2022-06-11T12:37:34.022Z</time>
      </trkpt>
      <trkpt lat="43.00429" lon="17.80228">
        <ele>317.120155</ele>
        <time>2022-06-11T12:37:36.020Z</time>
      </trkpt>
      <trkpt lat="43.00436" lon="17.80239">
        <ele>316.010664</ele>
        <time>2022-06-11T12:37:38.025Z</time>
      </trkpt>
      <trkpt lat="43.00441" lon="17.80251">
        <ele>314.996277</ele>
        <time>2022-06-11T12:37:40.064Z</time>
      </trkpt>
      <trkpt lat="43.00446" lon="17.80262">
        <ele>314.010014</ele>
        <time>2022-06-11T12:37:42.037Z</time>
      </trkpt>
      <trkpt lat="43.00453" lon="17.80275">
        <ele>312.850072</ele>
        <time>2022-06-11T12:37:44.015Z</time>
      </trkpt>
      <trkpt lat="43.00459" lon="17.80288">
        <ele>311.61635</ele>
        <time>2022-06-11T12:37:46.053Z</time>
      </trkpt>
      <trkpt lat="43.00465" lon="17.80302">
        <ele>310.425363</ele>
        <time>2022-06-11T12:37:48.031Z</time>
      </trkpt>
      <trkpt lat="43.00471" lon="17.80316">
        <ele>309.217476</ele>
        <time>2022-06-11T12:37:50.024Z</time>
      </trkpt>
      <trkpt lat="43.00477" lon="17.80327">
        <ele>308.659438</ele>
        <time>2022-06-11T12:37:52.054Z</time>
      </trkpt>
      <trkpt lat="43.00482" lon="17.80338">
        <ele>308.252763</ele>
        <time>2022-06-11T12:37:54.020Z</time>
      </trkpt>
      <trkpt lat="43.00487" lon="17.8035">
        <ele>307.789061</ele>
        <time>2022-06-11T12:37:56.015Z</time>
      </trkpt>
      <trkpt lat="43.00495" lon="17.80363">
        <ele>307.261051</ele>
        <time>2022-06-11T12:37:58.018Z</time>
      </trkpt>
      <trkpt lat="43.00504" lon="17.80376">
        <ele>306.693285</ele>
        <time>2022-06-11T12:38:00.025Z</time>
      </trkpt>
      <trkpt lat="43.00512" lon="17.80388">
        <ele>306.185242</ele>
        <time>2022-06-11T12:38:02.031Z</time>
      </trkpt>
      <trkpt lat="43.00518" lon="17.80397">
        <ele>305.764129</ele>
        <time>2022-06-11T12:38:04.025Z</time>
      </trkpt>
      <trkpt lat="43.00524" lon="17.80407">
        <ele>305.3625</ele>
        <time>2022-06-11T12:38:06.031Z</time>
      </trkpt>
      <trkpt lat="43.0053" lon="17.80417">
        <ele>304.938189</ele>
        <time>2022-06-11T12:38:08.022Z</time>
      </trkpt>
      <trkpt lat="43.00536" lon="17.80428">
        <ele>304.500818</ele>
        <time>2022-06-11T12:38:10.015Z</time>
      </trkpt>
      <trkpt lat="43.00542" lon="17.8044">
        <ele>304.032517</ele>
        <time>2022-06-11T12:38:12.019Z</time>
      </trkpt>
      <trkpt lat="43.00549" lon="17.80451">
        <ele>303.561007</ele>
        <time>2022-06-11T12:38:14.039Z</time>
      </trkpt>
      <trkpt lat="43.00555" lon="17.80462">
        <ele>303.136678</ele>
        <time>2022-06-11T12:38:16.038Z</time>
      </trkpt>
      <trkpt lat="43.0056" lon="17.80472">
        <ele>302.73564</ele>
        <time>2022-06-11T12:38:18.029Z</time>
      </trkpt>
      <trkpt lat="43.00568" lon="17.80486">
        <ele>302.173939</ele>
        <time>2022-06-11T12:38:21.026Z</time>
      </trkpt>
      <trkpt lat="43.00573" lon="17.80512">
        <ele>301.304119</ele>
        <time>2022-06-11T12:47:50.036Z</time>
      </trkpt>
      <trkpt lat="43.00574" lon="17.80527">
        <ele>300.735674</ele>
        <time>2022-06-11T12:47:54.037Z</time>
      </trkpt>
      <trkpt lat="43.00574" lon="17.80543">
        <ele>300.084456</ele>
        <time>2022-06-11T12:47:57.031Z</time>
      </trkpt>
      <trkpt lat="43.00572" lon="17.80559">
        <ele>299.410916</ele>
        <time>2022-06-11T12:48:00.015Z</time>
      </trkpt>
      <trkpt lat="43.00568" lon="17.80574">
        <ele>298.754755</ele>
        <time>2022-06-11T12:48:03.024Z</time>
      </trkpt>
      <trkpt lat="43.00563" lon="17.80586">
        <ele>298.17649</ele>
        <time>2022-06-11T12:48:06.022Z</time>
      </trkpt>
      <trkpt lat="43.00555" lon="17.80596">
        <ele>297.592172</ele>
        <time>2022-06-11T12:48:09.021Z</time>
      </trkpt>
      <trkpt lat="43.00544" lon="17.80601">
        <ele>296.955664</ele>
        <time>2022-06-11T12:48:12.020Z</time>
      </trkpt>
      <trkpt lat="43.00533" lon="17.80604">
        <ele>296.286438</ele>
        <time>2022-06-11T12:48:15.036Z</time>
      </trkpt>
      <trkpt lat="43.00522" lon="17.80609">
        <ele>295.629324</ele>
        <time>2022-06-11T12:48:18.035Z</time>
      </trkpt>
      <trkpt lat="43.0052" lon="17.80623">
        <ele>295.047853</ele>
        <time>2022-06-11T12:48:21.057Z</time>
      </trkpt>
      <trkpt lat="43.00527" lon="17.80634">
        <ele>294.501751</ele>
        <time>2022-06-11T12:48:23.007Z</time>
      </trkpt>
      <trkpt lat="43.00537" lon="17.80641">
        <ele>293.822411</ele>
        <time>2022-06-11T12:48:25.022Z</time>
      </trkpt>
      <trkpt lat="43.00547" lon="17.80645">
        <ele>293.272412</ele>
        <time>2022-06-11T12:48:27.055Z</time>
      </trkpt>
      <trkpt lat="43.00559" lon="17.80649">
        <ele>292.534429</ele>
        <time>2022-06-11T12:48:30.032Z</time>
      </trkpt>
      <trkpt lat="43.00573" lon="17.80652">
        <ele>291.780763</ele>
        <time>2022-06-11T12:48:33.008Z</time>
      </trkpt>
      <trkpt lat="43.00582" lon="17.80654">
        <ele>291.235358</ele>
        <time>2022-06-11T12:48:35.031Z</time>
      </trkpt>
      <trkpt lat="43.00595" lon="17.80653">
        <ele>290.610447</ele>
        <time>2022-06-11T12:48:38.058Z</time>
      </trkpt>
      <trkpt lat="43.00607" lon="17.80649">
        <ele>290.064488</ele>
        <time>2022-06-11T12:48:41.054Z</time>
      </trkpt>
      <trkpt lat="43.00617" lon="17.8064">
        <ele>289.51821</ele>
        <time>2022-06-11T12:48:44.050Z</time>
      </trkpt>
      <trkpt lat="43.00626" lon="17.80628">
        <ele>288.966268</ele>
        <time>2022-06-11T12:48:47.020Z</time>
      </trkpt>
      <trkpt lat="43.00633" lon="17.80619">
        <ele>288.534467</ele>
        <time>2022-06-11T12:48:50.095Z</time>
      </trkpt>
      <trkpt lat="43.00643" lon="17.80618">
        <ele>288.099033</ele>
        <time>2022-06-11T12:48:54.030Z</time>
      </trkpt>
      <trkpt lat="43.00643" lon="17.80633">
        <ele>287.592205</ele>
        <time>2022-06-11T12:48:58.028Z</time>
      </trkpt>
      <trkpt lat="43.00633" lon="17.80645">
        <ele>287.009345</ele>
        <time>2022-06-11T12:49:01.056Z</time>
      </trkpt>
      <trkpt lat="43.00621" lon="17.80652">
        <ele>286.414971</ele>
        <time>2022-06-11T12:49:04.031Z</time>
      </trkpt>
      <trkpt lat="43.0061" lon="17.80655">
        <ele>285.94048</ele>
        <time>2022-06-11T12:49:07.023Z</time>
      </trkpt>
      <trkpt lat="43.006" lon="17.80659">
        <ele>285.454455</ele>
        <time>2022-06-11T12:49:11.006Z</time>
      </trkpt>
      <trkpt lat="43.00589" lon="17.80661">
        <ele>284.954329</ele>
        <time>2022-06-11T12:49:15.019Z</time>
      </trkpt>
      <trkpt lat="43.00579" lon="17.80665">
        <ele>284.505656</ele>
        <time>2022-06-11T12:49:18.025Z</time>
      </trkpt>
      <trkpt lat="43.00567" lon="17.80668">
        <ele>283.950282</ele>
        <time>2022-06-11T12:49:21.037Z</time>
      </trkpt>
      <trkpt lat="43.00558" lon="17.8067">
        <ele>283.529607</ele>
        <time>2022-06-11T12:49:23.018Z</time>
      </trkpt>
      <trkpt lat="43.00547" lon="17.80673">
        <ele>283.065736</ele>
        <time>2022-06-11T12:49:25.021Z</time>
      </trkpt>
      <trkpt lat="43.00538" lon="17.80676">
        <ele>282.661023</ele>
        <time>2022-06-11T12:49:27.012Z</time>
      </trkpt>
      <trkpt lat="43.00528" lon="17.80678">
        <ele>282.288581</ele>
        <time>2022-06-11T12:49:29.032Z</time>
      </trkpt>
      <trkpt lat="43.00519" lon="17.80679">
        <ele>281.936163</ele>
        <time>2022-06-11T12:49:31.036Z</time>
      </trkpt>
      <trkpt lat="43.0051" lon="17.80677">
        <ele>281.562674</ele>
        <time>2022-06-11T12:49:33.017Z</time>
      </trkpt>
      <trkpt lat="43.00501" lon="17.80672">
        <ele>281.183792</ele>
        <time>2022-06-11T12:49:35.048Z</time>
      </trkpt>
      <trkpt lat="43.00492" lon="17.80662">
        <ele>280.729044</ele>
        <time>2022-06-11T12:49:38.026Z</time>
      </trkpt>
      <trkpt lat="43.00487" lon="17.80649">
        <ele>280.328154</ele>
        <time>2022-06-11T12:49:41.026Z</time>
      </trkpt>
      <trkpt lat="43.00485" lon="17.80634">
        <ele>279.886571</ele>
        <time>2022-06-11T12:49:44.036Z</time>
      </trkpt>
      <trkpt lat="43.00483" lon="17.80618">
        <ele>279.432031</ele>
        <time>2022-06-11T12:49:47.020Z</time>
      </trkpt>
      <trkpt lat="43.00481" lon="17.80603">
        <ele>278.992208</ele>
        <time>2022-06-11T12:49:50.028Z</time>
      </trkpt>
      <trkpt lat="43.00479" lon="17.80588">
        <ele>278.553061</ele>
        <time>2022-06-11T12:49:53.024Z</time>
      </trkpt>
      <trkpt lat="43.00472" lon="17.80576">
        <ele>278.122444</ele>
        <time>2022-06-11T12:49:56.064Z</time>
      </trkpt>
      <trkpt lat="43.00462" lon="17.8058">
        <ele>277.707792</ele>
        <time>2022-06-11T12:49:59.034Z</time>
      </trkpt>
      <trkpt lat="43.00458" lon="17.80597">
        <ele>277.211991</ele>
        <time>2022-06-11T12:50:02.028Z</time>
      </trkpt>
      <trkpt lat="43.00458" lon="17.80611">
        <ele>276.798126</ele>
        <time>2022-06-11T12:50:04.029Z</time>
      </trkpt>
      <trkpt lat="43.00462" lon="17.80625">
        <ele>276.390954</ele>
        <time>2022-06-11T12:50:06.024Z</time>
      </trkpt>
      <trkpt lat="43.00466" lon="17.80639">
        <ele>275.926347</ele>
        <time>2022-06-11T12:50:08.054Z</time>
      </trkpt>
      <trkpt lat="43.0047" lon="17.80656">
        <ele>275.180349</ele>
        <time>2022-06-11T12:50:10.032Z</time>
      </trkpt>
      <trkpt lat="43.00475" lon="17.80671">
        <ele>274.476348</ele>
        <time>2022-06-11T12:50:12.035Z</time>
      </trkpt>
      <trkpt lat="43.0048" lon="17.80685">
        <ele>273.812543</ele>
        <time>2022-06-11T12:50:14.059Z</time>
      </trkpt>
      <trkpt lat="43.00487" lon="17.80696">
        <ele>273.180034</ele>
        <time>2022-06-11T12:50:16.020Z</time>
      </trkpt>
      <trkpt lat="43.00497" lon="17.80704">
        <ele>272.482504</ele>
        <time>2022-06-11T12:50:18.014Z</time>
      </trkpt>
      <trkpt lat="43.0051" lon="17.80709">
        <ele>271.702996</ele>
        <time>2022-06-11T12:50:20.067Z</time>
      </trkpt>
      <trkpt lat="43.00522" lon="17.80713">
        <ele>270.971195</ele>
        <time>2022-06-11T12:50:22.028Z</time>
      </trkpt>
      <trkpt lat="43.00534" lon="17.80716">
        <ele>270.243499</ele>
        <time>2022-06-11T12:50:24.029Z</time>
      </trkpt>
      <trkpt lat="43.00546" lon="17.80718">
        <ele>269.581958</ele>
        <time>2022-06-11T12:50:26.024Z</time>
      </trkpt>
      <trkpt lat="43.00556" lon="17.80719">
        <ele>268.97431</ele>
        <time>2022-06-11T12:50:28.031Z</time>
      </trkpt>
      <trkpt lat="43.00567" lon="17.8072">
        <ele>268.319912</ele>
        <time>2022-06-11T12:50:30.035Z</time>
      </trkpt>
      <trkpt lat="43.0058" lon="17.80722">
        <ele>267.535724</ele>
        <time>2022-06-11T12:50:32.031Z</time>
      </trkpt>
      <trkpt lat="43.00594" lon="17.80724">
        <ele>266.72191</ele>
        <time>2022-06-11T12:50:34.020Z</time>
      </trkpt>
      <trkpt lat="43.00607" lon="17.80725">
        <ele>265.93811</ele>
        <time>2022-06-11T12:50:36.034Z</time>
      </trkpt>
      <trkpt lat="43.0062" lon="17.80727">
        <ele>265.133842</ele>
        <time>2022-06-11T12:50:38.042Z</time>
      </trkpt>
      <trkpt lat="43.00632" lon="17.80728">
        <ele>264.086519</ele>
        <time>2022-06-11T12:50:40.014Z</time>
      </trkpt>
      <trkpt lat="43.00645" lon="17.8073">
        <ele>263.028714</ele>
        <time>2022-06-11T12:50:42.029Z</time>
      </trkpt>
      <trkpt lat="43.00657" lon="17.80732">
        <ele>262.001005</ele>
        <time>2022-06-11T12:50:44.018Z</time>
      </trkpt>
      <trkpt lat="43.0067" lon="17.80735">
        <ele>260.977109</ele>
        <time>2022-06-11T12:50:46.049Z</time>
      </trkpt>
      <trkpt lat="43.00682" lon="17.80737">
        <ele>259.972358</ele>
        <time>2022-06-11T12:50:48.031Z</time>
      </trkpt>
      <trkpt lat="43.00693" lon="17.80737">
        <ele>259.044441</ele>
        <time>2022-06-11T12:50:50.025Z</time>
      </trkpt>
      <trkpt lat="43.00703" lon="17.80734">
        <ele>258.212437</ele>
        <time>2022-06-11T12:50:52.021Z</time>
      </trkpt>
      <trkpt lat="43.00711" lon="17.80728">
        <ele>257.460481</ele>
        <time>2022-06-11T12:50:54.025Z</time>
      </trkpt>
      <trkpt lat="43.00721" lon="17.80717">
        <ele>256.390764</ele>
        <time>2022-06-11T12:50:57.041Z</time>
      </trkpt>
      <trkpt lat="43.0073" lon="17.80705">
        <ele>255.343914</ele>
        <time>2022-06-11T12:51:00.064Z</time>
      </trkpt>
      <trkpt lat="43.00737" lon="17.80694">
        <ele>254.428317</ele>
        <time>2022-06-11T12:51:03.023Z</time>
      </trkpt>
      <trkpt lat="43.00745" lon="17.80684">
        <ele>253.535935</ele>
        <time>2022-06-11T12:51:06.030Z</time>
      </trkpt>
      <trkpt lat="43.00751" lon="17.80671">
        <ele>252.630873</ele>
        <time>2022-06-11T12:51:09.029Z</time>
      </trkpt>
      <trkpt lat="43.00752" lon="17.80655">
        <ele>251.615738</ele>
        <time>2022-06-11T12:51:12.011Z</time>
      </trkpt>
      <trkpt lat="43.00752" lon="17.8064">
        <ele>250.754812</ele>
        <time>2022-06-11T12:51:14.025Z</time>
      </trkpt>
      <trkpt lat="43.0075" lon="17.80625">
        <ele>250.108294</ele>
        <time>2022-06-11T12:51:16.029Z</time>
      </trkpt>
      <trkpt lat="43.00747" lon="17.80609">
        <ele>249.526097</ele>
        <time>2022-06-11T12:51:18.022Z</time>
      </trkpt>
      <trkpt lat="43.00744" lon="17.80594">
        <ele>248.991779</ele>
        <time>2022-06-11T12:51:20.016Z</time>
      </trkpt>
      <trkpt lat="43.00741" lon="17.80581">
        <ele>248.521449</ele>
        <time>2022-06-11T12:51:22.008Z</time>
      </trkpt>
      <trkpt lat="43.00737" lon="17.80568">
        <ele>248.04918</ele>
        <time>2022-06-11T12:51:24.055Z</time>
      </trkpt>
      <trkpt lat="43.00736" lon="17.80555">
        <ele>247.619513</ele>
        <time>2022-06-11T12:51:26.051Z</time>
      </trkpt>
      <trkpt lat="43.0074" lon="17.80538">
        <ele>246.985446</ele>
        <time>2022-06-11T12:51:29.022Z</time>
      </trkpt>
      <trkpt lat="43.00747" lon="17.80528">
        <ele>246.51712</ele>
        <time>2022-06-11T12:51:31.023Z</time>
      </trkpt>
      <trkpt lat="43.00755" lon="17.80522">
        <ele>246.079927</ele>
        <time>2022-06-11T12:51:33.047Z</time>
      </trkpt>
      <trkpt lat="43.00766" lon="17.8052">
        <ele>245.561524</ele>
        <time>2022-06-11T12:51:36.021Z</time>
      </trkpt>
      <trkpt lat="43.00777" lon="17.80519">
        <ele>245.064227</ele>
        <time>2022-06-11T12:51:39.056Z</time>
      </trkpt>
      <trkpt lat="43.00787" lon="17.80519">
        <ele>244.590378</ele>
        <time>2022-06-11T12:51:42.014Z</time>
      </trkpt>
      <trkpt lat="43.008" lon="17.80518">
        <ele>244.002856</ele>
        <time>2022-06-11T12:51:45.025Z</time>
      </trkpt>
      <trkpt lat="43.00809" lon="17.80517">
        <ele>243.57333</ele>
        <time>2022-06-11T12:51:47.027Z</time>
      </trkpt>
      <trkpt lat="43.00822" lon="17.80515">
        <ele>242.943676</ele>
        <time>2022-06-11T12:51:50.024Z</time>
      </trkpt>
      <trkpt lat="43.00835" lon="17.80515">
        <ele>242.324296</ele>
        <time>2022-06-11T12:51:53.021Z</time>
      </trkpt>
      <trkpt lat="43.00844" lon="17.80515">
        <ele>241.890133</ele>
        <time>2022-06-11T12:51:55.035Z</time>
      </trkpt>
      <trkpt lat="43.00853" lon="17.80515">
        <ele>241.433908</ele>
        <time>2022-06-11T12:51:57.050Z</time>
      </trkpt>
      <trkpt lat="43.00866" lon="17.80514">
        <ele>240.774601</ele>
        <time>2022-06-11T12:52:00.029Z</time>
      </trkpt>
      <trkpt lat="43.00876" lon="17.80513">
        <ele>240.287753</ele>
        <time>2022-06-11T12:52:02.028Z</time>
      </trkpt>
      <trkpt lat="43.00886" lon="17.80512">
        <ele>239.753125</ele>
        <time>2022-06-11T12:52:04.024Z</time>
      </trkpt>
      <trkpt lat="43.00897" lon="17.80508">
        <ele>239.179941</ele>
        <time>2022-06-11T12:52:06.027Z</time>
      </trkpt>
      <trkpt lat="43.00908" lon="17.80502">
        <ele>238.568028</ele>
        <time>2022-06-11T12:52:08.029Z</time>
      </trkpt>
      <trkpt lat="43.00919" lon="17.80491">
        <ele>237.897189</ele>
        <time>2022-06-11T12:52:10.055Z</time>
      </trkpt>
      <trkpt lat="43.00927" lon="17.80478">
        <ele>237.267559</ele>
        <time>2022-06-11T12:52:12.033Z</time>
      </trkpt>
      <trkpt lat="43.00933" lon="17.80462">
        <ele>236.614383</ele>
        <time>2022-06-11T12:52:14.062Z</time>
      </trkpt>
      <trkpt lat="43.00936" lon="17.80446">
        <ele>236.011753</ele>
        <time>2022-06-11T12:52:16.013Z</time>
      </trkpt>
      <trkpt lat="43.00936" lon="17.80431">
        <ele>235.422526</ele>
        <time>2022-06-11T12:52:18.023Z</time>
      </trkpt>
      <trkpt lat="43.00932" lon="17.80415">
        <ele>234.818314</ele>
        <time>2022-06-11T12:52:20.038Z</time>
      </trkpt>
      <trkpt lat="43.00926" lon="17.80402">
        <ele>234.225514</ele>
        <time>2022-06-11T12:52:22.028Z</time>
      </trkpt>
      <trkpt lat="43.00919" lon="17.8039">
        <ele>233.68086</ele>
        <time>2022-06-11T12:52:24.034Z</time>
      </trkpt>
      <trkpt lat="43.00913" lon="17.8038">
        <ele>233.186808</ele>
        <time>2022-06-11T12:52:26.030Z</time>
      </trkpt>
      <trkpt lat="43.00907" lon="17.8037">
        <ele>232.883988</ele>
        <time>2022-06-11T12:52:28.028Z</time>
      </trkpt>
      <trkpt lat="43.00901" lon="17.80356">
        <ele>232.728248</ele>
        <time>2022-06-11T12:52:31.011Z</time>
      </trkpt>
      <trkpt lat="43.00896" lon="17.8034">
        <ele>232.564741</ele>
        <time>2022-06-11T12:52:34.026Z</time>
      </trkpt>
      <trkpt lat="43.00891" lon="17.80328">
        <ele>232.43408</ele>
        <time>2022-06-11T12:52:36.019Z</time>
      </trkpt>
      <trkpt lat="43.00887" lon="17.80315">
        <ele>232.301544</ele>
        <time>2022-06-11T12:52:38.017Z</time>
      </trkpt>
      <trkpt lat="43.00885" lon="17.803">
        <ele>232.16241</ele>
        <time>2022-06-11T12:52:40.020Z</time>
      </trkpt>
      <trkpt lat="43.00884" lon="17.80285">
        <ele>232.019678</ele>
        <time>2022-06-11T12:52:42.020Z</time>
      </trkpt>
      <trkpt lat="43.00883" lon="17.8027">
        <ele>231.876946</ele>
        <time>2022-06-11T12:52:44.032Z</time>
      </trkpt>
      <trkpt lat="43.00882" lon="17.80255">
        <ele>231.732088</ele>
        <time>2022-06-11T12:52:46.025Z</time>
      </trkpt>
      <trkpt lat="43.00882" lon="17.8024">
        <ele>231.591132</ele>
        <time>2022-06-11T12:52:48.015Z</time>
      </trkpt>
      <trkpt lat="43.00884" lon="17.80226">
        <ele>231.459749</ele>
        <time>2022-06-11T12:52:50.019Z</time>
      </trkpt>
      <trkpt lat="43.00885" lon="17.80212">
        <ele>231.330861</ele>
        <time>2022-06-11T12:52:52.023Z</time>
      </trkpt>
      <trkpt lat="43.00887" lon="17.80198">
        <ele>231.200984</ele>
        <time>2022-06-11T12:52:54.009Z</time>
      </trkpt>
      <trkpt lat="43.00889" lon="17.80185">
        <ele>231.075297</ele>
        <time>2022-06-11T12:52:56.028Z</time>
      </trkpt>
      <trkpt lat="43.00891" lon="17.80173">
        <ele>230.952811</ele>
        <time>2022-06-11T12:52:58.055Z</time>
      </trkpt>
      <trkpt lat="43.00893" lon="17.8016">
        <ele>230.828879</ele>
        <time>2022-06-11T12:53:00.023Z</time>
      </trkpt>
      <trkpt lat="43.00896" lon="17.80147">
        <ele>230.704594</ele>
        <time>2022-06-11T12:53:02.030Z</time>
      </trkpt>
      <trkpt lat="43.009" lon="17.80135">
        <ele>230.440201</ele>
        <time>2022-06-11T12:53:04.057Z</time>
      </trkpt>
      <trkpt lat="43.00907" lon="17.80123">
        <ele>229.931196</ele>
        <time>2022-06-11T12:53:06.032Z</time>
      </trkpt>
      <trkpt lat="43.00914" lon="17.80112">
        <ele>229.396081</ele>
        <time>2022-06-11T12:53:08.014Z</time>
      </trkpt>
      <trkpt lat="43.00923" lon="17.80103">
        <ele>228.852069</ele>
        <time>2022-06-11T12:53:10.020Z</time>
      </trkpt>
      <trkpt lat="43.00931" lon="17.80092">
        <ele>228.289225</ele>
        <time>2022-06-11T12:53:13.024Z</time>
      </trkpt>
      <trkpt lat="43.00941" lon="17.80081">
        <ele>227.683603</ele>
        <time>2022-06-11T12:53:17.060Z</time>
      </trkpt>
      <trkpt lat="43.00945" lon="17.80068">
        <ele>227.153012</ele>
        <time>2022-06-11T12:53:21.022Z</time>
      </trkpt>
      <trkpt lat="43.00934" lon="17.80038">
        <ele>225.961187</ele>
        <time>2022-06-11T12:54:19.032Z</time>
      </trkpt>
      <trkpt lat="43.00926" lon="17.80027">
        <ele>225.394511</ele>
        <time>2022-06-11T12:54:22.054Z</time>
      </trkpt>
      <trkpt lat="43.0092" lon="17.80018">
        <ele>224.949264</ele>
        <time>2022-06-11T12:54:24.052Z</time>
      </trkpt>
      <trkpt lat="43.00912" lon="17.8001">
        <ele>224.485863</ele>
        <time>2022-06-11T12:54:26.011Z</time>
      </trkpt>
      <trkpt lat="43.00905" lon="17.80001">
        <ele>224.016446</ele>
        <time>2022-06-11T12:54:28.028Z</time>
      </trkpt>
      <trkpt lat="43.00898" lon="17.79992">
        <ele>223.547212</ele>
        <time>2022-06-11T12:54:30.057Z</time>
      </trkpt>
      <trkpt lat="43.0089" lon="17.79982">
        <ele>223.039578</ele>
        <time>2022-06-11T12:54:32.018Z</time>
      </trkpt>
      <trkpt lat="43.00882" lon="17.79973">
        <ele>222.502498</ele>
        <time>2022-06-11T12:54:34.025Z</time>
      </trkpt>
      <trkpt lat="43.00873" lon="17.79961">
        <ele>221.906449</ele>
        <time>2022-06-11T12:54:36.012Z</time>
      </trkpt>
      <trkpt lat="43.00865" lon="17.79949">
        <ele>220.952097</ele>
        <time>2022-06-11T12:54:38.043Z</time>
      </trkpt>
      <trkpt lat="43.00857" lon="17.79936">
        <ele>219.944331</ele>
        <time>2022-06-11T12:54:40.018Z</time>
      </trkpt>
      <trkpt lat="43.00848" lon="17.79923">
        <ele>218.839023</ele>
        <time>2022-06-11T12:54:42.034Z</time>
      </trkpt>
      <trkpt lat="43.00839" lon="17.7991">
        <ele>217.749736</ele>
        <time>2022-06-11T12:54:44.019Z</time>
      </trkpt>
      <trkpt lat="43.00829" lon="17.79901">
        <ele>216.766731</ele>
        <time>2022-06-11T12:54:46.017Z</time>
      </trkpt>
      <trkpt lat="43.0082" lon="17.79894">
        <ele>215.900763</ele>
        <time>2022-06-11T12:54:48.025Z</time>
      </trkpt>
      <trkpt lat="43.00809" lon="17.79891">
        <ele>215.019832</ele>
        <time>2022-06-11T12:54:50.022Z</time>
      </trkpt>
      <trkpt lat="43.00796" lon="17.79894">
        <ele>213.920962</ele>
        <time>2022-06-11T12:54:52.023Z</time>
      </trkpt>
      <trkpt lat="43.00784" lon="17.79901">
        <ele>212.825473</ele>
        <time>2022-06-11T12:54:54.028Z</time>
      </trkpt>
      <trkpt lat="43.00772" lon="17.79909">
        <ele>211.727271</ele>
        <time>2022-06-11T12:54:56.016Z</time>
      </trkpt>
      <trkpt lat="43.0076" lon="17.79915">
        <ele>210.63068</ele>
        <time>2022-06-11T12:54:58.049Z</time>
      </trkpt>
      <trkpt lat="43.00748" lon="17.79919">
        <ele>209.665897</ele>
        <time>2022-06-11T12:55:00.040Z</time>
      </trkpt>
      <trkpt lat="43.00738" lon="17.79922">
        <ele>208.786958</ele>
        <time>2022-06-11T12:55:02.033Z</time>
      </trkpt>
      <trkpt lat="43.00726" lon="17.79919">
        <ele>207.764466</ele>
        <time>2022-06-11T12:55:05.009Z</time>
      </trkpt>
      <trkpt lat="43.00719" lon="17.7991">
        <ele>206.989796</ele>
        <time>2022-06-11T12:55:07.015Z</time>
      </trkpt>
      <trkpt lat="43.00715" lon="17.79896">
        <ele>206.417041</ele>
        <time>2022-06-11T12:55:09.023Z</time>
      </trkpt>
      <trkpt lat="43.00717" lon="17.79883">
        <ele>205.874759</ele>
        <time>2022-06-11T12:55:11.027Z</time>
      </trkpt>
      <trkpt lat="43.0072" lon="17.7987">
        <ele>205.365777</ele>
        <time>2022-06-11T12:55:13.017Z</time>
      </trkpt>
      <trkpt lat="43.00723" lon="17.79858">
        <ele>204.858918</ele>
        <time>2022-06-11T12:55:15.040Z</time>
      </trkpt>
      <trkpt lat="43.00727" lon="17.79845">
        <ele>204.317614</ele>
        <time>2022-06-11T12:55:17.029Z</time>
      </trkpt>
      <trkpt lat="43.00734" lon="17.79832">
        <ele>203.673617</ele>
        <time>2022-06-11T12:55:19.028Z</time>
      </trkpt>
      <trkpt lat="43.00741" lon="17.79821">
        <ele>203.102999</ele>
        <time>2022-06-11T12:55:21.031Z</time>
      </trkpt>
      <trkpt lat="43.00749" lon="17.79812">
        <ele>202.561601</ele>
        <time>2022-06-11T12:55:23.020Z</time>
      </trkpt>
      <trkpt lat="43.00758" lon="17.79799">
        <ele>201.884175</ele>
        <time>2022-06-11T12:55:26.051Z</time>
      </trkpt>
      <trkpt lat="43.00766" lon="17.79788">
        <ele>201.251543</ele>
        <time>2022-06-11T12:55:29.029Z</time>
      </trkpt>
      <trkpt lat="43.00774" lon="17.79777">
        <ele>200.632005</ele>
        <time>2022-06-11T12:55:31.999Z</time>
      </trkpt>
      <trkpt lat="43.00782" lon="17.79766">
        <ele>200.032093</ele>
        <time>2022-06-11T12:55:35.016Z</time>
      </trkpt>
      <trkpt lat="43.00792" lon="17.79757">
        <ele>199.394285</ele>
        <time>2022-06-11T12:55:38.025Z</time>
      </trkpt>
      <trkpt lat="43.00806" lon="17.79757">
        <ele>198.645884</ele>
        <time>2022-06-11T12:55:41.020Z</time>
      </trkpt>
      <trkpt lat="43.00817" lon="17.79758">
        <ele>198.046138</ele>
        <time>2022-06-11T12:55:43.014Z</time>
      </trkpt>
      <trkpt lat="43.00828" lon="17.79759">
        <ele>197.461576</ele>
        <time>2022-06-11T12:55:45.026Z</time>
      </trkpt>
      <trkpt lat="43.0084" lon="17.7976">
        <ele>197.111703</ele>
        <time>2022-06-11T12:55:47.025Z</time>
      </trkpt>
      <trkpt lat="43.00851" lon="17.79761">
        <ele>196.800225</ele>
        <time>2022-06-11T12:55:49.029Z</time>
      </trkpt>
      <trkpt lat="43.00863" lon="17.79762">
        <ele>196.47231</ele>
        <time>2022-06-11T12:55:51.024Z</time>
      </trkpt>
      <trkpt lat="43.00875" lon="17.79762">
        <ele>196.149883</ele>
        <time>2022-06-11T12:55:53.035Z</time>
      </trkpt>
      <trkpt lat="43.00887" lon="17.79762">
        <ele>195.830359</ele>
        <time>2022-06-11T12:55:55.024Z</time>
      </trkpt>
      <trkpt lat="43.00899" lon="17.79763">
        <ele>195.491437</ele>
        <time>2022-06-11T12:55:57.023Z</time>
      </trkpt>
      <trkpt lat="43.00912" lon="17.79765">
        <ele>195.156282</ele>
        <time>2022-06-11T12:55:59.028Z</time>
      </trkpt>
      <trkpt lat="43.00924" lon="17.79767">
        <ele>194.809411</ele>
        <time>2022-06-11T12:56:01.025Z</time>
      </trkpt>
      <trkpt lat="43.00937" lon="17.7977">
        <ele>194.459318</ele>
        <time>2022-06-11T12:56:03.044Z</time>
      </trkpt>
      <trkpt lat="43.0095" lon="17.79773">
        <ele>194.097529</ele>
        <time>2022-06-11T12:56:05.073Z</time>
      </trkpt>
      <trkpt lat="43.00964" lon="17.79776">
        <ele>193.716197</ele>
        <time>2022-06-11T12:56:07.016Z</time>
      </trkpt>
      <trkpt lat="43.00979" lon="17.7978">
        <ele>193.304512</ele>
        <time>2022-06-11T12:56:09.003Z</time>
      </trkpt>
      <trkpt lat="43.00994" lon="17.79783">
        <ele>192.894121</ele>
        <time>2022-06-11T12:56:11.031Z</time>
      </trkpt>
      <trkpt lat="43.01008" lon="17.79786">
        <ele>192.508638</ele>
        <time>2022-06-11T12:56:13.026Z</time>
      </trkpt>
      <trkpt lat="43.01021" lon="17.79785">
        <ele>192.382832</ele>
        <time>2022-06-11T12:56:15.024Z</time>
      </trkpt>
      <trkpt lat="43.01034" lon="17.79785">
        <ele>192.259937</ele>
        <time>2022-06-11T12:56:17.022Z</time>
      </trkpt>
      <trkpt lat="43.01046" lon="17.79783">
        <ele>192.149299</ele>
        <time>2022-06-11T12:56:19.022Z</time>
      </trkpt>
      <trkpt lat="43.01056" lon="17.79779">
        <ele>192.046611</ele>
        <time>2022-06-11T12:56:21.015Z</time>
      </trkpt>
      <trkpt lat="43.01065" lon="17.79774">
        <ele>191.956539</ele>
        <time>2022-06-11T12:56:23.018Z</time>
      </trkpt>
      <trkpt lat="43.01073" lon="17.79768">
        <ele>191.864162</ele>
        <time>2022-06-11T12:56:25.016Z</time>
      </trkpt>
      <trkpt lat="43.01082" lon="17.79761">
        <ele>191.769133</ele>
        <time>2022-06-11T12:56:27.063Z</time>
      </trkpt>
      <trkpt lat="43.0109" lon="17.79754">
        <ele>191.673402</ele>
        <time>2022-06-11T12:56:29.025Z</time>
      </trkpt>
      <trkpt lat="43.011" lon="17.79746">
        <ele>191.567472</ele>
        <time>2022-06-11T12:56:31.061Z</time>
      </trkpt>
      <trkpt lat="43.01109" lon="17.79738">
        <ele>191.461231</ele>
        <time>2022-06-11T12:56:33.016Z</time>
      </trkpt>
      <trkpt lat="43.01118" lon="17.79729">
        <ele>191.356831</ele>
        <time>2022-06-11T12:56:35.016Z</time>
      </trkpt>
      <trkpt lat="43.01125" lon="17.7972">
        <ele>191.263322</ele>
        <time>2022-06-11T12:56:37.026Z</time>
      </trkpt>
      <trkpt lat="43.0113" lon="17.7971">
        <ele>191.176883</ele>
        <time>2022-06-11T12:56:39.039Z</time>
      </trkpt>
      <trkpt lat="43.01136" lon="17.797">
        <ele>191.084484</ele>
        <time>2022-06-11T12:56:41.031Z</time>
      </trkpt>
      <trkpt lat="43.01143" lon="17.79685">
        <ele>190.963087</ele>
        <time>2022-06-11T12:56:44.011Z</time>
      </trkpt>
      <trkpt lat="43.0115" lon="17.79671">
        <ele>190.840518</ele>
        <time>2022-06-11T12:56:47.028Z</time>
      </trkpt>
      <trkpt lat="43.01156" lon="17.79655">
        <ele>190.266664</ele>
        <time>2022-06-11T12:56:50.076Z</time>
      </trkpt>
      <trkpt lat="43.0116" lon="17.7964">
        <ele>189.437631</ele>
        <time>2022-06-11T12:56:53.021Z</time>
      </trkpt>
      <trkpt lat="43.01161" lon="17.79625">
        <ele>188.645524</ele>
        <time>2022-06-11T12:56:56.026Z</time>
      </trkpt>
      <trkpt lat="43.01161" lon="17.7961">
        <ele>187.814049</ele>
        <time>2022-06-11T12:56:59.026Z</time>
      </trkpt>
      <trkpt lat="43.0116" lon="17.79593">
        <ele>186.896125</ele>
        <time>2022-06-11T12:57:02.019Z</time>
      </trkpt>
      <trkpt lat="43.01155" lon="17.79577">
        <ele>185.967223</ele>
        <time>2022-06-11T12:57:05.062Z</time>
      </trkpt>
      <trkpt lat="43.01147" lon="17.79562">
        <ele>185.003464</ele>
        <time>2022-06-11T12:57:08.030Z</time>
      </trkpt>
      <trkpt lat="43.01141" lon="17.79551">
        <ele>184.261438</ele>
        <time>2022-06-11T12:57:10.036Z</time>
      </trkpt>
      <trkpt lat="43.01134" lon="17.79541">
        <ele>183.506995</ele>
        <time>2022-06-11T12:57:12.053Z</time>
      </trkpt>
      <trkpt lat="43.01126" lon="17.79532">
        <ele>182.776186</ele>
        <time>2022-06-11T12:57:14.007Z</time>
      </trkpt>
      <trkpt lat="43.01119" lon="17.79525">
        <ele>182.099246</ele>
        <time>2022-06-11T12:57:16.030Z</time>
      </trkpt>
      <trkpt lat="43.01111" lon="17.79518">
        <ele>181.433476</ele>
        <time>2022-06-11T12:57:18.028Z</time>
      </trkpt>
      <trkpt lat="43.01103" lon="17.79512">
        <ele>180.742641</ele>
        <time>2022-06-11T12:57:20.016Z</time>
      </trkpt>
      <trkpt lat="43.01091" lon="17.79505">
        <ele>179.798425</ele>
        <time>2022-06-11T12:57:23.071Z</time>
      </trkpt>
      <trkpt lat="43.01079" lon="17.79497">
        <ele>178.843132</ele>
        <time>2022-06-11T12:57:26.017Z</time>
      </trkpt>
      <trkpt lat="43.01068" lon="17.79489">
        <ele>177.935928</ele>
        <time>2022-06-11T12:57:29.024Z</time>
      </trkpt>
      <trkpt lat="43.01059" lon="17.79485">
        <ele>177.379797</ele>
        <time>2022-06-11T12:57:31.028Z</time>
      </trkpt>
      <trkpt lat="43.0105" lon="17.79481">
        <ele>176.860093</ele>
        <time>2022-06-11T12:57:33.018Z</time>
      </trkpt>
      <trkpt lat="43.01041" lon="17.79477">
        <ele>176.336909</ele>
        <time>2022-06-11T12:57:35.029Z</time>
      </trkpt>
      <trkpt lat="43.01032" lon="17.79473">
        <ele>175.821258</ele>
        <time>2022-06-11T12:57:37.028Z</time>
      </trkpt>
      <trkpt lat="43.0102" lon="17.79469">
        <ele>175.131221</ele>
        <time>2022-06-11T12:57:40.024Z</time>
      </trkpt>
      <trkpt lat="43.0101" lon="17.79459">
        <ele>174.49735</ele>
        <time>2022-06-11T12:57:43.025Z</time>
      </trkpt>
      <trkpt lat="43.01007" lon="17.79448">
        <ele>174.004457</ele>
        <time>2022-06-11T12:57:45.073Z</time>
      </trkpt>
      <trkpt lat="43.01006" lon="17.79434">
        <ele>173.471661</ele>
        <time>2022-06-11T12:57:47.019Z</time>
      </trkpt>
      <trkpt lat="43.01008" lon="17.79417">
        <ele>172.785526</ele>
        <time>2022-06-11T12:57:50.032Z</time>
      </trkpt>
      <trkpt lat="43.01013" lon="17.79402">
        <ele>172.135846</ele>
        <time>2022-06-11T12:57:53.024Z</time>
      </trkpt>
      <trkpt lat="43.01019" lon="17.79387">
        <ele>171.470865</ele>
        <time>2022-06-11T12:57:56.055Z</time>
      </trkpt>
      <trkpt lat="43.01022" lon="17.79376">
        <ele>170.97437</ele>
        <time>2022-06-11T12:57:58.031Z</time>
      </trkpt>
      <trkpt lat="43.01026" lon="17.79365">
        <ele>170.486345</ele>
        <time>2022-06-11T12:58:00.017Z</time>
      </trkpt>
      <trkpt lat="43.01031" lon="17.79354">
        <ele>169.984882</ele>
        <time>2022-06-11T12:58:02.057Z</time>
      </trkpt>
      <trkpt lat="43.01036" lon="17.79343">
        <ele>169.453241</ele>
        <time>2022-06-11T12:58:04.020Z</time>
      </trkpt>
      <trkpt lat="43.01042" lon="17.79332">
        <ele>168.928426</ele>
        <time>2022-06-11T12:58:06.030Z</time>
      </trkpt>
      <trkpt lat="43.01047" lon="17.7932">
        <ele>168.384535</ele>
        <time>2022-06-11T12:58:08.054Z</time>
      </trkpt>
      <trkpt lat="43.01052" lon="17.79308">
        <ele>167.857793</ele>
        <time>2022-06-11T12:58:10.023Z</time>
      </trkpt>
      <trkpt lat="43.01057" lon="17.79295">
        <ele>167.412035</ele>
        <time>2022-06-11T12:58:12.014Z</time>
      </trkpt>
      <trkpt lat="43.0106" lon="17.79282">
        <ele>167.013055</ele>
        <time>2022-06-11T12:58:14.012Z</time>
      </trkpt>
      <trkpt lat="43.0106" lon="17.79267">
        <ele>166.562568</ele>
        <time>2022-06-11T12:58:16.025Z</time>
      </trkpt>
      <trkpt lat="43.01054" lon="17.79251">
        <ele>166.02904</ele>
        <time>2022-06-11T12:58:18.020Z</time>
      </trkpt>
      <trkpt lat="43.01045" lon="17.79242">
        <ele>165.572974</ele>
        <time>2022-06-11T12:58:20.030Z</time>
      </trkpt>
      <trkpt lat="43.01035" lon="17.79236">
        <ele>165.143872</ele>
        <time>2022-06-11T12:58:22.031Z</time>
      </trkpt>
      <trkpt lat="43.01025" lon="17.79231">
        <ele>164.724524</ele>
        <time>2022-06-11T12:58:24.056Z</time>
      </trkpt>
      <trkpt lat="43.01016" lon="17.79225">
        <ele>164.311484</ele>
        <time>2022-06-11T12:58:26.033Z</time>
      </trkpt>
      <trkpt lat="43.0101" lon="17.79214">
        <ele>163.886715</ele>
        <time>2022-06-11T12:58:28.018Z</time>
      </trkpt>
      <trkpt lat="43.01005" lon="17.79201">
        <ele>163.45971</ele>
        <time>2022-06-11T12:58:30.077Z</time>
      </trkpt>
      <trkpt lat="43.01006" lon="17.79188">
        <ele>163.075537</ele>
        <time>2022-06-11T12:58:32.039Z</time>
      </trkpt>
      <trkpt lat="43.01008" lon="17.79172">
        <ele>162.590803</ele>
        <time>2022-06-11T12:58:35.033Z</time>
      </trkpt>
      <trkpt lat="43.01009" lon="17.79157">
        <ele>162.140034</ele>
        <time>2022-06-11T12:58:38.036Z</time>
      </trkpt>
      <trkpt lat="43.0101" lon="17.79139">
        <ele>161.614431</ele>
        <time>2022-06-11T12:58:41.039Z</time>
      </trkpt>
      <trkpt lat="43.0101" lon="17.79127">
        <ele>161.230323</ele>
        <time>2022-06-11T12:58:43.019Z</time>
      </trkpt>
      <trkpt lat="43.0101" lon="17.79114">
        <ele>160.855081</ele>
        <time>2022-06-11T12:58:45.012Z</time>
      </trkpt>
      <trkpt lat="43.01012" lon="17.79097">
        <ele>160.265678</ele>
        <time>2022-06-11T12:58:48.020Z</time>
      </trkpt>
      <trkpt lat="43.01019" lon="17.79082">
        <ele>159.613593</ele>
        <time>2022-06-11T12:58:51.040Z</time>
      </trkpt>
      <trkpt lat="43.01025" lon="17.79071">
        <ele>159.117524</ele>
        <time>2022-06-11T12:58:53.014Z</time>
      </trkpt>
      <trkpt lat="43.01031" lon="17.79062">
        <ele>158.650786</ele>
        <time>2022-06-11T12:58:55.030Z</time>
      </trkpt>
      <trkpt lat="43.01037" lon="17.79053">
        <ele>158.177798</ele>
        <time>2022-06-11T12:58:57.034Z</time>
      </trkpt>
      <trkpt lat="43.01046" lon="17.79045">
        <ele>157.651028</ele>
        <time>2022-06-11T12:58:59.038Z</time>
      </trkpt>
      <trkpt lat="43.01055" lon="17.79043">
        <ele>157.173183</ele>
        <time>2022-06-11T12:59:01.013Z</time>
      </trkpt>
      <trkpt lat="43.01065" lon="17.79046">
        <ele>156.641188</ele>
        <time>2022-06-11T12:59:03.025Z</time>
      </trkpt>
      <trkpt lat="43.01076" lon="17.7905">
        <ele>156.073881</ele>
        <time>2022-06-11T12:59:05.025Z</time>
      </trkpt>
      <trkpt lat="43.01086" lon="17.79054">
        <ele>155.505599</ele>
        <time>2022-06-11T12:59:07.024Z</time>
      </trkpt>
      <trkpt lat="43.01096" lon="17.79056">
        <ele>154.984707</ele>
        <time>2022-06-11T12:59:09.045Z</time>
      </trkpt>
      <trkpt lat="43.01105" lon="17.79058">
        <ele>154.519233</ele>
        <time>2022-06-11T12:59:11.015Z</time>
      </trkpt>
      <trkpt lat="43.01114" lon="17.79061">
        <ele>154.054498</ele>
        <time>2022-06-11T12:59:13.020Z</time>
      </trkpt>
      <trkpt lat="43.01123" lon="17.79063">
        <ele>153.585779</ele>
        <time>2022-06-11T12:59:15.024Z</time>
      </trkpt>
      <trkpt lat="43.01132" lon="17.79067">
        <ele>153.109373</ele>
        <time>2022-06-11T12:59:17.025Z</time>
      </trkpt>
      <trkpt lat="43.01142" lon="17.79067">
        <ele>152.612419</ele>
        <time>2022-06-11T12:59:19.020Z</time>
      </trkpt>
      <trkpt lat="43.01155" lon="17.79065">
        <ele>151.934678</ele>
        <time>2022-06-11T12:59:22.023Z</time>
      </trkpt>
      <trkpt lat="43.01164" lon="17.79061">
        <ele>151.465569</ele>
        <time>2022-06-11T12:59:24.025Z</time>
      </trkpt>
      <trkpt lat="43.01173" lon="17.79056">
        <ele>150.795812</ele>
        <time>2022-06-11T12:59:26.028Z</time>
      </trkpt>
      <trkpt lat="43.01183" lon="17.79052">
        <ele>150.05749</ele>
        <time>2022-06-11T12:59:28.026Z</time>
      </trkpt>
      <trkpt lat="43.01193" lon="17.79048">
        <ele>149.345605</ele>
        <time>2022-06-11T12:59:30.026Z</time>
      </trkpt>
      <trkpt lat="43.01203" lon="17.79044">
        <ele>148.62006</ele>
        <time>2022-06-11T12:59:32.019Z</time>
      </trkpt>
      <trkpt lat="43.01213" lon="17.7904">
        <ele>147.878526</ele>
        <time>2022-06-11T12:59:34.022Z</time>
      </trkpt>
      <trkpt lat="43.01223" lon="17.79035">
        <ele>147.131933</ele>
        <time>2022-06-11T12:59:36.015Z</time>
      </trkpt>
      <trkpt lat="43.01233" lon="17.79029">
        <ele>146.363193</ele>
        <time>2022-06-11T12:59:38.027Z</time>
      </trkpt>
      <trkpt lat="43.01243" lon="17.79024">
        <ele>145.614079</ele>
        <time>2022-06-11T12:59:40.032Z</time>
      </trkpt>
      <trkpt lat="43.01252" lon="17.79019">
        <ele>144.886447</ele>
        <time>2022-06-11T12:59:42.058Z</time>
      </trkpt>
      <trkpt lat="43.01262" lon="17.79013">
        <ele>144.159279</ele>
        <time>2022-06-11T12:59:44.018Z</time>
      </trkpt>
      <trkpt lat="43.01272" lon="17.79006">
        <ele>143.374738</ele>
        <time>2022-06-11T12:59:46.008Z</time>
      </trkpt>
      <trkpt lat="43.01281" lon="17.78997">
        <ele>142.603073</ele>
        <time>2022-06-11T12:59:48.015Z</time>
      </trkpt>
      <trkpt lat="43.01286" lon="17.78986">
        <ele>141.913984</ele>
        <time>2022-06-11T12:59:50.017Z</time>
      </trkpt>
      <trkpt lat="43.01289" lon="17.78973">
        <ele>141.216618</ele>
        <time>2022-06-11T12:59:52.017Z</time>
      </trkpt>
      <trkpt lat="43.01287" lon="17.7896">
        <ele>140.516837</ele>
        <time>2022-06-11T12:59:54.009Z</time>
      </trkpt>
      <trkpt lat="43.01284" lon="17.78946">
        <ele>139.778349</ele>
        <time>2022-06-11T12:59:56.023Z</time>
      </trkpt>
      <trkpt lat="43.01279" lon="17.78931">
        <ele>138.945152</ele>
        <time>2022-06-11T12:59:58.030Z</time>
      </trkpt>
      <trkpt lat="43.01273" lon="17.78916">
        <ele>138.230947</ele>
        <time>2022-06-11T13:00:00.026Z</time>
      </trkpt>
      <trkpt lat="43.01268" lon="17.78899">
        <ele>137.529051</ele>
        <time>2022-06-11T13:00:02.025Z</time>
      </trkpt>
      <trkpt lat="43.01262" lon="17.78885">
        <ele>136.898605</ele>
        <time>2022-06-11T13:00:04.049Z</time>
      </trkpt>
      <trkpt lat="43.01258" lon="17.78873">
        <ele>136.362357</ele>
        <time>2022-06-11T13:00:06.023Z</time>
      </trkpt>
      <trkpt lat="43.01253" lon="17.7886">
        <ele>135.832745</ele>
        <time>2022-06-11T13:00:08.015Z</time>
      </trkpt>
      <trkpt lat="43.01248" lon="17.78848">
        <ele>135.280269</ele>
        <time>2022-06-11T13:00:10.066Z</time>
      </trkpt>
      <trkpt lat="43.01245" lon="17.78835">
        <ele>134.760564</ele>
        <time>2022-06-11T13:00:12.028Z</time>
      </trkpt>
      <trkpt lat="43.01245" lon="17.78822">
        <ele>134.254194</ele>
        <time>2022-06-11T13:00:14.030Z</time>
      </trkpt>
      <trkpt lat="43.01248" lon="17.7881">
        <ele>133.740086</ele>
        <time>2022-06-11T13:00:16.020Z</time>
      </trkpt>
      <trkpt lat="43.01255" lon="17.788">
        <ele>133.204971</ele>
        <time>2022-06-11T13:00:18.025Z</time>
      </trkpt>
      <trkpt lat="43.01264" lon="17.78794">
        <ele>132.688137</ele>
        <time>2022-06-11T13:00:20.017Z</time>
      </trkpt>
      <trkpt lat="43.01276" lon="17.78787">
        <ele>131.996587</ele>
        <time>2022-06-11T13:00:23.018Z</time>
      </trkpt>
      <trkpt lat="43.01289" lon="17.78782">
        <ele>131.299013</ele>
        <time>2022-06-11T13:00:26.028Z</time>
      </trkpt>
      <trkpt lat="43.01299" lon="17.78779">
        <ele>130.759414</ele>
        <time>2022-06-11T13:00:28.011Z</time>
      </trkpt>
      <trkpt lat="43.0131" lon="17.78774">
        <ele>130.139362</ele>
        <time>2022-06-11T13:00:30.024Z</time>
      </trkpt>
      <trkpt lat="43.01321" lon="17.78769">
        <ele>129.509094</ele>
        <time>2022-06-11T13:00:32.042Z</time>
      </trkpt>
      <trkpt lat="43.01333" lon="17.78764">
        <ele>128.743923</ele>
        <time>2022-06-11T13:00:34.027Z</time>
      </trkpt>
      <trkpt lat="43.01343" lon="17.78756">
        <ele>127.876522</ele>
        <time>2022-06-11T13:00:36.018Z</time>
      </trkpt>
      <trkpt lat="43.01352" lon="17.78746">
        <ele>127.010293</ele>
        <time>2022-06-11T13:00:38.047Z</time>
      </trkpt>
      <trkpt lat="43.01358" lon="17.78731">
        <ele>126.121003</ele>
        <time>2022-06-11T13:00:40.034Z</time>
      </trkpt>
      <trkpt lat="43.01362" lon="17.78715">
        <ele>125.208319</ele>
        <time>2022-06-11T13:00:42.024Z</time>
      </trkpt>
      <trkpt lat="43.01363" lon="17.787">
        <ele>124.397732</ele>
        <time>2022-06-11T13:00:44.058Z</time>
      </trkpt>
      <trkpt lat="43.01363" lon="17.78685">
        <ele>123.594085</ele>
        <time>2022-06-11T13:00:46.032Z</time>
      </trkpt>
      <trkpt lat="43.01363" lon="17.78669">
        <ele>122.731796</ele>
        <time>2022-06-11T13:00:48.028Z</time>
      </trkpt>
      <trkpt lat="43.01362" lon="17.78654">
        <ele>121.910529</ele>
        <time>2022-06-11T13:00:50.028Z</time>
      </trkpt>
      <trkpt lat="43.01362" lon="17.78638">
        <ele>121.100438</ele>
        <time>2022-06-11T13:00:52.022Z</time>
      </trkpt>
      <trkpt lat="43.01362" lon="17.78623">
        <ele>120.265199</ele>
        <time>2022-06-11T13:00:54.018Z</time>
      </trkpt>
      <trkpt lat="43.01364" lon="17.78607">
        <ele>119.421189</ele>
        <time>2022-06-11T13:00:56.037Z</time>
      </trkpt>
      <trkpt lat="43.0137" lon="17.78594">
        <ele>118.546791</ele>
        <time>2022-06-11T13:00:58.023Z</time>
      </trkpt>
      <trkpt lat="43.0138" lon="17.78586">
        <ele>117.729868</ele>
        <time>2022-06-11T13:01:00.048Z</time>
      </trkpt>
      <trkpt lat="43.01389" lon="17.78583">
        <ele>117.026544</ele>
        <time>2022-06-11T13:01:02.023Z</time>
      </trkpt>
      <trkpt lat="43.014" lon="17.78583">
        <ele>116.228382</ele>
        <time>2022-06-11T13:01:04.019Z</time>
      </trkpt>
      <trkpt lat="43.0141" lon="17.78585">
        <ele>115.463394</ele>
        <time>2022-06-11T13:01:06.054Z</time>
      </trkpt>
      <trkpt lat="43.01421" lon="17.78587">
        <ele>114.665009</ele>
        <time>2022-06-11T13:01:08.004Z</time>
      </trkpt>
      <trkpt lat="43.01431" lon="17.78587">
        <ele>113.938643</ele>
        <time>2022-06-11T13:01:10.021Z</time>
      </trkpt>
      <trkpt lat="43.0144" lon="17.78586">
        <ele>113.269278</ele>
        <time>2022-06-11T13:01:12.047Z</time>
      </trkpt>
      <trkpt lat="43.01453" lon="17.78583">
        <ele>112.289041</ele>
        <time>2022-06-11T13:01:15.026Z</time>
      </trkpt>
      <trkpt lat="43.01467" lon="17.78579">
        <ele>111.283531</ele>
        <time>2022-06-11T13:01:18.055Z</time>
      </trkpt>
      <trkpt lat="43.01476" lon="17.78576">
        <ele>110.61306</ele>
        <time>2022-06-11T13:01:20.018Z</time>
      </trkpt>
      <trkpt lat="43.01488" lon="17.78569">
        <ele>109.667452</ele>
        <time>2022-06-11T13:01:23.027Z</time>
      </trkpt>
      <trkpt lat="43.01496" lon="17.78563">
        <ele>109.006064</ele>
        <time>2022-06-11T13:01:25.016Z</time>
      </trkpt>
      <trkpt lat="43.01504" lon="17.78557">
        <ele>108.299747</ele>
        <time>2022-06-11T13:01:27.028Z</time>
      </trkpt>
      <trkpt lat="43.01516" lon="17.78549">
        <ele>107.32974</ele>
        <time>2022-06-11T13:01:30.008Z</time>
      </trkpt>
      <trkpt lat="43.01527" lon="17.78539">
        <ele>106.327214</ele>
        <time>2022-06-11T13:01:32.988Z</time>
      </trkpt>
      <trkpt lat="43.01535" lon="17.78529">
        <ele>105.568504</ele>
        <time>2022-06-11T13:01:35.031Z</time>
      </trkpt>
      <trkpt lat="43.01542" lon="17.78519">
        <ele>104.791755</ele>
        <time>2022-06-11T13:01:37.051Z</time>
      </trkpt>
      <trkpt lat="43.01549" lon="17.78506">
        <ele>103.960113</ele>
        <time>2022-06-11T13:01:39.022Z</time>
      </trkpt>
      <trkpt lat="43.01554" lon="17.78493">
        <ele>103.144552</ele>
        <time>2022-06-11T13:01:41.032Z</time>
      </trkpt>
      <trkpt lat="43.01559" lon="17.7848">
        <ele>102.221168</ele>
        <time>2022-06-11T13:01:43.018Z</time>
      </trkpt>
      <trkpt lat="43.01563" lon="17.78467">
        <ele>101.177184</ele>
        <time>2022-06-11T13:01:45.023Z</time>
      </trkpt>
      <trkpt lat="43.01566" lon="17.78455">
        <ele>100.276504</ele>
        <time>2022-06-11T13:01:47.050Z</time>
      </trkpt>
      <trkpt lat="43.01567" lon="17.78442">
        <ele>99.400801</ele>
        <time>2022-06-11T13:01:49.015Z</time>
      </trkpt>
      <trkpt lat="43.01566" lon="17.78429">
        <ele>98.467265</ele>
        <time>2022-06-11T13:01:51.029Z</time>
      </trkpt>
      <trkpt lat="43.01562" lon="17.78417">
        <ele>97.503248</ele>
        <time>2022-06-11T13:01:53.026Z</time>
      </trkpt>
      <trkpt lat="43.01557" lon="17.78404">
        <ele>96.499591</ele>
        <time>2022-06-11T13:01:55.019Z</time>
      </trkpt>
      <trkpt lat="43.01553" lon="17.78393">
        <ele>95.581547</ele>
        <time>2022-06-11T13:01:57.025Z</time>
      </trkpt>
      <trkpt lat="43.0155" lon="17.78381">
        <ele>94.695565</ele>
        <time>2022-06-11T13:01:59.023Z</time>
      </trkpt>
      <trkpt lat="43.0155" lon="17.78368">
        <ele>93.79524</ele>
        <time>2022-06-11T13:02:01.019Z</time>
      </trkpt>
      <trkpt lat="43.01556" lon="17.78352">
        <ele>92.50704</ele>
        <time>2022-06-11T13:02:04.053Z</time>
      </trkpt>
      <trkpt lat="43.01567" lon="17.78344">
        <ele>91.28339</ele>
        <time>2022-06-11T13:02:07.099Z</time>
      </trkpt>
      <trkpt lat="43.01576" lon="17.78342">
        <ele>90.341057</ele>
        <time>2022-06-11T13:02:09.025Z</time>
      </trkpt>
      <trkpt lat="43.01587" lon="17.78339">
        <ele>89.309381</ele>
        <time>2022-06-11T13:02:11.054Z</time>
      </trkpt>
      <trkpt lat="43.01597" lon="17.78335">
        <ele>88.293427</ele>
        <time>2022-06-11T13:02:13.015Z</time>
      </trkpt>
      <trkpt lat="43.01606" lon="17.78332">
        <ele>87.353764</ele>
        <time>2022-06-11T13:02:15.062Z</time>
      </trkpt>
      <trkpt lat="43.01619" lon="17.78327">
        <ele>86.064885</ele>
        <time>2022-06-11T13:02:18.028Z</time>
      </trkpt>
      <trkpt lat="43.01631" lon="17.78323">
        <ele>84.918851</ele>
        <time>2022-06-11T13:02:21.022Z</time>
      </trkpt>
      <trkpt lat="43.01643" lon="17.78318">
        <ele>83.785038</ele>
        <time>2022-06-11T13:02:24.039Z</time>
      </trkpt>
      <trkpt lat="43.01652" lon="17.78314">
        <ele>82.924288</ele>
        <time>2022-06-11T13:02:26.068Z</time>
      </trkpt>
      <trkpt lat="43.01664" lon="17.78311">
        <ele>81.797409</ele>
        <time>2022-06-11T13:02:29.035Z</time>
      </trkpt>
      <trkpt lat="43.01676" lon="17.78307">
        <ele>80.696798</ele>
        <time>2022-06-11T13:02:32.023Z</time>
      </trkpt>
      <trkpt lat="43.01688" lon="17.78304">
        <ele>79.622423</ele>
        <time>2022-06-11T13:02:35.025Z</time>
      </trkpt>
      <trkpt lat="43.01701" lon="17.783">
        <ele>78.430095</ele>
        <time>2022-06-11T13:02:38.052Z</time>
      </trkpt>
      <trkpt lat="43.01713" lon="17.78295">
        <ele>77.261482</ele>
        <time>2022-06-11T13:02:41.020Z</time>
      </trkpt>
      <trkpt lat="43.01725" lon="17.78288">
        <ele>76.105189</ele>
        <time>2022-06-11T13:02:44.049Z</time>
      </trkpt>
      <trkpt lat="43.01734" lon="17.78283">
        <ele>75.234921</ele>
        <time>2022-06-11T13:02:46.022Z</time>
      </trkpt>
      <trkpt lat="43.01743" lon="17.78278">
        <ele>74.384399</ele>
        <time>2022-06-11T13:02:48.020Z</time>
      </trkpt>
      <trkpt lat="43.01755" lon="17.7827">
        <ele>73.202202</ele>
        <time>2022-06-11T13:02:51.024Z</time>
      </trkpt>
      <trkpt lat="43.01765" lon="17.78262">
        <ele>72.183604</ele>
        <time>2022-06-11T13:02:54.010Z</time>
      </trkpt>
      <trkpt lat="43.01772" lon="17.78253">
        <ele>71.292441</ele>
        <time>2022-06-11T13:02:58.016Z</time>
      </trkpt>
      <trkpt lat="43.01775" lon="17.78239">
        <ele>70.366561</ele>
        <time>2022-06-11T13:03:03.027Z</time>
      </trkpt>
      <trkpt lat="43.01773" lon="17.78227">
        <ele>69.545597</ele>
        <time>2022-06-11T13:03:06.058Z</time>
      </trkpt>
      <trkpt lat="43.01769" lon="17.78213">
        <ele>68.747009</ele>
        <time>2022-06-11T13:03:09.032Z</time>
      </trkpt>
      <trkpt lat="43.01763" lon="17.78196">
        <ele>67.908784</ele>
        <time>2022-06-11T13:03:12.060Z</time>
      </trkpt>
      <trkpt lat="43.01758" lon="17.78185">
        <ele>67.287545</ele>
        <time>2022-06-11T13:03:14.052Z</time>
      </trkpt>
      <trkpt lat="43.01752" lon="17.78174">
        <ele>66.697249</ele>
        <time>2022-06-11T13:03:16.020Z</time>
      </trkpt>
      <trkpt lat="43.01746" lon="17.78165">
        <ele>66.131766</ele>
        <time>2022-06-11T13:03:18.017Z</time>
      </trkpt>
      <trkpt lat="43.01739" lon="17.78154">
        <ele>65.489667</ele>
        <time>2022-06-11T13:03:20.043Z</time>
      </trkpt>
      <trkpt lat="43.01732" lon="17.78142">
        <ele>64.769753</ele>
        <time>2022-06-11T13:03:22.036Z</time>
      </trkpt>
      <trkpt lat="43.01723" lon="17.78129">
        <ele>64.008376</ele>
        <time>2022-06-11T13:03:24.028Z</time>
      </trkpt>
      <trkpt lat="43.01714" lon="17.78117">
        <ele>63.228804</ele>
        <time>2022-06-11T13:03:26.035Z</time>
      </trkpt>
      <trkpt lat="43.01705" lon="17.78105">
        <ele>62.450505</ele>
        <time>2022-06-11T13:03:28.017Z</time>
      </trkpt>
      <trkpt lat="43.01696" lon="17.78093">
        <ele>61.691694</ele>
        <time>2022-06-11T13:03:30.027Z</time>
      </trkpt>
      <trkpt lat="43.01688" lon="17.78081">
        <ele>60.904961</ele>
        <time>2022-06-11T13:03:32.024Z</time>
      </trkpt>
      <trkpt lat="43.01678" lon="17.78069">
        <ele>60.125387</ele>
        <time>2022-06-11T13:03:34.027Z</time>
      </trkpt>
      <trkpt lat="43.01668" lon="17.78058">
        <ele>59.333963</ele>
        <time>2022-06-11T13:03:36.016Z</time>
      </trkpt>
      <trkpt lat="43.01659" lon="17.78046">
        <ele>58.527206</ele>
        <time>2022-06-11T13:03:38.047Z</time>
      </trkpt>
      <trkpt lat="43.0165" lon="17.78033">
        <ele>58.100241</ele>
        <time>2022-06-11T13:03:40.056Z</time>
      </trkpt>
      <trkpt lat="43.0164" lon="17.78021">
        <ele>58.088439</ele>
        <time>2022-06-11T13:03:42.032Z</time>
      </trkpt>
      <trkpt lat="43.0163" lon="17.78008">
        <ele>58.076189</ele>
        <time>2022-06-11T13:03:44.026Z</time>
      </trkpt>
      <trkpt lat="43.0162" lon="17.77995">
        <ele>58.063847</ele>
        <time>2022-06-11T13:03:46.031Z</time>
      </trkpt>
      <trkpt lat="43.0161" lon="17.77982">
        <ele>58.051239</ele>
        <time>2022-06-11T13:03:48.017Z</time>
      </trkpt>
      <trkpt lat="43.01601" lon="17.77969">
        <ele>58.038932</ele>
        <time>2022-06-11T13:03:50.016Z</time>
      </trkpt>
      <trkpt lat="43.01592" lon="17.77955">
        <ele>58.027108</ele>
        <time>2022-06-11T13:03:52.033Z</time>
      </trkpt>
      <trkpt lat="43.01583" lon="17.77944">
        <ele>58.01588</ele>
        <time>2022-06-11T13:03:54.008Z</time>
      </trkpt>
      <trkpt lat="43.01575" lon="17.77933">
        <ele>58.006307</ele>
        <time>2022-06-11T13:03:56.024Z</time>
      </trkpt>
      <trkpt lat="43.01568" lon="17.77924">
        <ele>57.997362</ele>
        <time>2022-06-11T13:03:58.023Z</time>
      </trkpt>
      <trkpt lat="43.01561" lon="17.77914">
        <ele>57.987688</ele>
        <time>2022-06-11T13:04:00.016Z</time>
      </trkpt>
      <trkpt lat="43.01552" lon="17.77902">
        <ele>57.97711</ele>
        <time>2022-06-11T13:04:02.046Z</time>
      </trkpt>
      <trkpt lat="43.01544" lon="17.77891">
        <ele>57.966595</ele>
        <time>2022-06-11T13:04:04.009Z</time>
      </trkpt>
      <trkpt lat="43.01535" lon="17.7788">
        <ele>57.956055</ele>
        <time>2022-06-11T13:04:06.024Z</time>
      </trkpt>
      <trkpt lat="43.01528" lon="17.77869">
        <ele>57.945993</ele>
        <time>2022-06-11T13:04:08.016Z</time>
      </trkpt>
      <trkpt lat="43.0152" lon="17.77857">
        <ele>58.020686</ele>
        <time>2022-06-11T13:04:10.035Z</time>
      </trkpt>
      <trkpt lat="43.01514" lon="17.77843">
        <ele>58.124494</ele>
        <time>2022-06-11T13:04:12.016Z</time>
      </trkpt>
      <trkpt lat="43.01508" lon="17.77828">
        <ele>58.229709</ele>
        <time>2022-06-11T13:04:14.023Z</time>
      </trkpt>
      <trkpt lat="43.01504" lon="17.77814">
        <ele>58.328295</ele>
        <time>2022-06-11T13:04:16.023Z</time>
      </trkpt>
      <trkpt lat="43.015" lon="17.778">
        <ele>58.421612</ele>
        <time>2022-06-11T13:04:18.025Z</time>
      </trkpt>
      <trkpt lat="43.01499" lon="17.77786">
        <ele>58.512884</ele>
        <time>2022-06-11T13:04:20.034Z</time>
      </trkpt>
      <trkpt lat="43.015" lon="17.77773">
        <ele>58.59443</ele>
        <time>2022-06-11T13:04:22.027Z</time>
      </trkpt>
      <trkpt lat="43.01501" lon="17.77761">
        <ele>58.675202</ele>
        <time>2022-06-11T13:04:24.054Z</time>
      </trkpt>
      <trkpt lat="43.01505" lon="17.77745">
        <ele>58.782537</ele>
        <time>2022-06-11T13:04:27.031Z</time>
      </trkpt>
      <trkpt lat="43.0151" lon="17.77729">
        <ele>58.886958</ele>
        <time>2022-06-11T13:04:30.019Z</time>
      </trkpt>
      <trkpt lat="43.01515" lon="17.77714">
        <ele>58.997091</ele>
        <time>2022-06-11T13:04:33.028Z</time>
      </trkpt>
      <trkpt lat="43.01524" lon="17.77701">
        <ele>59.105119</ele>
        <time>2022-06-11T13:04:36.027Z</time>
      </trkpt>
      <trkpt lat="43.01534" lon="17.77692">
        <ele>59.210512</ele>
        <time>2022-06-11T13:04:39.015Z</time>
      </trkpt>
      <trkpt lat="43.01544" lon="17.77684">
        <ele>59.313259</ele>
        <time>2022-06-11T13:04:42.052Z</time>
      </trkpt>
      <trkpt lat="43.01556" lon="17.77678">
        <ele>59.418882</ele>
        <time>2022-06-11T13:04:45.032Z</time>
      </trkpt>
      <trkpt lat="43.01567" lon="17.77674">
        <ele>59.527727</ele>
        <time>2022-06-11T13:04:48.034Z</time>
      </trkpt>
      <trkpt lat="43.01578" lon="17.77668">
        <ele>59.706984</ele>
        <time>2022-06-11T13:04:51.043Z</time>
      </trkpt>
      <trkpt lat="43.01589" lon="17.77663">
        <ele>59.882008</ele>
        <time>2022-06-11T13:04:54.016Z</time>
      </trkpt>
      <trkpt lat="43.016" lon="17.77658">
        <ele>60.05472</ele>
        <time>2022-06-11T13:04:57.046Z</time>
      </trkpt>
      <trkpt lat="43.01609" lon="17.77653">
        <ele>60.197488</ele>
        <time>2022-06-11T13:05:00.015Z</time>
      </trkpt>
      <trkpt lat="43.01618" lon="17.77648">
        <ele>60.344647</ele>
        <time>2022-06-11T13:05:03.026Z</time>
      </trkpt>
      <trkpt lat="43.01626" lon="17.77642">
        <ele>60.488532</ele>
        <time>2022-06-11T13:05:06.026Z</time>
      </trkpt>
      <trkpt lat="43.01634" lon="17.77636">
        <ele>60.627286</ele>
        <time>2022-06-11T13:05:09.025Z</time>
      </trkpt>
      <trkpt lat="43.01644" lon="17.77628">
        <ele>60.804664</ele>
        <time>2022-06-11T13:05:13.009Z</time>
      </trkpt>
      <trkpt lat="43.01652" lon="17.77622">
        <ele>60.94004</ele>
        <time>2022-06-11T13:05:16.021Z</time>
      </trkpt>
      <trkpt lat="43.0166" lon="17.77615">
        <ele>61.078253</ele>
        <time>2022-06-11T13:05:19.010Z</time>
      </trkpt>
      <trkpt lat="43.01667" lon="17.77608">
        <ele>61.213951</ele>
        <time>2022-06-11T13:05:22.023Z</time>
      </trkpt>
      <trkpt lat="43.01677" lon="17.77598">
        <ele>61.39265</ele>
        <time>2022-06-11T13:05:26.062Z</time>
      </trkpt>
      <trkpt lat="43.01683" lon="17.77589">
        <ele>61.530529</ele>
        <time>2022-06-11T13:05:29.024Z</time>
      </trkpt>
      <trkpt lat="43.0169" lon="17.77579">
        <ele>61.680842</ele>
        <time>2022-06-11T13:05:32.012Z</time>
      </trkpt>
      <trkpt lat="43.01698" lon="17.7757">
        <ele>61.832752</ele>
        <time>2022-06-11T13:05:35.020Z</time>
      </trkpt>
      <trkpt lat="43.01706" lon="17.7756">
        <ele>61.989478</ele>
        <time>2022-06-11T13:05:38.020Z</time>
      </trkpt>
      <trkpt lat="43.01713" lon="17.7755">
        <ele>62.151865</ele>
        <time>2022-06-11T13:05:41.025Z</time>
      </trkpt>
      <trkpt lat="43.01721" lon="17.7754">
        <ele>62.39852</ele>
        <time>2022-06-11T13:05:44.025Z</time>
      </trkpt>
      <trkpt lat="43.01728" lon="17.7753">
        <ele>62.669924</ele>
        <time>2022-06-11T13:05:47.030Z</time>
      </trkpt>
      <trkpt lat="43.01732" lon="17.77517">
        <ele>62.955487</ele>
        <time>2022-06-11T13:05:50.032Z</time>
      </trkpt>
      <trkpt lat="43.01736" lon="17.77503">
        <ele>63.24837</ele>
        <time>2022-06-11T13:05:53.027Z</time>
      </trkpt>
      <trkpt lat="43.0174" lon="17.77488">
        <ele>63.560974</ele>
        <time>2022-06-11T13:05:56.007Z</time>
      </trkpt>
      <trkpt lat="43.01744" lon="17.77472">
        <ele>63.891963</ele>
        <time>2022-06-11T13:05:59.055Z</time>
      </trkpt>
      <trkpt lat="43.01748" lon="17.77455">
        <ele>64.257085</ele>
        <time>2022-06-11T13:06:02.039Z</time>
      </trkpt>
      <trkpt lat="43.01751" lon="17.77441">
        <ele>64.5359</ele>
        <time>2022-06-11T13:06:04.035Z</time>
      </trkpt>
      <trkpt lat="43.01755" lon="17.7743">
        <ele>64.78159</ele>
        <time>2022-06-11T13:06:06.013Z</time>
      </trkpt>
      <trkpt lat="43.01761" lon="17.77415">
        <ele>65.120744</ele>
        <time>2022-06-11T13:06:09.018Z</time>
      </trkpt>
      <trkpt lat="43.01768" lon="17.77401">
        <ele>65.459014</ele>
        <time>2022-06-11T13:06:12.025Z</time>
      </trkpt>
      <trkpt lat="43.01777" lon="17.77389">
        <ele>65.79547</ele>
        <time>2022-06-11T13:06:15.025Z</time>
      </trkpt>
      <trkpt lat="43.01787" lon="17.7738">
        <ele>66.124961</ele>
        <time>2022-06-11T13:06:18.027Z</time>
      </trkpt>
      <trkpt lat="43.01796" lon="17.7737">
        <ele>66.444407</ele>
        <time>2022-06-11T13:06:21.026Z</time>
      </trkpt>
      <trkpt lat="43.01806" lon="17.77362">
        <ele>66.754314</ele>
        <time>2022-06-11T13:06:24.023Z</time>
      </trkpt>
      <trkpt lat="43.01816" lon="17.77354">
        <ele>67.070669</ele>
        <time>2022-06-11T13:06:27.016Z</time>
      </trkpt>
      <trkpt lat="43.01825" lon="17.77344">
        <ele>67.008345</ele>
        <time>2022-06-11T13:06:30.046Z</time>
      </trkpt>
      <trkpt lat="43.01834" lon="17.77335">
        <ele>66.923461</ele>
        <time>2022-06-11T13:06:33.063Z</time>
      </trkpt>
      <trkpt lat="43.01843" lon="17.77325">
        <ele>66.834339</ele>
        <time>2022-06-11T13:06:36.045Z</time>
      </trkpt>
      <trkpt lat="43.01852" lon="17.77314">
        <ele>66.74253</ele>
        <time>2022-06-11T13:06:39.048Z</time>
      </trkpt>
      <trkpt lat="43.0186" lon="17.77302">
        <ele>66.65267</ele>
        <time>2022-06-11T13:06:42.015Z</time>
      </trkpt>
      <trkpt lat="43.01867" lon="17.7729">
        <ele>66.569158</ele>
        <time>2022-06-11T13:06:45.024Z</time>
      </trkpt>
      <trkpt lat="43.01874" lon="17.77277">
        <ele>66.483874</ele>
        <time>2022-06-11T13:06:48.032Z</time>
      </trkpt>
      <trkpt lat="43.0188" lon="17.77267">
        <ele>66.409682</ele>
        <time>2022-06-11T13:06:51.025Z</time>
      </trkpt>
      <trkpt lat="43.01885" lon="17.77256">
        <ele>66.339349</ele>
        <time>2022-06-11T13:06:54.022Z</time>
      </trkpt>
      <trkpt lat="43.01891" lon="17.77242">
        <ele>66.251231</ele>
        <time>2022-06-11T13:06:58.025Z</time>
      </trkpt>
      <trkpt lat="43.01897" lon="17.77231">
        <ele>66.176902</ele>
        <time>2022-06-11T13:07:02.016Z</time>
      </trkpt>
      <trkpt lat="43.019" lon="17.77218">
        <ele>66.100387</ele>
        <time>2022-06-11T13:07:06.023Z</time>
      </trkpt>
      <trkpt lat="43.01903" lon="17.77204">
        <ele>66.019979</ele>
        <time>2022-06-11T13:07:10.022Z</time>
      </trkpt>
      <trkpt lat="43.01904" lon="17.77191">
        <ele>65.950941</ele>
        <time>2022-06-11T13:07:13.013Z</time>
      </trkpt>
      <trkpt lat="43.01906" lon="17.77179">
        <ele>65.880001</ele>
        <time>2022-06-11T13:07:16.032Z</time>
      </trkpt>
      <trkpt lat="43.01907" lon="17.77164">
        <ele>65.79651</ele>
        <time>2022-06-11T13:07:20.028Z</time>
      </trkpt>
      <trkpt lat="43.01906" lon="17.77149">
        <ele>65.712573</ele>
        <time>2022-06-11T13:07:24.067Z</time>
      </trkpt>
      <trkpt lat="43.01904" lon="17.77135">
        <ele>65.612745</ele>
        <time>2022-06-11T13:07:28.049Z</time>
      </trkpt>
      <trkpt lat="43.01899" lon="17.77121">
        <ele>65.508861</ele>
        <time>2022-06-11T13:07:32.019Z</time>
      </trkpt>
      <trkpt lat="43.01893" lon="17.77111">
        <ele>65.421742</ele>
        <time>2022-06-11T13:07:35.031Z</time>
      </trkpt>
      <trkpt lat="43.01888" lon="17.77101">
        <ele>65.337887</ele>
        <time>2022-06-11T13:07:38.034Z</time>
      </trkpt>
      <trkpt lat="43.01884" lon="17.77089">
        <ele>65.249927</ele>
        <time>2022-06-11T13:07:41.020Z</time>
      </trkpt>
      <trkpt lat="43.01879" lon="17.77077">
        <ele>65.157469</ele>
        <time>2022-06-11T13:07:44.020Z</time>
      </trkpt>
      <trkpt lat="43.01872" lon="17.77064">
        <ele>65.048538</ele>
        <time>2022-06-11T13:07:47.069Z</time>
      </trkpt>
      <trkpt lat="43.01867" lon="17.77053">
        <ele>64.962806</ele>
        <time>2022-06-11T13:07:49.014Z</time>
      </trkpt>
      <trkpt lat="43.01863" lon="17.77037">
        <ele>64.847309</ele>
        <time>2022-06-11T13:07:52.023Z</time>
      </trkpt>
      <trkpt lat="43.01864" lon="17.77021">
        <ele>64.739353</ele>
        <time>2022-06-11T13:07:55.026Z</time>
      </trkpt>
      <trkpt lat="43.01866" lon="17.77005">
        <ele>64.629696</ele>
        <time>2022-06-11T13:07:58.048Z</time>
      </trkpt>
      <trkpt lat="43.01871" lon="17.76992">
        <ele>64.532224</ele>
        <time>2022-06-11T13:08:01.024Z</time>
      </trkpt>
      <trkpt lat="43.01877" lon="17.76981">
        <ele>64.438222</ele>
        <time>2022-06-11T13:08:04.061Z</time>
      </trkpt>
      <trkpt lat="43.01884" lon="17.76969">
        <ele>64.339123</ele>
        <time>2022-06-11T13:08:07.024Z</time>
      </trkpt>
      <trkpt lat="43.01891" lon="17.76958">
        <ele>64.235377</ele>
        <time>2022-06-11T13:08:10.027Z</time>
      </trkpt>
      <trkpt lat="43.01899" lon="17.76946">
        <ele>64.126668</ele>
        <time>2022-06-11T13:08:13.020Z</time>
      </trkpt>
      <trkpt lat="43.01906" lon="17.76934">
        <ele>64.251647</ele>
        <time>2022-06-11T13:08:16.044Z</time>
      </trkpt>
      <trkpt lat="43.01914" lon="17.76922">
        <ele>64.60666</ele>
        <time>2022-06-11T13:08:19.017Z</time>
      </trkpt>
      <trkpt lat="43.01921" lon="17.7691">
        <ele>64.956521</ele>
        <time>2022-06-11T13:08:22.026Z</time>
      </trkpt>
      <trkpt lat="43.01928" lon="17.769">
        <ele>65.269854</ele>
        <time>2022-06-11T13:08:25.045Z</time>
      </trkpt>
      <trkpt lat="43.01935" lon="17.7689">
        <ele>65.567446</ele>
        <time>2022-06-11T13:08:28.017Z</time>
      </trkpt>
      <trkpt lat="43.01941" lon="17.76882">
        <ele>65.846489</ele>
        <time>2022-06-11T13:08:31.024Z</time>
      </trkpt>
      <trkpt lat="43.0195" lon="17.76871">
        <ele>66.202071</ele>
        <time>2022-06-11T13:08:35.020Z</time>
      </trkpt>
      <trkpt lat="43.01957" lon="17.7686">
        <ele>66.547199</ele>
        <time>2022-06-11T13:08:39.025Z</time>
      </trkpt>
      <trkpt lat="43.01964" lon="17.76851">
        <ele>66.849153</ele>
        <time>2022-06-11T13:08:43.014Z</time>
      </trkpt>
      <trkpt lat="43.01971" lon="17.76841">
        <ele>67.140803</ele>
        <time>2022-06-11T13:08:48.057Z</time>
      </trkpt>
      <trkpt lat="43.01975" lon="17.7683">
        <ele>67.4214</ele>
        <time>2022-06-11T13:08:52.050Z</time>
      </trkpt>
      <trkpt lat="43.01981" lon="17.76818">
        <ele>67.74513</ele>
        <time>2022-06-11T13:08:56.021Z</time>
      </trkpt>
      <trkpt lat="43.01988" lon="17.76807">
        <ele>68.064932</ele>
        <time>2022-06-11T13:09:00.026Z</time>
      </trkpt>
      <trkpt lat="43.01993" lon="17.76796">
        <ele>68.370141</ele>
        <time>2022-06-11T13:09:04.018Z</time>
      </trkpt>
      <trkpt lat="43.02" lon="17.76786">
        <ele>68.670446</ele>
        <time>2022-06-11T13:09:08.018Z</time>
      </trkpt>
      <trkpt lat="43.02008" lon="17.76776">
        <ele>68.992843</ele>
        <time>2022-06-11T13:09:13.022Z</time>
      </trkpt>
      <trkpt lat="43.02014" lon="17.76767">
        <ele>69.275075</ele>
        <time>2022-06-11T13:09:17.017Z</time>
      </trkpt>
      <trkpt lat="43.0202" lon="17.76757">
        <ele>69.577562</ele>
        <time>2022-06-11T13:09:21.058Z</time>
      </trkpt>
      <trkpt lat="43.02025" lon="17.76744">
        <ele>69.537268</ele>
        <time>2022-06-11T13:09:25.027Z</time>
      </trkpt>
      <trkpt lat="43.02031" lon="17.7673">
        <ele>69.45057</ele>
        <time>2022-06-11T13:09:29.031Z</time>
      </trkpt>
      <trkpt lat="43.02035" lon="17.76715">
        <ele>69.363229</ele>
        <time>2022-06-11T13:09:33.032Z</time>
      </trkpt>
      <trkpt lat="43.02038" lon="17.767">
        <ele>69.272002</ele>
        <time>2022-06-11T13:09:37.021Z</time>
      </trkpt>
      <trkpt lat="43.0204" lon="17.76687">
        <ele>69.202009</ele>
        <time>2022-06-11T13:09:40.026Z</time>
      </trkpt>
      <trkpt lat="43.02042" lon="17.76673">
        <ele>69.118914</ele>
        <time>2022-06-11T13:09:43.023Z</time>
      </trkpt>
      <trkpt lat="43.02044" lon="17.76656">
        <ele>69.021532</ele>
        <time>2022-06-11T13:09:46.025Z</time>
      </trkpt>
      <trkpt lat="43.02046" lon="17.7664">
        <ele>68.932652</ele>
        <time>2022-06-11T13:09:49.060Z</time>
      </trkpt>
      <trkpt lat="43.02049" lon="17.76625">
        <ele>68.849241</ele>
        <time>2022-06-11T13:09:52.019Z</time>
      </trkpt>
      <trkpt lat="43.02052" lon="17.76611">
        <ele>68.766369</ele>
        <time>2022-06-11T13:09:55.050Z</time>
      </trkpt>
      <trkpt lat="43.02055" lon="17.76596">
        <ele>68.680394</ele>
        <time>2022-06-11T13:09:58.029Z</time>
      </trkpt>
      <trkpt lat="43.02058" lon="17.76582">
        <ele>68.593575</ele>
        <time>2022-06-11T13:10:01.015Z</time>
      </trkpt>
      <trkpt lat="43.02063" lon="17.76567">
        <ele>68.50244</ele>
        <time>2022-06-11T13:10:04.013Z</time>
      </trkpt>
      <trkpt lat="43.0207" lon="17.76554">
        <ele>68.413596</ele>
        <time>2022-06-11T13:10:07.038Z</time>
      </trkpt>
      <trkpt lat="43.02076" lon="17.76542">
        <ele>68.331434</ele>
        <time>2022-06-11T13:10:10.010Z</time>
      </trkpt>
      <trkpt lat="43.02083" lon="17.7653">
        <ele>68.245298</ele>
        <time>2022-06-11T13:10:13.018Z</time>
      </trkpt>
      <trkpt lat="43.0209" lon="17.76518">
        <ele>68.006544</ele>
        <time>2022-06-11T13:10:16.023Z</time>
      </trkpt>
      <trkpt lat="43.02097" lon="17.76506">
        <ele>67.755722</ele>
        <time>2022-06-11T13:10:19.025Z</time>
      </trkpt>
      <trkpt lat="43.02104" lon="17.76494">
        <ele>67.491688</ele>
        <time>2022-06-11T13:10:22.019Z</time>
      </trkpt>
      <trkpt lat="43.02111" lon="17.76478">
        <ele>67.186916</ele>
        <time>2022-06-11T13:10:25.016Z</time>
      </trkpt>
      <trkpt lat="43.02114" lon="17.76466">
        <ele>66.973731</ele>
        <time>2022-06-11T13:10:27.023Z</time>
      </trkpt>
      <trkpt lat="43.02118" lon="17.76454">
        <ele>66.753499</ele>
        <time>2022-06-11T13:10:29.015Z</time>
      </trkpt>
      <trkpt lat="43.02121" lon="17.76436">
        <ele>66.448233</ele>
        <time>2022-06-11T13:10:32.025Z</time>
      </trkpt>
      <trkpt lat="43.02124" lon="17.76418">
        <ele>66.142798</ele>
        <time>2022-06-11T13:10:35.015Z</time>
      </trkpt>
      <trkpt lat="43.02126" lon="17.76401">
        <ele>65.851539</ele>
        <time>2022-06-11T13:10:38.041Z</time>
      </trkpt>
      <trkpt lat="43.02127" lon="17.76384">
        <ele>65.561974</ele>
        <time>2022-06-11T13:10:41.019Z</time>
      </trkpt>
      <trkpt lat="43.02127" lon="17.76367">
        <ele>65.28157</ele>
        <time>2022-06-11T13:10:44.022Z</time>
      </trkpt>
      <trkpt lat="43.02128" lon="17.7635">
        <ele>65.004502</ele>
        <time>2022-06-11T13:10:47.031Z</time>
      </trkpt>
      <trkpt lat="43.02129" lon="17.76334">
        <ele>64.738218</ele>
        <time>2022-06-11T13:10:50.028Z</time>
      </trkpt>
      <trkpt lat="43.02133" lon="17.76319">
        <ele>64.469449</ele>
        <time>2022-06-11T13:10:53.024Z</time>
      </trkpt>
      <trkpt lat="43.02139" lon="17.76304">
        <ele>64.180185</ele>
        <time>2022-06-11T13:10:56.037Z</time>
      </trkpt>
      <trkpt lat="43.02147" lon="17.7629">
        <ele>64.032651</ele>
        <time>2022-06-11T13:10:59.031Z</time>
      </trkpt>
      <trkpt lat="43.02154" lon="17.76279">
        <ele>63.922773</ele>
        <time>2022-06-11T13:11:02.006Z</time>
      </trkpt>
      <trkpt lat="43.02163" lon="17.76268">
        <ele>63.811957</ele>
        <time>2022-06-11T13:11:05.018Z</time>
      </trkpt>
      <trkpt lat="43.02171" lon="17.76257">
        <ele>63.705449</ele>
        <time>2022-06-11T13:11:08.024Z</time>
      </trkpt>
      <trkpt lat="43.02179" lon="17.76248">
        <ele>63.607688</ele>
        <time>2022-06-11T13:11:11.035Z</time>
      </trkpt>
      <trkpt lat="43.02187" lon="17.76239">
        <ele>63.506978</ele>
        <time>2022-06-11T13:11:14.016Z</time>
      </trkpt>
      <trkpt lat="43.02197" lon="17.7623">
        <ele>63.398465</ele>
        <time>2022-06-11T13:11:17.021Z</time>
      </trkpt>
      <trkpt lat="43.02207" lon="17.7622">
        <ele>63.280733</ele>
        <time>2022-06-11T13:11:20.028Z</time>
      </trkpt>
      <trkpt lat="43.02213" lon="17.76211">
        <ele>63.192762</ele>
        <time>2022-06-11T13:11:22.029Z</time>
      </trkpt>
      <trkpt lat="43.02219" lon="17.76201">
        <ele>63.105266</ele>
        <time>2022-06-11T13:11:24.058Z</time>
      </trkpt>
      <trkpt lat="43.02224" lon="17.76189">
        <ele>63.009572</ele>
        <time>2022-06-11T13:11:26.028Z</time>
      </trkpt>
      <trkpt lat="43.02227" lon="17.76174">
        <ele>62.904585</ele>
        <time>2022-06-11T13:11:28.028Z</time>
      </trkpt>
      <trkpt lat="43.02227" lon="17.76158">
        <ele>62.793455</ele>
        <time>2022-06-11T13:11:30.024Z</time>
      </trkpt>
      <trkpt lat="43.02228" lon="17.76144">
        <ele>62.695316</ele>
        <time>2022-06-11T13:11:32.038Z</time>
      </trkpt>
      <trkpt lat="43.02229" lon="17.76131">
        <ele>62.604265</ele>
        <time>2022-06-11T13:11:34.065Z</time>
      </trkpt>
      <trkpt lat="43.0223" lon="17.76119">
        <ele>62.515519</ele>
        <time>2022-06-11T13:11:36.015Z</time>
      </trkpt>
      <trkpt lat="43.02231" lon="17.76106">
        <ele>62.42757</ele>
        <time>2022-06-11T13:11:38.048Z</time>
      </trkpt>
      <trkpt lat="43.02232" lon="17.76093">
        <ele>62.194297</ele>
        <time>2022-06-11T13:11:40.030Z</time>
      </trkpt>
      <trkpt lat="43.02233" lon="17.76078">
        <ele>61.923641</ele>
        <time>2022-06-11T13:11:42.016Z</time>
      </trkpt>
      <trkpt lat="43.02233" lon="17.76064">
        <ele>61.660228</ele>
        <time>2022-06-11T13:11:44.024Z</time>
      </trkpt>
      <trkpt lat="43.02234" lon="17.76049">
        <ele>61.399905</ele>
        <time>2022-06-11T13:11:46.055Z</time>
      </trkpt>
      <trkpt lat="43.02235" lon="17.76035">
        <ele>61.144243</ele>
        <time>2022-06-11T13:11:48.034Z</time>
      </trkpt>
      <trkpt lat="43.02237" lon="17.76022">
        <ele>60.893112</ele>
        <time>2022-06-11T13:11:50.025Z</time>
      </trkpt>
      <trkpt lat="43.0224" lon="17.76009">
        <ele>60.649925</ele>
        <time>2022-06-11T13:11:52.056Z</time>
      </trkpt>
      <trkpt lat="43.02244" lon="17.75991">
        <ele>60.318511</ele>
        <time>2022-06-11T13:11:55.050Z</time>
      </trkpt>
      <trkpt lat="43.02248" lon="17.75976">
        <ele>60.016127</ele>
        <time>2022-06-11T13:11:58.026Z</time>
      </trkpt>
      <trkpt lat="43.02253" lon="17.75961">
        <ele>59.729083</ele>
        <time>2022-06-11T13:12:01.013Z</time>
      </trkpt>
      <trkpt lat="43.02258" lon="17.75947">
        <ele>59.442134</ele>
        <time>2022-06-11T13:12:04.015Z</time>
      </trkpt>
      <trkpt lat="43.02264" lon="17.75932">
        <ele>59.133982</ele>
        <time>2022-06-11T13:12:07.039Z</time>
      </trkpt>
      <trkpt lat="43.02271" lon="17.75918">
        <ele>58.811673</ele>
        <time>2022-06-11T13:12:10.030Z</time>
      </trkpt>
      <trkpt lat="43.02279" lon="17.75903">
        <ele>58.49102</ele>
        <time>2022-06-11T13:12:13.034Z</time>
      </trkpt>
      <trkpt lat="43.02287" lon="17.75889">
        <ele>58.167204</ele>
        <time>2022-06-11T13:12:16.027Z</time>
      </trkpt>
      <trkpt lat="43.02296" lon="17.75877">
        <ele>57.932282</ele>
        <time>2022-06-11T13:12:19.029Z</time>
      </trkpt>
      <trkpt lat="43.02304" lon="17.75865">
        <ele>57.844071</ele>
        <time>2022-06-11T13:12:22.017Z</time>
      </trkpt>
      <trkpt lat="43.02314" lon="17.75854">
        <ele>57.752278</ele>
        <time>2022-06-11T13:12:25.058Z</time>
      </trkpt>
      <trkpt lat="43.02323" lon="17.75844">
        <ele>57.667146</ele>
        <time>2022-06-11T13:12:28.007Z</time>
      </trkpt>
      <trkpt lat="43.02332" lon="17.75834">
        <ele>57.584159</ele>
        <time>2022-06-11T13:12:31.015Z</time>
      </trkpt>
      <trkpt lat="43.02341" lon="17.75825">
        <ele>57.495275</ele>
        <time>2022-06-11T13:12:34.027Z</time>
      </trkpt>
      <trkpt lat="43.02351" lon="17.75813">
        <ele>57.398971</ele>
        <time>2022-06-11T13:12:37.023Z</time>
      </trkpt>
      <trkpt lat="43.02361" lon="17.75801">
        <ele>57.303315</ele>
        <time>2022-06-11T13:12:40.021Z</time>
      </trkpt>
      <trkpt lat="43.02371" lon="17.7579">
        <ele>57.207314</ele>
        <time>2022-06-11T13:12:43.014Z</time>
      </trkpt>
      <trkpt lat="43.02378" lon="17.75782">
        <ele>57.141304</ele>
        <time>2022-06-11T13:12:45.024Z</time>
      </trkpt>
      <trkpt lat="43.02389" lon="17.75771">
        <ele>57.046023</ele>
        <time>2022-06-11T13:12:48.022Z</time>
      </trkpt>
      <trkpt lat="43.02398" lon="17.75761">
        <ele>56.957347</ele>
        <time>2022-06-11T13:12:51.032Z</time>
      </trkpt>
      <trkpt lat="43.02407" lon="17.75751">
        <ele>56.871971</ele>
        <time>2022-06-11T13:12:54.039Z</time>
      </trkpt>
      <trkpt lat="43.02417" lon="17.7574">
        <ele>56.781185</ele>
        <time>2022-06-11T13:12:57.015Z</time>
      </trkpt>
      <trkpt lat="43.02426" lon="17.7573">
        <ele>56.69424</ele>
        <time>2022-06-11T13:13:00.059Z</time>
      </trkpt>
      <trkpt lat="43.02435" lon="17.7572">
        <ele>56.73644</ele>
        <time>2022-06-11T13:13:03.025Z</time>
      </trkpt>
      <trkpt lat="43.02444" lon="17.7571">
        <ele>56.930142</ele>
        <time>2022-06-11T13:13:06.021Z</time>
      </trkpt>
      <trkpt lat="43.02452" lon="17.75701">
        <ele>57.106826</ele>
        <time>2022-06-11T13:13:09.024Z</time>
      </trkpt>
      <trkpt lat="43.02462" lon="17.75691">
        <ele>57.307971</ele>
        <time>2022-06-11T13:13:12.012Z</time>
      </trkpt>
      <trkpt lat="43.0247" lon="17.75682">
        <ele>57.486474</ele>
        <time>2022-06-11T13:13:15.020Z</time>
      </trkpt>
      <trkpt lat="43.02478" lon="17.75673">
        <ele>57.656963</ele>
        <time>2022-06-11T13:13:18.054Z</time>
      </trkpt>
      <trkpt lat="43.02485" lon="17.75665">
        <ele>57.820827</ele>
        <time>2022-06-11T13:13:21.022Z</time>
      </trkpt>
      <trkpt lat="43.02493" lon="17.75657">
        <ele>57.987321</ele>
        <time>2022-06-11T13:13:24.069Z</time>
      </trkpt>
      <trkpt lat="43.025" lon="17.75649">
        <ele>58.140492</ele>
        <time>2022-06-11T13:13:27.035Z</time>
      </trkpt>
      <trkpt lat="43.02509" lon="17.75639">
        <ele>58.338197</ele>
        <time>2022-06-11T13:13:31.017Z</time>
      </trkpt>
      <trkpt lat="43.02518" lon="17.75629">
        <ele>58.529344</ele>
        <time>2022-06-11T13:13:35.066Z</time>
      </trkpt>
      <trkpt lat="43.02526" lon="17.75618">
        <ele>58.725074</ele>
        <time>2022-06-11T13:13:39.021Z</time>
      </trkpt>
      <trkpt lat="43.02534" lon="17.75606">
        <ele>58.923055</ele>
        <time>2022-06-11T13:13:43.025Z</time>
      </trkpt>
      <trkpt lat="43.02542" lon="17.75595">
        <ele>59.119886</ele>
        <time>2022-06-11T13:13:47.027Z</time>
      </trkpt>
      <trkpt lat="43.0255" lon="17.75583">
        <ele>59.307371</ele>
        <time>2022-06-11T13:13:51.024Z</time>
      </trkpt>
      <trkpt lat="43.02556" lon="17.75574">
        <ele>59.461363</ele>
        <time>2022-06-11T13:13:54.024Z</time>
      </trkpt>
      <trkpt lat="43.02562" lon="17.75565">
        <ele>59.619489</ele>
        <time>2022-06-11T13:13:57.032Z</time>
      </trkpt>
      <trkpt lat="43.02569" lon="17.75555">
        <ele>59.676162</ele>
        <time>2022-06-11T13:14:00.031Z</time>
      </trkpt>
      <trkpt lat="43.02576" lon="17.75545">
        <ele>59.657538</ele>
        <time>2022-06-11T13:14:03.032Z</time>
      </trkpt>
      <trkpt lat="43.02584" lon="17.75534">
        <ele>59.636767</ele>
        <time>2022-06-11T13:14:06.027Z</time>
      </trkpt>
      <trkpt lat="43.02592" lon="17.75522">
        <ele>59.615575</ele>
        <time>2022-06-11T13:14:09.069Z</time>
      </trkpt>
      <trkpt lat="43.02599" lon="17.75511">
        <ele>59.594411</ele>
        <time>2022-06-11T13:14:12.043Z</time>
      </trkpt>
      <trkpt lat="43.02607" lon="17.75498">
        <ele>59.572516</ele>
        <time>2022-06-11T13:14:15.040Z</time>
      </trkpt>
      <trkpt lat="43.02614" lon="17.75486">
        <ele>59.551584</ele>
        <time>2022-06-11T13:14:18.015Z</time>
      </trkpt>
      <trkpt lat="43.02621" lon="17.75475">
        <ele>59.531138</ele>
        <time>2022-06-11T13:14:21.020Z</time>
      </trkpt>
      <trkpt lat="43.02628" lon="17.75463">
        <ele>59.510164</ele>
        <time>2022-06-11T13:14:24.029Z</time>
      </trkpt>
      <trkpt lat="43.02635" lon="17.75452">
        <ele>59.490993</ele>
        <time>2022-06-11T13:14:27.022Z</time>
      </trkpt>
      <trkpt lat="43.02642" lon="17.75441">
        <ele>59.471129</ele>
        <time>2022-06-11T13:14:30.023Z</time>
      </trkpt>
      <trkpt lat="43.0265" lon="17.7543">
        <ele>59.450839</ele>
        <time>2022-06-11T13:14:33.054Z</time>
      </trkpt>
      <trkpt lat="43.02657" lon="17.7542">
        <ele>59.431452</ele>
        <time>2022-06-11T13:14:36.021Z</time>
      </trkpt>
      <trkpt lat="43.02665" lon="17.75411">
        <ele>59.412269</ele>
        <time>2022-06-11T13:14:39.015Z</time>
      </trkpt>
      <trkpt lat="43.02672" lon="17.75401">
        <ele>59.393365</ele>
        <time>2022-06-11T13:14:42.058Z</time>
      </trkpt>
      <trkpt lat="43.0268" lon="17.75391">
        <ele>59.374621</ele>
        <time>2022-06-11T13:14:45.023Z</time>
      </trkpt>
      <trkpt lat="43.02686" lon="17.75381">
        <ele>59.35649</ele>
        <time>2022-06-11T13:14:48.014Z</time>
      </trkpt>
      <trkpt lat="43.02693" lon="17.75372">
        <ele>59.743363</ele>
        <time>2022-06-11T13:14:51.024Z</time>
      </trkpt>
      <trkpt lat="43.02699" lon="17.75362">
        <ele>60.199329</ele>
        <time>2022-06-11T13:14:54.051Z</time>
      </trkpt>
      <trkpt lat="43.02705" lon="17.75352">
        <ele>60.635764</ele>
        <time>2022-06-11T13:14:57.025Z</time>
      </trkpt>
      <trkpt lat="43.02711" lon="17.75342">
        <ele>61.046999</ele>
        <time>2022-06-11T13:15:00.048Z</time>
      </trkpt>
      <trkpt lat="43.02717" lon="17.75332">
        <ele>61.475353</ele>
        <time>2022-06-11T13:15:03.013Z</time>
      </trkpt>
      <trkpt lat="43.02722" lon="17.75322">
        <ele>61.892026</ele>
        <time>2022-06-11T13:15:06.026Z</time>
      </trkpt>
      <trkpt lat="43.02729" lon="17.75313">
        <ele>62.323793</ele>
        <time>2022-06-11T13:15:09.056Z</time>
      </trkpt>
      <trkpt lat="43.02735" lon="17.75303">
        <ele>62.763727</ele>
        <time>2022-06-11T13:15:12.029Z</time>
      </trkpt>
      <trkpt lat="43.02742" lon="17.75294">
        <ele>63.193538</ele>
        <time>2022-06-11T13:15:15.035Z</time>
      </trkpt>
      <trkpt lat="43.02748" lon="17.75283">
        <ele>63.648442</ele>
        <time>2022-06-11T13:15:18.032Z</time>
      </trkpt>
      <trkpt lat="43.02754" lon="17.75272">
        <ele>64.116546</ele>
        <time>2022-06-11T13:15:21.024Z</time>
      </trkpt>
      <trkpt lat="43.0276" lon="17.75262">
        <ele>64.55338</ele>
        <time>2022-06-11T13:15:24.025Z</time>
      </trkpt>
      <trkpt lat="43.02766" lon="17.75252">
        <ele>64.991712</ele>
        <time>2022-06-11T13:15:27.027Z</time>
      </trkpt>
      <trkpt lat="43.02772" lon="17.75242">
        <ele>65.406142</ele>
        <time>2022-06-11T13:15:30.028Z</time>
      </trkpt>
      <trkpt lat="43.02779" lon="17.75229">
        <ele>65.95538</ele>
        <time>2022-06-11T13:15:34.069Z</time>
      </trkpt>
      <trkpt lat="43.02784" lon="17.75218">
        <ele>66.377812</ele>
        <time>2022-06-11T13:15:37.011Z</time>
      </trkpt>
      <trkpt lat="43.0279" lon="17.75208">
        <ele>66.829865</ele>
        <time>2022-06-11T13:15:40.065Z</time>
      </trkpt>
      <trkpt lat="43.02795" lon="17.75197">
        <ele>67.279447</ele>
        <time>2022-06-11T13:15:43.027Z</time>
      </trkpt>
      <trkpt lat="43.02799" lon="17.75184">
        <ele>67.626996</ele>
        <time>2022-06-11T13:15:46.052Z</time>
      </trkpt>
      <trkpt lat="43.02804" lon="17.75172">
        <ele>67.722422</ele>
        <time>2022-06-11T13:15:49.013Z</time>
      </trkpt>
      <trkpt lat="43.02809" lon="17.7516">
        <ele>67.814703</ele>
        <time>2022-06-11T13:15:52.015Z</time>
      </trkpt>
      <trkpt lat="43.02814" lon="17.75148">
        <ele>67.906888</ele>
        <time>2022-06-11T13:15:55.026Z</time>
      </trkpt>
      <trkpt lat="43.02818" lon="17.75135">
        <ele>68.002399</ele>
        <time>2022-06-11T13:15:58.072Z</time>
      </trkpt>
      <trkpt lat="43.02822" lon="17.75122">
        <ele>68.097819</ele>
        <time>2022-06-11T13:16:01.027Z</time>
      </trkpt>
      <trkpt lat="43.02825" lon="17.75108">
        <ele>68.193388</ele>
        <time>2022-06-11T13:16:04.061Z</time>
      </trkpt>
      <trkpt lat="43.02828" lon="17.75094">
        <ele>68.290003</ele>
        <time>2022-06-11T13:16:07.020Z</time>
      </trkpt>
      <trkpt lat="43.0283" lon="17.7508">
        <ele>68.387263</ele>
        <time>2022-06-11T13:16:10.011Z</time>
      </trkpt>
      <trkpt lat="43.02833" lon="17.75066">
        <ele>68.485829</ele>
        <time>2022-06-11T13:16:13.010Z</time>
      </trkpt>
      <trkpt lat="43.02833" lon="17.75051">
        <ele>68.587288</ele>
        <time>2022-06-11T13:16:16.031Z</time>
      </trkpt>
      <trkpt lat="43.02834" lon="17.75036">
        <ele>68.690538</ele>
        <time>2022-06-11T13:16:19.016Z</time>
      </trkpt>
      <trkpt lat="43.02834" lon="17.75021">
        <ele>68.789709</ele>
        <time>2022-06-11T13:16:22.051Z</time>
      </trkpt>
      <trkpt lat="43.02835" lon="17.75007">
        <ele>68.884602</ele>
        <time>2022-06-11T13:16:25.028Z</time>
      </trkpt>
      <trkpt lat="43.02835" lon="17.74993">
        <ele>68.979832</ele>
        <time>2022-06-11T13:16:28.021Z</time>
      </trkpt>
      <trkpt lat="43.02835" lon="17.7498">
        <ele>69.068205</ele>
        <time>2022-06-11T13:16:31.028Z</time>
      </trkpt>
      <trkpt lat="43.02834" lon="17.74966">
        <ele>69.160247</ele>
        <time>2022-06-11T13:16:34.024Z</time>
      </trkpt>
      <trkpt lat="43.02834" lon="17.74951">
        <ele>69.262862</ele>
        <time>2022-06-11T13:16:37.026Z</time>
      </trkpt>
      <trkpt lat="43.02834" lon="17.74936">
        <ele>69.567173</ele>
        <time>2022-06-11T13:16:40.022Z</time>
      </trkpt>
      <trkpt lat="43.02835" lon="17.74922">
        <ele>69.86496</ele>
        <time>2022-06-11T13:16:43.040Z</time>
      </trkpt>
      <trkpt lat="43.02835" lon="17.74908">
        <ele>70.141169</ele>
        <time>2022-06-11T13:16:46.035Z</time>
      </trkpt>
      <trkpt lat="43.02835" lon="17.74895">
        <ele>70.408092</ele>
        <time>2022-06-11T13:16:49.020Z</time>
      </trkpt>
      <trkpt lat="43.02838" lon="17.74883">
        <ele>70.663426</ele>
        <time>2022-06-11T13:16:52.020Z</time>
      </trkpt>
      <trkpt lat="43.02841" lon="17.74867">
        <ele>70.983759</ele>
        <time>2022-06-11T13:16:56.023Z</time>
      </trkpt>
      <trkpt lat="43.02844" lon="17.74852">
        <ele>71.290649</ele>
        <time>2022-06-11T13:17:00.029Z</time>
      </trkpt>
      <trkpt lat="43.02846" lon="17.74838">
        <ele>71.584053</ele>
        <time>2022-06-11T13:17:04.060Z</time>
      </trkpt>
      <trkpt lat="43.02847" lon="17.74824">
        <ele>71.86928</ele>
        <time>2022-06-11T13:17:08.026Z</time>
      </trkpt>
      <trkpt lat="43.02849" lon="17.74811">
        <ele>72.135612</ele>
        <time>2022-06-11T13:17:12.031Z</time>
      </trkpt>
      <trkpt lat="43.02852" lon="17.74799">
        <ele>72.406276</ele>
        <time>2022-06-11T13:17:16.005Z</time>
      </trkpt>
      <trkpt lat="43.02854" lon="17.74785">
        <ele>72.68039</ele>
        <time>2022-06-11T13:17:20.036Z</time>
      </trkpt>
      <trkpt lat="43.02857" lon="17.74771">
        <ele>72.968965</ele>
        <time>2022-06-11T13:17:24.023Z</time>
      </trkpt>
      <trkpt lat="43.02858" lon="17.74756">
        <ele>73.271703</ele>
        <time>2022-06-11T13:17:28.019Z</time>
      </trkpt>
      <trkpt lat="43.02859" lon="17.74741">
        <ele>73.576612</ele>
        <time>2022-06-11T13:17:32.048Z</time>
      </trkpt>
      <trkpt lat="43.0286" lon="17.74726">
        <ele>73.879698</ele>
        <time>2022-06-11T13:17:36.018Z</time>
      </trkpt>
      <trkpt lat="43.0286" lon="17.74711">
        <ele>74.19628</ele>
        <time>2022-06-11T13:17:40.018Z</time>
      </trkpt>
      <trkpt lat="43.02861" lon="17.74695">
        <ele>74.409734</ele>
        <time>2022-06-11T13:17:44.060Z</time>
      </trkpt>
      <trkpt lat="43.02862" lon="17.7468">
        <ele>74.61017</ele>
        <time>2022-06-11T13:17:48.008Z</time>
      </trkpt>
      <trkpt lat="43.02862" lon="17.74664">
        <ele>74.826135</ele>
        <time>2022-06-11T13:17:52.023Z</time>
      </trkpt>
      <trkpt lat="43.02862" lon="17.74651">
        <ele>75.000718</ele>
        <time>2022-06-11T13:17:55.020Z</time>
      </trkpt>
      <trkpt lat="43.02862" lon="17.74637">
        <ele>75.183379</ele>
        <time>2022-06-11T13:17:58.024Z</time>
      </trkpt>
      <trkpt lat="43.02863" lon="17.74623">
        <ele>75.3797</ele>
        <time>2022-06-11T13:18:01.033Z</time>
      </trkpt>
      <trkpt lat="43.02865" lon="17.74607">
        <ele>75.586226</ele>
        <time>2022-06-11T13:18:04.023Z</time>
      </trkpt>
      <trkpt lat="43.02869" lon="17.74591">
        <ele>75.820925</ele>
        <time>2022-06-11T13:18:07.042Z</time>
      </trkpt>
      <trkpt lat="43.02876" lon="17.74575">
        <ele>76.06278</ele>
        <time>2022-06-11T13:18:10.030Z</time>
      </trkpt>
      <trkpt lat="43.02885" lon="17.74562">
        <ele>76.299466</ele>
        <time>2022-06-11T13:18:13.015Z</time>
      </trkpt>
      <trkpt lat="43.02895" lon="17.74552">
        <ele>76.522404</ele>
        <time>2022-06-11T13:18:16.028Z</time>
      </trkpt>
      <trkpt lat="43.02903" lon="17.74542">
        <ele>76.731293</ele>
        <time>2022-06-11T13:18:19.018Z</time>
      </trkpt>
      <trkpt lat="43.02913" lon="17.74531">
        <ele>76.958231</ele>
        <time>2022-06-11T13:18:22.022Z</time>
      </trkpt>
      <trkpt lat="43.02922" lon="17.7452">
        <ele>77.178915</ele>
        <time>2022-06-11T13:18:25.024Z</time>
      </trkpt>
      <trkpt lat="43.02931" lon="17.74507">
        <ele>77.409945</ele>
        <time>2022-06-11T13:18:28.025Z</time>
      </trkpt>
      <trkpt lat="43.02939" lon="17.74493">
        <ele>77.604177</ele>
        <time>2022-06-11T13:18:31.017Z</time>
      </trkpt>
      <trkpt lat="43.02946" lon="17.74479">
        <ele>77.77654</ele>
        <time>2022-06-11T13:18:34.015Z</time>
      </trkpt>
      <trkpt lat="43.02954" lon="17.74465">
        <ele>77.950426</ele>
        <time>2022-06-11T13:18:37.043Z</time>
      </trkpt>
      <trkpt lat="43.02962" lon="17.7445">
        <ele>78.126694</ele>
        <time>2022-06-11T13:18:40.017Z</time>
      </trkpt>
      <trkpt lat="43.02969" lon="17.74436">
        <ele>78.301444</ele>
        <time>2022-06-11T13:18:43.030Z</time>
      </trkpt>
      <trkpt lat="43.02976" lon="17.7442">
        <ele>78.470887</ele>
        <time>2022-06-11T13:18:46.026Z</time>
      </trkpt>
      <trkpt lat="43.02982" lon="17.74405">
        <ele>78.642683</ele>
        <time>2022-06-11T13:18:49.025Z</time>
      </trkpt>
      <trkpt lat="43.02986" lon="17.74394">
        <ele>78.764493</ele>
        <time>2022-06-11T13:18:51.036Z</time>
      </trkpt>
      <trkpt lat="43.02991" lon="17.74382">
        <ele>78.892722</ele>
        <time>2022-06-11T13:18:53.035Z</time>
      </trkpt>
      <trkpt lat="43.02995" lon="17.7437">
        <ele>79.026679</ele>
        <time>2022-06-11T13:18:55.025Z</time>
      </trkpt>
      <trkpt lat="43.03" lon="17.74358">
        <ele>79.163937</ele>
        <time>2022-06-11T13:18:57.029Z</time>
      </trkpt>
      <trkpt lat="43.03005" lon="17.74345">
        <ele>79.304999</ele>
        <time>2022-06-11T13:18:59.037Z</time>
      </trkpt>
      <trkpt lat="43.0301" lon="17.74332">
        <ele>79.447518</ele>
        <time>2022-06-11T13:19:01.016Z</time>
      </trkpt>
      <trkpt lat="43.03016" lon="17.7432">
        <ele>79.586781</ele>
        <time>2022-06-11T13:19:03.071Z</time>
      </trkpt>
      <trkpt lat="43.03022" lon="17.7431">
        <ele>79.719921</ele>
        <time>2022-06-11T13:19:05.033Z</time>
      </trkpt>
      <trkpt lat="43.03029" lon="17.743">
        <ele>79.850059</ele>
        <time>2022-06-11T13:19:07.024Z</time>
      </trkpt>
      <trkpt lat="43.03035" lon="17.7429">
        <ele>79.726013</ele>
        <time>2022-06-11T13:19:09.032Z</time>
      </trkpt>
      <trkpt lat="43.03043" lon="17.74276">
        <ele>79.346136</ele>
        <time>2022-06-11T13:19:12.035Z</time>
      </trkpt>
      <trkpt lat="43.03049" lon="17.74266">
        <ele>79.084847</ele>
        <time>2022-06-11T13:19:14.054Z</time>
      </trkpt>
      <trkpt lat="43.03055" lon="17.74256">
        <ele>78.810173</ele>
        <time>2022-06-11T13:19:16.016Z</time>
      </trkpt>
      <trkpt lat="43.0306" lon="17.74244">
        <ele>78.530268</ele>
        <time>2022-06-11T13:19:18.018Z</time>
      </trkpt>
      <trkpt lat="43.03066" lon="17.74233">
        <ele>78.250364</ele>
        <time>2022-06-11T13:19:20.065Z</time>
      </trkpt>
      <trkpt lat="43.03071" lon="17.74223">
        <ele>77.982167</ele>
        <time>2022-06-11T13:19:22.032Z</time>
      </trkpt>
      <trkpt lat="43.03075" lon="17.74212">
        <ele>77.717646</ele>
        <time>2022-06-11T13:19:24.037Z</time>
      </trkpt>
      <trkpt lat="43.03079" lon="17.742">
        <ele>77.455702</ele>
        <time>2022-06-11T13:19:26.016Z</time>
      </trkpt>
      <trkpt lat="43.03083" lon="17.74182">
        <ele>77.06101</ele>
        <time>2022-06-11T13:19:29.052Z</time>
      </trkpt>
      <trkpt lat="43.03085" lon="17.74169">
        <ele>76.784289</ele>
        <time>2022-06-11T13:19:31.064Z</time>
      </trkpt>
      <trkpt lat="43.03086" lon="17.74155">
        <ele>76.501578</ele>
        <time>2022-06-11T13:19:33.023Z</time>
      </trkpt>
      <trkpt lat="43.03086" lon="17.74142">
        <ele>76.223951</ele>
        <time>2022-06-11T13:19:35.025Z</time>
      </trkpt>
      <trkpt lat="43.03085" lon="17.7413">
        <ele>75.962272</ele>
        <time>2022-06-11T13:19:37.052Z</time>
      </trkpt>
      <trkpt lat="43.03084" lon="17.74117">
        <ele>75.691499</ele>
        <time>2022-06-11T13:19:39.025Z</time>
      </trkpt>
      <trkpt lat="43.03083" lon="17.74103">
        <ele>75.412116</ele>
        <time>2022-06-11T13:19:41.012Z</time>
      </trkpt>
      <trkpt lat="43.03082" lon="17.7409">
        <ele>75.128583</ele>
        <time>2022-06-11T13:19:43.032Z</time>
      </trkpt>
      <trkpt lat="43.03081" lon="17.74076">
        <ele>74.831841</ele>
        <time>2022-06-11T13:19:45.033Z</time>
      </trkpt>
      <trkpt lat="43.03081" lon="17.74062">
        <ele>74.52668</ele>
        <time>2022-06-11T13:19:47.027Z</time>
      </trkpt>
      <trkpt lat="43.03082" lon="17.74048">
        <ele>74.219079</ele>
        <time>2022-06-11T13:19:49.035Z</time>
      </trkpt>
      <trkpt lat="43.03084" lon="17.74035">
        <ele>73.927004</ele>
        <time>2022-06-11T13:19:51.035Z</time>
      </trkpt>
      <trkpt lat="43.03089" lon="17.74022">
        <ele>73.615706</ele>
        <time>2022-06-11T13:19:53.069Z</time>
      </trkpt>
      <trkpt lat="43.03094" lon="17.7401">
        <ele>73.308901</ele>
        <time>2022-06-11T13:19:55.012Z</time>
      </trkpt>
      <trkpt lat="43.031" lon="17.73999">
        <ele>73.005524</ele>
        <time>2022-06-11T13:19:57.016Z</time>
      </trkpt>
      <trkpt lat="43.03106" lon="17.7399">
        <ele>72.710059</ele>
        <time>2022-06-11T13:19:59.016Z</time>
      </trkpt>
      <trkpt lat="43.03114" lon="17.73982">
        <ele>72.424098</ele>
        <time>2022-06-11T13:20:01.016Z</time>
      </trkpt>
      <trkpt lat="43.03122" lon="17.73975">
        <ele>72.131195</ele>
        <time>2022-06-11T13:20:03.030Z</time>
      </trkpt>
      <trkpt lat="43.03131" lon="17.73968">
        <ele>71.824881</ele>
        <time>2022-06-11T13:20:05.022Z</time>
      </trkpt>
      <trkpt lat="43.0314" lon="17.73961">
        <ele>71.504783</ele>
        <time>2022-06-11T13:20:07.028Z</time>
      </trkpt>
      <trkpt lat="43.03149" lon="17.73953">
        <ele>71.194002</ele>
        <time>2022-06-11T13:20:09.061Z</time>
      </trkpt>
      <trkpt lat="43.03157" lon="17.73946">
        <ele>70.890702</ele>
        <time>2022-06-11T13:20:11.028Z</time>
      </trkpt>
      <trkpt lat="43.03166" lon="17.73939">
        <ele>70.578226</ele>
        <time>2022-06-11T13:20:13.028Z</time>
      </trkpt>
      <trkpt lat="43.03175" lon="17.73931">
        <ele>70.268746</ele>
        <time>2022-06-11T13:20:15.050Z</time>
      </trkpt>
      <trkpt lat="43.03183" lon="17.73924">
        <ele>69.981718</ele>
        <time>2022-06-11T13:20:17.023Z</time>
      </trkpt>
      <trkpt lat="43.03191" lon="17.73917">
        <ele>69.688286</ele>
        <time>2022-06-11T13:20:19.023Z</time>
      </trkpt>
      <trkpt lat="43.03199" lon="17.7391">
        <ele>69.394916</ele>
        <time>2022-06-11T13:20:21.060Z</time>
      </trkpt>
      <trkpt lat="43.03208" lon="17.73904">
        <ele>69.296628</ele>
        <time>2022-06-11T13:20:23.030Z</time>
      </trkpt>
      <trkpt lat="43.03215" lon="17.73895">
        <ele>69.26367</ele>
        <time>2022-06-11T13:20:25.022Z</time>
      </trkpt>
      <trkpt lat="43.03222" lon="17.73884">
        <ele>69.229955</ele>
        <time>2022-06-11T13:20:27.027Z</time>
      </trkpt>
      <trkpt lat="43.03228" lon="17.73873">
        <ele>69.1956</ele>
        <time>2022-06-11T13:20:29.015Z</time>
      </trkpt>
      <trkpt lat="43.03234" lon="17.73862">
        <ele>69.160451</ele>
        <time>2022-06-11T13:20:31.024Z</time>
      </trkpt>
      <trkpt lat="43.03241" lon="17.7385">
        <ele>69.124849</ele>
        <time>2022-06-11T13:20:33.017Z</time>
      </trkpt>
      <trkpt lat="43.03248" lon="17.73839">
        <ele>69.089108</ele>
        <time>2022-06-11T13:20:35.024Z</time>
      </trkpt>
      <trkpt lat="43.03254" lon="17.73828">
        <ele>69.055733</ele>
        <time>2022-06-11T13:20:37.014Z</time>
      </trkpt>
      <trkpt lat="43.03259" lon="17.73817">
        <ele>69.023355</ele>
        <time>2022-06-11T13:20:39.032Z</time>
      </trkpt>
      <trkpt lat="43.03265" lon="17.73807">
        <ele>68.992164</ele>
        <time>2022-06-11T13:20:41.029Z</time>
      </trkpt>
      <trkpt lat="43.0327" lon="17.73796">
        <ele>68.959333</ele>
        <time>2022-06-11T13:20:43.049Z</time>
      </trkpt>
      <trkpt lat="43.03276" lon="17.73785">
        <ele>68.925958</ele>
        <time>2022-06-11T13:20:45.012Z</time>
      </trkpt>
      <trkpt lat="43.03282" lon="17.73774">
        <ele>68.892777</ele>
        <time>2022-06-11T13:20:47.019Z</time>
      </trkpt>
      <trkpt lat="43.03287" lon="17.73762">
        <ele>68.859376</ele>
        <time>2022-06-11T13:20:49.026Z</time>
      </trkpt>
      <trkpt lat="43.03293" lon="17.73751">
        <ele>68.824619</ele>
        <time>2022-06-11T13:20:51.028Z</time>
      </trkpt>
      <trkpt lat="43.03298" lon="17.73739">
        <ele>68.791376</ele>
        <time>2022-06-11T13:20:53.008Z</time>
      </trkpt>
      <trkpt lat="43.03304" lon="17.73727">
        <ele>68.756462</ele>
        <time>2022-06-11T13:20:55.067Z</time>
      </trkpt>
      <trkpt lat="43.03309" lon="17.73714">
        <ele>68.720913</ele>
        <time>2022-06-11T13:20:57.030Z</time>
      </trkpt>
      <trkpt lat="43.03314" lon="17.73702">
        <ele>68.722579</ele>
        <time>2022-06-11T13:20:59.020Z</time>
      </trkpt>
      <trkpt lat="43.03319" lon="17.73691">
        <ele>68.725986</ele>
        <time>2022-06-11T13:21:01.027Z</time>
      </trkpt>
      <trkpt lat="43.03323" lon="17.73679">
        <ele>68.72939</ele>
        <time>2022-06-11T13:21:03.026Z</time>
      </trkpt>
      <trkpt lat="43.03329" lon="17.73668">
        <ele>68.733114</ele>
        <time>2022-06-11T13:21:05.019Z</time>
      </trkpt>
      <trkpt lat="43.03334" lon="17.73657">
        <ele>68.736537</ele>
        <time>2022-06-11T13:21:07.030Z</time>
      </trkpt>
      <trkpt lat="43.03339" lon="17.73641">
        <ele>68.741211</ele>
        <time>2022-06-11T13:21:10.027Z</time>
      </trkpt>
      <trkpt lat="43.03341" lon="17.73629">
        <ele>68.744587</ele>
        <time>2022-06-11T13:21:12.048Z</time>
      </trkpt>
      <trkpt lat="43.03344" lon="17.73615">
        <ele>68.748274</ele>
        <time>2022-06-11T13:21:14.025Z</time>
      </trkpt>
      <trkpt lat="43.03345" lon="17.73601">
        <ele>68.752044</ele>
        <time>2022-06-11T13:21:16.013Z</time>
      </trkpt>
      <trkpt lat="43.03347" lon="17.73588">
        <ele>68.755571</ele>
        <time>2022-06-11T13:21:18.069Z</time>
      </trkpt>
      <trkpt lat="43.03349" lon="17.73575">
        <ele>68.759128</ele>
        <time>2022-06-11T13:21:20.014Z</time>
      </trkpt>
      <trkpt lat="43.03354" lon="17.73563">
        <ele>68.762643</ele>
        <time>2022-06-11T13:21:22.021Z</time>
      </trkpt>
      <trkpt lat="43.03357" lon="17.73551">
        <ele>68.766237</ele>
        <time>2022-06-11T13:21:24.055Z</time>
      </trkpt>
      <trkpt lat="43.03361" lon="17.73538">
        <ele>68.76993</ele>
        <time>2022-06-11T13:21:26.030Z</time>
      </trkpt>
      <trkpt lat="43.03365" lon="17.73525">
        <ele>68.773602</ele>
        <time>2022-06-11T13:21:28.014Z</time>
      </trkpt>
      <trkpt lat="43.03369" lon="17.73513">
        <ele>68.777215</ele>
        <time>2022-06-11T13:21:30.028Z</time>
      </trkpt>
      <trkpt lat="43.03374" lon="17.73501">
        <ele>68.780817</ele>
        <time>2022-06-11T13:21:32.020Z</time>
      </trkpt>
      <trkpt lat="43.03377" lon="17.73488">
        <ele>68.784476</ele>
        <time>2022-06-11T13:21:34.034Z</time>
      </trkpt>
      <trkpt lat="43.03381" lon="17.73476">
        <ele>68.492557</ele>
        <time>2022-06-11T13:21:36.026Z</time>
      </trkpt>
      <trkpt lat="43.03386" lon="17.73464">
        <ele>68.187449</ele>
        <time>2022-06-11T13:21:38.017Z</time>
      </trkpt>
      <trkpt lat="43.0339" lon="17.73452">
        <ele>67.895768</ele>
        <time>2022-06-11T13:21:40.027Z</time>
      </trkpt>
      <trkpt lat="43.03392" lon="17.73439">
        <ele>67.592791</ele>
        <time>2022-06-11T13:21:42.030Z</time>
      </trkpt>
      <trkpt lat="43.03394" lon="17.73426">
        <ele>67.307731</ele>
        <time>2022-06-11T13:21:44.022Z</time>
      </trkpt>
      <trkpt lat="43.03394" lon="17.73412">
        <ele>66.981525</ele>
        <time>2022-06-11T13:21:46.035Z</time>
      </trkpt>
      <trkpt lat="43.03394" lon="17.73398">
        <ele>66.66893</ele>
        <time>2022-06-11T13:21:48.029Z</time>
      </trkpt>
      <trkpt lat="43.03394" lon="17.73385">
        <ele>66.385227</ele>
        <time>2022-06-11T13:21:50.020Z</time>
      </trkpt>
      <trkpt lat="43.03393" lon="17.73369">
        <ele>66.032779</ele>
        <time>2022-06-11T13:21:53.024Z</time>
      </trkpt>
      <trkpt lat="43.03394" lon="17.73352">
        <ele>65.645746</ele>
        <time>2022-06-11T13:21:56.024Z</time>
      </trkpt>
      <trkpt lat="43.03394" lon="17.73339">
        <ele>65.35326</ele>
        <time>2022-06-11T13:21:58.030Z</time>
      </trkpt>
      <trkpt lat="43.03393" lon="17.73326">
        <ele>65.058289</ele>
        <time>2022-06-11T13:22:00.030Z</time>
      </trkpt>
      <trkpt lat="43.03392" lon="17.73313">
        <ele>64.771702</ele>
        <time>2022-06-11T13:22:02.021Z</time>
      </trkpt>
      <trkpt lat="43.03392" lon="17.73296">
        <ele>64.405523</ele>
        <time>2022-06-11T13:22:05.031Z</time>
      </trkpt>
      <trkpt lat="43.03393" lon="17.73283">
        <ele>64.105343</ele>
        <time>2022-06-11T13:22:08.045Z</time>
      </trkpt>
      <trkpt lat="43.03395" lon="17.7327">
        <ele>63.817072</ele>
        <time>2022-06-11T13:22:11.025Z</time>
      </trkpt>
      <trkpt lat="43.03395" lon="17.73257">
        <ele>63.524013</ele>
        <time>2022-06-11T13:22:14.088Z</time>
      </trkpt>
      <trkpt lat="43.03396" lon="17.73243">
        <ele>63.262283</ele>
        <time>2022-06-11T13:22:17.033Z</time>
      </trkpt>
      <trkpt lat="43.03397" lon="17.73229">
        <ele>63.145821</ele>
        <time>2022-06-11T13:22:20.020Z</time>
      </trkpt>
      <trkpt lat="43.03397" lon="17.73214">
        <ele>63.019468</ele>
        <time>2022-06-11T13:22:23.026Z</time>
      </trkpt>
      <trkpt lat="43.03398" lon="17.732">
        <ele>62.897343</ele>
        <time>2022-06-11T13:22:26.017Z</time>
      </trkpt>
      <trkpt lat="43.03398" lon="17.73184">
        <ele>62.771827</ele>
        <time>2022-06-11T13:22:29.023Z</time>
      </trkpt>
      <trkpt lat="43.03397" lon="17.73169">
        <ele>62.643207</ele>
        <time>2022-06-11T13:22:32.028Z</time>
      </trkpt>
      <trkpt lat="43.03395" lon="17.73155">
        <ele>62.523599</ele>
        <time>2022-06-11T13:22:35.010Z</time>
      </trkpt>
      <trkpt lat="43.03393" lon="17.7314">
        <ele>62.398492</ele>
        <time>2022-06-11T13:22:38.016Z</time>
      </trkpt>
      <trkpt lat="43.03392" lon="17.73124">
        <ele>62.266878</ele>
        <time>2022-06-11T13:22:41.043Z</time>
      </trkpt>
      <trkpt lat="43.03392" lon="17.73108">
        <ele>62.131267</ele>
        <time>2022-06-11T13:22:44.020Z</time>
      </trkpt>
      <trkpt lat="43.03396" lon="17.73092">
        <ele>61.99422</ele>
        <time>2022-06-11T13:22:47.058Z</time>
      </trkpt>
      <trkpt lat="43.034" lon="17.73076">
        <ele>61.85042</ele>
        <time>2022-06-11T13:22:50.014Z</time>
      </trkpt>
      <trkpt lat="43.03406" lon="17.7306">
        <ele>61.705155</ele>
        <time>2022-06-11T13:22:53.012Z</time>
      </trkpt>
      <trkpt lat="43.03409" lon="17.73043">
        <ele>61.556013</ele>
        <time>2022-06-11T13:22:56.069Z</time>
      </trkpt>
      <trkpt lat="43.03413" lon="17.73026">
        <ele>61.411604</ele>
        <time>2022-06-11T13:22:59.041Z</time>
      </trkpt>
      <trkpt lat="43.03415" lon="17.73008">
        <ele>61.259905</ele>
        <time>2022-06-11T13:23:02.034Z</time>
      </trkpt>
      <trkpt lat="43.03417" lon="17.72991">
        <ele>60.917986</ele>
        <time>2022-06-11T13:23:05.033Z</time>
      </trkpt>
      <trkpt lat="43.03419" lon="17.72974">
        <ele>60.563948</ele>
        <time>2022-06-11T13:23:08.028Z</time>
      </trkpt>
      <trkpt lat="43.03421" lon="17.72957">
        <ele>60.212378</ele>
        <time>2022-06-11T13:23:11.058Z</time>
      </trkpt>
      <trkpt lat="43.03423" lon="17.7294">
        <ele>59.864873</ele>
        <time>2022-06-11T13:23:14.051Z</time>
      </trkpt>
      <trkpt lat="43.03425" lon="17.72924">
        <ele>59.518919</ele>
        <time>2022-06-11T13:23:17.073Z</time>
      </trkpt>
      <trkpt lat="43.03426" lon="17.72906">
        <ele>59.145902</ele>
        <time>2022-06-11T13:23:20.030Z</time>
      </trkpt>
      <trkpt lat="43.03426" lon="17.72893">
        <ele>58.884715</ele>
        <time>2022-06-11T13:23:22.032Z</time>
      </trkpt>
      <trkpt lat="43.03426" lon="17.7288">
        <ele>58.627701</ele>
        <time>2022-06-11T13:23:24.018Z</time>
      </trkpt>
      <trkpt lat="43.03426" lon="17.72862">
        <ele>58.249209</ele>
        <time>2022-06-11T13:23:27.099Z</time>
      </trkpt>
      <trkpt lat="43.03427" lon="17.72849">
        <ele>57.990002</ele>
        <time>2022-06-11T13:23:29.011Z</time>
      </trkpt>
      <trkpt lat="43.03428" lon="17.72832">
        <ele>57.632951</ele>
        <time>2022-06-11T13:23:32.024Z</time>
      </trkpt>
      <trkpt lat="43.03428" lon="17.72815">
        <ele>57.286963</ele>
        <time>2022-06-11T13:23:35.032Z</time>
      </trkpt>
      <trkpt lat="43.03429" lon="17.72798">
        <ele>56.930978</ele>
        <time>2022-06-11T13:23:38.064Z</time>
      </trkpt>
      <trkpt lat="43.03429" lon="17.7278">
        <ele>56.567046</ele>
        <time>2022-06-11T13:23:41.030Z</time>
      </trkpt>
      <trkpt lat="43.0343" lon="17.72763">
        <ele>56.216377</ele>
        <time>2022-06-11T13:23:44.010Z</time>
      </trkpt>
      <trkpt lat="43.03431" lon="17.72747">
        <ele>57.072702</ele>
        <time>2022-06-11T13:23:47.035Z</time>
      </trkpt>
      <trkpt lat="43.03432" lon="17.72731">
        <ele>58.049695</ele>
        <time>2022-06-11T13:23:50.039Z</time>
      </trkpt>
      <trkpt lat="43.03433" lon="17.72715">
        <ele>58.995865</ele>
        <time>2022-06-11T13:23:53.021Z</time>
      </trkpt>
      <trkpt lat="43.03433" lon="17.72702">
        <ele>59.756075</ele>
        <time>2022-06-11T13:23:56.047Z</time>
      </trkpt>
      <trkpt lat="43.03434" lon="17.72687">
        <ele>60.672859</ele>
        <time>2022-06-11T13:24:01.024Z</time>
      </trkpt>
      <trkpt lat="43.03437" lon="17.72674">
        <ele>61.508614</ele>
        <time>2022-06-11T13:24:06.016Z</time>
      </trkpt>
      <trkpt lat="43.03441" lon="17.72661">
        <ele>62.333431</ele>
        <time>2022-06-11T13:24:12.023Z</time>
      </trkpt>
      <trkpt lat="43.03446" lon="17.72649">
        <ele>63.173925</ele>
        <time>2022-06-11T13:24:18.025Z</time>
      </trkpt>
      <trkpt lat="43.03452" lon="17.72638">
        <ele>64.018906</ele>
        <time>2022-06-11T13:24:24.028Z</time>
      </trkpt>
      <trkpt lat="43.03456" lon="17.72626">
        <ele>64.760825</ele>
        <time>2022-06-11T13:24:30.026Z</time>
      </trkpt>
      <trkpt lat="43.03462" lon="17.72616">
        <ele>65.552628</ele>
        <time>2022-06-11T13:24:37.028Z</time>
      </trkpt>
      <trkpt lat="43.03469" lon="17.72607">
        <ele>66.310284</ele>
        <time>2022-06-11T13:24:43.029Z</time>
      </trkpt>
      <trkpt lat="43.03475" lon="17.72598">
        <ele>67.079794</ele>
        <time>2022-06-11T13:24:49.019Z</time>
      </trkpt>
      <trkpt lat="43.03481" lon="17.72587">
        <ele>67.852288</ele>
        <time>2022-06-11T13:24:55.038Z</time>
      </trkpt>
      <trkpt lat="43.03487" lon="17.72578">
        <ele>68.646073</ele>
        <time>2022-06-11T13:25:00.022Z</time>
      </trkpt>
      <trkpt lat="43.03493" lon="17.72564">
        <ele>69.598057</ele>
        <time>2022-06-11T13:25:05.024Z</time>
      </trkpt>
      <trkpt lat="43.03499" lon="17.72554">
        <ele>70.386201</ele>
        <time>2022-06-11T13:25:08.072Z</time>
      </trkpt>
      <trkpt lat="43.03506" lon="17.72544">
        <ele>70.927055</ele>
        <time>2022-06-11T13:25:11.051Z</time>
      </trkpt>
      <trkpt lat="43.03515" lon="17.72535">
        <ele>71.003859</ele>
        <time>2022-06-11T13:25:14.024Z</time>
      </trkpt>
      <trkpt lat="43.03522" lon="17.72525">
        <ele>71.077812</ele>
        <time>2022-06-11T13:25:17.028Z</time>
      </trkpt>
      <trkpt lat="43.03529" lon="17.72513">
        <ele>71.154286</ele>
        <time>2022-06-11T13:25:19.996Z</time>
      </trkpt>
      <trkpt lat="43.03538" lon="17.72503">
        <ele>71.234271</ele>
        <time>2022-06-11T13:25:23.022Z</time>
      </trkpt>
      <trkpt lat="43.03545" lon="17.72491">
        <ele>71.314285</ele>
        <time>2022-06-11T13:25:26.028Z</time>
      </trkpt>
      <trkpt lat="43.03553" lon="17.72479">
        <ele>71.395453</ele>
        <time>2022-06-11T13:25:29.017Z</time>
      </trkpt>
      <trkpt lat="43.0356" lon="17.72468">
        <ele>71.471766</ele>
        <time>2022-06-11T13:25:32.023Z</time>
      </trkpt>
      <trkpt lat="43.03566" lon="17.72455">
        <ele>71.550209</ele>
        <time>2022-06-11T13:25:35.033Z</time>
      </trkpt>
      <trkpt lat="43.03573" lon="17.72441">
        <ele>71.636643</ele>
        <time>2022-06-11T13:25:38.018Z</time>
      </trkpt>
      <trkpt lat="43.03578" lon="17.72425">
        <ele>71.724736</ele>
        <time>2022-06-11T13:25:41.065Z</time>
      </trkpt>
      <trkpt lat="43.03582" lon="17.72409">
        <ele>71.812779</ele>
        <time>2022-06-11T13:25:44.027Z</time>
      </trkpt>
      <trkpt lat="43.03586" lon="17.72392">
        <ele>71.904444</ele>
        <time>2022-06-11T13:25:47.047Z</time>
      </trkpt>
      <trkpt lat="43.03589" lon="17.7238">
        <ele>71.971648</ele>
        <time>2022-06-11T13:25:49.015Z</time>
      </trkpt>
      <trkpt lat="43.03591" lon="17.72367">
        <ele>72.040196</ele>
        <time>2022-06-11T13:25:51.015Z</time>
      </trkpt>
      <trkpt lat="43.03594" lon="17.72355">
        <ele>72.103397</ele>
        <time>2022-06-11T13:25:53.031Z</time>
      </trkpt>
      <trkpt lat="43.036" lon="17.72339">
        <ele>72.159089</ele>
        <time>2022-06-11T13:25:56.036Z</time>
      </trkpt>
      <trkpt lat="43.03605" lon="17.72324">
        <ele>72.138979</ele>
        <time>2022-06-11T13:25:59.019Z</time>
      </trkpt>
      <trkpt lat="43.03611" lon="17.72309">
        <ele>72.119092</ele>
        <time>2022-06-11T13:26:02.006Z</time>
      </trkpt>
      <trkpt lat="43.03617" lon="17.72294">
        <ele>72.099661</ele>
        <time>2022-06-11T13:26:05.012Z</time>
      </trkpt>
      <trkpt lat="43.03623" lon="17.7228">
        <ele>72.081622</ele>
        <time>2022-06-11T13:26:08.042Z</time>
      </trkpt>
      <trkpt lat="43.03627" lon="17.72267">
        <ele>72.065005</ele>
        <time>2022-06-11T13:26:11.026Z</time>
      </trkpt>
      <trkpt lat="43.03632" lon="17.72254">
        <ele>72.047669</ele>
        <time>2022-06-11T13:26:14.028Z</time>
      </trkpt>
      <trkpt lat="43.03639" lon="17.72241">
        <ele>72.029453</ele>
        <time>2022-06-11T13:26:17.029Z</time>
      </trkpt>
      <trkpt lat="43.03644" lon="17.72228">
        <ele>72.012074</ele>
        <time>2022-06-11T13:26:20.052Z</time>
      </trkpt>
      <trkpt lat="43.03649" lon="17.72215">
        <ele>71.994874</ele>
        <time>2022-06-11T13:26:23.021Z</time>
      </trkpt>
      <trkpt lat="43.03655" lon="17.72203">
        <ele>71.978533</ele>
        <time>2022-06-11T13:26:26.064Z</time>
      </trkpt>
      <trkpt lat="43.0366" lon="17.72191">
        <ele>71.962263</ele>
        <time>2022-06-11T13:26:29.023Z</time>
      </trkpt>
      <trkpt lat="43.03666" lon="17.7218">
        <ele>71.946562</ele>
        <time>2022-06-11T13:26:32.056Z</time>
      </trkpt>
      <trkpt lat="43.03672" lon="17.72169">
        <ele>71.930489</ele>
        <time>2022-06-11T13:26:35.043Z</time>
      </trkpt>
      <trkpt lat="43.03678" lon="17.72158">
        <ele>71.914417</ele>
        <time>2022-06-11T13:26:38.019Z</time>
      </trkpt>
      <trkpt lat="43.03684" lon="17.72146">
        <ele>71.898699</ele>
        <time>2022-06-11T13:26:41.033Z</time>
      </trkpt>
      <trkpt lat="43.03689" lon="17.72135">
        <ele>71.882429</ele>
        <time>2022-06-11T13:26:44.024Z</time>
      </trkpt>
      <trkpt lat="43.03695" lon="17.72123">
        <ele>71.56072</ele>
        <time>2022-06-11T13:26:47.024Z</time>
      </trkpt>
      <trkpt lat="43.03702" lon="17.7211">
        <ele>71.192862</ele>
        <time>2022-06-11T13:26:50.020Z</time>
      </trkpt>
      <trkpt lat="43.03707" lon="17.72097">
        <ele>70.813654</ele>
        <time>2022-06-11T13:26:53.024Z</time>
      </trkpt>
      <trkpt lat="43.03713" lon="17.72083">
        <ele>70.426061</ele>
        <time>2022-06-11T13:26:56.029Z</time>
      </trkpt>
      <trkpt lat="43.03718" lon="17.72068">
        <ele>70.011468</ele>
        <time>2022-06-11T13:26:59.024Z</time>
      </trkpt>
      <trkpt lat="43.03724" lon="17.72052">
        <ele>69.585107</ele>
        <time>2022-06-11T13:27:02.055Z</time>
      </trkpt>
      <trkpt lat="43.03728" lon="17.72041">
        <ele>69.277687</ele>
        <time>2022-06-11T13:27:04.030Z</time>
      </trkpt>
      <trkpt lat="43.03732" lon="17.72029">
        <ele>68.954504</ele>
        <time>2022-06-11T13:27:06.026Z</time>
      </trkpt>
      <trkpt lat="43.03735" lon="17.72016">
        <ele>68.632523</ele>
        <time>2022-06-11T13:27:08.022Z</time>
      </trkpt>
      <trkpt lat="43.03739" lon="17.72004">
        <ele>68.295497</ele>
        <time>2022-06-11T13:27:10.018Z</time>
      </trkpt>
      <trkpt lat="43.03743" lon="17.71991">
        <ele>67.961388</ele>
        <time>2022-06-11T13:27:12.023Z</time>
      </trkpt>
      <trkpt lat="43.03746" lon="17.7198">
        <ele>67.654115</ele>
        <time>2022-06-11T13:27:14.038Z</time>
      </trkpt>
      <trkpt lat="43.0375" lon="17.71968">
        <ele>67.341978</ele>
        <time>2022-06-11T13:27:16.058Z</time>
      </trkpt>
      <trkpt lat="43.03755" lon="17.71952">
        <ele>66.91932</ele>
        <time>2022-06-11T13:27:19.030Z</time>
      </trkpt>
      <trkpt lat="43.03761" lon="17.71938">
        <ele>66.517985</ele>
        <time>2022-06-11T13:27:22.019Z</time>
      </trkpt>
      <trkpt lat="43.03766" lon="17.71923">
        <ele>66.126914</ele>
        <time>2022-06-11T13:27:25.024Z</time>
      </trkpt>
      <trkpt lat="43.03771" lon="17.71912">
        <ele>65.920726</ele>
        <time>2022-06-11T13:27:28.023Z</time>
      </trkpt>
      <trkpt lat="43.03775" lon="17.71898">
        <ele>66.339704</ele>
        <time>2022-06-11T13:27:32.039Z</time>
      </trkpt>
      <trkpt lat="43.03779" lon="17.71886">
        <ele>66.731382</ele>
        <time>2022-06-11T13:27:36.022Z</time>
      </trkpt>
      <trkpt lat="43.03783" lon="17.71874">
        <ele>67.111028</ele>
        <time>2022-06-11T13:27:40.034Z</time>
      </trkpt>
      <trkpt lat="43.03787" lon="17.71862">
        <ele>67.490524</ele>
        <time>2022-06-11T13:27:44.031Z</time>
      </trkpt>
      <trkpt lat="43.03791" lon="17.7185">
        <ele>67.848987</ele>
        <time>2022-06-11T13:27:48.025Z</time>
      </trkpt>
      <trkpt lat="43.03792" lon="17.71837">
        <ele>68.214586</ele>
        <time>2022-06-11T13:27:52.027Z</time>
      </trkpt>
      <trkpt lat="43.03792" lon="17.71822">
        <ele>68.660706</ele>
        <time>2022-06-11T13:27:57.034Z</time>
      </trkpt>
      <trkpt lat="43.03792" lon="17.71808">
        <ele>69.061238</ele>
        <time>2022-06-11T13:28:01.010Z</time>
      </trkpt>
      <trkpt lat="43.03791" lon="17.71795">
        <ele>69.445953</ele>
        <time>2022-06-11T13:28:05.021Z</time>
      </trkpt>
      <trkpt lat="43.03789" lon="17.71782">
        <ele>69.81176</ele>
        <time>2022-06-11T13:28:09.056Z</time>
      </trkpt>
      <trkpt lat="43.03786" lon="17.7177">
        <ele>70.186675</ele>
        <time>2022-06-11T13:28:13.024Z</time>
      </trkpt>
      <trkpt lat="43.03783" lon="17.71757">
        <ele>70.545901</ele>
        <time>2022-06-11T13:28:17.052Z</time>
      </trkpt>
      <trkpt lat="43.03781" lon="17.71744">
        <ele>70.947072</ele>
        <time>2022-06-11T13:28:22.049Z</time>
      </trkpt>
      <trkpt lat="43.0378" lon="17.71729">
        <ele>71.370332</ele>
        <time>2022-06-11T13:28:27.024Z</time>
      </trkpt>
      <trkpt lat="43.03782" lon="17.71715">
        <ele>71.785122</ele>
        <time>2022-06-11T13:28:32.034Z</time>
      </trkpt>
      <trkpt lat="43.03784" lon="17.71701">
        <ele>72.19621</ele>
        <time>2022-06-11T13:28:37.060Z</time>
      </trkpt>
      <trkpt lat="43.03788" lon="17.71688">
        <ele>72.593743</ele>
        <time>2022-06-11T13:28:43.016Z</time>
      </trkpt>
      <trkpt lat="43.03793" lon="17.71676">
        <ele>73.092271</ele>
        <time>2022-06-11T13:28:50.051Z</time>
      </trkpt>
      <trkpt lat="43.03799" lon="17.71664">
        <ele>73.88196</ele>
        <time>2022-06-11T13:28:56.070Z</time>
      </trkpt>
      <trkpt lat="43.03805" lon="17.71653">
        <ele>74.658392</ele>
        <time>2022-06-11T13:29:02.027Z</time>
      </trkpt>
      <trkpt lat="43.03811" lon="17.71643">
        <ele>75.413379</ele>
        <time>2022-06-11T13:29:09.054Z</time>
      </trkpt>
      <trkpt lat="43.03819" lon="17.71635">
        <ele>76.169224</ele>
        <time>2022-06-11T13:29:15.030Z</time>
      </trkpt>
      <trkpt lat="43.03827" lon="17.71629">
        <ele>76.871634</ele>
        <time>2022-06-11T13:29:21.016Z</time>
      </trkpt>
      <trkpt lat="43.03835" lon="17.71621">
        <ele>77.646592</ele>
        <time>2022-06-11T13:29:29.055Z</time>
      </trkpt>
      <trkpt lat="43.03842" lon="17.71612">
        <ele>78.355331</ele>
        <time>2022-06-11T13:29:36.024Z</time>
      </trkpt>
      <trkpt lat="43.03849" lon="17.71602">
        <ele>79.112728</ele>
        <time>2022-06-11T13:29:44.020Z</time>
      </trkpt>
      <trkpt lat="43.03854" lon="17.71591">
        <ele>79.891275</ele>
        <time>2022-06-11T13:29:52.033Z</time>
      </trkpt>
      <trkpt lat="43.03859" lon="17.7158">
        <ele>80.599956</ele>
        <time>2022-06-11T13:29:59.033Z</time>
      </trkpt>
      <trkpt lat="43.03864" lon="17.71569">
        <ele>81.294998</ele>
        <time>2022-06-11T13:30:06.020Z</time>
      </trkpt>
      <trkpt lat="43.03868" lon="17.71558">
        <ele>82.029686</ele>
        <time>2022-06-11T13:30:13.023Z</time>
      </trkpt>
      <trkpt lat="43.03872" lon="17.71546">
        <ele>82.774478</ele>
        <time>2022-06-11T13:30:20.033Z</time>
      </trkpt>
      <trkpt lat="43.03877" lon="17.71534">
        <ele>83.534828</ele>
        <time>2022-06-11T13:30:28.033Z</time>
      </trkpt>
      <trkpt lat="43.03882" lon="17.71523">
        <ele>84.239855</ele>
        <time>2022-06-11T13:30:36.014Z</time>
      </trkpt>
      <trkpt lat="43.03885" lon="17.71512">
        <ele>84.939423</ele>
        <time>2022-06-11T13:30:43.027Z</time>
      </trkpt>
      <trkpt lat="43.0389" lon="17.71501">
        <ele>85.663552</ele>
        <time>2022-06-11T13:30:51.056Z</time>
      </trkpt>
      <trkpt lat="43.03893" lon="17.71489">
        <ele>86.395668</ele>
        <time>2022-06-11T13:31:00.015Z</time>
      </trkpt>
      <trkpt lat="43.03898" lon="17.71478">
        <ele>86.637231</ele>
        <time>2022-06-11T13:31:07.040Z</time>
      </trkpt>
      <trkpt lat="43.03902" lon="17.71466">
        <ele>86.470285</ele>
        <time>2022-06-11T13:31:14.016Z</time>
      </trkpt>
      <trkpt lat="43.03905" lon="17.71455">
        <ele>86.303144</ele>
        <time>2022-06-11T13:31:21.033Z</time>
      </trkpt>
      <trkpt lat="43.03908" lon="17.71441">
        <ele>86.117891</ele>
        <time>2022-06-11T13:31:28.062Z</time>
      </trkpt>
      <trkpt lat="43.03909" lon="17.71427">
        <ele>85.931349</ele>
        <time>2022-06-11T13:31:35.029Z</time>
      </trkpt>
      <trkpt lat="43.03909" lon="17.71415">
        <ele>85.766076</ele>
        <time>2022-06-11T13:31:41.030Z</time>
      </trkpt>
      <trkpt lat="43.0391" lon="17.71402">
        <ele>85.597348</ele>
        <time>2022-06-11T13:31:47.017Z</time>
      </trkpt>
      <trkpt lat="43.03909" lon="17.71389">
        <ele>85.414614</ele>
        <time>2022-06-11T13:31:52.032Z</time>
      </trkpt>
      <trkpt lat="43.0391" lon="17.71375">
        <ele>85.233276</ele>
        <time>2022-06-11T13:31:57.032Z</time>
      </trkpt>
      <trkpt lat="43.03909" lon="17.71361">
        <ele>85.047797</ele>
        <time>2022-06-11T13:32:02.079Z</time>
      </trkpt>
      <trkpt lat="43.03909" lon="17.71348">
        <ele>84.873053</ele>
        <time>2022-06-11T13:32:07.027Z</time>
      </trkpt>
      <trkpt lat="43.0391" lon="17.71335">
        <ele>84.692798</ele>
        <time>2022-06-11T13:32:12.051Z</time>
      </trkpt>
      <trkpt lat="43.03912" lon="17.71321">
        <ele>84.505295</ele>
        <time>2022-06-11T13:32:17.024Z</time>
      </trkpt>
      <trkpt lat="43.03913" lon="17.71307">
        <ele>84.322261</ele>
        <time>2022-06-11T13:32:22.025Z</time>
      </trkpt>
      <trkpt lat="43.03916" lon="17.71294">
        <ele>84.14438</ele>
        <time>2022-06-11T13:32:27.044Z</time>
      </trkpt>
      <trkpt lat="43.03919" lon="17.7128">
        <ele>83.944498</ele>
        <time>2022-06-11T13:32:31.056Z</time>
      </trkpt>
      <trkpt lat="43.03923" lon="17.71267">
        <ele>83.749195</ele>
        <time>2022-06-11T13:32:34.024Z</time>
      </trkpt>
      <trkpt lat="43.03933" lon="17.71255">
        <ele>83.513426</ele>
        <time>2022-06-11T13:32:37.026Z</time>
      </trkpt>
      <trkpt lat="43.03942" lon="17.71249">
        <ele>83.206426</ele>
        <time>2022-06-11T13:32:39.013Z</time>
      </trkpt>
      <trkpt lat="43.03952" lon="17.71245">
        <ele>82.805088</ele>
        <time>2022-06-11T13:32:41.035Z</time>
      </trkpt>
      <trkpt lat="43.03962" lon="17.71241">
        <ele>82.382055</ele>
        <time>2022-06-11T13:32:43.016Z</time>
      </trkpt>
      <trkpt lat="43.03973" lon="17.71238">
        <ele>81.947754</ele>
        <time>2022-06-11T13:32:45.047Z</time>
      </trkpt>
      <trkpt lat="43.03985" lon="17.71235">
        <ele>81.496562</ele>
        <time>2022-06-11T13:32:47.095Z</time>
      </trkpt>
      <trkpt lat="43.03996" lon="17.71231">
        <ele>81.037811</ele>
        <time>2022-06-11T13:32:49.017Z</time>
      </trkpt>
      <trkpt lat="43.04008" lon="17.71228">
        <ele>80.577209</ele>
        <time>2022-06-11T13:32:51.029Z</time>
      </trkpt>
      <trkpt lat="43.0402" lon="17.71224">
        <ele>80.095837</ele>
        <time>2022-06-11T13:32:53.018Z</time>
      </trkpt>
      <trkpt lat="43.04033" lon="17.7122">
        <ele>79.584342</ele>
        <time>2022-06-11T13:32:55.040Z</time>
      </trkpt>
      <trkpt lat="43.04047" lon="17.71215">
        <ele>79.041425</ele>
        <time>2022-06-11T13:32:57.020Z</time>
      </trkpt>
      <trkpt lat="43.0406" lon="17.7121">
        <ele>78.501237</ele>
        <time>2022-06-11T13:32:59.013Z</time>
      </trkpt>
      <trkpt lat="43.04073" lon="17.71203">
        <ele>77.954255</ele>
        <time>2022-06-11T13:33:01.043Z</time>
      </trkpt>
      <trkpt lat="43.04085" lon="17.71194">
        <ele>77.417511</ele>
        <time>2022-06-11T13:33:03.027Z</time>
      </trkpt>
      <trkpt lat="43.04097" lon="17.71184">
        <ele>76.889073</ele>
        <time>2022-06-11T13:33:05.023Z</time>
      </trkpt>
      <trkpt lat="43.04107" lon="17.71171">
        <ele>76.370043</ele>
        <time>2022-06-11T13:33:07.028Z</time>
      </trkpt>
      <trkpt lat="43.04115" lon="17.71155">
        <ele>75.863293</ele>
        <time>2022-06-11T13:33:09.035Z</time>
      </trkpt>
      <trkpt lat="43.04121" lon="17.71138">
        <ele>75.348375</ele>
        <time>2022-06-11T13:33:11.024Z</time>
      </trkpt>
      <trkpt lat="43.04126" lon="17.71119">
        <ele>74.831097</ele>
        <time>2022-06-11T13:33:13.024Z</time>
      </trkpt>
      <trkpt lat="43.04129" lon="17.71099">
        <ele>74.282862</ele>
        <time>2022-06-11T13:33:15.021Z</time>
      </trkpt>
      <trkpt lat="43.04132" lon="17.71078">
        <ele>73.717136</ele>
        <time>2022-06-11T13:33:17.014Z</time>
      </trkpt>
      <trkpt lat="43.04135" lon="17.71057">
        <ele>73.144109</ele>
        <time>2022-06-11T13:33:19.038Z</time>
      </trkpt>
      <trkpt lat="43.04138" lon="17.71037">
        <ele>72.600558</ele>
        <time>2022-06-11T13:33:21.025Z</time>
      </trkpt>
      <trkpt lat="43.04141" lon="17.71016">
        <ele>72.054918</ele>
        <time>2022-06-11T13:33:23.028Z</time>
      </trkpt>
      <trkpt lat="43.04146" lon="17.70998">
        <ele>71.541499</ele>
        <time>2022-06-11T13:33:25.027Z</time>
      </trkpt>
      <trkpt lat="43.04154" lon="17.70984">
        <ele>71.058394</ele>
        <time>2022-06-11T13:33:27.064Z</time>
      </trkpt>
      <trkpt lat="43.04167" lon="17.70975">
        <ele>70.545564</ele>
        <time>2022-06-11T13:33:29.059Z</time>
      </trkpt>
      <trkpt lat="43.0418" lon="17.70971">
        <ele>70.063596</ele>
        <time>2022-06-11T13:33:31.028Z</time>
      </trkpt>
      <trkpt lat="43.04192" lon="17.70976">
        <ele>69.721615</ele>
        <time>2022-06-11T13:33:33.025Z</time>
      </trkpt>
      <trkpt lat="43.04204" lon="17.70981">
        <ele>69.436965</ele>
        <time>2022-06-11T13:33:35.068Z</time>
      </trkpt>
      <trkpt lat="43.04214" lon="17.70984">
        <ele>69.174808</ele>
        <time>2022-06-11T13:33:37.035Z</time>
      </trkpt>
      <trkpt lat="43.04225" lon="17.70986">
        <ele>68.925423</ele>
        <time>2022-06-11T13:33:39.022Z</time>
      </trkpt>
      <trkpt lat="43.04236" lon="17.70985">
        <ele>68.66217</ele>
        <time>2022-06-11T13:33:41.023Z</time>
      </trkpt>
      <trkpt lat="43.04246" lon="17.70978">
        <ele>68.387548</ele>
        <time>2022-06-11T13:33:43.020Z</time>
      </trkpt>
      <trkpt lat="43.04255" lon="17.70966">
        <ele>68.088571</ele>
        <time>2022-06-11T13:33:45.028Z</time>
      </trkpt>
      <trkpt lat="43.04261" lon="17.70951">
        <ele>67.789354</ele>
        <time>2022-06-11T13:33:47.029Z</time>
      </trkpt>
      <trkpt lat="43.04267" lon="17.70934">
        <ele>67.475752</ele>
        <time>2022-06-11T13:33:49.049Z</time>
      </trkpt>
      <trkpt lat="43.04273" lon="17.70918">
        <ele>67.149054</ele>
        <time>2022-06-11T13:33:51.016Z</time>
      </trkpt>
      <trkpt lat="43.04282" lon="17.70901">
        <ele>66.791761</ele>
        <time>2022-06-11T13:33:53.027Z</time>
      </trkpt>
      <trkpt lat="43.04293" lon="17.7089">
        <ele>66.454087</ele>
        <time>2022-06-11T13:33:55.052Z</time>
      </trkpt>
      <trkpt lat="43.04305" lon="17.70882">
        <ele>66.134611</ele>
        <time>2022-06-11T13:33:57.024Z</time>
      </trkpt>
      <trkpt lat="43.04318" lon="17.70876">
        <ele>65.817705</ele>
        <time>2022-06-11T13:33:59.030Z</time>
      </trkpt>
      <trkpt lat="43.0433" lon="17.70872">
        <ele>65.253377</ele>
        <time>2022-06-11T13:34:01.033Z</time>
      </trkpt>
      <trkpt lat="43.04341" lon="17.70867">
        <ele>64.543994</ele>
        <time>2022-06-11T13:34:03.039Z</time>
      </trkpt>
      <trkpt lat="43.04351" lon="17.7086">
        <ele>63.824614</ele>
        <time>2022-06-11T13:34:05.033Z</time>
      </trkpt>
      <trkpt lat="43.04363" lon="17.70852">
        <ele>63.02271</ele>
        <time>2022-06-11T13:34:07.028Z</time>
      </trkpt>
      <trkpt lat="43.04372" lon="17.70839">
        <ele>62.216457</ele>
        <time>2022-06-11T13:34:09.023Z</time>
      </trkpt>
      <trkpt lat="43.04379" lon="17.70824">
        <ele>61.391469</ele>
        <time>2022-06-11T13:34:11.030Z</time>
      </trkpt>
      <trkpt lat="43.04387" lon="17.70808">
        <ele>60.532741</ele>
        <time>2022-06-11T13:34:13.029Z</time>
      </trkpt>
      <trkpt lat="43.04395" lon="17.70792">
        <ele>59.609414</ele>
        <time>2022-06-11T13:34:15.030Z</time>
      </trkpt>
      <trkpt lat="43.04405" lon="17.70775">
        <ele>58.670443</ele>
        <time>2022-06-11T13:34:17.010Z</time>
      </trkpt>
      <trkpt lat="43.04414" lon="17.70763">
        <ele>57.847034</ele>
        <time>2022-06-11T13:34:19.022Z</time>
      </trkpt>
      <trkpt lat="43.04423" lon="17.70751">
        <ele>57.079351</ele>
        <time>2022-06-11T13:34:21.024Z</time>
      </trkpt>
      <trkpt lat="43.04433" lon="17.7074">
        <ele>56.29422</ele>
        <time>2022-06-11T13:34:23.055Z</time>
      </trkpt>
      <trkpt lat="43.04444" lon="17.70729">
        <ele>55.442889</ele>
        <time>2022-06-11T13:34:25.013Z</time>
      </trkpt>
      <trkpt lat="43.04455" lon="17.70718">
        <ele>54.599615</ele>
        <time>2022-06-11T13:34:27.040Z</time>
      </trkpt>
      <trkpt lat="43.04466" lon="17.70707">
        <ele>54.180432</ele>
        <time>2022-06-11T13:34:29.050Z</time>
      </trkpt>
      <trkpt lat="43.04477" lon="17.70696">
        <ele>53.792497</ele>
        <time>2022-06-11T13:34:31.021Z</time>
      </trkpt>
      <trkpt lat="43.04489" lon="17.70684">
        <ele>53.385966</ele>
        <time>2022-06-11T13:34:33.035Z</time>
      </trkpt>
      <trkpt lat="43.045" lon="17.70672">
        <ele>52.981393</ele>
        <time>2022-06-11T13:34:35.018Z</time>
      </trkpt>
      <trkpt lat="43.04512" lon="17.7066">
        <ele>52.582117</ele>
        <time>2022-06-11T13:34:37.019Z</time>
      </trkpt>
      <trkpt lat="43.04524" lon="17.70648">
        <ele>52.167681</ele>
        <time>2022-06-11T13:34:39.033Z</time>
      </trkpt>
      <trkpt lat="43.04536" lon="17.70637">
        <ele>51.763801</ele>
        <time>2022-06-11T13:34:41.036Z</time>
      </trkpt>
      <trkpt lat="43.04548" lon="17.70626">
        <ele>51.375983</ele>
        <time>2022-06-11T13:34:43.031Z</time>
      </trkpt>
      <trkpt lat="43.04558" lon="17.70616">
        <ele>51.008809</ele>
        <time>2022-06-11T13:34:45.061Z</time>
      </trkpt>
      <trkpt lat="43.04568" lon="17.70605">
        <ele>50.670987</ele>
        <time>2022-06-11T13:34:47.064Z</time>
      </trkpt>
      <trkpt lat="43.04576" lon="17.70595">
        <ele>50.349799</ele>
        <time>2022-06-11T13:34:49.023Z</time>
      </trkpt>
      <trkpt lat="43.04584" lon="17.70584">
        <ele>50.048545</ele>
        <time>2022-06-11T13:34:51.017Z</time>
      </trkpt>
      <trkpt lat="43.04591" lon="17.70572">
        <ele>49.74729</ele>
        <time>2022-06-11T13:34:53.023Z</time>
      </trkpt>
      <trkpt lat="43.04598" lon="17.70563">
        <ele>49.550369</ele>
        <time>2022-06-11T13:34:55.008Z</time>
      </trkpt>
      <trkpt lat="43.04604" lon="17.70554">
        <ele>49.708259</ele>
        <time>2022-06-11T13:34:57.028Z</time>
      </trkpt>
      <trkpt lat="43.04613" lon="17.70541">
        <ele>49.922434</ele>
        <time>2022-06-11T13:35:00.014Z</time>
      </trkpt>
      <trkpt lat="43.0462" lon="17.70528">
        <ele>50.119421</ele>
        <time>2022-06-11T13:35:03.017Z</time>
      </trkpt>
      <trkpt lat="43.04626" lon="17.70516">
        <ele>50.308395</ele>
        <time>2022-06-11T13:35:06.017Z</time>
      </trkpt>
      <trkpt lat="43.04632" lon="17.70503">
        <ele>50.492668</ele>
        <time>2022-06-11T13:35:09.023Z</time>
      </trkpt>
      <trkpt lat="43.04637" lon="17.70491">
        <ele>50.669132</ele>
        <time>2022-06-11T13:35:12.018Z</time>
      </trkpt>
      <trkpt lat="43.04641" lon="17.70479">
        <ele>50.833525</ele>
        <time>2022-06-11T13:35:15.036Z</time>
      </trkpt>
      <trkpt lat="43.04648" lon="17.70466">
        <ele>51.019581</ele>
        <time>2022-06-11T13:35:18.032Z</time>
      </trkpt>
      <trkpt lat="43.04654" lon="17.70454">
        <ele>51.204571</ele>
        <time>2022-06-11T13:35:21.025Z</time>
      </trkpt>
      <trkpt lat="43.0466" lon="17.70442">
        <ele>51.383604</ele>
        <time>2022-06-11T13:35:24.066Z</time>
      </trkpt>
      <trkpt lat="43.04667" lon="17.70431">
        <ele>51.565346</ele>
        <time>2022-06-11T13:35:27.015Z</time>
      </trkpt>
      <trkpt lat="43.04674" lon="17.7042">
        <ele>51.743924</ele>
        <time>2022-06-11T13:35:30.018Z</time>
      </trkpt>
      <trkpt lat="43.04682" lon="17.70409">
        <ele>51.937311</ele>
        <time>2022-06-11T13:35:33.015Z</time>
      </trkpt>
      <trkpt lat="43.04689" lon="17.70398">
        <ele>52.119537</ele>
        <time>2022-06-11T13:35:36.025Z</time>
      </trkpt>
      <trkpt lat="43.04696" lon="17.70388">
        <ele>52.290123</ele>
        <time>2022-06-11T13:35:39.029Z</time>
      </trkpt>
      <trkpt lat="43.04703" lon="17.70379">
        <ele>52.462527</ele>
        <time>2022-06-11T13:35:42.023Z</time>
      </trkpt>
      <trkpt lat="43.04711" lon="17.70369">
        <ele>52.781538</ele>
        <time>2022-06-11T13:35:45.027Z</time>
      </trkpt>
      <trkpt lat="43.04718" lon="17.7036">
        <ele>53.337897</ele>
        <time>2022-06-11T13:35:48.035Z</time>
      </trkpt>
      <trkpt lat="43.04725" lon="17.70351">
        <ele>53.862505</ele>
        <time>2022-06-11T13:35:51.043Z</time>
      </trkpt>
      <trkpt lat="43.04732" lon="17.70342">
        <ele>54.40858</ele>
        <time>2022-06-11T13:35:54.026Z</time>
      </trkpt>
      <trkpt lat="43.0474" lon="17.70334">
        <ele>54.924099</ele>
        <time>2022-06-11T13:35:57.024Z</time>
      </trkpt>
      <trkpt lat="43.04747" lon="17.70326">
        <ele>55.452129</ele>
        <time>2022-06-11T13:36:00.027Z</time>
      </trkpt>
      <trkpt lat="43.04756" lon="17.70317">
        <ele>56.100146</ele>
        <time>2022-06-11T13:36:04.085Z</time>
      </trkpt>
      <trkpt lat="43.04766" lon="17.70307">
        <ele>56.74667</ele>
        <time>2022-06-11T13:36:08.018Z</time>
      </trkpt>
      <trkpt lat="43.04774" lon="17.703">
        <ele>57.259945</ele>
        <time>2022-06-11T13:36:12.016Z</time>
      </trkpt>
      <trkpt lat="43.0478" lon="17.70292">
        <ele>57.773414</ele>
        <time>2022-06-11T13:36:16.020Z</time>
      </trkpt>
      <trkpt lat="43.04787" lon="17.70281">
        <ele>58.334165</ele>
        <time>2022-06-11T13:36:21.150Z</time>
      </trkpt>
      <trkpt lat="43.04794" lon="17.70271">
        <ele>58.88995</ele>
        <time>2022-06-11T13:36:27.019Z</time>
      </trkpt>
      <trkpt lat="43.048" lon="17.70261">
        <ele>59.456189</ele>
        <time>2022-06-11T13:36:33.038Z</time>
      </trkpt>
      <trkpt lat="43.04805" lon="17.70248">
        <ele>60.03309</ele>
        <time>2022-06-11T13:36:39.020Z</time>
      </trkpt>
      <trkpt lat="43.04807" lon="17.70234">
        <ele>60.58825</ele>
        <time>2022-06-11T13:36:46.027Z</time>
      </trkpt>
      <trkpt lat="43.04808" lon="17.70222">
        <ele>61.093801</ele>
        <time>2022-06-11T13:36:52.024Z</time>
      </trkpt>
      <trkpt lat="43.04809" lon="17.70209">
        <ele>61.608037</ele>
        <time>2022-06-11T13:36:58.019Z</time>
      </trkpt>
      <trkpt lat="43.04812" lon="17.70196">
        <ele>62.179142</ele>
        <time>2022-06-11T13:37:05.051Z</time>
      </trkpt>
      <trkpt lat="43.04814" lon="17.70183">
        <ele>62.571688</ele>
        <time>2022-06-11T13:37:11.036Z</time>
      </trkpt>
      <trkpt lat="43.04819" lon="17.70172">
        <ele>62.669079</ele>
        <time>2022-06-11T13:37:16.025Z</time>
      </trkpt>
      <trkpt lat="43.04826" lon="17.70164">
        <ele>62.766644</ele>
        <time>2022-06-11T13:37:21.058Z</time>
      </trkpt>
      <trkpt lat="43.04834" lon="17.70158">
        <ele>62.867293</ele>
        <time>2022-06-11T13:37:26.016Z</time>
      </trkpt>
      <trkpt lat="43.04843" lon="17.70154">
        <ele>62.965916</ele>
        <time>2022-06-11T13:37:31.034Z</time>
      </trkpt>
      <trkpt lat="43.04853" lon="17.70149">
        <ele>63.078648</ele>
        <time>2022-06-11T13:37:37.023Z</time>
      </trkpt>
      <trkpt lat="43.04862" lon="17.70143">
        <ele>63.184058</ele>
        <time>2022-06-11T13:37:44.029Z</time>
      </trkpt>
      <trkpt lat="43.04871" lon="17.7014">
        <ele>63.2834</ele>
        <time>2022-06-11T13:37:50.024Z</time>
      </trkpt>
      <trkpt lat="43.0488" lon="17.70139">
        <ele>63.387007</ele>
        <time>2022-06-11T13:37:56.029Z</time>
      </trkpt>
      <trkpt lat="43.04891" lon="17.70139">
        <ele>63.496849</ele>
        <time>2022-06-11T13:38:02.024Z</time>
      </trkpt>
      <trkpt lat="43.04901" lon="17.70139">
        <ele>63.602447</ele>
        <time>2022-06-11T13:38:08.012Z</time>
      </trkpt>
      <trkpt lat="43.04911" lon="17.70141">
        <ele>63.712805</ele>
        <time>2022-06-11T13:38:14.066Z</time>
      </trkpt>
      <trkpt lat="43.04921" lon="17.70141">
        <ele>63.818403</ele>
        <time>2022-06-11T13:38:20.024Z</time>
      </trkpt>
      <trkpt lat="43.04931" lon="17.70142">
        <ele>63.926369</ele>
        <time>2022-06-11T13:38:27.048Z</time>
      </trkpt>
      <trkpt lat="43.04941" lon="17.70143">
        <ele>64.032062</ele>
        <time>2022-06-11T13:38:33.028Z</time>
      </trkpt>
      <trkpt lat="43.04951" lon="17.70145">
        <ele>64.1395</ele>
        <time>2022-06-11T13:38:40.023Z</time>
      </trkpt>
      <trkpt lat="43.0496" lon="17.70145">
        <ele>64.240836</ele>
        <time>2022-06-11T13:38:48.047Z</time>
      </trkpt>
      <trkpt lat="43.04969" lon="17.70143">
        <ele>64.338451</ele>
        <time>2022-06-11T13:38:56.021Z</time>
      </trkpt>
      <trkpt lat="43.04979" lon="17.70144">
        <ele>64.438975</ele>
        <time>2022-06-11T13:39:02.006Z</time>
      </trkpt>
      <trkpt lat="43.04988" lon="17.7015">
        <ele>64.413962</ele>
        <time>2022-06-11T13:39:05.036Z</time>
      </trkpt>
      <trkpt lat="43.05001" lon="17.70155">
        <ele>64.341983</ele>
        <time>2022-06-11T13:39:08.019Z</time>
      </trkpt>
      <trkpt lat="43.0501" lon="17.70157">
        <ele>64.292117</ele>
        <time>2022-06-11T13:39:10.021Z</time>
      </trkpt>
      <trkpt lat="43.05022" lon="17.7016">
        <ele>64.226744</ele>
        <time>2022-06-11T13:39:13.050Z</time>
      </trkpt>
      <trkpt lat="43.05034" lon="17.70166">
        <ele>64.158353</ele>
        <time>2022-06-11T13:39:16.030Z</time>
      </trkpt>
      <trkpt lat="43.05047" lon="17.70172">
        <ele>64.086407</ele>
        <time>2022-06-11T13:39:19.027Z</time>
      </trkpt>
      <trkpt lat="43.05057" lon="17.70174">
        <ele>64.03318</ele>
        <time>2022-06-11T13:39:21.027Z</time>
      </trkpt>
      <trkpt lat="43.05066" lon="17.70176">
        <ele>63.983669</ele>
        <time>2022-06-11T13:39:23.014Z</time>
      </trkpt>
      <trkpt lat="43.05077" lon="17.70182">
        <ele>63.918697</ele>
        <time>2022-06-11T13:39:26.030Z</time>
      </trkpt>
      <trkpt lat="43.05086" lon="17.70194">
        <ele>63.848956</ele>
        <time>2022-06-11T13:39:29.061Z</time>
      </trkpt>
      <trkpt lat="43.05094" lon="17.70204">
        <ele>63.795415</ele>
        <time>2022-06-11T13:39:31.003Z</time>
      </trkpt>
      <trkpt lat="43.05101" lon="17.70214">
        <ele>63.739125</ele>
        <time>2022-06-11T13:39:33.008Z</time>
      </trkpt>
      <trkpt lat="43.05109" lon="17.70223">
        <ele>63.682775</ele>
        <time>2022-06-11T13:39:35.014Z</time>
      </trkpt>
      <trkpt lat="43.05118" lon="17.70232">
        <ele>63.623067</ele>
        <time>2022-06-11T13:39:37.031Z</time>
      </trkpt>
      <trkpt lat="43.05128" lon="17.70242">
        <ele>63.557942</ele>
        <time>2022-06-11T13:39:39.053Z</time>
      </trkpt>
      <trkpt lat="43.05137" lon="17.70253">
        <ele>63.49377</ele>
        <time>2022-06-11T13:39:41.040Z</time>
      </trkpt>
      <trkpt lat="43.05145" lon="17.70264">
        <ele>63.378908</ele>
        <time>2022-06-11T13:39:43.025Z</time>
      </trkpt>
      <trkpt lat="43.05153" lon="17.70274">
        <ele>63.263069</ele>
        <time>2022-06-11T13:39:45.038Z</time>
      </trkpt>
      <trkpt lat="43.05162" lon="17.70285">
        <ele>63.148429</ele>
        <time>2022-06-11T13:39:47.019Z</time>
      </trkpt>
      <trkpt lat="43.0517" lon="17.70295">
        <ele>63.035517</ele>
        <time>2022-06-11T13:39:49.041Z</time>
      </trkpt>
      <trkpt lat="43.05179" lon="17.70306">
        <ele>62.921413</ele>
        <time>2022-06-11T13:39:51.021Z</time>
      </trkpt>
      <trkpt lat="43.05187" lon="17.70316">
        <ele>62.804077</ele>
        <time>2022-06-11T13:39:53.021Z</time>
      </trkpt>
      <trkpt lat="43.05196" lon="17.70327">
        <ele>62.683502</ele>
        <time>2022-06-11T13:39:55.017Z</time>
      </trkpt>
      <trkpt lat="43.05205" lon="17.70338">
        <ele>62.561946</ele>
        <time>2022-06-11T13:39:57.028Z</time>
      </trkpt>
      <trkpt lat="43.05214" lon="17.7035">
        <ele>62.433191</ele>
        <time>2022-06-11T13:39:59.063Z</time>
      </trkpt>
      <trkpt lat="43.05223" lon="17.70361">
        <ele>62.313877</ele>
        <time>2022-06-11T13:40:01.040Z</time>
      </trkpt>
      <trkpt lat="43.05231" lon="17.70373">
        <ele>62.192619</ele>
        <time>2022-06-11T13:40:03.026Z</time>
      </trkpt>
      <trkpt lat="43.05239" lon="17.70384">
        <ele>62.078567</ele>
        <time>2022-06-11T13:40:05.071Z</time>
      </trkpt>
      <trkpt lat="43.05247" lon="17.70395">
        <ele>61.967288</ele>
        <time>2022-06-11T13:40:07.031Z</time>
      </trkpt>
      <trkpt lat="43.05254" lon="17.70407">
        <ele>61.858969</ele>
        <time>2022-06-11T13:40:09.027Z</time>
      </trkpt>
      <trkpt lat="43.05259" lon="17.70418">
        <ele>61.764143</ele>
        <time>2022-06-11T13:40:11.030Z</time>
      </trkpt>
      <trkpt lat="43.05263" lon="17.70429">
        <ele>61.639737</ele>
        <time>2022-06-11T13:40:13.024Z</time>
      </trkpt>
      <trkpt lat="43.05268" lon="17.70441">
        <ele>61.379955</ele>
        <time>2022-06-11T13:40:14.993Z</time>
      </trkpt>
      <trkpt lat="43.05272" lon="17.70454">
        <ele>61.112147</ele>
        <time>2022-06-11T13:40:17.060Z</time>
      </trkpt>
      <trkpt lat="43.05275" lon="17.70467">
        <ele>60.835962</ele>
        <time>2022-06-11T13:40:19.014Z</time>
      </trkpt>
      <trkpt lat="43.05278" lon="17.7048">
        <ele>60.570794</ele>
        <time>2022-06-11T13:40:21.032Z</time>
      </trkpt>
      <trkpt lat="43.05282" lon="17.70492">
        <ele>60.317986</ele>
        <time>2022-06-11T13:40:23.041Z</time>
      </trkpt>
      <trkpt lat="43.05286" lon="17.70505">
        <ele>60.047446</ele>
        <time>2022-06-11T13:40:25.028Z</time>
      </trkpt>
      <trkpt lat="43.05292" lon="17.70518">
        <ele>59.755392</ele>
        <time>2022-06-11T13:40:27.028Z</time>
      </trkpt>
      <trkpt lat="43.05297" lon="17.70531">
        <ele>59.467216</ele>
        <time>2022-06-11T13:40:29.017Z</time>
      </trkpt>
      <trkpt lat="43.05303" lon="17.70545">
        <ele>59.163891</ele>
        <time>2022-06-11T13:40:31.062Z</time>
      </trkpt>
      <trkpt lat="43.0531" lon="17.70556">
        <ele>58.868589</ele>
        <time>2022-06-11T13:40:33.011Z</time>
      </trkpt>
      <trkpt lat="43.05317" lon="17.70566">
        <ele>58.601318</ele>
        <time>2022-06-11T13:40:35.016Z</time>
      </trkpt>
      <trkpt lat="43.05324" lon="17.70575">
        <ele>58.361569</ele>
        <time>2022-06-11T13:40:37.048Z</time>
      </trkpt>
      <trkpt lat="43.05332" lon="17.70584">
        <ele>58.082764</ele>
        <time>2022-06-11T13:40:40.027Z</time>
      </trkpt>
      <trkpt lat="43.05342" lon="17.7059">
        <ele>57.786635</ele>
        <time>2022-06-11T13:40:44.020Z</time>
      </trkpt>
      <trkpt lat="43.05352" lon="17.70594">
        <ele>57.520113</ele>
        <time>2022-06-11T13:40:47.022Z</time>
      </trkpt>
      <trkpt lat="43.05361" lon="17.70596">
        <ele>57.281203</ele>
        <time>2022-06-11T13:40:50.020Z</time>
      </trkpt>
      <trkpt lat="43.05368" lon="17.70602">
        <ele>57.038348</ele>
        <time>2022-06-11T13:40:52.030Z</time>
      </trkpt>
      <trkpt lat="43.05381" lon="17.70607">
        <ele>56.821401</ele>
        <time>2022-06-11T13:40:55.049Z</time>
      </trkpt>
      <trkpt lat="43.05392" lon="17.70607">
        <ele>56.688514</ele>
        <time>2022-06-11T13:40:58.007Z</time>
      </trkpt>
      <trkpt lat="43.05403" lon="17.70606">
        <ele>56.549264</ele>
        <time>2022-06-11T13:41:03.018Z</time>
      </trkpt>
      <trkpt lat="43.05412" lon="17.70601">
        <ele>56.430955</ele>
        <time>2022-06-11T13:41:09.049Z</time>
      </trkpt>
      <trkpt lat="43.05421" lon="17.70595">
        <ele>56.301138</ele>
        <time>2022-06-11T13:41:14.033Z</time>
      </trkpt>
      <trkpt lat="43.05432" lon="17.70592">
        <ele>56.16338</ele>
        <time>2022-06-11T13:41:19.037Z</time>
      </trkpt>
      <trkpt lat="43.05443" lon="17.70587">
        <ele>56.029283</ele>
        <time>2022-06-11T13:41:23.026Z</time>
      </trkpt>
      <trkpt lat="43.05452" lon="17.70581">
        <ele>55.906174</ele>
        <time>2022-06-11T13:41:26.018Z</time>
      </trkpt>
      <trkpt lat="43.05461" lon="17.70575">
        <ele>55.778164</ele>
        <time>2022-06-11T13:41:29.024Z</time>
      </trkpt>
      <trkpt lat="43.0547" lon="17.70568">
        <ele>55.647149</ele>
        <time>2022-06-11T13:41:32.022Z</time>
      </trkpt>
      <trkpt lat="43.05479" lon="17.70561">
        <ele>55.524386</ele>
        <time>2022-06-11T13:41:35.018Z</time>
      </trkpt>
      <trkpt lat="43.05488" lon="17.70556">
        <ele>55.407183</ele>
        <time>2022-06-11T13:41:38.021Z</time>
      </trkpt>
      <trkpt lat="43.05498" lon="17.70549">
        <ele>55.268365</ele>
        <time>2022-06-11T13:41:42.048Z</time>
      </trkpt>
      <trkpt lat="43.05506" lon="17.70542">
        <ele>55.152282</ele>
        <time>2022-06-11T13:41:46.028Z</time>
      </trkpt>
      <trkpt lat="43.05514" lon="17.70537">
        <ele>55.03738</ele>
        <time>2022-06-11T13:41:53.069Z</time>
      </trkpt>
      <trkpt lat="43.05524" lon="17.70531">
        <ele>54.906105</ele>
        <time>2022-06-11T13:42:00.028Z</time>
      </trkpt>
      <trkpt lat="43.05534" lon="17.70523">
        <ele>54.77017</ele>
        <time>2022-06-11T13:42:06.035Z</time>
      </trkpt>
      <trkpt lat="43.05544" lon="17.70516">
        <ele>54.575854</ele>
        <time>2022-06-11T13:42:11.053Z</time>
      </trkpt>
      <trkpt lat="43.05554" lon="17.7051">
        <ele>54.326426</ele>
        <time>2022-06-11T13:42:14.024Z</time>
      </trkpt>
      <trkpt lat="43.05565" lon="17.70502">
        <ele>54.082385</ele>
        <time>2022-06-11T13:42:17.032Z</time>
      </trkpt>
      <trkpt lat="43.05574" lon="17.70496">
        <ele>53.863483</ele>
        <time>2022-06-11T13:42:20.025Z</time>
      </trkpt>
      <trkpt lat="43.05583" lon="17.70491">
        <ele>53.658624</ele>
        <time>2022-06-11T13:42:23.020Z</time>
      </trkpt>
      <trkpt lat="43.05591" lon="17.70485">
        <ele>53.464672</ele>
        <time>2022-06-11T13:42:26.034Z</time>
      </trkpt>
      <trkpt lat="43.05601" lon="17.70477">
        <ele>53.222488</ele>
        <time>2022-06-11T13:42:30.029Z</time>
      </trkpt>
      <trkpt lat="43.05612" lon="17.7047">
        <ele>52.970471</ele>
        <time>2022-06-11T13:42:34.108Z</time>
      </trkpt>
      <trkpt lat="43.05621" lon="17.70464">
        <ele>52.766781</ele>
        <time>2022-06-11T13:42:37.028Z</time>
      </trkpt>
      <trkpt lat="43.05631" lon="17.70457">
        <ele>52.529281</ele>
        <time>2022-06-11T13:42:41.021Z</time>
      </trkpt>
      <trkpt lat="43.05641" lon="17.7045">
        <ele>52.29759</ele>
        <time>2022-06-11T13:42:45.022Z</time>
      </trkpt>
      <trkpt lat="43.05649" lon="17.70445">
        <ele>52.104797</ele>
        <time>2022-06-11T13:42:50.027Z</time>
      </trkpt>
      <trkpt lat="43.05658" lon="17.70438">
        <ele>51.888923</ele>
        <time>2022-06-11T13:42:56.088Z</time>
      </trkpt>
      <trkpt lat="43.05666" lon="17.70432">
        <ele>51.695286</ele>
        <time>2022-06-11T13:43:00.084Z</time>
      </trkpt>
      <trkpt lat="43.05678" lon="17.70428">
        <ele>51.435841</ele>
        <time>2022-06-11T13:43:04.012Z</time>
      </trkpt>
      <trkpt lat="43.05691" lon="17.70424">
        <ele>51.163896</ele>
        <time>2022-06-11T13:43:07.013Z</time>
      </trkpt>
      <trkpt lat="43.05702" lon="17.70418">
        <ele>50.931641</ele>
        <time>2022-06-11T13:43:10.031Z</time>
      </trkpt>
      <trkpt lat="43.0571" lon="17.70412">
        <ele>50.860346</ele>
        <time>2022-06-11T13:43:13.032Z</time>
      </trkpt>
      <trkpt lat="43.05717" lon="17.70404">
        <ele>50.789835</ele>
        <time>2022-06-11T13:43:16.024Z</time>
      </trkpt>
      <trkpt lat="43.05726" lon="17.70395">
        <ele>50.700718</ele>
        <time>2022-06-11T13:43:20.035Z</time>
      </trkpt>
      <trkpt lat="43.05735" lon="17.70389">
        <ele>50.628918</ele>
        <time>2022-06-11T13:43:23.037Z</time>
      </trkpt>
      <trkpt lat="43.05743" lon="17.70383">
        <ele>50.555484</ele>
        <time>2022-06-11T13:43:26.040Z</time>
      </trkpt>
      <trkpt lat="43.05751" lon="17.70376">
        <ele>50.483232</ele>
        <time>2022-06-11T13:43:29.025Z</time>
      </trkpt>
      <trkpt lat="43.0576" lon="17.7037">
        <ele>50.403514</ele>
        <time>2022-06-11T13:43:32.034Z</time>
      </trkpt>
      <trkpt lat="43.05769" lon="17.70363">
        <ele>50.31958</ele>
        <time>2022-06-11T13:43:35.026Z</time>
      </trkpt>
      <trkpt lat="43.05779" lon="17.70356">
        <ele>50.23209</ele>
        <time>2022-06-11T13:43:38.016Z</time>
      </trkpt>
      <trkpt lat="43.0579" lon="17.70348">
        <ele>50.142961</ele>
        <time>2022-06-11T13:43:41.024Z</time>
      </trkpt>
      <trkpt lat="43.05799" lon="17.70341">
        <ele>50.0578</ele>
        <time>2022-06-11T13:43:44.048Z</time>
      </trkpt>
      <trkpt lat="43.05808" lon="17.70334">
        <ele>49.975212</ele>
        <time>2022-06-11T13:43:47.057Z</time>
      </trkpt>
      <trkpt lat="43.05818" lon="17.70326">
        <ele>49.890866</ele>
        <time>2022-06-11T13:43:50.053Z</time>
      </trkpt>
      <trkpt lat="43.05828" lon="17.70317">
        <ele>49.797918</ele>
        <time>2022-06-11T13:43:53.039Z</time>
      </trkpt>
      <trkpt lat="43.05838" lon="17.70308">
        <ele>49.702709</ele>
        <time>2022-06-11T13:43:56.016Z</time>
      </trkpt>
      <trkpt lat="43.05848" lon="17.70298">
        <ele>49.608483</ele>
        <time>2022-06-11T13:43:59.036Z</time>
      </trkpt>
      <trkpt lat="43.05858" lon="17.70289">
        <ele>49.536384</ele>
        <time>2022-06-11T13:44:02.036Z</time>
      </trkpt>
      <trkpt lat="43.05867" lon="17.70278">
        <ele>49.511428</ele>
        <time>2022-06-11T13:44:05.027Z</time>
      </trkpt>
      <trkpt lat="43.05876" lon="17.70267">
        <ele>49.486327</ele>
        <time>2022-06-11T13:44:08.022Z</time>
      </trkpt>
      <trkpt lat="43.05884" lon="17.70257">
        <ele>49.461688</ele>
        <time>2022-06-11T13:44:11.032Z</time>
      </trkpt>
      <trkpt lat="43.05893" lon="17.70247">
        <ele>49.437843</ele>
        <time>2022-06-11T13:44:14.021Z</time>
      </trkpt>
      <trkpt lat="43.05902" lon="17.70237">
        <ele>49.413605</ele>
        <time>2022-06-11T13:44:17.057Z</time>
      </trkpt>
      <trkpt lat="43.0591" lon="17.70227">
        <ele>49.389901</ele>
        <time>2022-06-11T13:44:20.031Z</time>
      </trkpt>
      <trkpt lat="43.05919" lon="17.70216">
        <ele>49.366141</ele>
        <time>2022-06-11T13:44:23.041Z</time>
      </trkpt>
      <trkpt lat="43.05927" lon="17.70206">
        <ele>49.342644</ele>
        <time>2022-06-11T13:44:26.007Z</time>
      </trkpt>
      <trkpt lat="43.05935" lon="17.70195">
        <ele>49.319284</ele>
        <time>2022-06-11T13:44:29.035Z</time>
      </trkpt>
      <trkpt lat="43.05943" lon="17.70185">
        <ele>49.296503</ele>
        <time>2022-06-11T13:44:32.027Z</time>
      </trkpt>
      <trkpt lat="43.0595" lon="17.70174">
        <ele>49.273511</ele>
        <time>2022-06-11T13:44:35.028Z</time>
      </trkpt>
      <trkpt lat="43.05958" lon="17.70163">
        <ele>49.249953</ele>
        <time>2022-06-11T13:44:38.028Z</time>
      </trkpt>
      <trkpt lat="43.05965" lon="17.70151">
        <ele>49.22642</ele>
        <time>2022-06-11T13:44:41.038Z</time>
      </trkpt>
      <trkpt lat="43.05973" lon="17.7014">
        <ele>49.202772</ele>
        <time>2022-06-11T13:44:44.022Z</time>
      </trkpt>
      <trkpt lat="43.0598" lon="17.70128">
        <ele>49.179431</ele>
        <time>2022-06-11T13:44:47.022Z</time>
      </trkpt>
      <trkpt lat="43.05987" lon="17.70116">
        <ele>49.303751</ele>
        <time>2022-06-11T13:44:50.025Z</time>
      </trkpt>
      <trkpt lat="43.05994" lon="17.70106">
        <ele>49.595722</ele>
        <time>2022-06-11T13:44:53.025Z</time>
      </trkpt>
      <trkpt lat="43.06" lon="17.70094">
        <ele>49.89712</ele>
        <time>2022-06-11T13:44:56.026Z</time>
      </trkpt>
      <trkpt lat="43.06006" lon="17.70081">
        <ele>50.211944</ele>
        <time>2022-06-11T13:44:59.025Z</time>
      </trkpt>
      <trkpt lat="43.06012" lon="17.70069">
        <ele>50.520053</ele>
        <time>2022-06-11T13:45:02.049Z</time>
      </trkpt>
      <trkpt lat="43.06018" lon="17.70058">
        <ele>50.814966</ele>
        <time>2022-06-11T13:45:05.025Z</time>
      </trkpt>
      <trkpt lat="43.06024" lon="17.70046">
        <ele>51.10988</ele>
        <time>2022-06-11T13:45:08.016Z</time>
      </trkpt>
      <trkpt lat="43.06029" lon="17.70035">
        <ele>51.36523</ele>
        <time>2022-06-11T13:45:11.018Z</time>
      </trkpt>
      <trkpt lat="43.06034" lon="17.70025">
        <ele>51.625599</ele>
        <time>2022-06-11T13:45:15.025Z</time>
      </trkpt>
      <trkpt lat="43.06043" lon="17.70004">
        <ele>52.137296</ele>
        <time>2022-06-11T13:45:37.048Z</time>
      </trkpt>
      <trkpt lat="43.06049" lon="17.69992">
        <ele>52.424054</ele>
        <time>2022-06-11T13:45:41.056Z</time>
      </trkpt>
      <trkpt lat="43.06054" lon="17.69979">
        <ele>52.735389</ele>
        <time>2022-06-11T13:45:45.031Z</time>
      </trkpt>
      <trkpt lat="43.06058" lon="17.69968">
        <ele>53.001427</ele>
        <time>2022-06-11T13:45:48.023Z</time>
      </trkpt>
      <trkpt lat="43.06063" lon="17.69957">
        <ele>53.256776</ele>
        <time>2022-06-11T13:45:51.034Z</time>
      </trkpt>
      <trkpt lat="43.06069" lon="17.69944">
        <ele>53.574128</ele>
        <time>2022-06-11T13:45:54.024Z</time>
      </trkpt>
      <trkpt lat="43.06076" lon="17.69931">
        <ele>53.903986</ele>
        <time>2022-06-11T13:45:57.002Z</time>
      </trkpt>
      <trkpt lat="43.06082" lon="17.69918">
        <ele>54.2391</ele>
        <time>2022-06-11T13:46:00.031Z</time>
      </trkpt>
      <trkpt lat="43.06088" lon="17.69903">
        <ele>54.521019</ele>
        <time>2022-06-11T13:46:03.028Z</time>
      </trkpt>
      <trkpt lat="43.06095" lon="17.69888">
        <ele>54.807546</ele>
        <time>2022-06-11T13:46:06.025Z</time>
      </trkpt>
      <trkpt lat="43.06102" lon="17.69874">
        <ele>55.098047</ele>
        <time>2022-06-11T13:46:09.028Z</time>
      </trkpt>
      <trkpt lat="43.06108" lon="17.69864">
        <ele>55.30608</ele>
        <time>2022-06-11T13:46:11.037Z</time>
      </trkpt>
      <trkpt lat="43.06117" lon="17.69851">
        <ele>55.594816</ele>
        <time>2022-06-11T13:46:14.014Z</time>
      </trkpt>
      <trkpt lat="43.06126" lon="17.69839">
        <ele>55.870328</ele>
        <time>2022-06-11T13:46:17.018Z</time>
      </trkpt>
      <trkpt lat="43.06134" lon="17.69828">
        <ele>56.136916</ele>
        <time>2022-06-11T13:46:20.035Z</time>
      </trkpt>
      <trkpt lat="43.06143" lon="17.69817">
        <ele>56.401787</ele>
        <time>2022-06-11T13:46:23.031Z</time>
      </trkpt>
      <trkpt lat="43.06152" lon="17.69807">
        <ele>56.661586</ele>
        <time>2022-06-11T13:46:26.020Z</time>
      </trkpt>
      <trkpt lat="43.06162" lon="17.69798">
        <ele>56.928585</ele>
        <time>2022-06-11T13:46:29.025Z</time>
      </trkpt>
      <trkpt lat="43.06171" lon="17.69788">
        <ele>57.200181</ele>
        <time>2022-06-11T13:46:32.014Z</time>
      </trkpt>
      <trkpt lat="43.06181" lon="17.69779">
        <ele>57.473545</ele>
        <time>2022-06-11T13:46:35.033Z</time>
      </trkpt>
      <trkpt lat="43.06191" lon="17.69769">
        <ele>57.746105</ele>
        <time>2022-06-11T13:46:38.027Z</time>
      </trkpt>
      <trkpt lat="43.062" lon="17.69759">
        <ele>58.009935</ele>
        <time>2022-06-11T13:46:41.022Z</time>
      </trkpt>
      <trkpt lat="43.06209" lon="17.69749">
        <ele>58.261644</ele>
        <time>2022-06-11T13:46:44.025Z</time>
      </trkpt>
      <trkpt lat="43.06217" lon="17.69739">
        <ele>58.122694</ele>
        <time>2022-06-11T13:46:47.052Z</time>
      </trkpt>
      <trkpt lat="43.06225" lon="17.69727">
        <ele>57.864638</ele>
        <time>2022-06-11T13:46:50.022Z</time>
      </trkpt>
      <trkpt lat="43.06233" lon="17.69716">
        <ele>57.598421</ele>
        <time>2022-06-11T13:46:53.027Z</time>
      </trkpt>
      <trkpt lat="43.06242" lon="17.69704">
        <ele>57.323784</ele>
        <time>2022-06-11T13:46:56.020Z</time>
      </trkpt>
      <trkpt lat="43.06249" lon="17.69691">
        <ele>57.065085</ele>
        <time>2022-06-11T13:46:59.024Z</time>
      </trkpt>
      <trkpt lat="43.06257" lon="17.69679">
        <ele>56.807324</ele>
        <time>2022-06-11T13:47:02.006Z</time>
      </trkpt>
      <trkpt lat="43.06264" lon="17.69664">
        <ele>56.523787</ele>
        <time>2022-06-11T13:47:05.026Z</time>
      </trkpt>
      <trkpt lat="43.06269" lon="17.69654">
        <ele>56.32615</ele>
        <time>2022-06-11T13:47:07.031Z</time>
      </trkpt>
      <trkpt lat="43.06276" lon="17.6964">
        <ele>56.047912</ele>
        <time>2022-06-11T13:47:10.016Z</time>
      </trkpt>
      <trkpt lat="43.06283" lon="17.69627">
        <ele>55.785359</ele>
        <time>2022-06-11T13:47:13.028Z</time>
      </trkpt>
      <trkpt lat="43.06291" lon="17.69613">
        <ele>55.499252</ele>
        <time>2022-06-11T13:47:16.022Z</time>
      </trkpt>
      <trkpt lat="43.06299" lon="17.69599">
        <ele>55.206602</ele>
        <time>2022-06-11T13:47:19.028Z</time>
      </trkpt>
      <trkpt lat="43.06304" lon="17.69588">
        <ele>55.0002</ele>
        <time>2022-06-11T13:47:21.024Z</time>
      </trkpt>
      <trkpt lat="43.0631" lon="17.69578">
        <ele>54.790959</ele>
        <time>2022-06-11T13:47:23.015Z</time>
      </trkpt>
      <trkpt lat="43.06315" lon="17.69567">
        <ele>54.580366</ele>
        <time>2022-06-11T13:47:25.038Z</time>
      </trkpt>
      <trkpt lat="43.0632" lon="17.69555">
        <ele>54.364325</ele>
        <time>2022-06-11T13:47:27.051Z</time>
      </trkpt>
      <trkpt lat="43.06325" lon="17.69545">
        <ele>54.121044</ele>
        <time>2022-06-11T13:47:29.024Z</time>
      </trkpt>
      <trkpt lat="43.06333" lon="17.69529">
        <ele>53.749898</ele>
        <time>2022-06-11T13:47:32.026Z</time>
      </trkpt>
      <trkpt lat="43.06338" lon="17.69519">
        <ele>53.496713</ele>
        <time>2022-06-11T13:47:34.032Z</time>
      </trkpt>
      <trkpt lat="43.06343" lon="17.69509">
        <ele>53.251516</ele>
        <time>2022-06-11T13:47:36.030Z</time>
      </trkpt>
      <trkpt lat="43.06351" lon="17.69494">
        <ele>52.888602</ele>
        <time>2022-06-11T13:47:39.045Z</time>
      </trkpt>
      <trkpt lat="43.06356" lon="17.69483">
        <ele>52.618226</ele>
        <time>2022-06-11T13:47:41.032Z</time>
      </trkpt>
      <trkpt lat="43.06361" lon="17.69471">
        <ele>52.356097</ele>
        <time>2022-06-11T13:47:43.014Z</time>
      </trkpt>
      <trkpt lat="43.06366" lon="17.6946">
        <ele>52.083266</ele>
        <time>2022-06-11T13:47:45.051Z</time>
      </trkpt>
      <trkpt lat="43.06372" lon="17.69449">
        <ele>51.815546</ele>
        <time>2022-06-11T13:47:47.040Z</time>
      </trkpt>
      <trkpt lat="43.06378" lon="17.69439">
        <ele>51.557415</ele>
        <time>2022-06-11T13:47:49.030Z</time>
      </trkpt>
      <trkpt lat="43.06384" lon="17.69428">
        <ele>51.289715</ele>
        <time>2022-06-11T13:47:51.029Z</time>
      </trkpt>
      <trkpt lat="43.06389" lon="17.69416">
        <ele>51.013334</ele>
        <time>2022-06-11T13:47:53.026Z</time>
      </trkpt>
      <trkpt lat="43.06394" lon="17.69405">
        <ele>50.748075</ele>
        <time>2022-06-11T13:47:55.060Z</time>
      </trkpt>
      <trkpt lat="43.06399" lon="17.69394">
        <ele>50.495877</ele>
        <time>2022-06-11T13:47:57.054Z</time>
      </trkpt>
      <trkpt lat="43.06406" lon="17.6938">
        <ele>50.156612</ele>
        <time>2022-06-11T13:48:00.031Z</time>
      </trkpt>
      <trkpt lat="43.06413" lon="17.69366">
        <ele>49.817536</ele>
        <time>2022-06-11T13:48:03.017Z</time>
      </trkpt>
      <trkpt lat="43.06419" lon="17.69353">
        <ele>49.506285</ele>
        <time>2022-06-11T13:48:06.056Z</time>
      </trkpt>
      <trkpt lat="43.06423" lon="17.69342">
        <ele>49.380398</ele>
        <time>2022-06-11T13:48:08.024Z</time>
      </trkpt>
      <trkpt lat="43.06429" lon="17.69327">
        <ele>49.309644</ele>
        <time>2022-06-11T13:48:11.057Z</time>
      </trkpt>
      <trkpt lat="43.06433" lon="17.69314">
        <ele>49.254123</ele>
        <time>2022-06-11T13:48:14.031Z</time>
      </trkpt>
      <trkpt lat="43.06437" lon="17.693">
        <ele>49.192805</ele>
        <time>2022-06-11T13:48:18.031Z</time>
      </trkpt>
      <trkpt lat="43.06459" lon="17.69282">
        <ele>49.050687</ele>
        <time>2022-06-11T13:51:38.059Z</time>
      </trkpt>
      <trkpt lat="43.06466" lon="17.6927">
        <ele>48.990511</ele>
        <time>2022-06-11T13:51:42.033Z</time>
      </trkpt>
      <trkpt lat="43.06474" lon="17.69258">
        <ele>48.924537</ele>
        <time>2022-06-11T13:51:46.013Z</time>
      </trkpt>
      <trkpt lat="43.06481" lon="17.69248">
        <ele>48.867956</ele>
        <time>2022-06-11T13:51:49.022Z</time>
      </trkpt>
      <trkpt lat="43.06488" lon="17.69237">
        <ele>48.808812</ele>
        <time>2022-06-11T13:51:52.061Z</time>
      </trkpt>
      <trkpt lat="43.06495" lon="17.69227">
        <ele>48.751109</ele>
        <time>2022-06-11T13:51:55.028Z</time>
      </trkpt>
      <trkpt lat="43.06503" lon="17.69217">
        <ele>48.691578</ele>
        <time>2022-06-11T13:51:58.054Z</time>
      </trkpt>
      <trkpt lat="43.06511" lon="17.69207">
        <ele>48.631187</ele>
        <time>2022-06-11T13:52:01.026Z</time>
      </trkpt>
      <trkpt lat="43.0652" lon="17.69197">
        <ele>48.568406</ele>
        <time>2022-06-11T13:52:04.062Z</time>
      </trkpt>
      <trkpt lat="43.06528" lon="17.69186">
        <ele>48.505262</ele>
        <time>2022-06-11T13:52:07.034Z</time>
      </trkpt>
      <trkpt lat="43.06538" lon="17.69176">
        <ele>48.438264</ele>
        <time>2022-06-11T13:52:10.008Z</time>
      </trkpt>
      <trkpt lat="43.06547" lon="17.69167">
        <ele>48.393808</ele>
        <time>2022-06-11T13:52:13.054Z</time>
      </trkpt>
      <trkpt lat="43.06558" lon="17.69159">
        <ele>48.360881</ele>
        <time>2022-06-11T13:52:16.011Z</time>
      </trkpt>
      <trkpt lat="43.06569" lon="17.69151">
        <ele>48.327379</ele>
        <time>2022-06-11T13:52:19.033Z</time>
      </trkpt>
      <trkpt lat="43.06579" lon="17.69143">
        <ele>48.29426</ele>
        <time>2022-06-11T13:52:22.023Z</time>
      </trkpt>
      <trkpt lat="43.0659" lon="17.69136">
        <ele>48.262337</ele>
        <time>2022-06-11T13:52:25.025Z</time>
      </trkpt>
      <trkpt lat="43.066" lon="17.69129">
        <ele>48.230647</ele>
        <time>2022-06-11T13:52:28.041Z</time>
      </trkpt>
      <trkpt lat="43.06611" lon="17.69126">
        <ele>48.199701</ele>
        <time>2022-06-11T13:52:31.019Z</time>
      </trkpt>
      <trkpt lat="43.06624" lon="17.69128">
        <ele>48.163447</ele>
        <time>2022-06-11T13:52:34.016Z</time>
      </trkpt>
      <trkpt lat="43.06634" lon="17.69131">
        <ele>48.13613</ele>
        <time>2022-06-11T13:52:36.108Z</time>
      </trkpt>
      <trkpt lat="43.06644" lon="17.69135">
        <ele>48.107273</ele>
        <time>2022-06-11T13:52:38.014Z</time>
      </trkpt>
      <trkpt lat="43.06654" lon="17.69139">
        <ele>48.078434</ele>
        <time>2022-06-11T13:52:40.032Z</time>
      </trkpt>
      <trkpt lat="43.06664" lon="17.69142">
        <ele>48.050462</ele>
        <time>2022-06-11T13:52:42.036Z</time>
      </trkpt>
      <trkpt lat="43.06674" lon="17.69145">
        <ele>48.024338</ele>
        <time>2022-06-11T13:52:44.031Z</time>
      </trkpt>
      <trkpt lat="43.06683" lon="17.69146">
        <ele>47.997977</ele>
        <time>2022-06-11T13:52:46.018Z</time>
      </trkpt>
      <trkpt lat="43.06693" lon="17.69148">
        <ele>47.972474</ele>
        <time>2022-06-11T13:52:48.030Z</time>
      </trkpt>
      <trkpt lat="43.06706" lon="17.6915">
        <ele>47.936806</ele>
        <time>2022-06-11T13:52:51.034Z</time>
      </trkpt>
      <trkpt lat="43.06719" lon="17.69151">
        <ele>48.107562</ele>
        <time>2022-06-11T13:52:54.025Z</time>
      </trkpt>
      <trkpt lat="43.06731" lon="17.69153">
        <ele>48.409341</ele>
        <time>2022-06-11T13:52:57.034Z</time>
      </trkpt>
      <trkpt lat="43.06743" lon="17.69156">
        <ele>48.703552</ele>
        <time>2022-06-11T13:53:00.029Z</time>
      </trkpt>
      <trkpt lat="43.06756" lon="17.69157">
        <ele>49.001256</ele>
        <time>2022-06-11T13:53:03.068Z</time>
      </trkpt>
      <trkpt lat="43.06767" lon="17.69157">
        <ele>49.274076</ele>
        <time>2022-06-11T13:53:06.015Z</time>
      </trkpt>
      <trkpt lat="43.06779" lon="17.69157">
        <ele>49.556422</ele>
        <time>2022-06-11T13:53:09.019Z</time>
      </trkpt>
      <trkpt lat="43.06791" lon="17.69157">
        <ele>49.85314</ele>
        <time>2022-06-11T13:53:12.031Z</time>
      </trkpt>
      <trkpt lat="43.06804" lon="17.69155">
        <ele>50.158464</ele>
        <time>2022-06-11T13:53:15.049Z</time>
      </trkpt>
      <trkpt lat="43.06816" lon="17.69152">
        <ele>50.446531</ele>
        <time>2022-06-11T13:53:18.036Z</time>
      </trkpt>
      <trkpt lat="43.06828" lon="17.69149">
        <ele>50.738135</ele>
        <time>2022-06-11T13:53:21.024Z</time>
      </trkpt>
      <trkpt lat="43.06839" lon="17.69143">
        <ele>51.027937</ele>
        <time>2022-06-11T13:53:24.012Z</time>
      </trkpt>
      <trkpt lat="43.06849" lon="17.69137">
        <ele>51.293765</ele>
        <time>2022-06-11T13:53:27.043Z</time>
      </trkpt>
      <trkpt lat="43.0686" lon="17.69131">
        <ele>51.578403</ele>
        <time>2022-06-11T13:53:30.030Z</time>
      </trkpt>
      <trkpt lat="43.06872" lon="17.69125">
        <ele>51.865546</ele>
        <time>2022-06-11T13:53:33.029Z</time>
      </trkpt>
      <trkpt lat="43.06883" lon="17.6912">
        <ele>52.163805</ele>
        <time>2022-06-11T13:53:36.017Z</time>
      </trkpt>
      <trkpt lat="43.06895" lon="17.69114">
        <ele>52.242625</ele>
        <time>2022-06-11T13:53:39.031Z</time>
      </trkpt>
      <trkpt lat="43.06908" lon="17.6911">
        <ele>52.263651</ele>
        <time>2022-06-11T13:53:42.027Z</time>
      </trkpt>
      <trkpt lat="43.06919" lon="17.69106">
        <ele>52.283272</ele>
        <time>2022-06-11T13:53:45.022Z</time>
      </trkpt>
      <trkpt lat="43.0693" lon="17.69103">
        <ele>52.301511</ele>
        <time>2022-06-11T13:53:48.033Z</time>
      </trkpt>
      <trkpt lat="43.06941" lon="17.69102">
        <ele>52.31931</ele>
        <time>2022-06-11T13:53:51.039Z</time>
      </trkpt>
      <trkpt lat="43.06952" lon="17.69101">
        <ele>52.338209</ele>
        <time>2022-06-11T13:53:54.042Z</time>
      </trkpt>
      <trkpt lat="43.06963" lon="17.691">
        <ele>52.35677</ele>
        <time>2022-06-11T13:53:57.028Z</time>
      </trkpt>
      <trkpt lat="43.06976" lon="17.69099">
        <ele>52.377128</ele>
        <time>2022-06-11T13:54:00.019Z</time>
      </trkpt>
      <trkpt lat="43.06988" lon="17.69098">
        <ele>52.397147</ele>
        <time>2022-06-11T13:54:03.014Z</time>
      </trkpt>
      <trkpt lat="43.06999" lon="17.69097">
        <ele>52.416202</ele>
        <time>2022-06-11T13:54:06.011Z</time>
      </trkpt>
      <trkpt lat="43.07011" lon="17.69097">
        <ele>52.435223</ele>
        <time>2022-06-11T13:54:09.027Z</time>
      </trkpt>
      <trkpt lat="43.07023" lon="17.69096">
        <ele>52.456267</ele>
        <time>2022-06-11T13:54:12.034Z</time>
      </trkpt>
      <trkpt lat="43.07035" lon="17.69095">
        <ele>52.476338</ele>
        <time>2022-06-11T13:54:15.032Z</time>
      </trkpt>
      <trkpt lat="43.07047" lon="17.69094">
        <ele>52.496047</ele>
        <time>2022-06-11T13:54:18.034Z</time>
      </trkpt>
      <trkpt lat="43.07059" lon="17.69093">
        <ele>52.515591</ele>
        <time>2022-06-11T13:54:21.029Z</time>
      </trkpt>
      <trkpt lat="43.0707" lon="17.69092">
        <ele>52.341719</ele>
        <time>2022-06-11T13:54:24.033Z</time>
      </trkpt>
      <trkpt lat="43.07082" lon="17.69092">
        <ele>52.010946</ele>
        <time>2022-06-11T13:54:27.075Z</time>
      </trkpt>
      <trkpt lat="43.07094" lon="17.69093">
        <ele>51.682981</ele>
        <time>2022-06-11T13:54:30.028Z</time>
      </trkpt>
      <trkpt lat="43.07105" lon="17.69092">
        <ele>51.360372</ele>
        <time>2022-06-11T13:54:33.023Z</time>
      </trkpt>
      <trkpt lat="43.07117" lon="17.69092">
        <ele>51.021124</ele>
        <time>2022-06-11T13:54:36.010Z</time>
      </trkpt>
      <trkpt lat="43.07129" lon="17.69093">
        <ele>50.675827</ele>
        <time>2022-06-11T13:54:39.032Z</time>
      </trkpt>
      <trkpt lat="43.07142" lon="17.69094">
        <ele>50.329346</ele>
        <time>2022-06-11T13:54:42.031Z</time>
      </trkpt>
      <trkpt lat="43.07153" lon="17.69097">
        <ele>50.011652</ele>
        <time>2022-06-11T13:54:45.039Z</time>
      </trkpt>
      <trkpt lat="43.07164" lon="17.691">
        <ele>49.698123</ele>
        <time>2022-06-11T13:54:48.038Z</time>
      </trkpt>
      <trkpt lat="43.07174" lon="17.69103">
        <ele>49.392117</ele>
        <time>2022-06-11T13:54:51.010Z</time>
      </trkpt>
      <trkpt lat="43.07185" lon="17.69107">
        <ele>49.079809</ele>
        <time>2022-06-11T13:54:54.024Z</time>
      </trkpt>
      <trkpt lat="43.07195" lon="17.69112">
        <ele>48.769451</ele>
        <time>2022-06-11T13:54:57.034Z</time>
      </trkpt>
      <trkpt lat="43.07204" lon="17.69119">
        <ele>48.472803</ele>
        <time>2022-06-11T13:55:00.040Z</time>
      </trkpt>
      <trkpt lat="43.07214" lon="17.69125">
        <ele>48.185439</ele>
        <time>2022-06-11T13:55:03.040Z</time>
      </trkpt>
      <trkpt lat="43.07223" lon="17.69132">
        <ele>47.881334</ele>
        <time>2022-06-11T13:55:06.023Z</time>
      </trkpt>
      <trkpt lat="43.07232" lon="17.69139">
        <ele>47.57286</ele>
        <time>2022-06-11T13:55:09.040Z</time>
      </trkpt>
      <trkpt lat="43.07242" lon="17.69147">
        <ele>47.462626</ele>
        <time>2022-06-11T13:55:12.032Z</time>
      </trkpt>
      <trkpt lat="43.07252" lon="17.69154">
        <ele>47.503125</ele>
        <time>2022-06-11T13:55:15.019Z</time>
      </trkpt>
      <trkpt lat="43.07261" lon="17.69162">
        <ele>47.544476</ele>
        <time>2022-06-11T13:55:18.066Z</time>
      </trkpt>
      <trkpt lat="43.07271" lon="17.69171">
        <ele>47.588028</ele>
        <time>2022-06-11T13:55:21.023Z</time>
      </trkpt>
      <trkpt lat="43.07282" lon="17.69177">
        <ele>47.6302</ele>
        <time>2022-06-11T13:55:24.071Z</time>
      </trkpt>
      <trkpt lat="43.07292" lon="17.69185">
        <ele>47.673156</ele>
        <time>2022-06-11T13:55:27.012Z</time>
      </trkpt>
      <trkpt lat="43.07302" lon="17.69193">
        <ele>47.715485</ele>
        <time>2022-06-11T13:55:30.068Z</time>
      </trkpt>
      <trkpt lat="43.07312" lon="17.69201">
        <ele>47.757881</ele>
        <time>2022-06-11T13:55:33.019Z</time>
      </trkpt>
      <trkpt lat="43.07321" lon="17.6921">
        <ele>47.800379</ele>
        <time>2022-06-11T13:55:36.075Z</time>
      </trkpt>
      <trkpt lat="43.07331" lon="17.69218">
        <ele>47.843684</ele>
        <time>2022-06-11T13:55:39.066Z</time>
      </trkpt>
      <trkpt lat="43.07342" lon="17.69227">
        <ele>47.888317</ele>
        <time>2022-06-11T13:55:42.030Z</time>
      </trkpt>
      <trkpt lat="43.07352" lon="17.69236">
        <ele>47.93275</ele>
        <time>2022-06-11T13:55:45.058Z</time>
      </trkpt>
      <trkpt lat="43.07362" lon="17.69245">
        <ele>47.976591</ele>
        <time>2022-06-11T13:55:48.020Z</time>
      </trkpt>
      <trkpt lat="43.07371" lon="17.69254">
        <ele>48.019349</ele>
        <time>2022-06-11T13:55:51.068Z</time>
      </trkpt>
      <trkpt lat="43.07381" lon="17.69263">
        <ele>48.062563</ele>
        <time>2022-06-11T13:55:54.039Z</time>
      </trkpt>
      <trkpt lat="43.07391" lon="17.69271">
        <ele>48.109353</ele>
        <time>2022-06-11T13:55:57.023Z</time>
      </trkpt>
      <trkpt lat="43.074" lon="17.69279">
        <ele>48.211624</ele>
        <time>2022-06-11T13:56:00.025Z</time>
      </trkpt>
      <trkpt lat="43.0741" lon="17.69287">
        <ele>48.316384</ele>
        <time>2022-06-11T13:56:03.035Z</time>
      </trkpt>
      <trkpt lat="43.0742" lon="17.69295">
        <ele>48.419239</ele>
        <time>2022-06-11T13:56:06.035Z</time>
      </trkpt>
      <trkpt lat="43.07429" lon="17.69303">
        <ele>48.517479</ele>
        <time>2022-06-11T13:56:09.027Z</time>
      </trkpt>
      <trkpt lat="43.07438" lon="17.6931">
        <ele>48.615881</ele>
        <time>2022-06-11T13:56:12.027Z</time>
      </trkpt>
      <trkpt lat="43.07448" lon="17.69317">
        <ele>48.713566</ele>
        <time>2022-06-11T13:56:15.064Z</time>
      </trkpt>
      <trkpt lat="43.07458" lon="17.69323">
        <ele>48.813151</ele>
        <time>2022-06-11T13:56:18.023Z</time>
      </trkpt>
      <trkpt lat="43.07468" lon="17.69328">
        <ele>48.910011</ele>
        <time>2022-06-11T13:56:21.053Z</time>
      </trkpt>
      <trkpt lat="43.07478" lon="17.69334">
        <ele>49.012315</ele>
        <time>2022-06-11T13:56:24.028Z</time>
      </trkpt>
      <trkpt lat="43.07489" lon="17.6934">
        <ele>49.120682</ele>
        <time>2022-06-11T13:56:27.026Z</time>
      </trkpt>
      <trkpt lat="43.07501" lon="17.69345">
        <ele>49.23028</ele>
        <time>2022-06-11T13:56:30.019Z</time>
      </trkpt>
      <trkpt lat="43.07512" lon="17.69349">
        <ele>49.336024</ele>
        <time>2022-06-11T13:56:33.031Z</time>
      </trkpt>
      <trkpt lat="43.07523" lon="17.69352">
        <ele>49.437844</ele>
        <time>2022-06-11T13:56:36.020Z</time>
      </trkpt>
      <trkpt lat="43.07534" lon="17.69355">
        <ele>49.540672</ele>
        <time>2022-06-11T13:56:39.028Z</time>
      </trkpt>
      <trkpt lat="43.07544" lon="17.69357">
        <ele>49.634314</ele>
        <time>2022-06-11T13:56:42.023Z</time>
      </trkpt>
      <trkpt lat="43.07555" lon="17.69359">
        <ele>49.737927</ele>
        <time>2022-06-11T13:56:45.036Z</time>
      </trkpt>
      <trkpt lat="43.07566" lon="17.69362">
        <ele>49.709729</ele>
        <time>2022-06-11T13:56:48.039Z</time>
      </trkpt>
      <trkpt lat="43.07578" lon="17.69365">
        <ele>49.67328</ele>
        <time>2022-06-11T13:56:51.072Z</time>
      </trkpt>
      <trkpt lat="43.0759" lon="17.69368">
        <ele>49.637843</ele>
        <time>2022-06-11T13:56:54.026Z</time>
      </trkpt>
      <trkpt lat="43.07601" lon="17.69371">
        <ele>49.601135</ele>
        <time>2022-06-11T13:56:57.055Z</time>
      </trkpt>
      <trkpt lat="43.07612" lon="17.69375">
        <ele>49.567287</ele>
        <time>2022-06-11T13:57:00.035Z</time>
      </trkpt>
      <trkpt lat="43.07623" lon="17.69378">
        <ele>49.534081</ele>
        <time>2022-06-11T13:57:03.029Z</time>
      </trkpt>
      <trkpt lat="43.07634" lon="17.69381">
        <ele>49.50108</ele>
        <time>2022-06-11T13:57:06.070Z</time>
      </trkpt>
      <trkpt lat="43.07645" lon="17.69385">
        <ele>49.466642</ele>
        <time>2022-06-11T13:57:09.017Z</time>
      </trkpt>
      <trkpt lat="43.07655" lon="17.69388">
        <ele>49.434028</ele>
        <time>2022-06-11T13:57:12.064Z</time>
      </trkpt>
      <trkpt lat="43.07666" lon="17.69392">
        <ele>49.400363</ele>
        <time>2022-06-11T13:57:15.031Z</time>
      </trkpt>
      <trkpt lat="43.07676" lon="17.69396">
        <ele>49.368845</ele>
        <time>2022-06-11T13:57:18.019Z</time>
      </trkpt>
      <trkpt lat="43.07687" lon="17.69399">
        <ele>49.334592</ele>
        <time>2022-06-11T13:57:21.023Z</time>
      </trkpt>
      <trkpt lat="43.07698" lon="17.69403">
        <ele>49.298813</ele>
        <time>2022-06-11T13:57:24.043Z</time>
      </trkpt>
      <trkpt lat="43.07709" lon="17.69407">
        <ele>49.264774</ele>
        <time>2022-06-11T13:57:27.052Z</time>
      </trkpt>
      <trkpt lat="43.0772" lon="17.69411">
        <ele>49.23064</ele>
        <time>2022-06-11T13:57:30.046Z</time>
      </trkpt>
      <trkpt lat="43.0773" lon="17.69416">
        <ele>49.197272</ele>
        <time>2022-06-11T13:57:33.034Z</time>
      </trkpt>
      <trkpt lat="43.07741" lon="17.6942">
        <ele>49.157396</ele>
        <time>2022-06-11T13:57:36.020Z</time>
      </trkpt>
      <trkpt lat="43.07752" lon="17.69424">
        <ele>49.118212</ele>
        <time>2022-06-11T13:57:39.022Z</time>
      </trkpt>
      <trkpt lat="43.07763" lon="17.69428">
        <ele>49.077462</ele>
        <time>2022-06-11T13:57:42.027Z</time>
      </trkpt>
      <trkpt lat="43.07774" lon="17.69433">
        <ele>49.035953</ele>
        <time>2022-06-11T13:57:45.068Z</time>
      </trkpt>
      <trkpt lat="43.07785" lon="17.69437">
        <ele>48.99465</ele>
        <time>2022-06-11T13:57:48.026Z</time>
      </trkpt>
      <trkpt lat="43.07795" lon="17.6944">
        <ele>48.955894</ele>
        <time>2022-06-11T13:57:51.046Z</time>
      </trkpt>
      <trkpt lat="43.07806" lon="17.69444">
        <ele>48.916037</ele>
        <time>2022-06-11T13:57:54.029Z</time>
      </trkpt>
      <trkpt lat="43.07817" lon="17.69448">
        <ele>48.877821</ele>
        <time>2022-06-11T13:57:57.024Z</time>
      </trkpt>
      <trkpt lat="43.07827" lon="17.69451">
        <ele>48.839783</ele>
        <time>2022-06-11T13:58:00.018Z</time>
      </trkpt>
      <trkpt lat="43.07838" lon="17.69455">
        <ele>48.80122</ele>
        <time>2022-06-11T13:58:03.036Z</time>
      </trkpt>
      <trkpt lat="43.07849" lon="17.69456">
        <ele>48.76098</ele>
        <time>2022-06-11T13:58:06.029Z</time>
      </trkpt>
      <trkpt lat="43.0786" lon="17.69458">
        <ele>48.721506</ele>
        <time>2022-06-11T13:58:09.029Z</time>
      </trkpt>
      <trkpt lat="43.07871" lon="17.69459">
        <ele>48.681498</ele>
        <time>2022-06-11T13:58:12.023Z</time>
      </trkpt>
      <trkpt lat="43.07882" lon="17.69459">
        <ele>48.641889</ele>
        <time>2022-06-11T13:58:15.054Z</time>
      </trkpt>
      <trkpt lat="43.07893" lon="17.69458">
        <ele>48.602614</ele>
        <time>2022-06-11T13:58:18.034Z</time>
      </trkpt>
      <trkpt lat="43.07904" lon="17.69457">
        <ele>48.56385</ele>
        <time>2022-06-11T13:58:21.026Z</time>
      </trkpt>
      <trkpt lat="43.07915" lon="17.69455">
        <ele>48.572972</ele>
        <time>2022-06-11T13:58:24.040Z</time>
      </trkpt>
      <trkpt lat="43.07926" lon="17.69453">
        <ele>48.598629</ele>
        <time>2022-06-11T13:58:27.042Z</time>
      </trkpt>
      <trkpt lat="43.07937" lon="17.69452">
        <ele>48.625245</ele>
        <time>2022-06-11T13:58:30.027Z</time>
      </trkpt>
      <trkpt lat="43.07949" lon="17.6945">
        <ele>48.6519</ele>
        <time>2022-06-11T13:58:33.042Z</time>
      </trkpt>
      <trkpt lat="43.0796" lon="17.69448">
        <ele>48.678115</ele>
        <time>2022-06-11T13:58:36.030Z</time>
      </trkpt>
      <trkpt lat="43.07971" lon="17.69446">
        <ele>48.704123</ele>
        <time>2022-06-11T13:58:39.020Z</time>
      </trkpt>
      <trkpt lat="43.07982" lon="17.69444">
        <ele>48.729878</ele>
        <time>2022-06-11T13:58:42.027Z</time>
      </trkpt>
      <trkpt lat="43.07993" lon="17.69442">
        <ele>48.755057</ele>
        <time>2022-06-11T13:58:45.025Z</time>
      </trkpt>
      <trkpt lat="43.08003" lon="17.6944">
        <ele>48.7801</ele>
        <time>2022-06-11T13:58:48.020Z</time>
      </trkpt>
      <trkpt lat="43.08014" lon="17.69439">
        <ele>48.805757</ele>
        <time>2022-06-11T13:58:51.085Z</time>
      </trkpt>
      <trkpt lat="43.08025" lon="17.69437">
        <ele>48.830508</ele>
        <time>2022-06-11T13:58:54.024Z</time>
      </trkpt>
      <trkpt lat="43.08035" lon="17.69434">
        <ele>48.854426</ele>
        <time>2022-06-11T13:58:57.058Z</time>
      </trkpt>
      <trkpt lat="43.08045" lon="17.69432">
        <ele>48.878477</ele>
        <time>2022-06-11T13:59:00.066Z</time>
      </trkpt>
      <trkpt lat="43.08056" lon="17.6943">
        <ele>48.903082</ele>
        <time>2022-06-11T13:59:03.016Z</time>
      </trkpt>
      <trkpt lat="43.08066" lon="17.69428">
        <ele>48.925989</ele>
        <time>2022-06-11T13:59:06.018Z</time>
      </trkpt>
      <trkpt lat="43.08076" lon="17.69427">
        <ele>48.949505</ele>
        <time>2022-06-11T13:59:09.033Z</time>
      </trkpt>
      <trkpt lat="43.08086" lon="17.69426">
        <ele>48.970761</ele>
        <time>2022-06-11T13:59:12.023Z</time>
      </trkpt>
      <trkpt lat="43.08096" lon="17.69424">
        <ele>48.962961</ele>
        <time>2022-06-11T13:59:15.026Z</time>
      </trkpt>
      <trkpt lat="43.08106" lon="17.69423">
        <ele>48.954926</ele>
        <time>2022-06-11T13:59:18.027Z</time>
      </trkpt>
      <trkpt lat="43.08117" lon="17.69422">
        <ele>48.946901</ele>
        <time>2022-06-11T13:59:21.031Z</time>
      </trkpt>
      <trkpt lat="43.08127" lon="17.69421">
        <ele>48.93888</ele>
        <time>2022-06-11T13:59:24.055Z</time>
      </trkpt>
      <trkpt lat="43.08137" lon="17.6942">
        <ele>48.931021</ele>
        <time>2022-06-11T13:59:27.025Z</time>
      </trkpt>
      <trkpt lat="43.08148" lon="17.6942">
        <ele>48.922947</ele>
        <time>2022-06-11T13:59:30.026Z</time>
      </trkpt>
      <trkpt lat="43.08158" lon="17.69419">
        <ele>48.915331</ele>
        <time>2022-06-11T13:59:33.024Z</time>
      </trkpt>
      <trkpt lat="43.08168" lon="17.69419">
        <ele>48.907796</ele>
        <time>2022-06-11T13:59:36.030Z</time>
      </trkpt>
      <trkpt lat="43.08178" lon="17.69419">
        <ele>48.899876</ele>
        <time>2022-06-11T13:59:39.035Z</time>
      </trkpt>
      <trkpt lat="43.08188" lon="17.69419">
        <ele>48.892339</ele>
        <time>2022-06-11T13:59:42.031Z</time>
      </trkpt>
      <trkpt lat="43.08198" lon="17.6942">
        <ele>48.884648</ele>
        <time>2022-06-11T13:59:45.026Z</time>
      </trkpt>
      <trkpt lat="43.08208" lon="17.6942">
        <ele>48.8768</ele>
        <time>2022-06-11T13:59:48.043Z</time>
      </trkpt>
      <trkpt lat="43.08218" lon="17.69422">
        <ele>48.868606</ele>
        <time>2022-06-11T13:59:51.025Z</time>
      </trkpt>
      <trkpt lat="43.08229" lon="17.69423">
        <ele>48.860418</ele>
        <time>2022-06-11T13:59:54.011Z</time>
      </trkpt>
      <trkpt lat="43.08239" lon="17.69425">
        <ele>48.852426</ele>
        <time>2022-06-11T13:59:57.048Z</time>
      </trkpt>
      <trkpt lat="43.0825" lon="17.69427">
        <ele>48.844191</ele>
        <time>2022-06-11T14:00:00.028Z</time>
      </trkpt>
      <trkpt lat="43.08261" lon="17.6943">
        <ele>48.835732</ele>
        <time>2022-06-11T14:00:03.033Z</time>
      </trkpt>
      <trkpt lat="43.08271" lon="17.69433">
        <ele>48.862565</ele>
        <time>2022-06-11T14:00:06.064Z</time>
      </trkpt>
      <trkpt lat="43.08281" lon="17.69436">
        <ele>48.910606</ele>
        <time>2022-06-11T14:00:09.031Z</time>
      </trkpt>
      <trkpt lat="43.08292" lon="17.69439">
        <ele>48.959195</ele>
        <time>2022-06-11T14:00:12.032Z</time>
      </trkpt>
      <trkpt lat="43.08302" lon="17.69443">
        <ele>49.006492</ele>
        <time>2022-06-11T14:00:15.046Z</time>
      </trkpt>
      <trkpt lat="43.08312" lon="17.69445">
        <ele>49.049334</ele>
        <time>2022-06-11T14:00:18.046Z</time>
      </trkpt>
      <trkpt lat="43.08321" lon="17.69448">
        <ele>49.092053</ele>
        <time>2022-06-11T14:00:21.036Z</time>
      </trkpt>
      <trkpt lat="43.08332" lon="17.69451">
        <ele>49.141059</ele>
        <time>2022-06-11T14:00:24.025Z</time>
      </trkpt>
      <trkpt lat="43.08343" lon="17.69456">
        <ele>49.193097</ele>
        <time>2022-06-11T14:00:27.030Z</time>
      </trkpt>
      <trkpt lat="43.08355" lon="17.69462">
        <ele>49.248582</ele>
        <time>2022-06-11T14:00:30.030Z</time>
      </trkpt>
      <trkpt lat="43.08366" lon="17.69468">
        <ele>49.302548</ele>
        <time>2022-06-11T14:00:33.049Z</time>
      </trkpt>
      <trkpt lat="43.08377" lon="17.69473">
        <ele>49.35311</ele>
        <time>2022-06-11T14:00:36.019Z</time>
      </trkpt>
      <trkpt lat="43.08388" lon="17.69477">
        <ele>49.402116</ele>
        <time>2022-06-11T14:00:39.022Z</time>
      </trkpt>
      <trkpt lat="43.08398" lon="17.69481">
        <ele>49.451292</ele>
        <time>2022-06-11T14:00:42.024Z</time>
      </trkpt>
      <trkpt lat="43.08409" lon="17.69485">
        <ele>49.49825</ele>
        <time>2022-06-11T14:00:45.014Z</time>
      </trkpt>
      <trkpt lat="43.08419" lon="17.69489">
        <ele>49.544096</ele>
        <time>2022-06-11T14:00:48.027Z</time>
      </trkpt>
      <trkpt lat="43.08429" lon="17.69493">
        <ele>49.590205</ele>
        <time>2022-06-11T14:00:51.034Z</time>
      </trkpt>
      <trkpt lat="43.08439" lon="17.69496">
        <ele>49.641318</ele>
        <time>2022-06-11T14:00:54.026Z</time>
      </trkpt>
      <trkpt lat="43.08449" lon="17.69499">
        <ele>49.720511</ele>
        <time>2022-06-11T14:00:57.021Z</time>
      </trkpt>
      <trkpt lat="43.08459" lon="17.69503">
        <ele>49.803909</ele>
        <time>2022-06-11T14:01:00.029Z</time>
      </trkpt>
      <trkpt lat="43.08469" lon="17.69505">
        <ele>49.886077</ele>
        <time>2022-06-11T14:01:03.034Z</time>
      </trkpt>
      <trkpt lat="43.08479" lon="17.69508">
        <ele>49.965931</ele>
        <time>2022-06-11T14:01:06.032Z</time>
      </trkpt>
      <trkpt lat="43.0849" lon="17.69511">
        <ele>50.049084</ele>
        <time>2022-06-11T14:01:09.023Z</time>
      </trkpt>
      <trkpt lat="43.08499" lon="17.69513">
        <ele>50.127398</ele>
        <time>2022-06-11T14:01:12.024Z</time>
      </trkpt>
      <trkpt lat="43.08509" lon="17.69517">
        <ele>50.207758</ele>
        <time>2022-06-11T14:01:15.032Z</time>
      </trkpt>
      <trkpt lat="43.08519" lon="17.6952">
        <ele>50.286035</ele>
        <time>2022-06-11T14:01:18.053Z</time>
      </trkpt>
      <trkpt lat="43.08528" lon="17.69524">
        <ele>50.362767</ele>
        <time>2022-06-11T14:01:21.034Z</time>
      </trkpt>
      <trkpt lat="43.08538" lon="17.69528">
        <ele>50.439991</ele>
        <time>2022-06-11T14:01:24.025Z</time>
      </trkpt>
      <trkpt lat="43.08548" lon="17.69532">
        <ele>50.520553</ele>
        <time>2022-06-11T14:01:27.023Z</time>
      </trkpt>
      <trkpt lat="43.08557" lon="17.69536">
        <ele>50.600195</ele>
        <time>2022-06-11T14:01:30.036Z</time>
      </trkpt>
      <trkpt lat="43.08568" lon="17.6954">
        <ele>50.683883</ele>
        <time>2022-06-11T14:01:33.018Z</time>
      </trkpt>
      <trkpt lat="43.08578" lon="17.69544">
        <ele>50.767389</ele>
        <time>2022-06-11T14:01:36.036Z</time>
      </trkpt>
      <trkpt lat="43.08588" lon="17.69549">
        <ele>50.84997</ele>
        <time>2022-06-11T14:01:39.027Z</time>
      </trkpt>
      <trkpt lat="43.08598" lon="17.69554">
        <ele>50.935328</ele>
        <time>2022-06-11T14:01:42.035Z</time>
      </trkpt>
      <trkpt lat="43.08608" lon="17.69558">
        <ele>51.020393</ele>
        <time>2022-06-11T14:01:45.027Z</time>
      </trkpt>
      <trkpt lat="43.08619" lon="17.69562">
        <ele>50.998179</ele>
        <time>2022-06-11T14:01:48.029Z</time>
      </trkpt>
      <trkpt lat="43.08628" lon="17.69565">
        <ele>50.947316</ele>
        <time>2022-06-11T14:01:51.039Z</time>
      </trkpt>
      <trkpt lat="43.08637" lon="17.6957">
        <ele>50.894925</ele>
        <time>2022-06-11T14:01:54.035Z</time>
      </trkpt>
      <trkpt lat="43.08647" lon="17.69575">
        <ele>50.838708</ele>
        <time>2022-06-11T14:01:57.036Z</time>
      </trkpt>
      <trkpt lat="43.08657" lon="17.6958">
        <ele>50.783248</ele>
        <time>2022-06-11T14:02:00.030Z</time>
      </trkpt>
      <trkpt lat="43.08667" lon="17.69585">
        <ele>50.727286</ele>
        <time>2022-06-11T14:02:03.023Z</time>
      </trkpt>
      <trkpt lat="43.08676" lon="17.6959">
        <ele>50.673968</ele>
        <time>2022-06-11T14:02:06.023Z</time>
      </trkpt>
      <trkpt lat="43.08685" lon="17.69595">
        <ele>50.621994</ele>
        <time>2022-06-11T14:02:09.032Z</time>
      </trkpt>
      <trkpt lat="43.08695" lon="17.696">
        <ele>50.568823</ele>
        <time>2022-06-11T14:02:12.015Z</time>
      </trkpt>
      <trkpt lat="43.08704" lon="17.69605">
        <ele>50.515856</ele>
        <time>2022-06-11T14:02:15.024Z</time>
      </trkpt>
      <trkpt lat="43.08714" lon="17.6961">
        <ele>50.461704</ele>
        <time>2022-06-11T14:02:18.031Z</time>
      </trkpt>
      <trkpt lat="43.08723" lon="17.69615">
        <ele>50.407971</ele>
        <time>2022-06-11T14:02:21.033Z</time>
      </trkpt>
      <trkpt lat="43.08733" lon="17.6962">
        <ele>50.353527</ele>
        <time>2022-06-11T14:02:24.024Z</time>
      </trkpt>
      <trkpt lat="43.08741" lon="17.69625">
        <ele>50.303038</ele>
        <time>2022-06-11T14:02:27.060Z</time>
      </trkpt>
      <trkpt lat="43.08751" lon="17.69629">
        <ele>50.251707</ele>
        <time>2022-06-11T14:02:30.030Z</time>
      </trkpt>
      <trkpt lat="43.0876" lon="17.69634">
        <ele>50.19874</ele>
        <time>2022-06-11T14:02:33.049Z</time>
      </trkpt>
      <trkpt lat="43.0877" lon="17.69638">
        <ele>50.144906</ele>
        <time>2022-06-11T14:02:36.030Z</time>
      </trkpt>
      <trkpt lat="43.08779" lon="17.69644">
        <ele>50.091131</ele>
        <time>2022-06-11T14:02:39.014Z</time>
      </trkpt>
      <trkpt lat="43.08789" lon="17.69649">
        <ele>50.141125</ele>
        <time>2022-06-11T14:02:42.024Z</time>
      </trkpt>
      <trkpt lat="43.08797" lon="17.69653">
        <ele>50.191248</ele>
        <time>2022-06-11T14:02:45.018Z</time>
      </trkpt>
      <trkpt lat="43.08806" lon="17.69657">
        <ele>50.241625</ele>
        <time>2022-06-11T14:02:48.026Z</time>
      </trkpt>
      <trkpt lat="43.08815" lon="17.69662">
        <ele>50.292328</ele>
        <time>2022-06-11T14:02:51.008Z</time>
      </trkpt>
      <trkpt lat="43.08823" lon="17.69668">
        <ele>50.343006</ele>
        <time>2022-06-11T14:02:54.032Z</time>
      </trkpt>
      <trkpt lat="43.08832" lon="17.69673">
        <ele>50.394661</ele>
        <time>2022-06-11T14:02:57.019Z</time>
      </trkpt>
      <trkpt lat="43.08841" lon="17.69678">
        <ele>50.445513</ele>
        <time>2022-06-11T14:03:00.048Z</time>
      </trkpt>
      <trkpt lat="43.0885" lon="17.69683">
        <ele>50.499816</ele>
        <time>2022-06-11T14:03:03.043Z</time>
      </trkpt>
      <trkpt lat="43.08859" lon="17.69689">
        <ele>50.551813</ele>
        <time>2022-06-11T14:03:06.061Z</time>
      </trkpt>
      <trkpt lat="43.08867" lon="17.69694">
        <ele>50.602491</ele>
        <time>2022-06-11T14:03:09.014Z</time>
      </trkpt>
      <trkpt lat="43.08875" lon="17.697">
        <ele>50.651507</ele>
        <time>2022-06-11T14:03:12.047Z</time>
      </trkpt>
      <trkpt lat="43.08884" lon="17.69705">
        <ele>50.701178</ele>
        <time>2022-06-11T14:03:15.030Z</time>
      </trkpt>
      <trkpt lat="43.08893" lon="17.6971">
        <ele>50.752989</ele>
        <time>2022-06-11T14:03:18.048Z</time>
      </trkpt>
      <trkpt lat="43.08901" lon="17.69715">
        <ele>50.803342</ele>
        <time>2022-06-11T14:03:21.041Z</time>
      </trkpt>
      <trkpt lat="43.08909" lon="17.6972">
        <ele>50.8527</ele>
        <time>2022-06-11T14:03:24.035Z</time>
      </trkpt>
      <trkpt lat="43.0892" lon="17.69728">
        <ele>50.914915</ele>
        <time>2022-06-11T14:03:28.019Z</time>
      </trkpt>
      <trkpt lat="43.08928" lon="17.69732">
        <ele>50.965976</ele>
        <time>2022-06-11T14:03:31.048Z</time>
      </trkpt>
      <trkpt lat="43.08938" lon="17.69737">
        <ele>51.019482</ele>
        <time>2022-06-11T14:03:34.026Z</time>
      </trkpt>
      <trkpt lat="43.08946" lon="17.69743">
        <ele>51.098984</ele>
        <time>2022-06-11T14:03:37.033Z</time>
      </trkpt>
      <trkpt lat="43.08955" lon="17.69748">
        <ele>51.288522</ele>
        <time>2022-06-11T14:03:40.029Z</time>
      </trkpt>
      <trkpt lat="43.08964" lon="17.69754">
        <ele>51.504162</ele>
        <time>2022-06-11T14:03:43.017Z</time>
      </trkpt>
      <trkpt lat="43.08974" lon="17.6976">
        <ele>51.73296</ele>
        <time>2022-06-11T14:03:46.026Z</time>
      </trkpt>
      <trkpt lat="43.08984" lon="17.69768">
        <ele>51.967672</ele>
        <time>2022-06-11T14:03:49.025Z</time>
      </trkpt>
      <trkpt lat="43.08993" lon="17.69775">
        <ele>52.178924</ele>
        <time>2022-06-11T14:03:52.030Z</time>
      </trkpt>
      <trkpt lat="43.09002" lon="17.69781">
        <ele>52.37912</ele>
        <time>2022-06-11T14:03:55.057Z</time>
      </trkpt>
      <trkpt lat="43.09011" lon="17.6979">
        <ele>52.617389</ele>
        <time>2022-06-11T14:03:59.026Z</time>
      </trkpt>
      <trkpt lat="43.09021" lon="17.69799">
        <ele>52.862581</ele>
        <time>2022-06-11T14:04:03.015Z</time>
      </trkpt>
      <trkpt lat="43.0903" lon="17.69804">
        <ele>53.058966</ele>
        <time>2022-06-11T14:04:06.036Z</time>
      </trkpt>
      <trkpt lat="43.0904" lon="17.69804">
        <ele>53.258407</ele>
        <time>2022-06-11T14:04:09.022Z</time>
      </trkpt>
      <trkpt lat="43.09049" lon="17.69803">
        <ele>53.455982</ele>
        <time>2022-06-11T14:04:12.031Z</time>
      </trkpt>
      <trkpt lat="43.09059" lon="17.698">
        <ele>53.666373</ele>
        <time>2022-06-11T14:04:15.030Z</time>
      </trkpt>
      <trkpt lat="43.09071" lon="17.69797">
        <ele>53.906477</ele>
        <time>2022-06-11T14:04:18.066Z</time>
      </trkpt>
      <trkpt lat="43.09082" lon="17.69792">
        <ele>54.146131</ele>
        <time>2022-06-11T14:04:21.028Z</time>
      </trkpt>
      <trkpt lat="43.09092" lon="17.69786">
        <ele>54.367889</ele>
        <time>2022-06-11T14:04:24.036Z</time>
      </trkpt>
      <trkpt lat="43.09101" lon="17.69783">
        <ele>54.569687</ele>
        <time>2022-06-11T14:04:27.024Z</time>
      </trkpt>
      <trkpt lat="43.09111" lon="17.69782">
        <ele>54.772499</ele>
        <time>2022-06-11T14:04:30.017Z</time>
      </trkpt>
      <trkpt lat="43.09121" lon="17.69783">
        <ele>54.90323</ele>
        <time>2022-06-11T14:04:33.049Z</time>
      </trkpt>
      <trkpt lat="43.0913" lon="17.69784">
        <ele>55.037084</ele>
        <time>2022-06-11T14:04:36.016Z</time>
      </trkpt>
      <trkpt lat="43.0914" lon="17.69784">
        <ele>55.177641</ele>
        <time>2022-06-11T14:04:39.016Z</time>
      </trkpt>
      <trkpt lat="43.09149" lon="17.6978">
        <ele>55.308523</ele>
        <time>2022-06-11T14:04:42.020Z</time>
      </trkpt>
      <trkpt lat="43.09157" lon="17.69772">
        <ele>55.447857</ele>
        <time>2022-06-11T14:04:45.027Z</time>
      </trkpt>
      <trkpt lat="43.09166" lon="17.69764">
        <ele>55.609051</ele>
        <time>2022-06-11T14:04:48.026Z</time>
      </trkpt>
      <trkpt lat="43.09178" lon="17.69756">
        <ele>55.788129</ele>
        <time>2022-06-11T14:04:51.024Z</time>
      </trkpt>
      <trkpt lat="43.09188" lon="17.6975">
        <ele>55.949473</ele>
        <time>2022-06-11T14:04:54.025Z</time>
      </trkpt>
      <trkpt lat="43.09198" lon="17.69742">
        <ele>56.106511</ele>
        <time>2022-06-11T14:04:57.021Z</time>
      </trkpt>
      <trkpt lat="43.09205" lon="17.69733">
        <ele>56.250144</ele>
        <time>2022-06-11T14:05:00.020Z</time>
      </trkpt>
      <trkpt lat="43.09213" lon="17.69724">
        <ele>56.394176</ele>
        <time>2022-06-11T14:05:03.056Z</time>
      </trkpt>
      <trkpt lat="43.09221" lon="17.69713">
        <ele>56.560107</ele>
        <time>2022-06-11T14:05:07.019Z</time>
      </trkpt>
      <trkpt lat="43.09231" lon="17.69705">
        <ele>56.717145</ele>
        <time>2022-06-11T14:05:11.030Z</time>
      </trkpt>
      <trkpt lat="43.09241" lon="17.69704">
        <ele>56.868566</ele>
        <time>2022-06-11T14:05:15.027Z</time>
      </trkpt>
      <trkpt lat="43.09251" lon="17.69711">
        <ele>57.020378</ele>
        <time>2022-06-11T14:05:19.155Z</time>
      </trkpt>
      <trkpt lat="43.0926" lon="17.6972">
        <ele>57.18262</ele>
        <time>2022-06-11T14:05:23.028Z</time>
      </trkpt>
      <trkpt lat="43.09268" lon="17.69728">
        <ele>57.295921</ele>
        <time>2022-06-11T14:05:26.024Z</time>
      </trkpt>
      <trkpt lat="43.09275" lon="17.69734">
        <ele>57.08685</ele>
        <time>2022-06-11T14:05:29.032Z</time>
      </trkpt>
      <trkpt lat="43.09287" lon="17.69737">
        <ele>56.803434</ele>
        <time>2022-06-11T14:05:33.024Z</time>
      </trkpt>
      <trkpt lat="43.09298" lon="17.69738">
        <ele>56.568158</ele>
        <time>2022-06-11T14:05:36.025Z</time>
      </trkpt>
      <trkpt lat="43.09307" lon="17.6974">
        <ele>56.347392</ele>
        <time>2022-06-11T14:05:39.092Z</time>
      </trkpt>
      <trkpt lat="43.09316" lon="17.69742">
        <ele>56.127192</ele>
        <time>2022-06-11T14:05:42.012Z</time>
      </trkpt>
      <trkpt lat="43.09325" lon="17.69745">
        <ele>55.908224</ele>
        <time>2022-06-11T14:05:45.029Z</time>
      </trkpt>
      <trkpt lat="43.09334" lon="17.69748">
        <ele>55.695782</ele>
        <time>2022-06-11T14:05:48.017Z</time>
      </trkpt>
      <trkpt lat="43.09343" lon="17.69752">
        <ele>55.477613</ele>
        <time>2022-06-11T14:05:51.031Z</time>
      </trkpt>
      <trkpt lat="43.09352" lon="17.69758">
        <ele>55.254128</ele>
        <time>2022-06-11T14:05:53.988Z</time>
      </trkpt>
      <trkpt lat="43.0936" lon="17.69765">
        <ele>55.043729</ele>
        <time>2022-06-11T14:05:57.023Z</time>
      </trkpt>
      <trkpt lat="43.09369" lon="17.69773">
        <ele>54.783947</ele>
        <time>2022-06-11T14:06:01.024Z</time>
      </trkpt>
      <trkpt lat="43.09376" lon="17.6978">
        <ele>54.568263</ele>
        <time>2022-06-11T14:06:04.012Z</time>
      </trkpt>
      <trkpt lat="43.09384" lon="17.69789">
        <ele>54.329852</ele>
        <time>2022-06-11T14:06:07.031Z</time>
      </trkpt>
      <trkpt lat="43.09394" lon="17.69798">
        <ele>54.074874</ele>
        <time>2022-06-11T14:06:10.021Z</time>
      </trkpt>
      <trkpt lat="43.09402" lon="17.69807">
        <ele>53.822452</ele>
        <time>2022-06-11T14:06:13.030Z</time>
      </trkpt>
      <trkpt lat="43.0941" lon="17.69817">
        <ele>53.572449</ele>
        <time>2022-06-11T14:06:16.031Z</time>
      </trkpt>
      <trkpt lat="43.09418" lon="17.69826">
        <ele>53.325767</ele>
        <time>2022-06-11T14:06:19.026Z</time>
      </trkpt>
      <trkpt lat="43.09426" lon="17.69836">
        <ele>53.149859</ele>
        <time>2022-06-11T14:06:22.026Z</time>
      </trkpt>
      <trkpt lat="43.09434" lon="17.69844">
        <ele>53.240602</ele>
        <time>2022-06-11T14:06:25.032Z</time>
      </trkpt>
      <trkpt lat="43.09442" lon="17.69851">
        <ele>53.324967</ele>
        <time>2022-06-11T14:06:28.034Z</time>
      </trkpt>
      <trkpt lat="43.09452" lon="17.69857">
        <ele>53.423481</ele>
        <time>2022-06-11T14:06:32.058Z</time>
      </trkpt>
      <trkpt lat="43.09462" lon="17.69862">
        <ele>53.522347</ele>
        <time>2022-06-11T14:06:35.023Z</time>
      </trkpt>
      <trkpt lat="43.09473" lon="17.69865">
        <ele>53.621299</ele>
        <time>2022-06-11T14:06:38.010Z</time>
      </trkpt>
      <trkpt lat="43.09485" lon="17.6987">
        <ele>53.732869</ele>
        <time>2022-06-11T14:06:41.019Z</time>
      </trkpt>
      <trkpt lat="43.09497" lon="17.69873">
        <ele>53.845655</ele>
        <time>2022-06-11T14:06:44.027Z</time>
      </trkpt>
      <trkpt lat="43.09508" lon="17.69876">
        <ele>53.943163</ele>
        <time>2022-06-11T14:06:47.025Z</time>
      </trkpt>
      <trkpt lat="43.09518" lon="17.69878">
        <ele>54.038853</ele>
        <time>2022-06-11T14:06:50.025Z</time>
      </trkpt>
      <trkpt lat="43.0953" lon="17.6988">
        <ele>54.146047</ele>
        <time>2022-06-11T14:06:53.046Z</time>
      </trkpt>
      <trkpt lat="43.0954" lon="17.6988">
        <ele>54.23165</ele>
        <time>2022-06-11T14:06:55.054Z</time>
      </trkpt>
      <trkpt lat="43.09552" lon="17.69879">
        <ele>54.346179</ele>
        <time>2022-06-11T14:06:58.024Z</time>
      </trkpt>
      <trkpt lat="43.09562" lon="17.6988">
        <ele>54.431226</ele>
        <time>2022-06-11T14:07:00.019Z</time>
      </trkpt>
      <trkpt lat="43.09575" lon="17.69881">
        <ele>54.545822</ele>
        <time>2022-06-11T14:07:03.043Z</time>
      </trkpt>
      <trkpt lat="43.09586" lon="17.69882">
        <ele>54.648595</ele>
        <time>2022-06-11T14:07:06.023Z</time>
      </trkpt>
      <trkpt lat="43.09596" lon="17.69882">
        <ele>54.743193</ele>
        <time>2022-06-11T14:07:09.019Z</time>
      </trkpt>
      <trkpt lat="43.09607" lon="17.69881">
        <ele>54.750896</ele>
        <time>2022-06-11T14:07:12.052Z</time>
      </trkpt>
      <trkpt lat="43.09617" lon="17.69879">
        <ele>54.751581</ele>
        <time>2022-06-11T14:07:15.029Z</time>
      </trkpt>
      <trkpt lat="43.09629" lon="17.69879">
        <ele>54.752429</ele>
        <time>2022-06-11T14:07:18.055Z</time>
      </trkpt>
      <trkpt lat="43.09642" lon="17.69879">
        <ele>54.753264</ele>
        <time>2022-06-11T14:07:21.035Z</time>
      </trkpt>
      <trkpt lat="43.09655" lon="17.69879">
        <ele>54.754152</ele>
        <time>2022-06-11T14:07:24.022Z</time>
      </trkpt>
      <trkpt lat="43.09668" lon="17.6988">
        <ele>54.755003</ele>
        <time>2022-06-11T14:07:27.036Z</time>
      </trkpt>
      <trkpt lat="43.09679" lon="17.69881">
        <ele>54.755743</ele>
        <time>2022-06-11T14:07:30.016Z</time>
      </trkpt>
      <trkpt lat="43.09688" lon="17.69882">
        <ele>54.756411</ele>
        <time>2022-06-11T14:07:33.014Z</time>
      </trkpt>
      <trkpt lat="43.09698" lon="17.69882">
        <ele>54.75703</ele>
        <time>2022-06-11T14:07:36.012Z</time>
      </trkpt>
      <trkpt lat="43.09708" lon="17.69883">
        <ele>54.75773</ele>
        <time>2022-06-11T14:07:39.033Z</time>
      </trkpt>
      <trkpt lat="43.0972" lon="17.69883">
        <ele>54.758558</ele>
        <time>2022-06-11T14:07:42.026Z</time>
      </trkpt>
      <trkpt lat="43.09733" lon="17.69884">
        <ele>54.759413</ele>
        <time>2022-06-11T14:07:45.026Z</time>
      </trkpt>
      <trkpt lat="43.09746" lon="17.69885">
        <ele>54.760269</ele>
        <time>2022-06-11T14:07:48.034Z</time>
      </trkpt>
      <trkpt lat="43.09758" lon="17.69885">
        <ele>54.761117</ele>
        <time>2022-06-11T14:07:51.032Z</time>
      </trkpt>
      <trkpt lat="43.09771" lon="17.69885">
        <ele>54.761938</ele>
        <time>2022-06-11T14:07:54.035Z</time>
      </trkpt>
      <trkpt lat="43.09782" lon="17.69885">
        <ele>54.68289</ele>
        <time>2022-06-11T14:07:57.043Z</time>
      </trkpt>
      <trkpt lat="43.09794" lon="17.69886">
        <ele>54.504932</ele>
        <time>2022-06-11T14:08:00.032Z</time>
      </trkpt>
      <trkpt lat="43.09806" lon="17.69886">
        <ele>54.325659</ele>
        <time>2022-06-11T14:08:03.041Z</time>
      </trkpt>
      <trkpt lat="43.09818" lon="17.69886">
        <ele>54.143429</ele>
        <time>2022-06-11T14:08:06.029Z</time>
      </trkpt>
      <trkpt lat="43.0983" lon="17.69886">
        <ele>53.958214</ele>
        <time>2022-06-11T14:08:09.059Z</time>
      </trkpt>
      <trkpt lat="43.09842" lon="17.69887">
        <ele>53.777186</ele>
        <time>2022-06-11T14:08:12.039Z</time>
      </trkpt>
      <trkpt lat="43.09855" lon="17.69888">
        <ele>53.590207</ele>
        <time>2022-06-11T14:08:15.018Z</time>
      </trkpt>
      <trkpt lat="43.09867" lon="17.69888">
        <ele>53.406497</ele>
        <time>2022-06-11T14:08:18.027Z</time>
      </trkpt>
      <trkpt lat="43.09878" lon="17.69888">
        <ele>53.24073</ele>
        <time>2022-06-11T14:08:21.034Z</time>
      </trkpt>
      <trkpt lat="43.09889" lon="17.69888">
        <ele>53.073584</ele>
        <time>2022-06-11T14:08:24.029Z</time>
      </trkpt>
      <trkpt lat="43.09899" lon="17.69889">
        <ele>52.915381</ele>
        <time>2022-06-11T14:08:27.032Z</time>
      </trkpt>
      <trkpt lat="43.09909" lon="17.69889">
        <ele>52.770788</ele>
        <time>2022-06-11T14:08:30.020Z</time>
      </trkpt>
      <trkpt lat="43.09921" lon="17.6989">
        <ele>52.592983</ele>
        <time>2022-06-11T14:08:34.019Z</time>
      </trkpt>
      <trkpt lat="43.09932" lon="17.69889">
        <ele>52.42274</ele>
        <time>2022-06-11T14:08:38.031Z</time>
      </trkpt>
      <trkpt lat="43.09943" lon="17.6989">
        <ele>52.255305</ele>
        <time>2022-06-11T14:08:42.029Z</time>
      </trkpt>
      <trkpt lat="43.09952" lon="17.69889">
        <ele>52.119033</ele>
        <time>2022-06-11T14:08:46.041Z</time>
      </trkpt>
      <trkpt lat="43.09963" lon="17.69889">
        <ele>52.264632</ele>
        <time>2022-06-11T14:08:50.027Z</time>
      </trkpt>
      <trkpt lat="43.09972" lon="17.69887">
        <ele>52.602201</ele>
        <time>2022-06-11T14:08:54.035Z</time>
      </trkpt>
      <trkpt lat="43.09983" lon="17.69886">
        <ele>52.981628</ele>
        <time>2022-06-11T14:08:58.016Z</time>
      </trkpt>
      <trkpt lat="43.09994" lon="17.69883">
        <ele>53.356765</ele>
        <time>2022-06-11T14:09:02.038Z</time>
      </trkpt>
      <trkpt lat="43.10005" lon="17.69881">
        <ele>53.739548</ele>
        <time>2022-06-11T14:09:06.034Z</time>
      </trkpt>
      <trkpt lat="43.10016" lon="17.69878">
        <ele>54.149895</ele>
        <time>2022-06-11T14:09:10.029Z</time>
      </trkpt>
      <trkpt lat="43.10026" lon="17.69875">
        <ele>54.484192</ele>
        <time>2022-06-11T14:09:13.037Z</time>
      </trkpt>
      <trkpt lat="43.10035" lon="17.69871">
        <ele>54.803544</ele>
        <time>2022-06-11T14:09:16.075Z</time>
      </trkpt>
      <trkpt lat="43.10045" lon="17.69867">
        <ele>55.193517</ele>
        <time>2022-06-11T14:09:20.021Z</time>
      </trkpt>
      <trkpt lat="43.10054" lon="17.69863">
        <ele>55.510901</ele>
        <time>2022-06-11T14:09:23.029Z</time>
      </trkpt>
      <trkpt lat="43.10064" lon="17.69859">
        <ele>55.866559</ele>
        <time>2022-06-11T14:09:26.031Z</time>
      </trkpt>
      <trkpt lat="43.10074" lon="17.69853">
        <ele>56.245316</ele>
        <time>2022-06-11T14:09:29.027Z</time>
      </trkpt>
      <trkpt lat="43.10084" lon="17.69847">
        <ele>56.621311</ele>
        <time>2022-06-11T14:09:32.047Z</time>
      </trkpt>
      <trkpt lat="43.10094" lon="17.6984">
        <ele>57.002368</ele>
        <time>2022-06-11T14:09:35.028Z</time>
      </trkpt>
      <trkpt lat="43.10102" lon="17.69834">
        <ele>57.338614</ele>
        <time>2022-06-11T14:09:38.025Z</time>
      </trkpt>
      <trkpt lat="43.10112" lon="17.69827">
        <ele>57.700702</ele>
        <time>2022-06-11T14:09:41.015Z</time>
      </trkpt>
      <trkpt lat="43.10121" lon="17.6982">
        <ele>58.058541</ele>
        <time>2022-06-11T14:09:44.056Z</time>
      </trkpt>
      <trkpt lat="43.10131" lon="17.69813">
        <ele>58.196363</ele>
        <time>2022-06-11T14:09:47.029Z</time>
      </trkpt>
      <trkpt lat="43.10143" lon="17.69805">
        <ele>57.987424</ele>
        <time>2022-06-11T14:09:50.015Z</time>
      </trkpt>
      <trkpt lat="43.10154" lon="17.69798">
        <ele>57.790313</ele>
        <time>2022-06-11T14:09:53.024Z</time>
      </trkpt>
      <trkpt lat="43.10165" lon="17.69789">
        <ele>57.594633</ele>
        <time>2022-06-11T14:09:56.030Z</time>
      </trkpt>
      <trkpt lat="43.10176" lon="17.69783">
        <ele>57.406442</ele>
        <time>2022-06-11T14:09:59.027Z</time>
      </trkpt>
      <trkpt lat="43.10187" lon="17.69776">
        <ele>57.211256</ele>
        <time>2022-06-11T14:10:02.015Z</time>
      </trkpt>
      <trkpt lat="43.10198" lon="17.69771">
        <ele>57.021562</ele>
        <time>2022-06-11T14:10:05.016Z</time>
      </trkpt>
      <trkpt lat="43.1021" lon="17.69767">
        <ele>56.82327</ele>
        <time>2022-06-11T14:10:08.024Z</time>
      </trkpt>
      <trkpt lat="43.10222" lon="17.69762">
        <ele>56.633575</ele>
        <time>2022-06-11T14:10:11.029Z</time>
      </trkpt>
      <trkpt lat="43.10233" lon="17.69759">
        <ele>56.448418</ele>
        <time>2022-06-11T14:10:14.059Z</time>
      </trkpt>
      <trkpt lat="43.10245" lon="17.69757">
        <ele>56.264357</ele>
        <time>2022-06-11T14:10:17.032Z</time>
      </trkpt>
      <trkpt lat="43.10257" lon="17.69756">
        <ele>56.071686</ele>
        <time>2022-06-11T14:10:20.024Z</time>
      </trkpt>
      <trkpt lat="43.10268" lon="17.69756">
        <ele>55.887082</ele>
        <time>2022-06-11T14:10:23.018Z</time>
      </trkpt>
      <trkpt lat="43.10279" lon="17.69757">
        <ele>55.715081</ele>
        <time>2022-06-11T14:10:26.038Z</time>
      </trkpt>
      <trkpt lat="43.1029" lon="17.69758">
        <ele>55.549486</ele>
        <time>2022-06-11T14:10:29.020Z</time>
      </trkpt>
      <trkpt lat="43.103" lon="17.69759">
        <ele>55.352455</ele>
        <time>2022-06-11T14:10:32.029Z</time>
      </trkpt>
      <trkpt lat="43.10311" lon="17.69762">
        <ele>55.065435</ele>
        <time>2022-06-11T14:10:35.032Z</time>
      </trkpt>
      <trkpt lat="43.10322" lon="17.69764">
        <ele>54.789007</ele>
        <time>2022-06-11T14:10:38.049Z</time>
      </trkpt>
      <trkpt lat="43.10332" lon="17.69766">
        <ele>54.50916</ele>
        <time>2022-06-11T14:10:41.035Z</time>
      </trkpt>
      <trkpt lat="43.10343" lon="17.69769">
        <ele>54.22571</ele>
        <time>2022-06-11T14:10:44.033Z</time>
      </trkpt>
      <trkpt lat="43.10353" lon="17.69773">
        <ele>53.954049</ele>
        <time>2022-06-11T14:10:47.031Z</time>
      </trkpt>
      <trkpt lat="43.10363" lon="17.69777">
        <ele>53.69008</ele>
        <time>2022-06-11T14:10:50.031Z</time>
      </trkpt>
      <trkpt lat="43.10373" lon="17.69781">
        <ele>53.416777</ele>
        <time>2022-06-11T14:10:53.016Z</time>
      </trkpt>
      <trkpt lat="43.10382" lon="17.69785">
        <ele>53.147632</ele>
        <time>2022-06-11T14:10:56.029Z</time>
      </trkpt>
      <trkpt lat="43.10392" lon="17.6979">
        <ele>52.888834</ele>
        <time>2022-06-11T14:10:59.056Z</time>
      </trkpt>
      <trkpt lat="43.10401" lon="17.69794">
        <ele>52.637142</ele>
        <time>2022-06-11T14:11:02.024Z</time>
      </trkpt>
      <trkpt lat="43.10411" lon="17.69799">
        <ele>52.359955</ele>
        <time>2022-06-11T14:11:05.036Z</time>
      </trkpt>
      <trkpt lat="43.10421" lon="17.69803">
        <ele>52.083009</ele>
        <time>2022-06-11T14:11:08.022Z</time>
      </trkpt>
      <trkpt lat="43.1043" lon="17.69809">
        <ele>51.821259</ele>
        <time>2022-06-11T14:11:11.013Z</time>
      </trkpt>
      <trkpt lat="43.10441" lon="17.69815">
        <ele>51.520711</ele>
        <time>2022-06-11T14:11:14.018Z</time>
      </trkpt>
      <trkpt lat="43.10452" lon="17.69821">
        <ele>51.200496</ele>
        <time>2022-06-11T14:11:17.046Z</time>
      </trkpt>
      <trkpt lat="43.10463" lon="17.69825">
        <ele>50.916815</ele>
        <time>2022-06-11T14:11:20.032Z</time>
      </trkpt>
      <trkpt lat="43.10473" lon="17.69827">
        <ele>50.73299</ele>
        <time>2022-06-11T14:11:23.044Z</time>
      </trkpt>
      <trkpt lat="43.10484" lon="17.6983">
        <ele>50.738357</ele>
        <time>2022-06-11T14:11:26.028Z</time>
      </trkpt>
      <trkpt lat="43.10495" lon="17.69833">
        <ele>50.74362</ele>
        <time>2022-06-11T14:11:29.026Z</time>
      </trkpt>
      <trkpt lat="43.10506" lon="17.69835">
        <ele>50.749058</ele>
        <time>2022-06-11T14:11:32.035Z</time>
      </trkpt>
      <trkpt lat="43.10516" lon="17.69836">
        <ele>50.754097</ele>
        <time>2022-06-11T14:11:35.028Z</time>
      </trkpt>
      <trkpt lat="43.10526" lon="17.69838">
        <ele>50.758678</ele>
        <time>2022-06-11T14:11:38.024Z</time>
      </trkpt>
      <trkpt lat="43.10531" lon="17.69849">
        <ele>50.763222</ele>
        <time>2022-06-11T14:11:43.028Z</time>
      </trkpt>
      <trkpt lat="43.1053" lon="17.69862">
        <ele>50.76796</ele>
        <time>2022-06-11T14:11:47.013Z</time>
      </trkpt>
      <trkpt lat="43.10526" lon="17.69876">
        <ele>50.773036</ele>
        <time>2022-06-11T14:11:52.031Z</time>
      </trkpt>
      <trkpt lat="43.10528" lon="17.69891">
        <ele>50.778276</ele>
        <time>2022-06-11T14:11:57.040Z</time>
      </trkpt>
      <trkpt lat="43.10536" lon="17.69897">
        <ele>50.782626</ele>
        <time>2022-06-11T14:12:01.019Z</time>
      </trkpt>
      <trkpt lat="43.10544" lon="17.69903">
        <ele>50.787214</ele>
        <time>2022-06-11T14:12:07.013Z</time>
      </trkpt>
      <trkpt lat="43.10554" lon="17.69908">
        <ele>50.792159</ele>
        <time>2022-06-11T14:12:11.053Z</time>
      </trkpt>
      <trkpt lat="43.10563" lon="17.6991">
        <ele>50.796634</ele>
        <time>2022-06-11T14:12:15.024Z</time>
      </trkpt>
      <trkpt lat="43.10572" lon="17.69914">
        <ele>50.801139</ele>
        <time>2022-06-11T14:12:19.011Z</time>
      </trkpt>
      <trkpt lat="43.10582" lon="17.69917">
        <ele>50.806185</ele>
        <time>2022-06-11T14:12:23.996Z</time>
      </trkpt>
      <trkpt lat="43.10592" lon="17.69921">
        <ele>50.810934</ele>
        <time>2022-06-11T14:12:28.012Z</time>
      </trkpt>
      <trkpt lat="43.10601" lon="17.69924">
        <ele>50.815663</ele>
        <time>2022-06-11T14:12:33.009Z</time>
      </trkpt>
      <trkpt lat="43.10612" lon="17.69925">
        <ele>50.879696</ele>
        <time>2022-06-11T14:12:38.019Z</time>
      </trkpt>
      <trkpt lat="43.10623" lon="17.69928">
        <ele>50.995459</ele>
        <time>2022-06-11T14:12:44.015Z</time>
      </trkpt>
      <trkpt lat="43.10632" lon="17.69933">
        <ele>51.095003</ele>
        <time>2022-06-11T14:12:48.029Z</time>
      </trkpt>
      <trkpt lat="43.1064" lon="17.69939">
        <ele>51.192857</ele>
        <time>2022-06-11T14:12:53.015Z</time>
      </trkpt>
      <trkpt lat="43.10646" lon="17.69948">
        <ele>51.289509</ele>
        <time>2022-06-11T14:12:58.032Z</time>
      </trkpt>
      <trkpt lat="43.10654" lon="17.69957">
        <ele>51.397519</ele>
        <time>2022-06-11T14:13:03.005Z</time>
      </trkpt>
      <trkpt lat="43.10661" lon="17.69966">
        <ele>51.501099</ele>
        <time>2022-06-11T14:13:07.043Z</time>
      </trkpt>
      <trkpt lat="43.10669" lon="17.69976">
        <ele>51.608981</ele>
        <time>2022-06-11T14:13:12.065Z</time>
      </trkpt>
      <trkpt lat="43.10676" lon="17.69985">
        <ele>51.712517</ele>
        <time>2022-06-11T14:13:16.031Z</time>
      </trkpt>
      <trkpt lat="43.10684" lon="17.69995">
        <ele>51.827958</ele>
        <time>2022-06-11T14:13:20.016Z</time>
      </trkpt>
      <trkpt lat="43.10691" lon="17.70006">
        <ele>51.941927</ele>
        <time>2022-06-11T14:13:24.047Z</time>
      </trkpt>
      <trkpt lat="43.10699" lon="17.70015">
        <ele>52.055553</ele>
        <time>2022-06-11T14:13:28.003Z</time>
      </trkpt>
      <trkpt lat="43.10707" lon="17.70021">
        <ele>52.150755</ele>
        <time>2022-06-11T14:13:31.000Z</time>
      </trkpt>
      <trkpt lat="43.10717" lon="17.70025">
        <ele>52.255729</ele>
        <time>2022-06-11T14:13:34.002Z</time>
      </trkpt>
      <trkpt lat="43.10726" lon="17.70024">
        <ele>52.354799</ele>
        <time>2022-06-11T14:13:37.015Z</time>
      </trkpt>
      <trkpt lat="43.10736" lon="17.70024">
        <ele>52.457054</ele>
        <time>2022-06-11T14:13:40.004Z</time>
      </trkpt>
      <trkpt lat="43.10747" lon="17.70022">
        <ele>52.571625</ele>
        <time>2022-06-11T14:13:42.998Z</time>
      </trkpt>
      <trkpt lat="43.10756" lon="17.70021">
        <ele>52.671765</ele>
        <time>2022-06-11T14:13:45.997Z</time>
      </trkpt>
      <trkpt lat="43.10768" lon="17.70021">
        <ele>52.931566</ele>
        <time>2022-06-11T14:13:49.997Z</time>
      </trkpt>
      <trkpt lat="43.10779" lon="17.70023">
        <ele>53.290072</ele>
        <time>2022-06-11T14:13:54.001Z</time>
      </trkpt>
      <trkpt lat="43.10791" lon="17.70028">
        <ele>53.644623</ele>
        <time>2022-06-11T14:13:57.995Z</time>
      </trkpt>
      <trkpt lat="43.108" lon="17.70033">
        <ele>53.957661</ele>
        <time>2022-06-11T14:14:00.997Z</time>
      </trkpt>
      <trkpt lat="43.10811" lon="17.70039">
        <ele>54.307167</ele>
        <time>2022-06-11T14:14:04.993Z</time>
      </trkpt>
      <trkpt lat="43.10819" lon="17.70045">
        <ele>54.579984</ele>
        <time>2022-06-11T14:14:08.004Z</time>
      </trkpt>
      <trkpt lat="43.10828" lon="17.70055">
        <ele>54.927392</ele>
        <time>2022-06-11T14:14:12.010Z</time>
      </trkpt>
      <trkpt lat="43.10835" lon="17.70066">
        <ele>55.257639</ele>
        <time>2022-06-11T14:14:16.001Z</time>
      </trkpt>
      <trkpt lat="43.10842" lon="17.70077">
        <ele>55.585567</ele>
        <time>2022-06-11T14:14:20.014Z</time>
      </trkpt>
      <trkpt lat="43.1085" lon="17.70089">
        <ele>55.94262</ele>
        <time>2022-06-11T14:14:24.012Z</time>
      </trkpt>
      <trkpt lat="43.10856" lon="17.70099">
        <ele>56.213334</ele>
        <time>2022-06-11T14:14:27.004Z</time>
      </trkpt>
      <trkpt lat="43.10862" lon="17.70112">
        <ele>56.545728</ele>
        <time>2022-06-11T14:14:31.001Z</time>
      </trkpt>
      <trkpt lat="43.1087" lon="17.70118">
        <ele>56.828241</ele>
        <time>2022-06-11T14:14:34.000Z</time>
      </trkpt>
      <trkpt lat="43.10879" lon="17.70121">
        <ele>57.112669</ele>
        <time>2022-06-11T14:14:37.003Z</time>
      </trkpt>
      <trkpt lat="43.10889" lon="17.70123">
        <ele>57.411521</ele>
        <time>2022-06-11T14:14:40.036Z</time>
      </trkpt>
      <trkpt lat="43.10899" lon="17.70127">
        <ele>57.738728</ele>
        <time>2022-06-11T14:14:43.994Z</time>
      </trkpt>
      <trkpt lat="43.10898" lon="17.70143">
        <ele>58.07592</ele>
        <time>2022-06-11T14:14:48.999Z</time>
      </trkpt>
      <trkpt lat="43.10895" lon="17.70156">
        <ele>58.439207</ele>
        <time>2022-06-11T14:14:52.002Z</time>
      </trkpt>
      <trkpt lat="43.10891" lon="17.70169">
        <ele>58.795255</ele>
        <time>2022-06-11T14:14:54.986Z</time>
      </trkpt>
      <trkpt lat="43.10888" lon="17.70183">
        <ele>59.166</ele>
        <time>2022-06-11T14:14:57.992Z</time>
      </trkpt>
      <trkpt lat="43.10885" lon="17.70196">
        <ele>59.527821</ele>
        <time>2022-06-11T14:15:00.995Z</time>
      </trkpt>
      <trkpt lat="43.10883" lon="17.70209">
        <ele>59.866942</ele>
        <time>2022-06-11T14:15:04.005Z</time>
      </trkpt>
      <trkpt lat="43.10881" lon="17.70224">
        <ele>60.246572</ele>
        <time>2022-06-11T14:15:06.999Z</time>
      </trkpt>
      <trkpt lat="43.10881" lon="17.70242">
        <ele>60.716589</ele>
        <time>2022-06-11T14:15:10.010Z</time>
      </trkpt>
      <trkpt lat="43.10879" lon="17.70257">
        <ele>61.108902</ele>
        <time>2022-06-11T14:15:12.997Z</time>
      </trkpt>
      <trkpt lat="43.1088" lon="17.70273">
        <ele>61.502775</ele>
        <time>2022-06-11T14:15:15.989Z</time>
      </trkpt>
      <trkpt lat="43.10883" lon="17.70286">
        <ele>61.871066</ele>
        <time>2022-06-11T14:15:19.000Z</time>
      </trkpt>
      <trkpt lat="43.10886" lon="17.703">
        <ele>62.236373</ele>
        <time>2022-06-11T14:15:21.999Z</time>
      </trkpt>
      <trkpt lat="43.10886" lon="17.70314">
        <ele>62.590722</ele>
        <time>2022-06-11T14:15:24.996Z</time>
      </trkpt>
      <trkpt lat="43.10878" lon="17.70323">
        <ele>62.950488</ele>
        <time>2022-06-11T14:15:28.994Z</time>
      </trkpt>
      <trkpt lat="43.10869" lon="17.70319">
        <ele>63.289708</ele>
        <time>2022-06-11T14:15:31.995Z</time>
      </trkpt>
      <trkpt lat="43.10858" lon="17.70317">
        <ele>63.658092</ele>
        <time>2022-06-11T14:15:35.025Z</time>
      </trkpt>
      <trkpt lat="43.10849" lon="17.70317">
        <ele>63.989067</ele>
        <time>2022-06-11T14:15:37.994Z</time>
      </trkpt>
      <trkpt lat="43.1084" lon="17.70315">
        <ele>64.309351</ele>
        <time>2022-06-11T14:15:40.991Z</time>
      </trkpt>
      <trkpt lat="43.10831" lon="17.70311">
        <ele>64.458916</ele>
        <time>2022-06-11T14:15:43.993Z</time>
      </trkpt>
      <trkpt lat="43.10822" lon="17.70305">
        <ele>64.458916</ele>
        <time>2022-06-11T14:15:47.002Z</time>
      </trkpt>
      <trkpt lat="43.10812" lon="17.70298">
        <ele>64.458916</ele>
        <time>2022-06-11T14:15:49.995Z</time>
      </trkpt>
      <trkpt lat="43.10801" lon="17.70291">
        <ele>64.458916</ele>
        <time>2022-06-11T14:15:53.003Z</time>
      </trkpt>
      <trkpt lat="43.10791" lon="17.70284">
        <ele>64.458916</ele>
        <time>2022-06-11T14:15:56.008Z</time>
      </trkpt>
      <trkpt lat="43.1078" lon="17.70283">
        <ele>64.458916</ele>
        <time>2022-06-11T14:15:59.005Z</time>
      </trkpt>
      <trkpt lat="43.10775" lon="17.70295">
        <ele>64.458916</ele>
        <time>2022-06-11T14:16:02.988Z</time>
      </trkpt>
      <trkpt lat="43.10772" lon="17.70309">
        <ele>64.458916</ele>
        <time>2022-06-11T14:16:07.996Z</time>
      </trkpt>
      <trkpt lat="43.10773" lon="17.70328">
        <ele>64.458916</ele>
        <time>2022-06-11T14:16:58.023Z</time>
      </trkpt>
      <trkpt lat="43.10773" lon="17.70341">
        <ele>64.458916</ele>
        <time>2022-06-11T14:17:07.024Z</time>
      </trkpt>
      <trkpt lat="43.10753" lon="17.70341">
        <ele>64.458916</ele>
        <time>2022-06-11T14:19:03.996Z</time>
      </trkpt>
      <trkpt lat="43.10743" lon="17.70338">
        <ele>64.458916</ele>
        <time>2022-06-11T14:19:09.991Z</time>
      </trkpt>
      <trkpt lat="43.10727" lon="17.70299">
        <ele>64.458916</ele>
        <time>2022-06-11T14:19:50.030Z</time>
      </trkpt>
      <trkpt lat="43.10723" lon="17.703">
        <ele>64.458916</ele>
        <time>2022-06-11T14:20:37.852Z</time>
      </trkpt>
    </trkseg>
  </trk>
</gpx>